<?xml version="1.0" encoding="UTF-8" standalone="no" ?>
<gpx xmlns="http://www.topografix.com/GPX/1/1" xmlns:xsi="http://www.w3.org/2001/XMLSchema-instance" xsi:schemaLocation="http://www.topografix.com/GPX/1/1 http://www.topografix.com/GPX/1/1/gpx.xsd" version="1.1" creator="VisuGPX - https://www.visugpx.com">
  <metadata>
    <name>Rando VTT La Crampe 2024, Fontaine-le-comte</name>
    <desc><![CDATA[Belle rando!]]></desc>
  </metadata>
  <trk>
    <name><![CDATA[Rando VTT La Crampe 2024, Fontaine-le-comte_1]]></name>
    <trkseg>
      <trkpt lat="46.5268" lon="0.26586">
        <ele>120</ele>
        <time>2024-09-22T06:22:29Z</time>
      </trkpt>
      <trkpt lat="46.5268" lon="0.26587">
        <ele>120</ele>
        <time>2024-09-22T06:22:44Z</time>
      </trkpt>
      <trkpt lat="46.52681" lon="0.26586">
        <ele>120</ele>
        <time>2024-09-22T06:23:01Z</time>
      </trkpt>
      <trkpt lat="46.5268" lon="0.26589">
        <ele>120</ele>
        <time>2024-09-22T06:23:13Z</time>
      </trkpt>
      <trkpt lat="46.5268" lon="0.26591">
        <ele>120</ele>
        <time>2024-09-22T06:23:14Z</time>
      </trkpt>
      <trkpt lat="46.52681" lon="0.26606">
        <ele>120</ele>
        <time>2024-09-22T06:23:20Z</time>
      </trkpt>
      <trkpt lat="46.52681" lon="0.26626">
        <ele>119.8</ele>
        <time>2024-09-22T06:23:26Z</time>
      </trkpt>
      <trkpt lat="46.52681" lon="0.26629">
        <ele>120</ele>
        <time>2024-09-22T06:23:27Z</time>
      </trkpt>
      <trkpt lat="46.52679" lon="0.26653">
        <ele>120.2</ele>
        <time>2024-09-22T06:23:36Z</time>
      </trkpt>
      <trkpt lat="46.52674" lon="0.2667">
        <ele>120.2</ele>
        <time>2024-09-22T06:23:42Z</time>
      </trkpt>
      <trkpt lat="46.52673" lon="0.26689">
        <ele>121.2</ele>
        <time>2024-09-22T06:23:48Z</time>
      </trkpt>
      <trkpt lat="46.52673" lon="0.26692">
        <ele>121.4</ele>
        <time>2024-09-22T06:23:49Z</time>
      </trkpt>
      <trkpt lat="46.52674" lon="0.26706">
        <ele>122.2</ele>
        <time>2024-09-22T06:23:54Z</time>
      </trkpt>
      <trkpt lat="46.52674" lon="0.26712">
        <ele>122.4</ele>
        <time>2024-09-22T06:23:56Z</time>
      </trkpt>
      <trkpt lat="46.52674" lon="0.26726">
        <ele>123.2</ele>
        <time>2024-09-22T06:24:00Z</time>
      </trkpt>
      <trkpt lat="46.52675" lon="0.26731">
        <ele>123.8</ele>
        <time>2024-09-22T06:24:02Z</time>
      </trkpt>
      <trkpt lat="46.52676" lon="0.26738">
        <ele>124.6</ele>
        <time>2024-09-22T06:24:05Z</time>
      </trkpt>
      <trkpt lat="46.5268" lon="0.26749">
        <ele>125.6</ele>
        <time>2024-09-22T06:24:09Z</time>
      </trkpt>
      <trkpt lat="46.52681" lon="0.26752">
        <ele>125.8</ele>
        <time>2024-09-22T06:24:10Z</time>
      </trkpt>
      <trkpt lat="46.52683" lon="0.2676">
        <ele>126.6</ele>
        <time>2024-09-22T06:24:13Z</time>
      </trkpt>
      <trkpt lat="46.52689" lon="0.26771">
        <ele>127.6</ele>
        <time>2024-09-22T06:24:18Z</time>
      </trkpt>
      <trkpt lat="46.5269" lon="0.26774">
        <ele>127.8</ele>
        <time>2024-09-22T06:24:19Z</time>
      </trkpt>
      <trkpt lat="46.52696" lon="0.26786">
        <ele>129</ele>
        <time>2024-09-22T06:24:24Z</time>
      </trkpt>
      <trkpt lat="46.52697" lon="0.26788">
        <ele>129.2</ele>
        <time>2024-09-22T06:24:25Z</time>
      </trkpt>
      <trkpt lat="46.527" lon="0.26797">
        <ele>130</ele>
        <time>2024-09-22T06:24:28Z</time>
      </trkpt>
      <trkpt lat="46.52704" lon="0.26802">
        <ele>130.8</ele>
        <time>2024-09-22T06:24:31Z</time>
      </trkpt>
      <trkpt lat="46.52705" lon="0.26803">
        <ele>131.2</ele>
        <time>2024-09-22T06:24:33Z</time>
      </trkpt>
      <trkpt lat="46.52707" lon="0.26802">
        <ele>131.2</ele>
        <time>2024-09-22T06:24:35Z</time>
      </trkpt>
      <trkpt lat="46.52713" lon="0.26803">
        <ele>130.8</ele>
        <time>2024-09-22T06:24:37Z</time>
      </trkpt>
      <trkpt lat="46.5272" lon="0.26805">
        <ele>129.8</ele>
        <time>2024-09-22T06:24:39Z</time>
      </trkpt>
      <trkpt lat="46.5273" lon="0.26812">
        <ele>129.2</ele>
        <time>2024-09-22T06:24:42Z</time>
      </trkpt>
      <trkpt lat="46.52736" lon="0.26813">
        <ele>129</ele>
        <time>2024-09-22T06:24:44Z</time>
      </trkpt>
      <trkpt lat="46.52739" lon="0.26815">
        <ele>129</ele>
        <time>2024-09-22T06:24:45Z</time>
      </trkpt>
      <trkpt lat="46.52743" lon="0.26819">
        <ele>128.6</ele>
        <time>2024-09-22T06:24:47Z</time>
      </trkpt>
      <trkpt lat="46.52746" lon="0.26821">
        <ele>128.6</ele>
        <time>2024-09-22T06:24:48Z</time>
      </trkpt>
      <trkpt lat="46.52761" lon="0.26836">
        <ele>128.8</ele>
        <time>2024-09-22T06:24:53Z</time>
      </trkpt>
      <trkpt lat="46.52776" lon="0.26847">
        <ele>128.8</ele>
        <time>2024-09-22T06:24:58Z</time>
      </trkpt>
      <trkpt lat="46.52779" lon="0.26849">
        <ele>129</ele>
        <time>2024-09-22T06:24:59Z</time>
      </trkpt>
      <trkpt lat="46.52785" lon="0.26854">
        <ele>129</ele>
        <time>2024-09-22T06:25:01Z</time>
      </trkpt>
      <trkpt lat="46.52792" lon="0.26861">
        <ele>128.4</ele>
        <time>2024-09-22T06:25:04Z</time>
      </trkpt>
      <trkpt lat="46.52795" lon="0.26865">
        <ele>128.4</ele>
        <time>2024-09-22T06:25:05Z</time>
      </trkpt>
      <trkpt lat="46.52804" lon="0.26874">
        <ele>128.2</ele>
        <time>2024-09-22T06:25:08Z</time>
      </trkpt>
      <trkpt lat="46.52821" lon="0.26887">
        <ele>128.2</ele>
        <time>2024-09-22T06:25:12Z</time>
      </trkpt>
      <trkpt lat="46.52838" lon="0.26906">
        <ele>128</ele>
        <time>2024-09-22T06:25:17Z</time>
      </trkpt>
      <trkpt lat="46.52845" lon="0.26912">
        <ele>127.6</ele>
        <time>2024-09-22T06:25:19Z</time>
      </trkpt>
      <trkpt lat="46.52849" lon="0.26914">
        <ele>127.6</ele>
        <time>2024-09-22T06:25:20Z</time>
      </trkpt>
      <trkpt lat="46.52852" lon="0.26919">
        <ele>127.4</ele>
        <time>2024-09-22T06:25:21Z</time>
      </trkpt>
      <trkpt lat="46.52866" lon="0.2694">
        <ele>127</ele>
        <time>2024-09-22T06:25:25Z</time>
      </trkpt>
      <trkpt lat="46.52874" lon="0.26954">
        <ele>126.4</ele>
        <time>2024-09-22T06:25:28Z</time>
      </trkpt>
      <trkpt lat="46.52883" lon="0.26964">
        <ele>125.8</ele>
        <time>2024-09-22T06:25:31Z</time>
      </trkpt>
      <trkpt lat="46.52894" lon="0.26973">
        <ele>125.6</ele>
        <time>2024-09-22T06:25:34Z</time>
      </trkpt>
      <trkpt lat="46.52905" lon="0.2698">
        <ele>125.2</ele>
        <time>2024-09-22T06:25:37Z</time>
      </trkpt>
      <trkpt lat="46.52911" lon="0.26984">
        <ele>125</ele>
        <time>2024-09-22T06:25:39Z</time>
      </trkpt>
      <trkpt lat="46.52914" lon="0.26988">
        <ele>124.8</ele>
        <time>2024-09-22T06:25:40Z</time>
      </trkpt>
      <trkpt lat="46.52926" lon="0.27006">
        <ele>124.2</ele>
        <time>2024-09-22T06:25:44Z</time>
      </trkpt>
      <trkpt lat="46.52929" lon="0.27008">
        <ele>124.2</ele>
        <time>2024-09-22T06:25:45Z</time>
      </trkpt>
      <trkpt lat="46.52938" lon="0.27014">
        <ele>123.6</ele>
        <time>2024-09-22T06:25:48Z</time>
      </trkpt>
      <trkpt lat="46.5294" lon="0.27015">
        <ele>123.2</ele>
        <time>2024-09-22T06:25:49Z</time>
      </trkpt>
      <trkpt lat="46.52945" lon="0.27019">
        <ele>122.4</ele>
        <time>2024-09-22T06:25:51Z</time>
      </trkpt>
      <trkpt lat="46.52949" lon="0.27021">
        <ele>122.2</ele>
        <time>2024-09-22T06:25:52Z</time>
      </trkpt>
      <trkpt lat="46.52953" lon="0.27024">
        <ele>122</ele>
        <time>2024-09-22T06:25:53Z</time>
      </trkpt>
      <trkpt lat="46.52972" lon="0.27036">
        <ele>122</ele>
        <time>2024-09-22T06:25:57Z</time>
      </trkpt>
      <trkpt lat="46.52996" lon="0.27051">
        <ele>122</ele>
        <time>2024-09-22T06:26:03Z</time>
      </trkpt>
      <trkpt lat="46.53005" lon="0.27061">
        <ele>121.6</ele>
        <time>2024-09-22T06:26:07Z</time>
      </trkpt>
      <trkpt lat="46.53008" lon="0.27063">
        <ele>121.6</ele>
        <time>2024-09-22T06:26:08Z</time>
      </trkpt>
      <trkpt lat="46.53024" lon="0.27078">
        <ele>121.8</ele>
        <time>2024-09-22T06:26:14Z</time>
      </trkpt>
      <trkpt lat="46.53042" lon="0.2709">
        <ele>122.4</ele>
        <time>2024-09-22T06:26:20Z</time>
      </trkpt>
      <trkpt lat="46.53062" lon="0.27103">
        <ele>122.8</ele>
        <time>2024-09-22T06:26:25Z</time>
      </trkpt>
      <trkpt lat="46.53074" lon="0.27111">
        <ele>122.2</ele>
        <time>2024-09-22T06:26:29Z</time>
      </trkpt>
      <trkpt lat="46.53083" lon="0.27118">
        <ele>122.2</ele>
        <time>2024-09-22T06:26:33Z</time>
      </trkpt>
      <trkpt lat="46.53091" lon="0.2713">
        <ele>122.4</ele>
        <time>2024-09-22T06:26:37Z</time>
      </trkpt>
      <trkpt lat="46.5311" lon="0.27144">
        <ele>122.2</ele>
        <time>2024-09-22T06:26:43Z</time>
      </trkpt>
      <trkpt lat="46.53131" lon="0.27157">
        <ele>121.6</ele>
        <time>2024-09-22T06:26:49Z</time>
      </trkpt>
      <trkpt lat="46.53135" lon="0.2716">
        <ele>121.6</ele>
        <time>2024-09-22T06:26:50Z</time>
      </trkpt>
      <trkpt lat="46.53142" lon="0.27167">
        <ele>121.4</ele>
        <time>2024-09-22T06:26:52Z</time>
      </trkpt>
      <trkpt lat="46.53144" lon="0.27172">
        <ele>121.4</ele>
        <time>2024-09-22T06:26:53Z</time>
      </trkpt>
      <trkpt lat="46.53157" lon="0.27187">
        <ele>121</ele>
        <time>2024-09-22T06:26:58Z</time>
      </trkpt>
      <trkpt lat="46.53159" lon="0.27189">
        <ele>121</ele>
        <time>2024-09-22T06:26:59Z</time>
      </trkpt>
      <trkpt lat="46.53173" lon="0.27212">
        <ele>120.8</ele>
        <time>2024-09-22T06:27:05Z</time>
      </trkpt>
      <trkpt lat="46.53189" lon="0.27234">
        <ele>121</ele>
        <time>2024-09-22T06:27:10Z</time>
      </trkpt>
      <trkpt lat="46.53203" lon="0.27256">
        <ele>121.4</ele>
        <time>2024-09-22T06:27:16Z</time>
      </trkpt>
      <trkpt lat="46.53214" lon="0.2727">
        <ele>121.2</ele>
        <time>2024-09-22T06:27:20Z</time>
      </trkpt>
      <trkpt lat="46.53215" lon="0.27273">
        <ele>121.2</ele>
        <time>2024-09-22T06:27:21Z</time>
      </trkpt>
      <trkpt lat="46.5322" lon="0.27284">
        <ele>122</ele>
        <time>2024-09-22T06:27:25Z</time>
      </trkpt>
      <trkpt lat="46.53221" lon="0.27286">
        <ele>122.4</ele>
        <time>2024-09-22T06:27:26Z</time>
      </trkpt>
      <trkpt lat="46.53223" lon="0.27289">
        <ele>123</ele>
        <time>2024-09-22T06:27:27Z</time>
      </trkpt>
      <trkpt lat="46.53225" lon="0.27293">
        <ele>123.4</ele>
        <time>2024-09-22T06:27:28Z</time>
      </trkpt>
      <trkpt lat="46.53234" lon="0.27309">
        <ele>124.8</ele>
        <time>2024-09-22T06:27:33Z</time>
      </trkpt>
      <trkpt lat="46.53244" lon="0.27333">
        <ele>125.2</ele>
        <time>2024-09-22T06:27:40Z</time>
      </trkpt>
      <trkpt lat="46.53254" lon="0.27346">
        <ele>124.4</ele>
        <time>2024-09-22T06:27:45Z</time>
      </trkpt>
      <trkpt lat="46.53259" lon="0.2735">
        <ele>124.2</ele>
        <time>2024-09-22T06:27:47Z</time>
      </trkpt>
      <trkpt lat="46.53267" lon="0.27355">
        <ele>124</ele>
        <time>2024-09-22T06:27:50Z</time>
      </trkpt>
      <trkpt lat="46.53269" lon="0.27356">
        <ele>123.6</ele>
        <time>2024-09-22T06:27:51Z</time>
      </trkpt>
      <trkpt lat="46.53272" lon="0.27359">
        <ele>122.8</ele>
        <time>2024-09-22T06:27:53Z</time>
      </trkpt>
      <trkpt lat="46.53274" lon="0.27361">
        <ele>122.2</ele>
        <time>2024-09-22T06:27:54Z</time>
      </trkpt>
      <trkpt lat="46.5328" lon="0.27364">
        <ele>121.4</ele>
        <time>2024-09-22T06:27:56Z</time>
      </trkpt>
      <trkpt lat="46.53284" lon="0.27366">
        <ele>121</ele>
        <time>2024-09-22T06:27:57Z</time>
      </trkpt>
      <trkpt lat="46.53292" lon="0.27368">
        <ele>120.4</ele>
        <time>2024-09-22T06:27:59Z</time>
      </trkpt>
      <trkpt lat="46.53298" lon="0.27369">
        <ele>119.4</ele>
        <time>2024-09-22T06:28:01Z</time>
      </trkpt>
      <trkpt lat="46.53304" lon="0.27374">
        <ele>118.2</ele>
        <time>2024-09-22T06:28:03Z</time>
      </trkpt>
      <trkpt lat="46.53308" lon="0.27382">
        <ele>118</ele>
        <time>2024-09-22T06:28:05Z</time>
      </trkpt>
      <trkpt lat="46.53313" lon="0.27396">
        <ele>119.2</ele>
        <time>2024-09-22T06:28:10Z</time>
      </trkpt>
      <trkpt lat="46.53314" lon="0.27398">
        <ele>120</ele>
        <time>2024-09-22T06:28:11Z</time>
      </trkpt>
      <trkpt lat="46.53316" lon="0.274">
        <ele>120.6</ele>
        <time>2024-09-22T06:28:12Z</time>
      </trkpt>
      <trkpt lat="46.53315" lon="0.27407">
        <ele>121.8</ele>
        <time>2024-09-22T06:28:15Z</time>
      </trkpt>
      <trkpt lat="46.53315" lon="0.27409">
        <ele>122.4</ele>
        <time>2024-09-22T06:28:16Z</time>
      </trkpt>
      <trkpt lat="46.53316" lon="0.27412">
        <ele>123</ele>
        <time>2024-09-22T06:28:18Z</time>
      </trkpt>
      <trkpt lat="46.53318" lon="0.27419">
        <ele>124.2</ele>
        <time>2024-09-22T06:28:21Z</time>
      </trkpt>
      <trkpt lat="46.53315" lon="0.27432">
        <ele>125.4</ele>
        <time>2024-09-22T06:28:24Z</time>
      </trkpt>
      <trkpt lat="46.53314" lon="0.27449">
        <ele>126.4</ele>
        <time>2024-09-22T06:28:28Z</time>
      </trkpt>
      <trkpt lat="46.53313" lon="0.27456">
        <ele>127.2</ele>
        <time>2024-09-22T06:28:30Z</time>
      </trkpt>
      <trkpt lat="46.53313" lon="0.27461">
        <ele>127.8</ele>
        <time>2024-09-22T06:28:31Z</time>
      </trkpt>
      <trkpt lat="46.53313" lon="0.27474">
        <ele>128.8</ele>
        <time>2024-09-22T06:28:35Z</time>
      </trkpt>
      <trkpt lat="46.53312" lon="0.27478">
        <ele>129</ele>
        <time>2024-09-22T06:28:36Z</time>
      </trkpt>
      <trkpt lat="46.53313" lon="0.27491">
        <ele>130</ele>
        <time>2024-09-22T06:28:40Z</time>
      </trkpt>
      <trkpt lat="46.53315" lon="0.275">
        <ele>130.8</ele>
        <time>2024-09-22T06:28:43Z</time>
      </trkpt>
      <trkpt lat="46.53316" lon="0.27504">
        <ele>131</ele>
        <time>2024-09-22T06:28:44Z</time>
      </trkpt>
      <trkpt lat="46.5332" lon="0.27527">
        <ele>132.4</ele>
        <time>2024-09-22T06:28:51Z</time>
      </trkpt>
      <trkpt lat="46.53322" lon="0.27538">
        <ele>133.4</ele>
        <time>2024-09-22T06:28:54Z</time>
      </trkpt>
      <trkpt lat="46.53324" lon="0.27554">
        <ele>134.6</ele>
        <time>2024-09-22T06:28:59Z</time>
      </trkpt>
      <trkpt lat="46.53329" lon="0.2758">
        <ele>135.4</ele>
        <time>2024-09-22T06:29:06Z</time>
      </trkpt>
      <trkpt lat="46.5333" lon="0.27584">
        <ele>135.6</ele>
        <time>2024-09-22T06:29:07Z</time>
      </trkpt>
      <trkpt lat="46.53333" lon="0.27605">
        <ele>136.4</ele>
        <time>2024-09-22T06:29:13Z</time>
      </trkpt>
      <trkpt lat="46.53342" lon="0.2762">
        <ele>136.4</ele>
        <time>2024-09-22T06:29:18Z</time>
      </trkpt>
      <trkpt lat="46.53354" lon="0.27631">
        <ele>134.4</ele>
        <time>2024-09-22T06:29:22Z</time>
      </trkpt>
      <trkpt lat="46.53354" lon="0.27631">
        <ele>132.4</ele>
        <time>2024-09-22T06:29:23Z</time>
      </trkpt>
      <trkpt lat="46.53367" lon="0.27643">
        <ele>131.6</ele>
        <time>2024-09-22T06:29:25Z</time>
      </trkpt>
      <trkpt lat="46.53374" lon="0.2765">
        <ele>130.8</ele>
        <time>2024-09-22T06:29:26Z</time>
      </trkpt>
      <trkpt lat="46.5339" lon="0.27668">
        <ele>129.4</ele>
        <time>2024-09-22T06:29:29Z</time>
      </trkpt>
      <trkpt lat="46.53395" lon="0.27673">
        <ele>129.2</ele>
        <time>2024-09-22T06:29:30Z</time>
      </trkpt>
      <trkpt lat="46.53401" lon="0.2768">
        <ele>128.8</ele>
        <time>2024-09-22T06:29:31Z</time>
      </trkpt>
      <trkpt lat="46.53406" lon="0.27686">
        <ele>128.2</ele>
        <time>2024-09-22T06:29:32Z</time>
      </trkpt>
      <trkpt lat="46.53417" lon="0.27698">
        <ele>127.2</ele>
        <time>2024-09-22T06:29:34Z</time>
      </trkpt>
      <trkpt lat="46.53421" lon="0.27705">
        <ele>126.4</ele>
        <time>2024-09-22T06:29:35Z</time>
      </trkpt>
      <trkpt lat="46.53427" lon="0.27713">
        <ele>126.2</ele>
        <time>2024-09-22T06:29:36Z</time>
      </trkpt>
      <trkpt lat="46.53433" lon="0.27718">
        <ele>125.8</ele>
        <time>2024-09-22T06:29:37Z</time>
      </trkpt>
      <trkpt lat="46.53445" lon="0.27735">
        <ele>124.8</ele>
        <time>2024-09-22T06:29:39Z</time>
      </trkpt>
      <trkpt lat="46.53449" lon="0.2774">
        <ele>124.4</ele>
        <time>2024-09-22T06:29:40Z</time>
      </trkpt>
      <trkpt lat="46.53454" lon="0.27748">
        <ele>123.6</ele>
        <time>2024-09-22T06:29:41Z</time>
      </trkpt>
      <trkpt lat="46.53457" lon="0.27753">
        <ele>123.2</ele>
        <time>2024-09-22T06:29:42Z</time>
      </trkpt>
      <trkpt lat="46.53459" lon="0.2776">
        <ele>122.4</ele>
        <time>2024-09-22T06:29:44Z</time>
      </trkpt>
      <trkpt lat="46.5346" lon="0.27768">
        <ele>122.2</ele>
        <time>2024-09-22T06:29:46Z</time>
      </trkpt>
      <trkpt lat="46.53464" lon="0.27785">
        <ele>122.2</ele>
        <time>2024-09-22T06:29:49Z</time>
      </trkpt>
      <trkpt lat="46.53464" lon="0.2781">
        <ele>123.4</ele>
        <time>2024-09-22T06:29:55Z</time>
      </trkpt>
      <trkpt lat="46.53464" lon="0.27817">
        <ele>123.8</ele>
        <time>2024-09-22T06:29:57Z</time>
      </trkpt>
      <trkpt lat="46.53467" lon="0.27833">
        <ele>124.8</ele>
        <time>2024-09-22T06:30:01Z</time>
      </trkpt>
      <trkpt lat="46.53467" lon="0.27837">
        <ele>125.4</ele>
        <time>2024-09-22T06:30:02Z</time>
      </trkpt>
      <trkpt lat="46.53466" lon="0.27839">
        <ele>126</ele>
        <time>2024-09-22T06:30:03Z</time>
      </trkpt>
      <trkpt lat="46.53467" lon="0.27847">
        <ele>127</ele>
        <time>2024-09-22T06:30:06Z</time>
      </trkpt>
      <trkpt lat="46.53466" lon="0.2785">
        <ele>127.4</ele>
        <time>2024-09-22T06:30:07Z</time>
      </trkpt>
      <trkpt lat="46.53466" lon="0.27857">
        <ele>128.4</ele>
        <time>2024-09-22T06:30:09Z</time>
      </trkpt>
      <trkpt lat="46.53467" lon="0.27861">
        <ele>128.6</ele>
        <time>2024-09-22T06:30:10Z</time>
      </trkpt>
      <trkpt lat="46.53466" lon="0.27873">
        <ele>129.6</ele>
        <time>2024-09-22T06:30:13Z</time>
      </trkpt>
      <trkpt lat="46.53463" lon="0.27884">
        <ele>130.8</ele>
        <time>2024-09-22T06:30:16Z</time>
      </trkpt>
      <trkpt lat="46.53454" lon="0.27898">
        <ele>132</ele>
        <time>2024-09-22T06:30:20Z</time>
      </trkpt>
      <trkpt lat="46.53446" lon="0.27912">
        <ele>132.8</ele>
        <time>2024-09-22T06:30:24Z</time>
      </trkpt>
      <trkpt lat="46.53443" lon="0.27916">
        <ele>133</ele>
        <time>2024-09-22T06:30:25Z</time>
      </trkpt>
      <trkpt lat="46.53425" lon="0.27933">
        <ele>133</ele>
        <time>2024-09-22T06:30:30Z</time>
      </trkpt>
      <trkpt lat="46.53417" lon="0.27951">
        <ele>132.6</ele>
        <time>2024-09-22T06:30:34Z</time>
      </trkpt>
      <trkpt lat="46.53422" lon="0.27968">
        <ele>132.4</ele>
        <time>2024-09-22T06:30:38Z</time>
      </trkpt>
      <trkpt lat="46.53424" lon="0.27995">
        <ele>132.6</ele>
        <time>2024-09-22T06:30:43Z</time>
      </trkpt>
      <trkpt lat="46.53427" lon="0.28031">
        <ele>132.2</ele>
        <time>2024-09-22T06:30:49Z</time>
      </trkpt>
      <trkpt lat="46.53429" lon="0.28045">
        <ele>132</ele>
        <time>2024-09-22T06:30:51Z</time>
      </trkpt>
      <trkpt lat="46.53432" lon="0.28067">
        <ele>131.4</ele>
        <time>2024-09-22T06:30:54Z</time>
      </trkpt>
      <trkpt lat="46.53437" lon="0.28092">
        <ele>130.4</ele>
        <time>2024-09-22T06:30:57Z</time>
      </trkpt>
      <trkpt lat="46.5344" lon="0.2811">
        <ele>129.8</ele>
        <time>2024-09-22T06:30:59Z</time>
      </trkpt>
      <trkpt lat="46.53443" lon="0.28128">
        <ele>129.2</ele>
        <time>2024-09-22T06:31:01Z</time>
      </trkpt>
      <trkpt lat="46.53445" lon="0.28136">
        <ele>128.2</ele>
        <time>2024-09-22T06:31:02Z</time>
      </trkpt>
      <trkpt lat="46.53448" lon="0.2815">
        <ele>126.8</ele>
        <time>2024-09-22T06:31:04Z</time>
      </trkpt>
      <trkpt lat="46.53451" lon="0.28161">
        <ele>125.8</ele>
        <time>2024-09-22T06:31:06Z</time>
      </trkpt>
      <trkpt lat="46.53453" lon="0.28168">
        <ele>125.6</ele>
        <time>2024-09-22T06:31:07Z</time>
      </trkpt>
      <trkpt lat="46.53455" lon="0.28171">
        <ele>125.4</ele>
        <time>2024-09-22T06:31:08Z</time>
      </trkpt>
      <trkpt lat="46.53463" lon="0.28196">
        <ele>124.6</ele>
        <time>2024-09-22T06:31:12Z</time>
      </trkpt>
      <trkpt lat="46.53472" lon="0.28239">
        <ele>123.4</ele>
        <time>2024-09-22T06:31:17Z</time>
      </trkpt>
      <trkpt lat="46.53473" lon="0.28248">
        <ele>123.2</ele>
        <time>2024-09-22T06:31:18Z</time>
      </trkpt>
      <trkpt lat="46.53476" lon="0.28258">
        <ele>123.2</ele>
        <time>2024-09-22T06:31:19Z</time>
      </trkpt>
      <trkpt lat="46.53482" lon="0.28275">
        <ele>122.6</ele>
        <time>2024-09-22T06:31:21Z</time>
      </trkpt>
      <trkpt lat="46.53486" lon="0.28283">
        <ele>122.4</ele>
        <time>2024-09-22T06:31:22Z</time>
      </trkpt>
      <trkpt lat="46.53493" lon="0.28289">
        <ele>122</ele>
        <time>2024-09-22T06:31:23Z</time>
      </trkpt>
      <trkpt lat="46.5351" lon="0.28308">
        <ele>120.8</ele>
        <time>2024-09-22T06:31:26Z</time>
      </trkpt>
      <trkpt lat="46.5351" lon="0.28308">
        <ele>119.8</ele>
        <time>2024-09-22T06:31:27Z</time>
      </trkpt>
      <trkpt lat="46.53522" lon="0.28319">
        <ele>119.8</ele>
        <time>2024-09-22T06:31:28Z</time>
      </trkpt>
      <trkpt lat="46.53528" lon="0.28323">
        <ele>119.4</ele>
        <time>2024-09-22T06:31:29Z</time>
      </trkpt>
      <trkpt lat="46.53534" lon="0.28327">
        <ele>119.2</ele>
        <time>2024-09-22T06:31:30Z</time>
      </trkpt>
      <trkpt lat="46.53545" lon="0.2833">
        <ele>118.4</ele>
        <time>2024-09-22T06:31:32Z</time>
      </trkpt>
      <trkpt lat="46.5355" lon="0.28331">
        <ele>117.2</ele>
        <time>2024-09-22T06:31:33Z</time>
      </trkpt>
      <trkpt lat="46.53555" lon="0.28331">
        <ele>116.2</ele>
        <time>2024-09-22T06:31:34Z</time>
      </trkpt>
      <trkpt lat="46.5356" lon="0.28329">
        <ele>114.4</ele>
        <time>2024-09-22T06:31:35Z</time>
      </trkpt>
      <trkpt lat="46.53564" lon="0.28327">
        <ele>113.4</ele>
        <time>2024-09-22T06:31:36Z</time>
      </trkpt>
      <trkpt lat="46.53567" lon="0.28325">
        <ele>112.8</ele>
        <time>2024-09-22T06:31:37Z</time>
      </trkpt>
      <trkpt lat="46.53574" lon="0.28317">
        <ele>111.6</ele>
        <time>2024-09-22T06:31:39Z</time>
      </trkpt>
      <trkpt lat="46.53577" lon="0.28311">
        <ele>109.8</ele>
        <time>2024-09-22T06:31:40Z</time>
      </trkpt>
      <trkpt lat="46.5358" lon="0.28306">
        <ele>109</ele>
        <time>2024-09-22T06:31:41Z</time>
      </trkpt>
      <trkpt lat="46.53583" lon="0.283">
        <ele>108.6</ele>
        <time>2024-09-22T06:31:42Z</time>
      </trkpt>
      <trkpt lat="46.53589" lon="0.28289">
        <ele>108</ele>
        <time>2024-09-22T06:31:45Z</time>
      </trkpt>
      <trkpt lat="46.53594" lon="0.28278">
        <ele>107.6</ele>
        <time>2024-09-22T06:31:49Z</time>
      </trkpt>
      <trkpt lat="46.53596" lon="0.28277">
        <ele>107.4</ele>
        <time>2024-09-22T06:31:50Z</time>
      </trkpt>
      <trkpt lat="46.53598" lon="0.28277">
        <ele>107.4</ele>
        <time>2024-09-22T06:31:51Z</time>
      </trkpt>
      <trkpt lat="46.53605" lon="0.2828">
        <ele>107.4</ele>
        <time>2024-09-22T06:31:54Z</time>
      </trkpt>
      <trkpt lat="46.53625" lon="0.2829">
        <ele>108</ele>
        <time>2024-09-22T06:32:00Z</time>
      </trkpt>
      <trkpt lat="46.53628" lon="0.28295">
        <ele>108.4</ele>
        <time>2024-09-22T06:32:02Z</time>
      </trkpt>
      <trkpt lat="46.5363" lon="0.28299">
        <ele>108.4</ele>
        <time>2024-09-22T06:32:04Z</time>
      </trkpt>
      <trkpt lat="46.5363" lon="0.28307">
        <ele>108.6</ele>
        <time>2024-09-22T06:32:07Z</time>
      </trkpt>
      <trkpt lat="46.5363" lon="0.28312">
        <ele>108.6</ele>
        <time>2024-09-22T06:32:09Z</time>
      </trkpt>
      <trkpt lat="46.53627" lon="0.28332">
        <ele>108.6</ele>
        <time>2024-09-22T06:32:15Z</time>
      </trkpt>
      <trkpt lat="46.53621" lon="0.28358">
        <ele>108.4</ele>
        <time>2024-09-22T06:32:21Z</time>
      </trkpt>
      <trkpt lat="46.53607" lon="0.28396">
        <ele>108.6</ele>
        <time>2024-09-22T06:32:29Z</time>
      </trkpt>
      <trkpt lat="46.53584" lon="0.28461">
        <ele>108.4</ele>
        <time>2024-09-22T06:32:42Z</time>
      </trkpt>
      <trkpt lat="46.53573" lon="0.28494">
        <ele>108.2</ele>
        <time>2024-09-22T06:32:46Z</time>
      </trkpt>
      <trkpt lat="46.53561" lon="0.28528">
        <ele>108.4</ele>
        <time>2024-09-22T06:32:52Z</time>
      </trkpt>
      <trkpt lat="46.53545" lon="0.28562">
        <ele>108.2</ele>
        <time>2024-09-22T06:32:59Z</time>
      </trkpt>
      <trkpt lat="46.53531" lon="0.28582">
        <ele>108.4</ele>
        <time>2024-09-22T06:33:05Z</time>
      </trkpt>
      <trkpt lat="46.5353" lon="0.28587">
        <ele>108.4</ele>
        <time>2024-09-22T06:33:07Z</time>
      </trkpt>
      <trkpt lat="46.53532" lon="0.28594">
        <ele>108.4</ele>
        <time>2024-09-22T06:33:09Z</time>
      </trkpt>
      <trkpt lat="46.53544" lon="0.28612">
        <ele>108.4</ele>
        <time>2024-09-22T06:33:14Z</time>
      </trkpt>
      <trkpt lat="46.5356" lon="0.28637">
        <ele>108.4</ele>
        <time>2024-09-22T06:33:20Z</time>
      </trkpt>
      <trkpt lat="46.53574" lon="0.28664">
        <ele>108.8</ele>
        <time>2024-09-22T06:33:26Z</time>
      </trkpt>
      <trkpt lat="46.53586" lon="0.2868">
        <ele>109.8</ele>
        <time>2024-09-22T06:33:31Z</time>
      </trkpt>
      <trkpt lat="46.53588" lon="0.28683">
        <ele>110</ele>
        <time>2024-09-22T06:33:32Z</time>
      </trkpt>
      <trkpt lat="46.53605" lon="0.287">
        <ele>111</ele>
        <time>2024-09-22T06:33:38Z</time>
      </trkpt>
      <trkpt lat="46.53608" lon="0.28703">
        <ele>111.2</ele>
        <time>2024-09-22T06:33:39Z</time>
      </trkpt>
      <trkpt lat="46.53619" lon="0.28715">
        <ele>112.2</ele>
        <time>2024-09-22T06:33:43Z</time>
      </trkpt>
      <trkpt lat="46.53632" lon="0.28724">
        <ele>113.4</ele>
        <time>2024-09-22T06:33:47Z</time>
      </trkpt>
      <trkpt lat="46.53635" lon="0.28726">
        <ele>113.6</ele>
        <time>2024-09-22T06:33:48Z</time>
      </trkpt>
      <trkpt lat="46.53655" lon="0.28738">
        <ele>114.8</ele>
        <time>2024-09-22T06:33:54Z</time>
      </trkpt>
      <trkpt lat="46.53661" lon="0.28744">
        <ele>115.2</ele>
        <time>2024-09-22T06:33:56Z</time>
      </trkpt>
      <trkpt lat="46.53664" lon="0.28746">
        <ele>115.8</ele>
        <time>2024-09-22T06:33:57Z</time>
      </trkpt>
      <trkpt lat="46.53675" lon="0.28755">
        <ele>117</ele>
        <time>2024-09-22T06:34:01Z</time>
      </trkpt>
      <trkpt lat="46.53679" lon="0.28758">
        <ele>117.6</ele>
        <time>2024-09-22T06:34:03Z</time>
      </trkpt>
      <trkpt lat="46.53682" lon="0.28761">
        <ele>117.8</ele>
        <time>2024-09-22T06:34:06Z</time>
      </trkpt>
      <trkpt lat="46.53681" lon="0.28764">
        <ele>118</ele>
        <time>2024-09-22T06:34:08Z</time>
      </trkpt>
      <trkpt lat="46.5368" lon="0.28765">
        <ele>118</ele>
        <time>2024-09-22T06:34:09Z</time>
      </trkpt>
      <trkpt lat="46.53679" lon="0.28769">
        <ele>118.2</ele>
        <time>2024-09-22T06:34:11Z</time>
      </trkpt>
      <trkpt lat="46.53677" lon="0.28772">
        <ele>118.4</ele>
        <time>2024-09-22T06:34:13Z</time>
      </trkpt>
      <trkpt lat="46.53674" lon="0.28778">
        <ele>119.4</ele>
        <time>2024-09-22T06:34:16Z</time>
      </trkpt>
      <trkpt lat="46.53672" lon="0.28785">
        <ele>120.4</ele>
        <time>2024-09-22T06:34:19Z</time>
      </trkpt>
      <trkpt lat="46.53672" lon="0.28787">
        <ele>120.8</ele>
        <time>2024-09-22T06:34:20Z</time>
      </trkpt>
      <trkpt lat="46.5367" lon="0.28793">
        <ele>121.8</ele>
        <time>2024-09-22T06:34:23Z</time>
      </trkpt>
      <trkpt lat="46.53665" lon="0.28797">
        <ele>122.8</ele>
        <time>2024-09-22T06:34:26Z</time>
      </trkpt>
      <trkpt lat="46.53656" lon="0.28801">
        <ele>124</ele>
        <time>2024-09-22T06:34:31Z</time>
      </trkpt>
      <trkpt lat="46.5365" lon="0.28805">
        <ele>124.6</ele>
        <time>2024-09-22T06:34:34Z</time>
      </trkpt>
      <trkpt lat="46.53647" lon="0.28807">
        <ele>125.4</ele>
        <time>2024-09-22T06:34:36Z</time>
      </trkpt>
      <trkpt lat="46.53639" lon="0.28815">
        <ele>126.2</ele>
        <time>2024-09-22T06:34:41Z</time>
      </trkpt>
      <trkpt lat="46.53637" lon="0.28816">
        <ele>126.4</ele>
        <time>2024-09-22T06:34:42Z</time>
      </trkpt>
      <trkpt lat="46.53632" lon="0.28824">
        <ele>127.4</ele>
        <time>2024-09-22T06:34:46Z</time>
      </trkpt>
      <trkpt lat="46.53631" lon="0.28825">
        <ele>127.6</ele>
        <time>2024-09-22T06:34:47Z</time>
      </trkpt>
      <trkpt lat="46.53627" lon="0.28832">
        <ele>128.4</ele>
        <time>2024-09-22T06:34:50Z</time>
      </trkpt>
      <trkpt lat="46.53621" lon="0.2884">
        <ele>129.2</ele>
        <time>2024-09-22T06:34:54Z</time>
      </trkpt>
      <trkpt lat="46.53616" lon="0.28847">
        <ele>129.6</ele>
        <time>2024-09-22T06:34:57Z</time>
      </trkpt>
      <trkpt lat="46.5361" lon="0.28852">
        <ele>129.6</ele>
        <time>2024-09-22T06:35:00Z</time>
      </trkpt>
      <trkpt lat="46.53595" lon="0.28862">
        <ele>129.8</ele>
        <time>2024-09-22T06:35:06Z</time>
      </trkpt>
      <trkpt lat="46.53575" lon="0.28868">
        <ele>129.8</ele>
        <time>2024-09-22T06:35:13Z</time>
      </trkpt>
      <trkpt lat="46.53567" lon="0.28872">
        <ele>130</ele>
        <time>2024-09-22T06:35:16Z</time>
      </trkpt>
      <trkpt lat="46.53563" lon="0.28878">
        <ele>130</ele>
        <time>2024-09-22T06:35:18Z</time>
      </trkpt>
      <trkpt lat="46.53557" lon="0.28895">
        <ele>130.6</ele>
        <time>2024-09-22T06:35:23Z</time>
      </trkpt>
      <trkpt lat="46.53555" lon="0.28903">
        <ele>131.6</ele>
        <time>2024-09-22T06:35:27Z</time>
      </trkpt>
      <trkpt lat="46.53555" lon="0.28907">
        <ele>132.6</ele>
        <time>2024-09-22T06:35:29Z</time>
      </trkpt>
      <trkpt lat="46.53555" lon="0.28909">
        <ele>133</ele>
        <time>2024-09-22T06:35:30Z</time>
      </trkpt>
      <trkpt lat="46.53557" lon="0.28917">
        <ele>134.4</ele>
        <time>2024-09-22T06:35:34Z</time>
      </trkpt>
      <trkpt lat="46.53557" lon="0.28925">
        <ele>135.2</ele>
        <time>2024-09-22T06:35:37Z</time>
      </trkpt>
      <trkpt lat="46.53558" lon="0.28928">
        <ele>135.6</ele>
        <time>2024-09-22T06:35:38Z</time>
      </trkpt>
      <trkpt lat="46.53566" lon="0.28943">
        <ele>136.2</ele>
        <time>2024-09-22T06:35:44Z</time>
      </trkpt>
      <trkpt lat="46.53581" lon="0.28961">
        <ele>136.8</ele>
        <time>2024-09-22T06:35:50Z</time>
      </trkpt>
      <trkpt lat="46.53594" lon="0.28986">
        <ele>138</ele>
        <time>2024-09-22T06:35:56Z</time>
      </trkpt>
      <trkpt lat="46.53596" lon="0.28989">
        <ele>138</ele>
        <time>2024-09-22T06:35:57Z</time>
      </trkpt>
      <trkpt lat="46.53609" lon="0.29009">
        <ele>139</ele>
        <time>2024-09-22T06:36:02Z</time>
      </trkpt>
      <trkpt lat="46.53612" lon="0.29012">
        <ele>139.2</ele>
        <time>2024-09-22T06:36:04Z</time>
      </trkpt>
      <trkpt lat="46.53623" lon="0.29032">
        <ele>140</ele>
        <time>2024-09-22T06:36:09Z</time>
      </trkpt>
      <trkpt lat="46.53625" lon="0.29036">
        <ele>140.2</ele>
        <time>2024-09-22T06:36:10Z</time>
      </trkpt>
      <trkpt lat="46.53642" lon="0.29065">
        <ele>141</ele>
        <time>2024-09-22T06:36:17Z</time>
      </trkpt>
      <trkpt lat="46.53645" lon="0.29068">
        <ele>141.2</ele>
        <time>2024-09-22T06:36:18Z</time>
      </trkpt>
      <trkpt lat="46.53655" lon="0.29076">
        <ele>141.6</ele>
        <time>2024-09-22T06:36:22Z</time>
      </trkpt>
      <trkpt lat="46.53665" lon="0.29078">
        <ele>141.6</ele>
        <time>2024-09-22T06:36:27Z</time>
      </trkpt>
      <trkpt lat="46.53677" lon="0.29067">
        <ele>141.4</ele>
        <time>2024-09-22T06:36:31Z</time>
      </trkpt>
      <trkpt lat="46.53685" lon="0.29064">
        <ele>141.4</ele>
        <time>2024-09-22T06:36:33Z</time>
      </trkpt>
      <trkpt lat="46.53692" lon="0.29065">
        <ele>141.2</ele>
        <time>2024-09-22T06:36:35Z</time>
      </trkpt>
      <trkpt lat="46.53711" lon="0.29064">
        <ele>140.4</ele>
        <time>2024-09-22T06:36:40Z</time>
      </trkpt>
      <trkpt lat="46.53719" lon="0.29062">
        <ele>140.2</ele>
        <time>2024-09-22T06:36:42Z</time>
      </trkpt>
      <trkpt lat="46.53726" lon="0.29062">
        <ele>140.2</ele>
        <time>2024-09-22T06:36:44Z</time>
      </trkpt>
      <trkpt lat="46.5373" lon="0.29063">
        <ele>140</ele>
        <time>2024-09-22T06:36:45Z</time>
      </trkpt>
      <trkpt lat="46.5374" lon="0.29067">
        <ele>139.8</ele>
        <time>2024-09-22T06:36:48Z</time>
      </trkpt>
      <trkpt lat="46.53745" lon="0.29069">
        <ele>139.6</ele>
        <time>2024-09-22T06:36:50Z</time>
      </trkpt>
      <trkpt lat="46.53748" lon="0.2907">
        <ele>139.6</ele>
        <time>2024-09-22T06:36:51Z</time>
      </trkpt>
      <trkpt lat="46.53771" lon="0.29082">
        <ele>140.2</ele>
        <time>2024-09-22T06:36:56Z</time>
      </trkpt>
      <trkpt lat="46.53782" lon="0.29087">
        <ele>140.6</ele>
        <time>2024-09-22T06:36:59Z</time>
      </trkpt>
      <trkpt lat="46.53792" lon="0.29092">
        <ele>141.2</ele>
        <time>2024-09-22T06:37:02Z</time>
      </trkpt>
      <trkpt lat="46.53805" lon="0.29094">
        <ele>141.4</ele>
        <time>2024-09-22T06:37:03Z</time>
      </trkpt>
      <trkpt lat="46.53814" lon="0.29099">
        <ele>141.6</ele>
        <time>2024-09-22T06:37:05Z</time>
      </trkpt>
      <trkpt lat="46.53824" lon="0.29104">
        <ele>142</ele>
        <time>2024-09-22T06:37:08Z</time>
      </trkpt>
      <trkpt lat="46.53834" lon="0.29104">
        <ele>142.2</ele>
        <time>2024-09-22T06:37:13Z</time>
      </trkpt>
      <trkpt lat="46.53848" lon="0.29115">
        <ele>142.2</ele>
        <time>2024-09-22T06:37:18Z</time>
      </trkpt>
      <trkpt lat="46.53852" lon="0.29116">
        <ele>142.2</ele>
        <time>2024-09-22T06:37:19Z</time>
      </trkpt>
      <trkpt lat="46.53868" lon="0.29128">
        <ele>142.8</ele>
        <time>2024-09-22T06:37:24Z</time>
      </trkpt>
      <trkpt lat="46.53897" lon="0.29145">
        <ele>143.2</ele>
        <time>2024-09-22T06:37:31Z</time>
      </trkpt>
      <trkpt lat="46.53904" lon="0.29151">
        <ele>143.4</ele>
        <time>2024-09-22T06:37:33Z</time>
      </trkpt>
      <trkpt lat="46.53923" lon="0.29161">
        <ele>143.8</ele>
        <time>2024-09-22T06:37:38Z</time>
      </trkpt>
      <trkpt lat="46.53954" lon="0.29178">
        <ele>144</ele>
        <time>2024-09-22T06:37:46Z</time>
      </trkpt>
      <trkpt lat="46.53982" lon="0.29198">
        <ele>144.6</ele>
        <time>2024-09-22T06:37:53Z</time>
      </trkpt>
      <trkpt lat="46.54007" lon="0.29216">
        <ele>144.6</ele>
        <time>2024-09-22T06:37:59Z</time>
      </trkpt>
      <trkpt lat="46.54012" lon="0.29219">
        <ele>144.6</ele>
        <time>2024-09-22T06:38:00Z</time>
      </trkpt>
      <trkpt lat="46.54016" lon="0.29222">
        <ele>144.6</ele>
        <time>2024-09-22T06:38:01Z</time>
      </trkpt>
      <trkpt lat="46.54041" lon="0.2924">
        <ele>144.6</ele>
        <time>2024-09-22T06:38:07Z</time>
      </trkpt>
      <trkpt lat="46.54045" lon="0.29243">
        <ele>144.6</ele>
        <time>2024-09-22T06:38:08Z</time>
      </trkpt>
      <trkpt lat="46.54049" lon="0.29253">
        <ele>144.6</ele>
        <time>2024-09-22T06:38:10Z</time>
      </trkpt>
      <trkpt lat="46.54059" lon="0.29263">
        <ele>145</ele>
        <time>2024-09-22T06:38:14Z</time>
      </trkpt>
      <trkpt lat="46.54069" lon="0.29269">
        <ele>145.2</ele>
        <time>2024-09-22T06:38:17Z</time>
      </trkpt>
      <trkpt lat="46.54077" lon="0.29274">
        <ele>145.2</ele>
        <time>2024-09-22T06:38:19Z</time>
      </trkpt>
      <trkpt lat="46.54093" lon="0.29285">
        <ele>145.6</ele>
        <time>2024-09-22T06:38:25Z</time>
      </trkpt>
      <trkpt lat="46.54104" lon="0.29303">
        <ele>146.2</ele>
        <time>2024-09-22T06:38:32Z</time>
      </trkpt>
      <trkpt lat="46.54114" lon="0.29326">
        <ele>146.2</ele>
        <time>2024-09-22T06:38:37Z</time>
      </trkpt>
      <trkpt lat="46.54129" lon="0.29356">
        <ele>147</ele>
        <time>2024-09-22T06:38:44Z</time>
      </trkpt>
      <trkpt lat="46.54135" lon="0.29372">
        <ele>147.2</ele>
        <time>2024-09-22T06:38:48Z</time>
      </trkpt>
      <trkpt lat="46.54138" lon="0.29376">
        <ele>147.2</ele>
        <time>2024-09-22T06:38:49Z</time>
      </trkpt>
      <trkpt lat="46.54142" lon="0.29384">
        <ele>147</ele>
        <time>2024-09-22T06:38:51Z</time>
      </trkpt>
      <trkpt lat="46.5415" lon="0.29396">
        <ele>147</ele>
        <time>2024-09-22T06:38:54Z</time>
      </trkpt>
      <trkpt lat="46.54158" lon="0.29419">
        <ele>147.2</ele>
        <time>2024-09-22T06:39:00Z</time>
      </trkpt>
      <trkpt lat="46.54165" lon="0.2944">
        <ele>147.4</ele>
        <time>2024-09-22T06:39:05Z</time>
      </trkpt>
      <trkpt lat="46.54169" lon="0.29449">
        <ele>147.2</ele>
        <time>2024-09-22T06:39:07Z</time>
      </trkpt>
      <trkpt lat="46.54173" lon="0.29461">
        <ele>147.2</ele>
        <time>2024-09-22T06:39:09Z</time>
      </trkpt>
      <trkpt lat="46.54174" lon="0.29466">
        <ele>147.6</ele>
        <time>2024-09-22T06:39:10Z</time>
      </trkpt>
      <trkpt lat="46.54175" lon="0.29472">
        <ele>147.4</ele>
        <time>2024-09-22T06:39:11Z</time>
      </trkpt>
      <trkpt lat="46.54179" lon="0.29491">
        <ele>147</ele>
        <time>2024-09-22T06:39:15Z</time>
      </trkpt>
      <trkpt lat="46.54175" lon="0.29501">
        <ele>146.4</ele>
        <time>2024-09-22T06:39:18Z</time>
      </trkpt>
      <trkpt lat="46.54171" lon="0.29508">
        <ele>146.2</ele>
        <time>2024-09-22T06:39:20Z</time>
      </trkpt>
      <trkpt lat="46.54167" lon="0.29516">
        <ele>146</ele>
        <time>2024-09-22T06:39:22Z</time>
      </trkpt>
      <trkpt lat="46.54161" lon="0.29524">
        <ele>146.4</ele>
        <time>2024-09-22T06:39:24Z</time>
      </trkpt>
      <trkpt lat="46.54159" lon="0.29529">
        <ele>146.8</ele>
        <time>2024-09-22T06:39:25Z</time>
      </trkpt>
      <trkpt lat="46.54158" lon="0.29537">
        <ele>147</ele>
        <time>2024-09-22T06:39:27Z</time>
      </trkpt>
      <trkpt lat="46.54157" lon="0.29541">
        <ele>147</ele>
        <time>2024-09-22T06:39:28Z</time>
      </trkpt>
      <trkpt lat="46.54158" lon="0.29543">
        <ele>146.8</ele>
        <time>2024-09-22T06:39:29Z</time>
      </trkpt>
      <trkpt lat="46.54161" lon="0.29549">
        <ele>146.6</ele>
        <time>2024-09-22T06:39:31Z</time>
      </trkpt>
      <trkpt lat="46.54163" lon="0.29553">
        <ele>146.6</ele>
        <time>2024-09-22T06:39:32Z</time>
      </trkpt>
      <trkpt lat="46.54165" lon="0.29556">
        <ele>146.4</ele>
        <time>2024-09-22T06:39:33Z</time>
      </trkpt>
      <trkpt lat="46.54173" lon="0.29563">
        <ele>146</ele>
        <time>2024-09-22T06:39:36Z</time>
      </trkpt>
      <trkpt lat="46.54177" lon="0.29566">
        <ele>146.2</ele>
        <time>2024-09-22T06:39:37Z</time>
      </trkpt>
      <trkpt lat="46.54181" lon="0.29568">
        <ele>146.4</ele>
        <time>2024-09-22T06:39:38Z</time>
      </trkpt>
      <trkpt lat="46.54189" lon="0.29576">
        <ele>146.6</ele>
        <time>2024-09-22T06:39:40Z</time>
      </trkpt>
      <trkpt lat="46.54196" lon="0.29584">
        <ele>146.6</ele>
        <time>2024-09-22T06:39:42Z</time>
      </trkpt>
      <trkpt lat="46.54199" lon="0.29587">
        <ele>146.4</ele>
        <time>2024-09-22T06:39:43Z</time>
      </trkpt>
      <trkpt lat="46.54209" lon="0.29599">
        <ele>146</ele>
        <time>2024-09-22T06:39:46Z</time>
      </trkpt>
      <trkpt lat="46.54211" lon="0.29603">
        <ele>145.8</ele>
        <time>2024-09-22T06:39:47Z</time>
      </trkpt>
      <trkpt lat="46.54213" lon="0.29608">
        <ele>145.8</ele>
        <time>2024-09-22T06:39:48Z</time>
      </trkpt>
      <trkpt lat="46.54214" lon="0.2962">
        <ele>145.6</ele>
        <time>2024-09-22T06:39:51Z</time>
      </trkpt>
      <trkpt lat="46.54215" lon="0.29628">
        <ele>145.6</ele>
        <time>2024-09-22T06:39:53Z</time>
      </trkpt>
      <trkpt lat="46.54216" lon="0.29638">
        <ele>146</ele>
        <time>2024-09-22T06:39:56Z</time>
      </trkpt>
      <trkpt lat="46.54215" lon="0.29643">
        <ele>146</ele>
        <time>2024-09-22T06:39:57Z</time>
      </trkpt>
      <trkpt lat="46.54215" lon="0.29646">
        <ele>146.2</ele>
        <time>2024-09-22T06:39:58Z</time>
      </trkpt>
      <trkpt lat="46.54222" lon="0.29657">
        <ele>145.4</ele>
        <time>2024-09-22T06:40:01Z</time>
      </trkpt>
      <trkpt lat="46.54239" lon="0.29682">
        <ele>145.2</ele>
        <time>2024-09-22T06:40:07Z</time>
      </trkpt>
      <trkpt lat="46.54251" lon="0.29701">
        <ele>145.2</ele>
        <time>2024-09-22T06:40:12Z</time>
      </trkpt>
      <trkpt lat="46.54258" lon="0.29703">
        <ele>145.2</ele>
        <time>2024-09-22T06:40:16Z</time>
      </trkpt>
      <trkpt lat="46.54266" lon="0.29708">
        <ele>145</ele>
        <time>2024-09-22T06:40:19Z</time>
      </trkpt>
      <trkpt lat="46.54271" lon="0.29712">
        <ele>144.8</ele>
        <time>2024-09-22T06:40:21Z</time>
      </trkpt>
      <trkpt lat="46.54285" lon="0.29734">
        <ele>145</ele>
        <time>2024-09-22T06:40:27Z</time>
      </trkpt>
      <trkpt lat="46.54298" lon="0.2976">
        <ele>145.2</ele>
        <time>2024-09-22T06:40:33Z</time>
      </trkpt>
      <trkpt lat="46.54309" lon="0.29777">
        <ele>145.2</ele>
        <time>2024-09-22T06:40:37Z</time>
      </trkpt>
      <trkpt lat="46.54314" lon="0.29788">
        <ele>145</ele>
        <time>2024-09-22T06:40:39Z</time>
      </trkpt>
      <trkpt lat="46.54317" lon="0.29792">
        <ele>145</ele>
        <time>2024-09-22T06:40:40Z</time>
      </trkpt>
      <trkpt lat="46.54322" lon="0.29806">
        <ele>145.4</ele>
        <time>2024-09-22T06:40:43Z</time>
      </trkpt>
      <trkpt lat="46.54323" lon="0.29811">
        <ele>145.4</ele>
        <time>2024-09-22T06:40:44Z</time>
      </trkpt>
      <trkpt lat="46.54332" lon="0.29832">
        <ele>145.2</ele>
        <time>2024-09-22T06:40:49Z</time>
      </trkpt>
      <trkpt lat="46.54336" lon="0.29842">
        <ele>145.4</ele>
        <time>2024-09-22T06:40:51Z</time>
      </trkpt>
      <trkpt lat="46.54339" lon="0.29855">
        <ele>145.4</ele>
        <time>2024-09-22T06:40:54Z</time>
      </trkpt>
      <trkpt lat="46.54347" lon="0.29881">
        <ele>145.2</ele>
        <time>2024-09-22T06:40:59Z</time>
      </trkpt>
      <trkpt lat="46.54351" lon="0.2989">
        <ele>145.4</ele>
        <time>2024-09-22T06:41:01Z</time>
      </trkpt>
      <trkpt lat="46.54357" lon="0.29899">
        <ele>145.6</ele>
        <time>2024-09-22T06:41:03Z</time>
      </trkpt>
      <trkpt lat="46.54359" lon="0.29903">
        <ele>145.8</ele>
        <time>2024-09-22T06:41:04Z</time>
      </trkpt>
      <trkpt lat="46.54373" lon="0.29934">
        <ele>145.6</ele>
        <time>2024-09-22T06:41:10Z</time>
      </trkpt>
      <trkpt lat="46.54375" lon="0.29939">
        <ele>145.6</ele>
        <time>2024-09-22T06:41:11Z</time>
      </trkpt>
      <trkpt lat="46.5438" lon="0.29955">
        <ele>145.2</ele>
        <time>2024-09-22T06:41:14Z</time>
      </trkpt>
      <trkpt lat="46.54382" lon="0.29961">
        <ele>145.2</ele>
        <time>2024-09-22T06:41:15Z</time>
      </trkpt>
      <trkpt lat="46.54384" lon="0.29967">
        <ele>145.6</ele>
        <time>2024-09-22T06:41:16Z</time>
      </trkpt>
      <trkpt lat="46.54394" lon="0.29993">
        <ele>145.6</ele>
        <time>2024-09-22T06:41:21Z</time>
      </trkpt>
      <trkpt lat="46.54398" lon="0.30002">
        <ele>146</ele>
        <time>2024-09-22T06:41:23Z</time>
      </trkpt>
      <trkpt lat="46.54398" lon="0.30011">
        <ele>146</ele>
        <time>2024-09-22T06:41:25Z</time>
      </trkpt>
      <trkpt lat="46.54399" lon="0.30019">
        <ele>145.8</ele>
        <time>2024-09-22T06:41:27Z</time>
      </trkpt>
      <trkpt lat="46.54397" lon="0.3003">
        <ele>145.4</ele>
        <time>2024-09-22T06:41:30Z</time>
      </trkpt>
      <trkpt lat="46.54396" lon="0.30034">
        <ele>145.4</ele>
        <time>2024-09-22T06:41:31Z</time>
      </trkpt>
      <trkpt lat="46.54393" lon="0.30056">
        <ele>145.4</ele>
        <time>2024-09-22T06:41:35Z</time>
      </trkpt>
      <trkpt lat="46.54392" lon="0.3006">
        <ele>145.4</ele>
        <time>2024-09-22T06:41:36Z</time>
      </trkpt>
      <trkpt lat="46.54389" lon="0.30064">
        <ele>145.6</ele>
        <time>2024-09-22T06:41:37Z</time>
      </trkpt>
      <trkpt lat="46.54385" lon="0.30072">
        <ele>145.6</ele>
        <time>2024-09-22T06:41:39Z</time>
      </trkpt>
      <trkpt lat="46.5438" lon="0.30079">
        <ele>145.4</ele>
        <time>2024-09-22T06:41:41Z</time>
      </trkpt>
      <trkpt lat="46.54377" lon="0.30088">
        <ele>145.4</ele>
        <time>2024-09-22T06:41:43Z</time>
      </trkpt>
      <trkpt lat="46.54374" lon="0.30097">
        <ele>145.4</ele>
        <time>2024-09-22T06:41:45Z</time>
      </trkpt>
      <trkpt lat="46.54371" lon="0.301">
        <ele>145.4</ele>
        <time>2024-09-22T06:41:46Z</time>
      </trkpt>
      <trkpt lat="46.54357" lon="0.30103">
        <ele>145.4</ele>
        <time>2024-09-22T06:41:50Z</time>
      </trkpt>
      <trkpt lat="46.54354" lon="0.301">
        <ele>145.4</ele>
        <time>2024-09-22T06:41:51Z</time>
      </trkpt>
      <trkpt lat="46.54336" lon="0.30092">
        <ele>145.4</ele>
        <time>2024-09-22T06:41:55Z</time>
      </trkpt>
      <trkpt lat="46.54333" lon="0.30089">
        <ele>145.4</ele>
        <time>2024-09-22T06:41:56Z</time>
      </trkpt>
      <trkpt lat="46.54321" lon="0.30074">
        <ele>145.8</ele>
        <time>2024-09-22T06:42:00Z</time>
      </trkpt>
      <trkpt lat="46.54319" lon="0.30073">
        <ele>146</ele>
        <time>2024-09-22T06:42:01Z</time>
      </trkpt>
      <trkpt lat="46.54316" lon="0.30076">
        <ele>146</ele>
        <time>2024-09-22T06:42:03Z</time>
      </trkpt>
      <trkpt lat="46.54312" lon="0.30079">
        <ele>146</ele>
        <time>2024-09-22T06:42:05Z</time>
      </trkpt>
      <trkpt lat="46.54307" lon="0.30083">
        <ele>146</ele>
        <time>2024-09-22T06:42:07Z</time>
      </trkpt>
      <trkpt lat="46.54303" lon="0.30087">
        <ele>146</ele>
        <time>2024-09-22T06:42:09Z</time>
      </trkpt>
      <trkpt lat="46.54299" lon="0.30091">
        <ele>146</ele>
        <time>2024-09-22T06:42:11Z</time>
      </trkpt>
      <trkpt lat="46.54291" lon="0.30096">
        <ele>145.8</ele>
        <time>2024-09-22T06:42:14Z</time>
      </trkpt>
      <trkpt lat="46.54286" lon="0.301">
        <ele>145.6</ele>
        <time>2024-09-22T06:42:16Z</time>
      </trkpt>
      <trkpt lat="46.54281" lon="0.30104">
        <ele>145.6</ele>
        <time>2024-09-22T06:42:18Z</time>
      </trkpt>
      <trkpt lat="46.54275" lon="0.30108">
        <ele>145.6</ele>
        <time>2024-09-22T06:42:20Z</time>
      </trkpt>
      <trkpt lat="46.54263" lon="0.3012">
        <ele>145</ele>
        <time>2024-09-22T06:42:25Z</time>
      </trkpt>
      <trkpt lat="46.54252" lon="0.30125">
        <ele>144.6</ele>
        <time>2024-09-22T06:42:27Z</time>
      </trkpt>
      <trkpt lat="46.54242" lon="0.30129">
        <ele>144.2</ele>
        <time>2024-09-22T06:42:29Z</time>
      </trkpt>
      <trkpt lat="46.54222" lon="0.30126">
        <ele>144.6</ele>
        <time>2024-09-22T06:42:34Z</time>
      </trkpt>
      <trkpt lat="46.542" lon="0.3011">
        <ele>145</ele>
        <time>2024-09-22T06:42:40Z</time>
      </trkpt>
      <trkpt lat="46.54174" lon="0.30088">
        <ele>145.4</ele>
        <time>2024-09-22T06:42:46Z</time>
      </trkpt>
      <trkpt lat="46.54141" lon="0.30055">
        <ele>145</ele>
        <time>2024-09-22T06:42:54Z</time>
      </trkpt>
      <trkpt lat="46.54128" lon="0.30039">
        <ele>145.6</ele>
        <time>2024-09-22T06:42:58Z</time>
      </trkpt>
      <trkpt lat="46.54118" lon="0.30027">
        <ele>145.8</ele>
        <time>2024-09-22T06:43:01Z</time>
      </trkpt>
      <trkpt lat="46.54093" lon="0.29997">
        <ele>145.4</ele>
        <time>2024-09-22T06:43:08Z</time>
      </trkpt>
      <trkpt lat="46.5407" lon="0.29968">
        <ele>145.8</ele>
        <time>2024-09-22T06:43:14Z</time>
      </trkpt>
      <trkpt lat="46.54046" lon="0.29939">
        <ele>145.6</ele>
        <time>2024-09-22T06:43:20Z</time>
      </trkpt>
      <trkpt lat="46.54017" lon="0.29907">
        <ele>145.6</ele>
        <time>2024-09-22T06:43:27Z</time>
      </trkpt>
      <trkpt lat="46.53993" lon="0.29875">
        <ele>144.8</ele>
        <time>2024-09-22T06:43:34Z</time>
      </trkpt>
      <trkpt lat="46.53984" lon="0.29862">
        <ele>144.6</ele>
        <time>2024-09-22T06:43:37Z</time>
      </trkpt>
      <trkpt lat="46.53982" lon="0.2986">
        <ele>144.6</ele>
        <time>2024-09-22T06:43:38Z</time>
      </trkpt>
      <trkpt lat="46.5398" lon="0.2986">
        <ele>144.4</ele>
        <time>2024-09-22T06:43:39Z</time>
      </trkpt>
      <trkpt lat="46.53972" lon="0.29868">
        <ele>144.6</ele>
        <time>2024-09-22T06:43:44Z</time>
      </trkpt>
      <trkpt lat="46.5397" lon="0.29872">
        <ele>144.8</ele>
        <time>2024-09-22T06:43:45Z</time>
      </trkpt>
      <trkpt lat="46.53967" lon="0.29883">
        <ele>144.8</ele>
        <time>2024-09-22T06:43:47Z</time>
      </trkpt>
      <trkpt lat="46.53964" lon="0.29893">
        <ele>144.8</ele>
        <time>2024-09-22T06:43:49Z</time>
      </trkpt>
      <trkpt lat="46.53954" lon="0.29933">
        <ele>144.6</ele>
        <time>2024-09-22T06:43:55Z</time>
      </trkpt>
      <trkpt lat="46.53937" lon="0.29983">
        <ele>144.6</ele>
        <time>2024-09-22T06:44:01Z</time>
      </trkpt>
      <trkpt lat="46.53918" lon="0.3004">
        <ele>143.6</ele>
        <time>2024-09-22T06:44:08Z</time>
      </trkpt>
      <trkpt lat="46.53916" lon="0.30047">
        <ele>143.6</ele>
        <time>2024-09-22T06:44:09Z</time>
      </trkpt>
      <trkpt lat="46.53914" lon="0.30054">
        <ele>143.6</ele>
        <time>2024-09-22T06:44:10Z</time>
      </trkpt>
      <trkpt lat="46.53911" lon="0.30073">
        <ele>143.4</ele>
        <time>2024-09-22T06:44:13Z</time>
      </trkpt>
      <trkpt lat="46.53901" lon="0.30112">
        <ele>142.8</ele>
        <time>2024-09-22T06:44:20Z</time>
      </trkpt>
      <trkpt lat="46.539" lon="0.30118">
        <ele>142.6</ele>
        <time>2024-09-22T06:44:21Z</time>
      </trkpt>
      <trkpt lat="46.53898" lon="0.30126">
        <ele>142.4</ele>
        <time>2024-09-22T06:44:22Z</time>
      </trkpt>
      <trkpt lat="46.53893" lon="0.30149">
        <ele>141.4</ele>
        <time>2024-09-22T06:44:25Z</time>
      </trkpt>
      <trkpt lat="46.53889" lon="0.30159">
        <ele>141.4</ele>
        <time>2024-09-22T06:44:26Z</time>
      </trkpt>
      <trkpt lat="46.53883" lon="0.30194">
        <ele>141.4</ele>
        <time>2024-09-22T06:44:30Z</time>
      </trkpt>
      <trkpt lat="46.53876" lon="0.30255">
        <ele>140.8</ele>
        <time>2024-09-22T06:44:35Z</time>
      </trkpt>
      <trkpt lat="46.53869" lon="0.30337">
        <ele>141.4</ele>
        <time>2024-09-22T06:44:42Z</time>
      </trkpt>
      <trkpt lat="46.53855" lon="0.30425">
        <ele>141</ele>
        <time>2024-09-22T06:44:50Z</time>
      </trkpt>
      <trkpt lat="46.53844" lon="0.30485">
        <ele>141.6</ele>
        <time>2024-09-22T06:44:56Z</time>
      </trkpt>
      <trkpt lat="46.53833" lon="0.30524">
        <ele>140.6</ele>
        <time>2024-09-22T06:45:01Z</time>
      </trkpt>
      <trkpt lat="46.53831" lon="0.30532">
        <ele>140.6</ele>
        <time>2024-09-22T06:45:02Z</time>
      </trkpt>
      <trkpt lat="46.53829" lon="0.30546">
        <ele>140.6</ele>
        <time>2024-09-22T06:45:04Z</time>
      </trkpt>
      <trkpt lat="46.53831" lon="0.3056">
        <ele>140.6</ele>
        <time>2024-09-22T06:45:06Z</time>
      </trkpt>
      <trkpt lat="46.53833" lon="0.30566">
        <ele>140.6</ele>
        <time>2024-09-22T06:45:07Z</time>
      </trkpt>
      <trkpt lat="46.53835" lon="0.3057">
        <ele>140.6</ele>
        <time>2024-09-22T06:45:08Z</time>
      </trkpt>
      <trkpt lat="46.53842" lon="0.30573">
        <ele>140.8</ele>
        <time>2024-09-22T06:45:10Z</time>
      </trkpt>
      <trkpt lat="46.53863" lon="0.30578">
        <ele>140.8</ele>
        <time>2024-09-22T06:45:14Z</time>
      </trkpt>
      <trkpt lat="46.53908" lon="0.30587">
        <ele>140.2</ele>
        <time>2024-09-22T06:45:21Z</time>
      </trkpt>
      <trkpt lat="46.53947" lon="0.30595">
        <ele>140.4</ele>
        <time>2024-09-22T06:45:27Z</time>
      </trkpt>
      <trkpt lat="46.53985" lon="0.30601">
        <ele>140</ele>
        <time>2024-09-22T06:45:33Z</time>
      </trkpt>
      <trkpt lat="46.54" lon="0.30601">
        <ele>140</ele>
        <time>2024-09-22T06:45:36Z</time>
      </trkpt>
      <trkpt lat="46.54011" lon="0.30602">
        <ele>140</ele>
        <time>2024-09-22T06:45:38Z</time>
      </trkpt>
      <trkpt lat="46.54048" lon="0.30598">
        <ele>140.6</ele>
        <time>2024-09-22T06:45:45Z</time>
      </trkpt>
      <trkpt lat="46.54068" lon="0.30593">
        <ele>141.2</ele>
        <time>2024-09-22T06:45:49Z</time>
      </trkpt>
      <trkpt lat="46.54083" lon="0.3059">
        <ele>141.6</ele>
        <time>2024-09-22T06:45:52Z</time>
      </trkpt>
      <trkpt lat="46.54119" lon="0.30579">
        <ele>142</ele>
        <time>2024-09-22T06:45:59Z</time>
      </trkpt>
      <trkpt lat="46.54138" lon="0.30572">
        <ele>142.4</ele>
        <time>2024-09-22T06:46:03Z</time>
      </trkpt>
      <trkpt lat="46.54163" lon="0.30564">
        <ele>142.8</ele>
        <time>2024-09-22T06:46:08Z</time>
      </trkpt>
      <trkpt lat="46.54206" lon="0.30552">
        <ele>143</ele>
        <time>2024-09-22T06:46:16Z</time>
      </trkpt>
      <trkpt lat="46.54239" lon="0.30554">
        <ele>143.2</ele>
        <time>2024-09-22T06:46:22Z</time>
      </trkpt>
      <trkpt lat="46.54245" lon="0.30555">
        <ele>143.4</ele>
        <time>2024-09-22T06:46:23Z</time>
      </trkpt>
      <trkpt lat="46.54276" lon="0.30568">
        <ele>143.8</ele>
        <time>2024-09-22T06:46:29Z</time>
      </trkpt>
      <trkpt lat="46.54307" lon="0.30582">
        <ele>143.6</ele>
        <time>2024-09-22T06:46:35Z</time>
      </trkpt>
      <trkpt lat="46.54325" lon="0.30589">
        <ele>143.2</ele>
        <time>2024-09-22T06:46:38Z</time>
      </trkpt>
      <trkpt lat="46.54338" lon="0.30592">
        <ele>143</ele>
        <time>2024-09-22T06:46:40Z</time>
      </trkpt>
      <trkpt lat="46.5436" lon="0.306">
        <ele>142.4</ele>
        <time>2024-09-22T06:46:43Z</time>
      </trkpt>
      <trkpt lat="46.54379" lon="0.30608">
        <ele>141.8</ele>
        <time>2024-09-22T06:46:46Z</time>
      </trkpt>
      <trkpt lat="46.54393" lon="0.30608">
        <ele>141.4</ele>
        <time>2024-09-22T06:46:48Z</time>
      </trkpt>
      <trkpt lat="46.54403" lon="0.30606">
        <ele>141.4</ele>
        <time>2024-09-22T06:46:49Z</time>
      </trkpt>
      <trkpt lat="46.54409" lon="0.30606">
        <ele>141.2</ele>
        <time>2024-09-22T06:46:50Z</time>
      </trkpt>
      <trkpt lat="46.5443" lon="0.30609">
        <ele>140.2</ele>
        <time>2024-09-22T06:46:53Z</time>
      </trkpt>
      <trkpt lat="46.54445" lon="0.30608">
        <ele>139.6</ele>
        <time>2024-09-22T06:46:55Z</time>
      </trkpt>
      <trkpt lat="46.54452" lon="0.30606">
        <ele>139.4</ele>
        <time>2024-09-22T06:46:56Z</time>
      </trkpt>
      <trkpt lat="46.54467" lon="0.30605">
        <ele>139</ele>
        <time>2024-09-22T06:46:58Z</time>
      </trkpt>
      <trkpt lat="46.5449" lon="0.30605">
        <ele>137.8</ele>
        <time>2024-09-22T06:47:01Z</time>
      </trkpt>
      <trkpt lat="46.54522" lon="0.30608">
        <ele>136.8</ele>
        <time>2024-09-22T06:47:05Z</time>
      </trkpt>
      <trkpt lat="46.54538" lon="0.30611">
        <ele>136.4</ele>
        <time>2024-09-22T06:47:07Z</time>
      </trkpt>
      <trkpt lat="46.54562" lon="0.30615">
        <ele>135.6</ele>
        <time>2024-09-22T06:47:10Z</time>
      </trkpt>
      <trkpt lat="46.54574" lon="0.3062">
        <ele>135.6</ele>
        <time>2024-09-22T06:47:12Z</time>
      </trkpt>
      <trkpt lat="46.54584" lon="0.30627">
        <ele>136</ele>
        <time>2024-09-22T06:47:14Z</time>
      </trkpt>
      <trkpt lat="46.54591" lon="0.30636">
        <ele>136.6</ele>
        <time>2024-09-22T06:47:16Z</time>
      </trkpt>
      <trkpt lat="46.54596" lon="0.3064">
        <ele>137</ele>
        <time>2024-09-22T06:47:17Z</time>
      </trkpt>
      <trkpt lat="46.54615" lon="0.30659">
        <ele>138</ele>
        <time>2024-09-22T06:47:21Z</time>
      </trkpt>
      <trkpt lat="46.54619" lon="0.30665">
        <ele>138</ele>
        <time>2024-09-22T06:47:22Z</time>
      </trkpt>
      <trkpt lat="46.54645" lon="0.30693">
        <ele>137.8</ele>
        <time>2024-09-22T06:47:27Z</time>
      </trkpt>
      <trkpt lat="46.5465" lon="0.30697">
        <ele>138</ele>
        <time>2024-09-22T06:47:28Z</time>
      </trkpt>
      <trkpt lat="46.54674" lon="0.30717">
        <ele>138</ele>
        <time>2024-09-22T06:47:33Z</time>
      </trkpt>
      <trkpt lat="46.547" lon="0.30741">
        <ele>137.8</ele>
        <time>2024-09-22T06:47:39Z</time>
      </trkpt>
      <trkpt lat="46.54728" lon="0.30771">
        <ele>137</ele>
        <time>2024-09-22T06:47:45Z</time>
      </trkpt>
      <trkpt lat="46.54732" lon="0.30776">
        <ele>136.8</ele>
        <time>2024-09-22T06:47:46Z</time>
      </trkpt>
      <trkpt lat="46.54759" lon="0.30801">
        <ele>136.2</ele>
        <time>2024-09-22T06:47:52Z</time>
      </trkpt>
      <trkpt lat="46.5477" lon="0.30811">
        <ele>135.6</ele>
        <time>2024-09-22T06:47:55Z</time>
      </trkpt>
      <trkpt lat="46.54773" lon="0.30814">
        <ele>135.4</ele>
        <time>2024-09-22T06:47:56Z</time>
      </trkpt>
      <trkpt lat="46.54776" lon="0.30816">
        <ele>135.4</ele>
        <time>2024-09-22T06:47:57Z</time>
      </trkpt>
      <trkpt lat="46.54781" lon="0.30823">
        <ele>135.2</ele>
        <time>2024-09-22T06:47:59Z</time>
      </trkpt>
      <trkpt lat="46.54781" lon="0.30825">
        <ele>135.2</ele>
        <time>2024-09-22T06:48:00Z</time>
      </trkpt>
      <trkpt lat="46.54787" lon="0.30843">
        <ele>134.8</ele>
        <time>2024-09-22T06:48:05Z</time>
      </trkpt>
      <trkpt lat="46.54793" lon="0.30854">
        <ele>134.4</ele>
        <time>2024-09-22T06:48:09Z</time>
      </trkpt>
      <trkpt lat="46.54793" lon="0.30857">
        <ele>134.4</ele>
        <time>2024-09-22T06:48:10Z</time>
      </trkpt>
      <trkpt lat="46.54801" lon="0.30873">
        <ele>133.8</ele>
        <time>2024-09-22T06:48:15Z</time>
      </trkpt>
      <trkpt lat="46.54804" lon="0.30887">
        <ele>133.8</ele>
        <time>2024-09-22T06:48:19Z</time>
      </trkpt>
      <trkpt lat="46.54806" lon="0.30897">
        <ele>134</ele>
        <time>2024-09-22T06:48:22Z</time>
      </trkpt>
      <trkpt lat="46.54811" lon="0.30917">
        <ele>133.4</ele>
        <time>2024-09-22T06:48:28Z</time>
      </trkpt>
      <trkpt lat="46.54813" lon="0.30922">
        <ele>133.2</ele>
        <time>2024-09-22T06:48:29Z</time>
      </trkpt>
      <trkpt lat="46.54816" lon="0.30939">
        <ele>132.6</ele>
        <time>2024-09-22T06:48:35Z</time>
      </trkpt>
      <trkpt lat="46.54814" lon="0.30953">
        <ele>132.2</ele>
        <time>2024-09-22T06:48:39Z</time>
      </trkpt>
      <trkpt lat="46.54814" lon="0.30957">
        <ele>132</ele>
        <time>2024-09-22T06:48:41Z</time>
      </trkpt>
      <trkpt lat="46.54814" lon="0.30962">
        <ele>132</ele>
        <time>2024-09-22T06:48:43Z</time>
      </trkpt>
      <trkpt lat="46.54814" lon="0.30968">
        <ele>132</ele>
        <time>2024-09-22T06:48:45Z</time>
      </trkpt>
      <trkpt lat="46.54808" lon="0.30988">
        <ele>132.6</ele>
        <time>2024-09-22T06:48:51Z</time>
      </trkpt>
      <trkpt lat="46.54807" lon="0.3099">
        <ele>132.6</ele>
        <time>2024-09-22T06:48:52Z</time>
      </trkpt>
      <trkpt lat="46.54799" lon="0.31006">
        <ele>132.8</ele>
        <time>2024-09-22T06:48:56Z</time>
      </trkpt>
      <trkpt lat="46.54797" lon="0.31009">
        <ele>133.2</ele>
        <time>2024-09-22T06:48:57Z</time>
      </trkpt>
      <trkpt lat="46.54782" lon="0.31025">
        <ele>133.8</ele>
        <time>2024-09-22T06:49:01Z</time>
      </trkpt>
      <trkpt lat="46.54779" lon="0.31027">
        <ele>133.8</ele>
        <time>2024-09-22T06:49:02Z</time>
      </trkpt>
      <trkpt lat="46.5477" lon="0.31026">
        <ele>133.8</ele>
        <time>2024-09-22T06:49:06Z</time>
      </trkpt>
      <trkpt lat="46.54759" lon="0.31026">
        <ele>133.2</ele>
        <time>2024-09-22T06:49:12Z</time>
      </trkpt>
      <trkpt lat="46.54746" lon="0.31022">
        <ele>133.2</ele>
        <time>2024-09-22T06:49:16Z</time>
      </trkpt>
      <trkpt lat="46.54732" lon="0.31022">
        <ele>134.2</ele>
        <time>2024-09-22T06:49:20Z</time>
      </trkpt>
      <trkpt lat="46.54726" lon="0.31021">
        <ele>134.4</ele>
        <time>2024-09-22T06:49:22Z</time>
      </trkpt>
      <trkpt lat="46.54717" lon="0.31021">
        <ele>135.4</ele>
        <time>2024-09-22T06:49:27Z</time>
      </trkpt>
      <trkpt lat="46.54714" lon="0.31021">
        <ele>135.6</ele>
        <time>2024-09-22T06:49:28Z</time>
      </trkpt>
      <trkpt lat="46.54709" lon="0.31021">
        <ele>135.8</ele>
        <time>2024-09-22T06:49:30Z</time>
      </trkpt>
      <trkpt lat="46.54703" lon="0.31022">
        <ele>136.2</ele>
        <time>2024-09-22T06:49:33Z</time>
      </trkpt>
      <trkpt lat="46.54699" lon="0.31023">
        <ele>136.6</ele>
        <time>2024-09-22T06:49:35Z</time>
      </trkpt>
      <trkpt lat="46.54688" lon="0.31023">
        <ele>137.4</ele>
        <time>2024-09-22T06:49:40Z</time>
      </trkpt>
      <trkpt lat="46.54677" lon="0.31022">
        <ele>137.6</ele>
        <time>2024-09-22T06:49:46Z</time>
      </trkpt>
      <trkpt lat="46.54669" lon="0.31024">
        <ele>137.8</ele>
        <time>2024-09-22T06:49:51Z</time>
      </trkpt>
      <trkpt lat="46.54661" lon="0.31025">
        <ele>138.2</ele>
        <time>2024-09-22T06:49:55Z</time>
      </trkpt>
      <trkpt lat="46.54654" lon="0.3103">
        <ele>138.8</ele>
        <time>2024-09-22T06:50:00Z</time>
      </trkpt>
      <trkpt lat="46.54653" lon="0.31031">
        <ele>138.8</ele>
        <time>2024-09-22T06:50:01Z</time>
      </trkpt>
      <trkpt lat="46.5465" lon="0.31033">
        <ele>139</ele>
        <time>2024-09-22T06:50:02Z</time>
      </trkpt>
      <trkpt lat="46.54638" lon="0.31037">
        <ele>139.4</ele>
        <time>2024-09-22T06:50:07Z</time>
      </trkpt>
      <trkpt lat="46.54618" lon="0.3104">
        <ele>139.8</ele>
        <time>2024-09-22T06:50:13Z</time>
      </trkpt>
      <trkpt lat="46.54615" lon="0.31041">
        <ele>139.8</ele>
        <time>2024-09-22T06:50:14Z</time>
      </trkpt>
      <trkpt lat="46.54602" lon="0.31044">
        <ele>140.4</ele>
        <time>2024-09-22T06:50:19Z</time>
      </trkpt>
      <trkpt lat="46.54588" lon="0.31047">
        <ele>140.4</ele>
        <time>2024-09-22T06:50:24Z</time>
      </trkpt>
      <trkpt lat="46.54586" lon="0.31049">
        <ele>140.4</ele>
        <time>2024-09-22T06:50:25Z</time>
      </trkpt>
      <trkpt lat="46.54583" lon="0.31051">
        <ele>140.4</ele>
        <time>2024-09-22T06:50:26Z</time>
      </trkpt>
      <trkpt lat="46.54581" lon="0.31062">
        <ele>140.6</ele>
        <time>2024-09-22T06:50:30Z</time>
      </trkpt>
      <trkpt lat="46.54584" lon="0.31083">
        <ele>140.4</ele>
        <time>2024-09-22T06:50:35Z</time>
      </trkpt>
      <trkpt lat="46.54584" lon="0.31087">
        <ele>140.4</ele>
        <time>2024-09-22T06:50:36Z</time>
      </trkpt>
      <trkpt lat="46.54594" lon="0.31121">
        <ele>140.4</ele>
        <time>2024-09-22T06:50:43Z</time>
      </trkpt>
      <trkpt lat="46.54606" lon="0.31163">
        <ele>140.6</ele>
        <time>2024-09-22T06:50:49Z</time>
      </trkpt>
      <trkpt lat="46.54618" lon="0.31205">
        <ele>140.6</ele>
        <time>2024-09-22T06:50:55Z</time>
      </trkpt>
      <trkpt lat="46.5463" lon="0.31238">
        <ele>139.8</ele>
        <time>2024-09-22T06:51:00Z</time>
      </trkpt>
      <trkpt lat="46.54633" lon="0.31255">
        <ele>139.4</ele>
        <time>2024-09-22T06:51:02Z</time>
      </trkpt>
      <trkpt lat="46.54638" lon="0.31296">
        <ele>139.2</ele>
        <time>2024-09-22T06:51:07Z</time>
      </trkpt>
      <trkpt lat="46.5464" lon="0.31326">
        <ele>138.8</ele>
        <time>2024-09-22T06:51:12Z</time>
      </trkpt>
      <trkpt lat="46.54637" lon="0.31332">
        <ele>138.8</ele>
        <time>2024-09-22T06:51:14Z</time>
      </trkpt>
      <trkpt lat="46.54632" lon="0.31337">
        <ele>138.8</ele>
        <time>2024-09-22T06:51:16Z</time>
      </trkpt>
      <trkpt lat="46.54626" lon="0.31342">
        <ele>138.8</ele>
        <time>2024-09-22T06:51:18Z</time>
      </trkpt>
      <trkpt lat="46.54618" lon="0.31345">
        <ele>139</ele>
        <time>2024-09-22T06:51:20Z</time>
      </trkpt>
      <trkpt lat="46.54612" lon="0.31348">
        <ele>139.2</ele>
        <time>2024-09-22T06:51:21Z</time>
      </trkpt>
      <trkpt lat="46.546" lon="0.31351">
        <ele>139.2</ele>
        <time>2024-09-22T06:51:23Z</time>
      </trkpt>
      <trkpt lat="46.54581" lon="0.3135">
        <ele>139.6</ele>
        <time>2024-09-22T06:51:26Z</time>
      </trkpt>
      <trkpt lat="46.54546" lon="0.31348">
        <ele>139.2</ele>
        <time>2024-09-22T06:51:32Z</time>
      </trkpt>
      <trkpt lat="46.54511" lon="0.31346">
        <ele>138.6</ele>
        <time>2024-09-22T06:51:38Z</time>
      </trkpt>
      <trkpt lat="46.54465" lon="0.31347">
        <ele>137.8</ele>
        <time>2024-09-22T06:51:45Z</time>
      </trkpt>
      <trkpt lat="46.54458" lon="0.31348">
        <ele>137.6</ele>
        <time>2024-09-22T06:51:46Z</time>
      </trkpt>
      <trkpt lat="46.54431" lon="0.31353">
        <ele>137.6</ele>
        <time>2024-09-22T06:51:51Z</time>
      </trkpt>
      <trkpt lat="46.54425" lon="0.31354">
        <ele>137.6</ele>
        <time>2024-09-22T06:51:52Z</time>
      </trkpt>
      <trkpt lat="46.54401" lon="0.31358">
        <ele>137.8</ele>
        <time>2024-09-22T06:51:57Z</time>
      </trkpt>
      <trkpt lat="46.5437" lon="0.31364">
        <ele>138.6</ele>
        <time>2024-09-22T06:52:03Z</time>
      </trkpt>
      <trkpt lat="46.54359" lon="0.31368">
        <ele>138.8</ele>
        <time>2024-09-22T06:52:05Z</time>
      </trkpt>
      <trkpt lat="46.54329" lon="0.31378">
        <ele>139.2</ele>
        <time>2024-09-22T06:52:11Z</time>
      </trkpt>
      <trkpt lat="46.54295" lon="0.3139">
        <ele>139.4</ele>
        <time>2024-09-22T06:52:17Z</time>
      </trkpt>
      <trkpt lat="46.54284" lon="0.31394">
        <ele>139.6</ele>
        <time>2024-09-22T06:52:19Z</time>
      </trkpt>
      <trkpt lat="46.54277" lon="0.31395">
        <ele>139.8</ele>
        <time>2024-09-22T06:52:20Z</time>
      </trkpt>
      <trkpt lat="46.54264" lon="0.31398">
        <ele>139.8</ele>
        <time>2024-09-22T06:52:22Z</time>
      </trkpt>
      <trkpt lat="46.5422" lon="0.31406">
        <ele>139.4</ele>
        <time>2024-09-22T06:52:29Z</time>
      </trkpt>
      <trkpt lat="46.54192" lon="0.31405">
        <ele>139.4</ele>
        <time>2024-09-22T06:52:33Z</time>
      </trkpt>
      <trkpt lat="46.5418" lon="0.31401">
        <ele>139.4</ele>
        <time>2024-09-22T06:52:35Z</time>
      </trkpt>
      <trkpt lat="46.54131" lon="0.31387">
        <ele>139.2</ele>
        <time>2024-09-22T06:52:43Z</time>
      </trkpt>
      <trkpt lat="46.54097" lon="0.31383">
        <ele>139</ele>
        <time>2024-09-22T06:52:49Z</time>
      </trkpt>
      <trkpt lat="46.54085" lon="0.31382">
        <ele>138.8</ele>
        <time>2024-09-22T06:52:51Z</time>
      </trkpt>
      <trkpt lat="46.54063" lon="0.3138">
        <ele>138.6</ele>
        <time>2024-09-22T06:52:55Z</time>
      </trkpt>
      <trkpt lat="46.54037" lon="0.31376">
        <ele>138.2</ele>
        <time>2024-09-22T06:52:59Z</time>
      </trkpt>
      <trkpt lat="46.54025" lon="0.3137">
        <ele>138</ele>
        <time>2024-09-22T06:53:01Z</time>
      </trkpt>
      <trkpt lat="46.5402" lon="0.31366">
        <ele>137.6</ele>
        <time>2024-09-22T06:53:02Z</time>
      </trkpt>
      <trkpt lat="46.53985" lon="0.31344">
        <ele>136.8</ele>
        <time>2024-09-22T06:53:08Z</time>
      </trkpt>
      <trkpt lat="46.53972" lon="0.31337">
        <ele>136.6</ele>
        <time>2024-09-22T06:53:10Z</time>
      </trkpt>
      <trkpt lat="46.53949" lon="0.31323">
        <ele>135.6</ele>
        <time>2024-09-22T06:53:14Z</time>
      </trkpt>
      <trkpt lat="46.53944" lon="0.31319">
        <ele>135.6</ele>
        <time>2024-09-22T06:53:15Z</time>
      </trkpt>
      <trkpt lat="46.53901" lon="0.31293">
        <ele>134.6</ele>
        <time>2024-09-22T06:53:22Z</time>
      </trkpt>
      <trkpt lat="46.53883" lon="0.3128">
        <ele>133.4</ele>
        <time>2024-09-22T06:53:25Z</time>
      </trkpt>
      <trkpt lat="46.53866" lon="0.3127">
        <ele>132.2</ele>
        <time>2024-09-22T06:53:28Z</time>
      </trkpt>
      <trkpt lat="46.5386" lon="0.31267">
        <ele>132</ele>
        <time>2024-09-22T06:53:29Z</time>
      </trkpt>
      <trkpt lat="46.53835" lon="0.31251">
        <ele>131.8</ele>
        <time>2024-09-22T06:53:34Z</time>
      </trkpt>
      <trkpt lat="46.53814" lon="0.31233">
        <ele>132.4</ele>
        <time>2024-09-22T06:53:38Z</time>
      </trkpt>
      <trkpt lat="46.53805" lon="0.31222">
        <ele>132.8</ele>
        <time>2024-09-22T06:53:40Z</time>
      </trkpt>
      <trkpt lat="46.53793" lon="0.31206">
        <ele>133.4</ele>
        <time>2024-09-22T06:53:43Z</time>
      </trkpt>
      <trkpt lat="46.5378" lon="0.31187">
        <ele>134.2</ele>
        <time>2024-09-22T06:53:47Z</time>
      </trkpt>
      <trkpt lat="46.53774" lon="0.31178">
        <ele>135</ele>
        <time>2024-09-22T06:53:49Z</time>
      </trkpt>
      <trkpt lat="46.53762" lon="0.31157">
        <ele>135.8</ele>
        <time>2024-09-22T06:53:53Z</time>
      </trkpt>
      <trkpt lat="46.53756" lon="0.31147">
        <ele>136</ele>
        <time>2024-09-22T06:53:55Z</time>
      </trkpt>
      <trkpt lat="46.5375" lon="0.31136">
        <ele>136</ele>
        <time>2024-09-22T06:53:57Z</time>
      </trkpt>
      <trkpt lat="46.53745" lon="0.31125">
        <ele>136.4</ele>
        <time>2024-09-22T06:53:59Z</time>
      </trkpt>
      <trkpt lat="46.53734" lon="0.31102">
        <ele>137</ele>
        <time>2024-09-22T06:54:03Z</time>
      </trkpt>
      <trkpt lat="46.53726" lon="0.31085">
        <ele>137.2</ele>
        <time>2024-09-22T06:54:06Z</time>
      </trkpt>
      <trkpt lat="46.53709" lon="0.31052">
        <ele>138</ele>
        <time>2024-09-22T06:54:12Z</time>
      </trkpt>
      <trkpt lat="46.53705" lon="0.31047">
        <ele>138.2</ele>
        <time>2024-09-22T06:54:13Z</time>
      </trkpt>
      <trkpt lat="46.53698" lon="0.31035">
        <ele>138.4</ele>
        <time>2024-09-22T06:54:15Z</time>
      </trkpt>
      <trkpt lat="46.5369" lon="0.31017">
        <ele>138.6</ele>
        <time>2024-09-22T06:54:18Z</time>
      </trkpt>
      <trkpt lat="46.53687" lon="0.31011">
        <ele>138.6</ele>
        <time>2024-09-22T06:54:19Z</time>
      </trkpt>
      <trkpt lat="46.53681" lon="0.30988">
        <ele>138.8</ele>
        <time>2024-09-22T06:54:23Z</time>
      </trkpt>
      <trkpt lat="46.53679" lon="0.30976">
        <ele>138.8</ele>
        <time>2024-09-22T06:54:25Z</time>
      </trkpt>
      <trkpt lat="46.53672" lon="0.3094">
        <ele>139</ele>
        <time>2024-09-22T06:54:31Z</time>
      </trkpt>
      <trkpt lat="46.53666" lon="0.30907">
        <ele>139</ele>
        <time>2024-09-22T06:54:37Z</time>
      </trkpt>
      <trkpt lat="46.53652" lon="0.30874">
        <ele>138.6</ele>
        <time>2024-09-22T06:54:42Z</time>
      </trkpt>
      <trkpt lat="46.53645" lon="0.30857">
        <ele>138.2</ele>
        <time>2024-09-22T06:54:44Z</time>
      </trkpt>
      <trkpt lat="46.53633" lon="0.30832">
        <ele>137.4</ele>
        <time>2024-09-22T06:54:47Z</time>
      </trkpt>
      <trkpt lat="46.53625" lon="0.30817">
        <ele>137</ele>
        <time>2024-09-22T06:54:49Z</time>
      </trkpt>
      <trkpt lat="46.53617" lon="0.308">
        <ele>136.6</ele>
        <time>2024-09-22T06:54:52Z</time>
      </trkpt>
      <trkpt lat="46.53612" lon="0.30787">
        <ele>136.2</ele>
        <time>2024-09-22T06:54:54Z</time>
      </trkpt>
      <trkpt lat="46.53609" lon="0.30782">
        <ele>136</ele>
        <time>2024-09-22T06:54:55Z</time>
      </trkpt>
      <trkpt lat="46.53606" lon="0.30775">
        <ele>135.8</ele>
        <time>2024-09-22T06:54:56Z</time>
      </trkpt>
      <trkpt lat="46.53603" lon="0.30769">
        <ele>135.8</ele>
        <time>2024-09-22T06:54:57Z</time>
      </trkpt>
      <trkpt lat="46.53593" lon="0.30757">
        <ele>135.2</ele>
        <time>2024-09-22T06:54:59Z</time>
      </trkpt>
      <trkpt lat="46.53587" lon="0.30749">
        <ele>134.6</ele>
        <time>2024-09-22T06:55:00Z</time>
      </trkpt>
      <trkpt lat="46.53575" lon="0.30736">
        <ele>133</ele>
        <time>2024-09-22T06:55:02Z</time>
      </trkpt>
      <trkpt lat="46.53566" lon="0.30723">
        <ele>131.8</ele>
        <time>2024-09-22T06:55:04Z</time>
      </trkpt>
      <trkpt lat="46.53557" lon="0.30712">
        <ele>130</ele>
        <time>2024-09-22T06:55:06Z</time>
      </trkpt>
      <trkpt lat="46.53554" lon="0.30707">
        <ele>129</ele>
        <time>2024-09-22T06:55:07Z</time>
      </trkpt>
      <trkpt lat="46.53551" lon="0.30702">
        <ele>127.2</ele>
        <time>2024-09-22T06:55:08Z</time>
      </trkpt>
      <trkpt lat="46.53548" lon="0.307">
        <ele>125.8</ele>
        <time>2024-09-22T06:55:09Z</time>
      </trkpt>
      <trkpt lat="46.53545" lon="0.30697">
        <ele>125</ele>
        <time>2024-09-22T06:55:10Z</time>
      </trkpt>
      <trkpt lat="46.53543" lon="0.30696">
        <ele>123.8</ele>
        <time>2024-09-22T06:55:11Z</time>
      </trkpt>
      <trkpt lat="46.53542" lon="0.30697">
        <ele>123</ele>
        <time>2024-09-22T06:55:12Z</time>
      </trkpt>
      <trkpt lat="46.5354" lon="0.30698">
        <ele>122.6</ele>
        <time>2024-09-22T06:55:13Z</time>
      </trkpt>
      <trkpt lat="46.53539" lon="0.30699">
        <ele>122.4</ele>
        <time>2024-09-22T06:55:14Z</time>
      </trkpt>
      <trkpt lat="46.53534" lon="0.30705">
        <ele>122.2</ele>
        <time>2024-09-22T06:55:17Z</time>
      </trkpt>
      <trkpt lat="46.5353" lon="0.30709">
        <ele>122</ele>
        <time>2024-09-22T06:55:19Z</time>
      </trkpt>
      <trkpt lat="46.53526" lon="0.30714">
        <ele>121.4</ele>
        <time>2024-09-22T06:55:21Z</time>
      </trkpt>
      <trkpt lat="46.53521" lon="0.30719">
        <ele>121.2</ele>
        <time>2024-09-22T06:55:23Z</time>
      </trkpt>
      <trkpt lat="46.53517" lon="0.30722">
        <ele>120.8</ele>
        <time>2024-09-22T06:55:25Z</time>
      </trkpt>
      <trkpt lat="46.53515" lon="0.30724">
        <ele>120.8</ele>
        <time>2024-09-22T06:55:26Z</time>
      </trkpt>
      <trkpt lat="46.5351" lon="0.30729">
        <ele>120.6</ele>
        <time>2024-09-22T06:55:28Z</time>
      </trkpt>
      <trkpt lat="46.53508" lon="0.30732">
        <ele>120.4</ele>
        <time>2024-09-22T06:55:29Z</time>
      </trkpt>
      <trkpt lat="46.53503" lon="0.30738">
        <ele>120.4</ele>
        <time>2024-09-22T06:55:31Z</time>
      </trkpt>
      <trkpt lat="46.53498" lon="0.30745">
        <ele>120.4</ele>
        <time>2024-09-22T06:55:33Z</time>
      </trkpt>
      <trkpt lat="46.53493" lon="0.3075">
        <ele>119.8</ele>
        <time>2024-09-22T06:55:35Z</time>
      </trkpt>
      <trkpt lat="46.53493" lon="0.3075">
        <ele>118.8</ele>
        <time>2024-09-22T06:55:36Z</time>
      </trkpt>
      <trkpt lat="46.53481" lon="0.30759">
        <ele>118.2</ele>
        <time>2024-09-22T06:55:38Z</time>
      </trkpt>
      <trkpt lat="46.53469" lon="0.30766">
        <ele>117.6</ele>
        <time>2024-09-22T06:55:40Z</time>
      </trkpt>
      <trkpt lat="46.53456" lon="0.30779">
        <ele>116.4</ele>
        <time>2024-09-22T06:55:43Z</time>
      </trkpt>
      <trkpt lat="46.53451" lon="0.30782">
        <ele>116.4</ele>
        <time>2024-09-22T06:55:44Z</time>
      </trkpt>
      <trkpt lat="46.53439" lon="0.30789">
        <ele>116</ele>
        <time>2024-09-22T06:55:47Z</time>
      </trkpt>
      <trkpt lat="46.53436" lon="0.30792">
        <ele>115.8</ele>
        <time>2024-09-22T06:55:48Z</time>
      </trkpt>
      <trkpt lat="46.53432" lon="0.30794">
        <ele>115.6</ele>
        <time>2024-09-22T06:55:49Z</time>
      </trkpt>
      <trkpt lat="46.53425" lon="0.30798">
        <ele>115.4</ele>
        <time>2024-09-22T06:55:51Z</time>
      </trkpt>
      <trkpt lat="46.53395" lon="0.3081">
        <ele>114.6</ele>
        <time>2024-09-22T06:55:53Z</time>
      </trkpt>
      <trkpt lat="46.53368" lon="0.30821">
        <ele>114.2</ele>
        <time>2024-09-22T06:55:55Z</time>
      </trkpt>
      <trkpt lat="46.53362" lon="0.30823">
        <ele>113.8</ele>
        <time>2024-09-22T06:55:56Z</time>
      </trkpt>
      <trkpt lat="46.5335" lon="0.30828">
        <ele>113.4</ele>
        <time>2024-09-22T06:55:58Z</time>
      </trkpt>
      <trkpt lat="46.53345" lon="0.3083">
        <ele>113.2</ele>
        <time>2024-09-22T06:55:59Z</time>
      </trkpt>
      <trkpt lat="46.53334" lon="0.30834">
        <ele>112.8</ele>
        <time>2024-09-22T06:56:02Z</time>
      </trkpt>
      <trkpt lat="46.53331" lon="0.30835">
        <ele>112.6</ele>
        <time>2024-09-22T06:56:03Z</time>
      </trkpt>
      <trkpt lat="46.53328" lon="0.30837">
        <ele>112.6</ele>
        <time>2024-09-22T06:56:04Z</time>
      </trkpt>
      <trkpt lat="46.53324" lon="0.30843">
        <ele>111.8</ele>
        <time>2024-09-22T06:56:06Z</time>
      </trkpt>
      <trkpt lat="46.53316" lon="0.30852">
        <ele>111.2</ele>
        <time>2024-09-22T06:56:09Z</time>
      </trkpt>
      <trkpt lat="46.53295" lon="0.30872">
        <ele>110.8</ele>
        <time>2024-09-22T06:56:16Z</time>
      </trkpt>
      <trkpt lat="46.5329" lon="0.30877">
        <ele>110.8</ele>
        <time>2024-09-22T06:56:18Z</time>
      </trkpt>
      <trkpt lat="46.5328" lon="0.3089">
        <ele>111.2</ele>
        <time>2024-09-22T06:56:22Z</time>
      </trkpt>
      <trkpt lat="46.53266" lon="0.30907">
        <ele>111.8</ele>
        <time>2024-09-22T06:56:27Z</time>
      </trkpt>
      <trkpt lat="46.5326" lon="0.30914">
        <ele>112</ele>
        <time>2024-09-22T06:56:29Z</time>
      </trkpt>
      <trkpt lat="46.5325" lon="0.30927">
        <ele>112.8</ele>
        <time>2024-09-22T06:56:33Z</time>
      </trkpt>
      <trkpt lat="46.53245" lon="0.30936">
        <ele>114</ele>
        <time>2024-09-22T06:56:36Z</time>
      </trkpt>
      <trkpt lat="46.53243" lon="0.30939">
        <ele>114.2</ele>
        <time>2024-09-22T06:56:37Z</time>
      </trkpt>
      <trkpt lat="46.53238" lon="0.30955">
        <ele>113.8</ele>
        <time>2024-09-22T06:56:42Z</time>
      </trkpt>
      <trkpt lat="46.53237" lon="0.30957">
        <ele>113.6</ele>
        <time>2024-09-22T06:56:43Z</time>
      </trkpt>
      <trkpt lat="46.53235" lon="0.30962">
        <ele>113.4</ele>
        <time>2024-09-22T06:56:45Z</time>
      </trkpt>
      <trkpt lat="46.53231" lon="0.30977">
        <ele>113.4</ele>
        <time>2024-09-22T06:56:49Z</time>
      </trkpt>
      <trkpt lat="46.53221" lon="0.30995">
        <ele>115.2</ele>
        <time>2024-09-22T06:56:54Z</time>
      </trkpt>
      <trkpt lat="46.53218" lon="0.30997">
        <ele>115.6</ele>
        <time>2024-09-22T06:56:55Z</time>
      </trkpt>
      <trkpt lat="46.53218" lon="0.31">
        <ele>116.4</ele>
        <time>2024-09-22T06:56:57Z</time>
      </trkpt>
      <trkpt lat="46.53217" lon="0.31004">
        <ele>117.8</ele>
        <time>2024-09-22T06:57:00Z</time>
      </trkpt>
      <trkpt lat="46.53216" lon="0.31004">
        <ele>118.4</ele>
        <time>2024-09-22T06:57:01Z</time>
      </trkpt>
      <trkpt lat="46.53215" lon="0.31007">
        <ele>118.8</ele>
        <time>2024-09-22T06:57:02Z</time>
      </trkpt>
      <trkpt lat="46.53214" lon="0.31011">
        <ele>119.4</ele>
        <time>2024-09-22T06:57:04Z</time>
      </trkpt>
      <trkpt lat="46.53211" lon="0.31014">
        <ele>120</ele>
        <time>2024-09-22T06:57:06Z</time>
      </trkpt>
      <trkpt lat="46.53209" lon="0.31019">
        <ele>120.4</ele>
        <time>2024-09-22T06:57:08Z</time>
      </trkpt>
      <trkpt lat="46.53205" lon="0.31032">
        <ele>121.2</ele>
        <time>2024-09-22T06:57:13Z</time>
      </trkpt>
      <trkpt lat="46.53204" lon="0.31038">
        <ele>121.4</ele>
        <time>2024-09-22T06:57:15Z</time>
      </trkpt>
      <trkpt lat="46.53207" lon="0.31051">
        <ele>122.4</ele>
        <time>2024-09-22T06:57:19Z</time>
      </trkpt>
      <trkpt lat="46.53209" lon="0.31057">
        <ele>122.8</ele>
        <time>2024-09-22T06:57:22Z</time>
      </trkpt>
      <trkpt lat="46.5321" lon="0.31061">
        <ele>123.4</ele>
        <time>2024-09-22T06:57:24Z</time>
      </trkpt>
      <trkpt lat="46.53211" lon="0.31064">
        <ele>124.2</ele>
        <time>2024-09-22T06:57:26Z</time>
      </trkpt>
      <trkpt lat="46.53211" lon="0.31066">
        <ele>124.6</ele>
        <time>2024-09-22T06:57:27Z</time>
      </trkpt>
      <trkpt lat="46.53211" lon="0.31067">
        <ele>124.8</ele>
        <time>2024-09-22T06:57:28Z</time>
      </trkpt>
      <trkpt lat="46.5321" lon="0.31071">
        <ele>125</ele>
        <time>2024-09-22T06:57:30Z</time>
      </trkpt>
      <trkpt lat="46.5321" lon="0.31082">
        <ele>125.6</ele>
        <time>2024-09-22T06:57:34Z</time>
      </trkpt>
      <trkpt lat="46.5321" lon="0.31085">
        <ele>125.8</ele>
        <time>2024-09-22T06:57:35Z</time>
      </trkpt>
      <trkpt lat="46.53207" lon="0.31105">
        <ele>125.8</ele>
        <time>2024-09-22T06:57:42Z</time>
      </trkpt>
      <trkpt lat="46.53203" lon="0.31129">
        <ele>126.4</ele>
        <time>2024-09-22T06:57:49Z</time>
      </trkpt>
      <trkpt lat="46.532" lon="0.31139">
        <ele>126.6</ele>
        <time>2024-09-22T06:57:52Z</time>
      </trkpt>
      <trkpt lat="46.53195" lon="0.31156">
        <ele>127.4</ele>
        <time>2024-09-22T06:57:57Z</time>
      </trkpt>
      <trkpt lat="46.53191" lon="0.31163">
        <ele>127.6</ele>
        <time>2024-09-22T06:57:59Z</time>
      </trkpt>
      <trkpt lat="46.5319" lon="0.31166">
        <ele>127.6</ele>
        <time>2024-09-22T06:58:00Z</time>
      </trkpt>
      <trkpt lat="46.53189" lon="0.31169">
        <ele>127.6</ele>
        <time>2024-09-22T06:58:01Z</time>
      </trkpt>
      <trkpt lat="46.53184" lon="0.31184">
        <ele>127.8</ele>
        <time>2024-09-22T06:58:06Z</time>
      </trkpt>
      <trkpt lat="46.5318" lon="0.31192">
        <ele>127.6</ele>
        <time>2024-09-22T06:58:08Z</time>
      </trkpt>
      <trkpt lat="46.53177" lon="0.312">
        <ele>127.4</ele>
        <time>2024-09-22T06:58:10Z</time>
      </trkpt>
      <trkpt lat="46.53174" lon="0.31207">
        <ele>127</ele>
        <time>2024-09-22T06:58:12Z</time>
      </trkpt>
      <trkpt lat="46.53172" lon="0.3121">
        <ele>127</ele>
        <time>2024-09-22T06:58:13Z</time>
      </trkpt>
      <trkpt lat="46.53167" lon="0.31217">
        <ele>126.8</ele>
        <time>2024-09-22T06:58:15Z</time>
      </trkpt>
      <trkpt lat="46.53164" lon="0.31222">
        <ele>126.4</ele>
        <time>2024-09-22T06:58:16Z</time>
      </trkpt>
      <trkpt lat="46.53159" lon="0.31232">
        <ele>125.4</ele>
        <time>2024-09-22T06:58:18Z</time>
      </trkpt>
      <trkpt lat="46.53156" lon="0.31236">
        <ele>125</ele>
        <time>2024-09-22T06:58:19Z</time>
      </trkpt>
      <trkpt lat="46.53155" lon="0.31241">
        <ele>124</ele>
        <time>2024-09-22T06:58:20Z</time>
      </trkpt>
      <trkpt lat="46.53154" lon="0.31245">
        <ele>123.6</ele>
        <time>2024-09-22T06:58:21Z</time>
      </trkpt>
      <trkpt lat="46.53155" lon="0.31262">
        <ele>123</ele>
        <time>2024-09-22T06:58:24Z</time>
      </trkpt>
      <trkpt lat="46.53155" lon="0.31272">
        <ele>122.8</ele>
        <time>2024-09-22T06:58:26Z</time>
      </trkpt>
      <trkpt lat="46.53158" lon="0.31295">
        <ele>123</ele>
        <time>2024-09-22T06:58:31Z</time>
      </trkpt>
      <trkpt lat="46.53158" lon="0.31316">
        <ele>122.4</ele>
        <time>2024-09-22T06:58:36Z</time>
      </trkpt>
      <trkpt lat="46.53158" lon="0.31324">
        <ele>121.8</ele>
        <time>2024-09-22T06:58:38Z</time>
      </trkpt>
      <trkpt lat="46.53159" lon="0.31336">
        <ele>121.4</ele>
        <time>2024-09-22T06:58:41Z</time>
      </trkpt>
      <trkpt lat="46.5316" lon="0.31356">
        <ele>121</ele>
        <time>2024-09-22T06:58:46Z</time>
      </trkpt>
      <trkpt lat="46.5316" lon="0.31367">
        <ele>120.8</ele>
        <time>2024-09-22T06:58:50Z</time>
      </trkpt>
      <trkpt lat="46.53162" lon="0.31379">
        <ele>120.6</ele>
        <time>2024-09-22T06:58:53Z</time>
      </trkpt>
      <trkpt lat="46.53166" lon="0.31395">
        <ele>121</ele>
        <time>2024-09-22T06:58:59Z</time>
      </trkpt>
      <trkpt lat="46.53169" lon="0.31405">
        <ele>121.8</ele>
        <time>2024-09-22T06:59:03Z</time>
      </trkpt>
      <trkpt lat="46.5317" lon="0.31415">
        <ele>122</ele>
        <time>2024-09-22T06:59:06Z</time>
      </trkpt>
      <trkpt lat="46.53171" lon="0.31428">
        <ele>121.4</ele>
        <time>2024-09-22T06:59:12Z</time>
      </trkpt>
      <trkpt lat="46.53176" lon="0.31447">
        <ele>120.8</ele>
        <time>2024-09-22T06:59:17Z</time>
      </trkpt>
      <trkpt lat="46.53177" lon="0.31451">
        <ele>120.8</ele>
        <time>2024-09-22T06:59:18Z</time>
      </trkpt>
      <trkpt lat="46.53185" lon="0.31472">
        <ele>119.8</ele>
        <time>2024-09-22T06:59:23Z</time>
      </trkpt>
      <trkpt lat="46.53187" lon="0.31476">
        <ele>119.8</ele>
        <time>2024-09-22T06:59:24Z</time>
      </trkpt>
      <trkpt lat="46.53193" lon="0.31491">
        <ele>119.8</ele>
        <time>2024-09-22T06:59:28Z</time>
      </trkpt>
      <trkpt lat="46.53202" lon="0.3151">
        <ele>120.8</ele>
        <time>2024-09-22T06:59:34Z</time>
      </trkpt>
      <trkpt lat="46.53211" lon="0.31528">
        <ele>121.2</ele>
        <time>2024-09-22T06:59:40Z</time>
      </trkpt>
      <trkpt lat="46.53216" lon="0.31556">
        <ele>120.8</ele>
        <time>2024-09-22T06:59:46Z</time>
      </trkpt>
      <trkpt lat="46.53219" lon="0.31576">
        <ele>120.4</ele>
        <time>2024-09-22T06:59:51Z</time>
      </trkpt>
      <trkpt lat="46.53221" lon="0.31596">
        <ele>121.2</ele>
        <time>2024-09-22T06:59:56Z</time>
      </trkpt>
      <trkpt lat="46.53222" lon="0.31614">
        <ele>121.6</ele>
        <time>2024-09-22T07:00:01Z</time>
      </trkpt>
      <trkpt lat="46.53223" lon="0.31618">
        <ele>121.6</ele>
        <time>2024-09-22T07:00:02Z</time>
      </trkpt>
      <trkpt lat="46.53223" lon="0.31635">
        <ele>121.6</ele>
        <time>2024-09-22T07:00:06Z</time>
      </trkpt>
      <trkpt lat="46.53223" lon="0.31662">
        <ele>121.8</ele>
        <time>2024-09-22T07:00:10Z</time>
      </trkpt>
      <trkpt lat="46.53224" lon="0.31668">
        <ele>121.8</ele>
        <time>2024-09-22T07:00:11Z</time>
      </trkpt>
      <trkpt lat="46.53226" lon="0.31679">
        <ele>121.8</ele>
        <time>2024-09-22T07:00:13Z</time>
      </trkpt>
      <trkpt lat="46.53229" lon="0.31691">
        <ele>122</ele>
        <time>2024-09-22T07:00:16Z</time>
      </trkpt>
      <trkpt lat="46.53241" lon="0.31709">
        <ele>123</ele>
        <time>2024-09-22T07:00:22Z</time>
      </trkpt>
      <trkpt lat="46.53256" lon="0.31728">
        <ele>124</ele>
        <time>2024-09-22T07:00:28Z</time>
      </trkpt>
      <trkpt lat="46.5326" lon="0.31727">
        <ele>124.2</ele>
        <time>2024-09-22T07:00:30Z</time>
      </trkpt>
      <trkpt lat="46.53265" lon="0.31724">
        <ele>124.6</ele>
        <time>2024-09-22T07:00:32Z</time>
      </trkpt>
      <trkpt lat="46.53287" lon="0.31707">
        <ele>125</ele>
        <time>2024-09-22T07:00:39Z</time>
      </trkpt>
      <trkpt lat="46.5329" lon="0.31704">
        <ele>125.2</ele>
        <time>2024-09-22T07:00:40Z</time>
      </trkpt>
      <trkpt lat="46.53292" lon="0.317">
        <ele>125.2</ele>
        <time>2024-09-22T07:00:41Z</time>
      </trkpt>
      <trkpt lat="46.53295" lon="0.31697">
        <ele>125.4</ele>
        <time>2024-09-22T07:00:42Z</time>
      </trkpt>
      <trkpt lat="46.53305" lon="0.31688">
        <ele>125.6</ele>
        <time>2024-09-22T07:00:45Z</time>
      </trkpt>
      <trkpt lat="46.53325" lon="0.31669">
        <ele>126.4</ele>
        <time>2024-09-22T07:00:51Z</time>
      </trkpt>
      <trkpt lat="46.53327" lon="0.31664">
        <ele>126.4</ele>
        <time>2024-09-22T07:00:52Z</time>
      </trkpt>
      <trkpt lat="46.53336" lon="0.31647">
        <ele>126.8</ele>
        <time>2024-09-22T07:00:56Z</time>
      </trkpt>
      <trkpt lat="46.53344" lon="0.31636">
        <ele>126.8</ele>
        <time>2024-09-22T07:00:59Z</time>
      </trkpt>
      <trkpt lat="46.53361" lon="0.31609">
        <ele>127</ele>
        <time>2024-09-22T07:01:05Z</time>
      </trkpt>
      <trkpt lat="46.53363" lon="0.31604">
        <ele>127</ele>
        <time>2024-09-22T07:01:06Z</time>
      </trkpt>
      <trkpt lat="46.53387" lon="0.31573">
        <ele>127.2</ele>
        <time>2024-09-22T07:01:13Z</time>
      </trkpt>
      <trkpt lat="46.53398" lon="0.31558">
        <ele>127.4</ele>
        <time>2024-09-22T07:01:16Z</time>
      </trkpt>
      <trkpt lat="46.53415" lon="0.31533">
        <ele>128.2</ele>
        <time>2024-09-22T07:01:22Z</time>
      </trkpt>
      <trkpt lat="46.53417" lon="0.31528">
        <ele>128.6</ele>
        <time>2024-09-22T07:01:23Z</time>
      </trkpt>
      <trkpt lat="46.5342" lon="0.31523">
        <ele>128.8</ele>
        <time>2024-09-22T07:01:24Z</time>
      </trkpt>
      <trkpt lat="46.53432" lon="0.315">
        <ele>129.2</ele>
        <time>2024-09-22T07:01:28Z</time>
      </trkpt>
      <trkpt lat="46.53433" lon="0.31495">
        <ele>129.2</ele>
        <time>2024-09-22T07:01:29Z</time>
      </trkpt>
      <trkpt lat="46.53435" lon="0.31484">
        <ele>129.6</ele>
        <time>2024-09-22T07:01:31Z</time>
      </trkpt>
      <trkpt lat="46.5344" lon="0.31476">
        <ele>129.8</ele>
        <time>2024-09-22T07:01:33Z</time>
      </trkpt>
      <trkpt lat="46.53443" lon="0.31475">
        <ele>130</ele>
        <time>2024-09-22T07:01:34Z</time>
      </trkpt>
      <trkpt lat="46.53457" lon="0.31471">
        <ele>130</ele>
        <time>2024-09-22T07:01:38Z</time>
      </trkpt>
      <trkpt lat="46.53464" lon="0.31469">
        <ele>130.2</ele>
        <time>2024-09-22T07:01:40Z</time>
      </trkpt>
      <trkpt lat="46.53478" lon="0.31468">
        <ele>130.8</ele>
        <time>2024-09-22T07:01:44Z</time>
      </trkpt>
      <trkpt lat="46.53491" lon="0.31468">
        <ele>130.8</ele>
        <time>2024-09-22T07:01:47Z</time>
      </trkpt>
      <trkpt lat="46.53495" lon="0.31467">
        <ele>130.8</ele>
        <time>2024-09-22T07:01:48Z</time>
      </trkpt>
      <trkpt lat="46.53515" lon="0.31467">
        <ele>130.6</ele>
        <time>2024-09-22T07:01:53Z</time>
      </trkpt>
      <trkpt lat="46.53522" lon="0.31469">
        <ele>130.6</ele>
        <time>2024-09-22T07:01:55Z</time>
      </trkpt>
      <trkpt lat="46.53547" lon="0.31481">
        <ele>130.2</ele>
        <time>2024-09-22T07:02:01Z</time>
      </trkpt>
      <trkpt lat="46.5356" lon="0.31487">
        <ele>129.8</ele>
        <time>2024-09-22T07:02:04Z</time>
      </trkpt>
      <trkpt lat="46.53565" lon="0.3149">
        <ele>129.6</ele>
        <time>2024-09-22T07:02:05Z</time>
      </trkpt>
      <trkpt lat="46.53577" lon="0.31498">
        <ele>129</ele>
        <time>2024-09-22T07:02:08Z</time>
      </trkpt>
      <trkpt lat="46.53582" lon="0.315">
        <ele>128.8</ele>
        <time>2024-09-22T07:02:09Z</time>
      </trkpt>
      <trkpt lat="46.53592" lon="0.31501">
        <ele>128.6</ele>
        <time>2024-09-22T07:02:11Z</time>
      </trkpt>
      <trkpt lat="46.53597" lon="0.31501">
        <ele>128.4</ele>
        <time>2024-09-22T07:02:12Z</time>
      </trkpt>
      <trkpt lat="46.53614" lon="0.31503">
        <ele>127.6</ele>
        <time>2024-09-22T07:02:15Z</time>
      </trkpt>
      <trkpt lat="46.53626" lon="0.31506">
        <ele>127.2</ele>
        <time>2024-09-22T07:02:17Z</time>
      </trkpt>
      <trkpt lat="46.53631" lon="0.31507">
        <ele>127.2</ele>
        <time>2024-09-22T07:02:18Z</time>
      </trkpt>
      <trkpt lat="46.5364" lon="0.31512">
        <ele>127.2</ele>
        <time>2024-09-22T07:02:21Z</time>
      </trkpt>
      <trkpt lat="46.53642" lon="0.31517">
        <ele>127.2</ele>
        <time>2024-09-22T07:02:23Z</time>
      </trkpt>
      <trkpt lat="46.53645" lon="0.31533">
        <ele>126.8</ele>
        <time>2024-09-22T07:02:27Z</time>
      </trkpt>
      <trkpt lat="46.53646" lon="0.31538">
        <ele>126.2</ele>
        <time>2024-09-22T07:02:28Z</time>
      </trkpt>
      <trkpt lat="46.53643" lon="0.31566">
        <ele>125.6</ele>
        <time>2024-09-22T07:02:32Z</time>
      </trkpt>
      <trkpt lat="46.53641" lon="0.31579">
        <ele>125.6</ele>
        <time>2024-09-22T07:02:34Z</time>
      </trkpt>
      <trkpt lat="46.53636" lon="0.31594">
        <ele>125.4</ele>
        <time>2024-09-22T07:02:37Z</time>
      </trkpt>
      <trkpt lat="46.53633" lon="0.31598">
        <ele>125.4</ele>
        <time>2024-09-22T07:02:38Z</time>
      </trkpt>
      <trkpt lat="46.53631" lon="0.31601">
        <ele>125.2</ele>
        <time>2024-09-22T07:02:39Z</time>
      </trkpt>
      <trkpt lat="46.53629" lon="0.31604">
        <ele>125</ele>
        <time>2024-09-22T07:02:40Z</time>
      </trkpt>
      <trkpt lat="46.53626" lon="0.31609">
        <ele>124.8</ele>
        <time>2024-09-22T07:02:42Z</time>
      </trkpt>
      <trkpt lat="46.53622" lon="0.31625">
        <ele>124.4</ele>
        <time>2024-09-22T07:02:44Z</time>
      </trkpt>
      <trkpt lat="46.53613" lon="0.31653">
        <ele>124.4</ele>
        <time>2024-09-22T07:02:48Z</time>
      </trkpt>
      <trkpt lat="46.53612" lon="0.31658">
        <ele>124.4</ele>
        <time>2024-09-22T07:02:49Z</time>
      </trkpt>
      <trkpt lat="46.53607" lon="0.31667">
        <ele>124.6</ele>
        <time>2024-09-22T07:02:51Z</time>
      </trkpt>
      <trkpt lat="46.53602" lon="0.31676">
        <ele>124.8</ele>
        <time>2024-09-22T07:02:53Z</time>
      </trkpt>
      <trkpt lat="46.53595" lon="0.31693">
        <ele>124.8</ele>
        <time>2024-09-22T07:02:55Z</time>
      </trkpt>
      <trkpt lat="46.53589" lon="0.31704">
        <ele>124.8</ele>
        <time>2024-09-22T07:02:57Z</time>
      </trkpt>
      <trkpt lat="46.53582" lon="0.3172">
        <ele>124.4</ele>
        <time>2024-09-22T07:02:59Z</time>
      </trkpt>
      <trkpt lat="46.53578" lon="0.31729">
        <ele>124.2</ele>
        <time>2024-09-22T07:03:00Z</time>
      </trkpt>
      <trkpt lat="46.53573" lon="0.31736">
        <ele>124</ele>
        <time>2024-09-22T07:03:01Z</time>
      </trkpt>
      <trkpt lat="46.53549" lon="0.31769">
        <ele>123.2</ele>
        <time>2024-09-22T07:03:06Z</time>
      </trkpt>
      <trkpt lat="46.53544" lon="0.31778">
        <ele>123</ele>
        <time>2024-09-22T07:03:07Z</time>
      </trkpt>
      <trkpt lat="46.53539" lon="0.31787">
        <ele>122.8</ele>
        <time>2024-09-22T07:03:08Z</time>
      </trkpt>
      <trkpt lat="46.53524" lon="0.31812">
        <ele>122.6</ele>
        <time>2024-09-22T07:03:11Z</time>
      </trkpt>
      <trkpt lat="46.53521" lon="0.3182">
        <ele>122.4</ele>
        <time>2024-09-22T07:03:12Z</time>
      </trkpt>
      <trkpt lat="46.53518" lon="0.31827">
        <ele>122.2</ele>
        <time>2024-09-22T07:03:13Z</time>
      </trkpt>
      <trkpt lat="46.53513" lon="0.31839">
        <ele>120.6</ele>
        <time>2024-09-22T07:03:15Z</time>
      </trkpt>
      <trkpt lat="46.53508" lon="0.31849">
        <ele>120.2</ele>
        <time>2024-09-22T07:03:17Z</time>
      </trkpt>
      <trkpt lat="46.53504" lon="0.31856">
        <ele>119</ele>
        <time>2024-09-22T07:03:19Z</time>
      </trkpt>
      <trkpt lat="46.53498" lon="0.31866">
        <ele>117.8</ele>
        <time>2024-09-22T07:03:21Z</time>
      </trkpt>
      <trkpt lat="46.53493" lon="0.31876">
        <ele>117</ele>
        <time>2024-09-22T07:03:23Z</time>
      </trkpt>
      <trkpt lat="46.53492" lon="0.31883">
        <ele>116.6</ele>
        <time>2024-09-22T07:03:24Z</time>
      </trkpt>
      <trkpt lat="46.5349" lon="0.31894">
        <ele>116.4</ele>
        <time>2024-09-22T07:03:27Z</time>
      </trkpt>
      <trkpt lat="46.53489" lon="0.31896">
        <ele>116.4</ele>
        <time>2024-09-22T07:03:28Z</time>
      </trkpt>
      <trkpt lat="46.53489" lon="0.31905">
        <ele>117.8</ele>
        <time>2024-09-22T07:03:31Z</time>
      </trkpt>
      <trkpt lat="46.5349" lon="0.3191">
        <ele>118.2</ele>
        <time>2024-09-22T07:03:32Z</time>
      </trkpt>
      <trkpt lat="46.53493" lon="0.31917">
        <ele>118.8</ele>
        <time>2024-09-22T07:03:34Z</time>
      </trkpt>
      <trkpt lat="46.53496" lon="0.31923">
        <ele>119.8</ele>
        <time>2024-09-22T07:03:36Z</time>
      </trkpt>
      <trkpt lat="46.53499" lon="0.31928">
        <ele>121</ele>
        <time>2024-09-22T07:03:39Z</time>
      </trkpt>
      <trkpt lat="46.53503" lon="0.31929">
        <ele>122.2</ele>
        <time>2024-09-22T07:03:41Z</time>
      </trkpt>
      <trkpt lat="46.53508" lon="0.31925">
        <ele>123.2</ele>
        <time>2024-09-22T07:03:44Z</time>
      </trkpt>
      <trkpt lat="46.5351" lon="0.31923">
        <ele>123.6</ele>
        <time>2024-09-22T07:03:45Z</time>
      </trkpt>
      <trkpt lat="46.53524" lon="0.31909">
        <ele>124.8</ele>
        <time>2024-09-22T07:03:51Z</time>
      </trkpt>
      <trkpt lat="46.5354" lon="0.31896">
        <ele>126</ele>
        <time>2024-09-22T07:03:57Z</time>
      </trkpt>
      <trkpt lat="46.53552" lon="0.31892">
        <ele>126.4</ele>
        <time>2024-09-22T07:04:02Z</time>
      </trkpt>
      <trkpt lat="46.53558" lon="0.31894">
        <ele>127</ele>
        <time>2024-09-22T07:04:04Z</time>
      </trkpt>
      <trkpt lat="46.53566" lon="0.31897">
        <ele>127.6</ele>
        <time>2024-09-22T07:04:07Z</time>
      </trkpt>
      <trkpt lat="46.53582" lon="0.319">
        <ele>128.2</ele>
        <time>2024-09-22T07:04:14Z</time>
      </trkpt>
      <trkpt lat="46.53594" lon="0.31901">
        <ele>129.2</ele>
        <time>2024-09-22T07:04:19Z</time>
      </trkpt>
      <trkpt lat="46.53597" lon="0.31901">
        <ele>129.2</ele>
        <time>2024-09-22T07:04:20Z</time>
      </trkpt>
      <trkpt lat="46.53626" lon="0.31903">
        <ele>129.4</ele>
        <time>2024-09-22T07:04:28Z</time>
      </trkpt>
      <trkpt lat="46.53644" lon="0.31902">
        <ele>129.6</ele>
        <time>2024-09-22T07:04:33Z</time>
      </trkpt>
      <trkpt lat="46.53655" lon="0.31897">
        <ele>130.2</ele>
        <time>2024-09-22T07:04:36Z</time>
      </trkpt>
      <trkpt lat="46.53659" lon="0.31895">
        <ele>130.2</ele>
        <time>2024-09-22T07:04:37Z</time>
      </trkpt>
      <trkpt lat="46.53678" lon="0.31892">
        <ele>130.8</ele>
        <time>2024-09-22T07:04:42Z</time>
      </trkpt>
      <trkpt lat="46.53688" lon="0.3189">
        <ele>131</ele>
        <time>2024-09-22T07:04:44Z</time>
      </trkpt>
      <trkpt lat="46.53704" lon="0.31886">
        <ele>131.4</ele>
        <time>2024-09-22T07:04:47Z</time>
      </trkpt>
      <trkpt lat="46.53708" lon="0.31885">
        <ele>131.4</ele>
        <time>2024-09-22T07:04:48Z</time>
      </trkpt>
      <trkpt lat="46.53718" lon="0.31884">
        <ele>131.8</ele>
        <time>2024-09-22T07:04:50Z</time>
      </trkpt>
      <trkpt lat="46.53729" lon="0.31882">
        <ele>132.6</ele>
        <time>2024-09-22T07:04:52Z</time>
      </trkpt>
      <trkpt lat="46.53738" lon="0.3188">
        <ele>133</ele>
        <time>2024-09-22T07:04:54Z</time>
      </trkpt>
      <trkpt lat="46.53747" lon="0.31879">
        <ele>133.4</ele>
        <time>2024-09-22T07:04:56Z</time>
      </trkpt>
      <trkpt lat="46.53758" lon="0.31876">
        <ele>133.4</ele>
        <time>2024-09-22T07:04:59Z</time>
      </trkpt>
      <trkpt lat="46.53766" lon="0.31874">
        <ele>133.6</ele>
        <time>2024-09-22T07:05:01Z</time>
      </trkpt>
      <trkpt lat="46.53775" lon="0.31871">
        <ele>133.6</ele>
        <time>2024-09-22T07:05:03Z</time>
      </trkpt>
      <trkpt lat="46.53791" lon="0.31864">
        <ele>134</ele>
        <time>2024-09-22T07:05:07Z</time>
      </trkpt>
      <trkpt lat="46.53822" lon="0.31855">
        <ele>134.6</ele>
        <time>2024-09-22T07:05:14Z</time>
      </trkpt>
      <trkpt lat="46.5383" lon="0.31852">
        <ele>134.8</ele>
        <time>2024-09-22T07:05:16Z</time>
      </trkpt>
      <trkpt lat="46.53838" lon="0.31851">
        <ele>135</ele>
        <time>2024-09-22T07:05:18Z</time>
      </trkpt>
      <trkpt lat="46.53844" lon="0.31849">
        <ele>135</ele>
        <time>2024-09-22T07:05:20Z</time>
      </trkpt>
      <trkpt lat="46.53848" lon="0.31847">
        <ele>135</ele>
        <time>2024-09-22T07:05:21Z</time>
      </trkpt>
      <trkpt lat="46.53861" lon="0.31843">
        <ele>135</ele>
        <time>2024-09-22T07:05:24Z</time>
      </trkpt>
      <trkpt lat="46.53868" lon="0.31839">
        <ele>135</ele>
        <time>2024-09-22T07:05:26Z</time>
      </trkpt>
      <trkpt lat="46.53874" lon="0.31834">
        <ele>135</ele>
        <time>2024-09-22T07:05:27Z</time>
      </trkpt>
      <trkpt lat="46.53877" lon="0.3183">
        <ele>135</ele>
        <time>2024-09-22T07:05:28Z</time>
      </trkpt>
      <trkpt lat="46.53882" lon="0.31821">
        <ele>135.2</ele>
        <time>2024-09-22T07:05:30Z</time>
      </trkpt>
      <trkpt lat="46.53885" lon="0.31814">
        <ele>135.6</ele>
        <time>2024-09-22T07:05:32Z</time>
      </trkpt>
      <trkpt lat="46.53894" lon="0.31806">
        <ele>135.6</ele>
        <time>2024-09-22T07:05:35Z</time>
      </trkpt>
      <trkpt lat="46.53898" lon="0.31805">
        <ele>135.8</ele>
        <time>2024-09-22T07:05:36Z</time>
      </trkpt>
      <trkpt lat="46.53901" lon="0.31804">
        <ele>135.8</ele>
        <time>2024-09-22T07:05:37Z</time>
      </trkpt>
      <trkpt lat="46.53912" lon="0.31803">
        <ele>135.8</ele>
        <time>2024-09-22T07:05:40Z</time>
      </trkpt>
      <trkpt lat="46.5392" lon="0.31803">
        <ele>136</ele>
        <time>2024-09-22T07:05:42Z</time>
      </trkpt>
      <trkpt lat="46.53926" lon="0.31801">
        <ele>136.2</ele>
        <time>2024-09-22T07:05:43Z</time>
      </trkpt>
      <trkpt lat="46.53943" lon="0.31798">
        <ele>136.8</ele>
        <time>2024-09-22T07:05:48Z</time>
      </trkpt>
      <trkpt lat="46.53946" lon="0.31798">
        <ele>136.8</ele>
        <time>2024-09-22T07:05:49Z</time>
      </trkpt>
      <trkpt lat="46.53949" lon="0.31797">
        <ele>137</ele>
        <time>2024-09-22T07:05:50Z</time>
      </trkpt>
      <trkpt lat="46.53958" lon="0.31794">
        <ele>137.2</ele>
        <time>2024-09-22T07:05:52Z</time>
      </trkpt>
      <trkpt lat="46.5398" lon="0.31793">
        <ele>137</ele>
        <time>2024-09-22T07:05:57Z</time>
      </trkpt>
      <trkpt lat="46.54011" lon="0.31791">
        <ele>137.6</ele>
        <time>2024-09-22T07:06:03Z</time>
      </trkpt>
      <trkpt lat="46.54016" lon="0.31789">
        <ele>137.6</ele>
        <time>2024-09-22T07:06:04Z</time>
      </trkpt>
      <trkpt lat="46.5405" lon="0.31785">
        <ele>137.8</ele>
        <time>2024-09-22T07:06:09Z</time>
      </trkpt>
      <trkpt lat="46.54056" lon="0.31785">
        <ele>137.8</ele>
        <time>2024-09-22T07:06:10Z</time>
      </trkpt>
      <trkpt lat="46.54061" lon="0.31785">
        <ele>137.8</ele>
        <time>2024-09-22T07:06:11Z</time>
      </trkpt>
      <trkpt lat="46.54092" lon="0.31789">
        <ele>136.8</ele>
        <time>2024-09-22T07:06:16Z</time>
      </trkpt>
      <trkpt lat="46.54121" lon="0.31797">
        <ele>137</ele>
        <time>2024-09-22T07:06:22Z</time>
      </trkpt>
      <trkpt lat="46.54142" lon="0.31807">
        <ele>136</ele>
        <time>2024-09-22T07:06:26Z</time>
      </trkpt>
      <trkpt lat="46.54147" lon="0.3181">
        <ele>135.4</ele>
        <time>2024-09-22T07:06:27Z</time>
      </trkpt>
      <trkpt lat="46.54164" lon="0.31824">
        <ele>135</ele>
        <time>2024-09-22T07:06:31Z</time>
      </trkpt>
      <trkpt lat="46.54176" lon="0.31835">
        <ele>135.2</ele>
        <time>2024-09-22T07:06:33Z</time>
      </trkpt>
      <trkpt lat="46.54181" lon="0.31841">
        <ele>135.2</ele>
        <time>2024-09-22T07:06:34Z</time>
      </trkpt>
      <trkpt lat="46.54191" lon="0.31855">
        <ele>135.4</ele>
        <time>2024-09-22T07:06:36Z</time>
      </trkpt>
      <trkpt lat="46.54195" lon="0.31861">
        <ele>135.4</ele>
        <time>2024-09-22T07:06:37Z</time>
      </trkpt>
      <trkpt lat="46.54212" lon="0.31905">
        <ele>135.2</ele>
        <time>2024-09-22T07:06:42Z</time>
      </trkpt>
      <trkpt lat="46.54217" lon="0.31941">
        <ele>134.4</ele>
        <time>2024-09-22T07:06:46Z</time>
      </trkpt>
      <trkpt lat="46.54221" lon="0.31959">
        <ele>133.8</ele>
        <time>2024-09-22T07:06:48Z</time>
      </trkpt>
      <trkpt lat="46.54227" lon="0.3199">
        <ele>133.2</ele>
        <time>2024-09-22T07:06:52Z</time>
      </trkpt>
      <trkpt lat="46.54227" lon="0.31996">
        <ele>133.2</ele>
        <time>2024-09-22T07:06:53Z</time>
      </trkpt>
      <trkpt lat="46.54225" lon="0.32017">
        <ele>132.6</ele>
        <time>2024-09-22T07:06:55Z</time>
      </trkpt>
      <trkpt lat="46.54224" lon="0.32038">
        <ele>132.4</ele>
        <time>2024-09-22T07:06:57Z</time>
      </trkpt>
      <trkpt lat="46.54223" lon="0.32048">
        <ele>132.2</ele>
        <time>2024-09-22T07:06:58Z</time>
      </trkpt>
      <trkpt lat="46.54221" lon="0.32097">
        <ele>131.8</ele>
        <time>2024-09-22T07:07:02Z</time>
      </trkpt>
      <trkpt lat="46.54218" lon="0.32122">
        <ele>131.2</ele>
        <time>2024-09-22T07:07:04Z</time>
      </trkpt>
      <trkpt lat="46.54216" lon="0.32169">
        <ele>130.2</ele>
        <time>2024-09-22T07:07:08Z</time>
      </trkpt>
      <trkpt lat="46.54218" lon="0.32188">
        <ele>130.2</ele>
        <time>2024-09-22T07:07:10Z</time>
      </trkpt>
      <trkpt lat="46.54223" lon="0.32201">
        <ele>129.6</ele>
        <time>2024-09-22T07:07:12Z</time>
      </trkpt>
      <trkpt lat="46.54226" lon="0.32212">
        <ele>129</ele>
        <time>2024-09-22T07:07:14Z</time>
      </trkpt>
      <trkpt lat="46.54226" lon="0.3222">
        <ele>128.8</ele>
        <time>2024-09-22T07:07:16Z</time>
      </trkpt>
      <trkpt lat="46.54225" lon="0.32227">
        <ele>128.8</ele>
        <time>2024-09-22T07:07:18Z</time>
      </trkpt>
      <trkpt lat="46.54226" lon="0.32235">
        <ele>128.6</ele>
        <time>2024-09-22T07:07:20Z</time>
      </trkpt>
      <trkpt lat="46.54228" lon="0.32237">
        <ele>128.6</ele>
        <time>2024-09-22T07:07:21Z</time>
      </trkpt>
      <trkpt lat="46.5423" lon="0.32239">
        <ele>128.6</ele>
        <time>2024-09-22T07:07:22Z</time>
      </trkpt>
      <trkpt lat="46.54234" lon="0.32246">
        <ele>128.6</ele>
        <time>2024-09-22T07:07:25Z</time>
      </trkpt>
      <trkpt lat="46.54236" lon="0.32249">
        <ele>128.8</ele>
        <time>2024-09-22T07:07:26Z</time>
      </trkpt>
      <trkpt lat="46.54246" lon="0.3226">
        <ele>129.2</ele>
        <time>2024-09-22T07:07:32Z</time>
      </trkpt>
      <trkpt lat="46.54254" lon="0.32267">
        <ele>129.8</ele>
        <time>2024-09-22T07:07:36Z</time>
      </trkpt>
      <trkpt lat="46.54257" lon="0.32274">
        <ele>129.8</ele>
        <time>2024-09-22T07:07:38Z</time>
      </trkpt>
      <trkpt lat="46.54259" lon="0.32277">
        <ele>129.8</ele>
        <time>2024-09-22T07:07:39Z</time>
      </trkpt>
      <trkpt lat="46.54268" lon="0.32291">
        <ele>129.6</ele>
        <time>2024-09-22T07:07:44Z</time>
      </trkpt>
      <trkpt lat="46.5427" lon="0.32294">
        <ele>129.6</ele>
        <time>2024-09-22T07:07:45Z</time>
      </trkpt>
      <trkpt lat="46.54275" lon="0.32298">
        <ele>129.4</ele>
        <time>2024-09-22T07:07:47Z</time>
      </trkpt>
      <trkpt lat="46.54278" lon="0.32302">
        <ele>129.4</ele>
        <time>2024-09-22T07:07:48Z</time>
      </trkpt>
      <trkpt lat="46.54285" lon="0.32312">
        <ele>129.4</ele>
        <time>2024-09-22T07:07:51Z</time>
      </trkpt>
      <trkpt lat="46.54288" lon="0.32315">
        <ele>129.4</ele>
        <time>2024-09-22T07:07:53Z</time>
      </trkpt>
      <trkpt lat="46.54292" lon="0.3232">
        <ele>129.4</ele>
        <time>2024-09-22T07:07:55Z</time>
      </trkpt>
      <trkpt lat="46.54292" lon="0.32326">
        <ele>129.4</ele>
        <time>2024-09-22T07:07:57Z</time>
      </trkpt>
      <trkpt lat="46.54288" lon="0.32337">
        <ele>129</ele>
        <time>2024-09-22T07:08:04Z</time>
      </trkpt>
      <trkpt lat="46.54289" lon="0.32345">
        <ele>128.8</ele>
        <time>2024-09-22T07:08:08Z</time>
      </trkpt>
      <trkpt lat="46.54291" lon="0.32348">
        <ele>128.8</ele>
        <time>2024-09-22T07:08:09Z</time>
      </trkpt>
      <trkpt lat="46.54294" lon="0.3235">
        <ele>128.8</ele>
        <time>2024-09-22T07:08:10Z</time>
      </trkpt>
      <trkpt lat="46.54299" lon="0.32358">
        <ele>128.4</ele>
        <time>2024-09-22T07:08:12Z</time>
      </trkpt>
      <trkpt lat="46.54303" lon="0.32363">
        <ele>128.2</ele>
        <time>2024-09-22T07:08:14Z</time>
      </trkpt>
      <trkpt lat="46.54306" lon="0.32366">
        <ele>128</ele>
        <time>2024-09-22T07:08:15Z</time>
      </trkpt>
      <trkpt lat="46.54308" lon="0.32369">
        <ele>128</ele>
        <time>2024-09-22T07:08:16Z</time>
      </trkpt>
      <trkpt lat="46.5431" lon="0.3237">
        <ele>128</ele>
        <time>2024-09-22T07:08:17Z</time>
      </trkpt>
      <trkpt lat="46.54318" lon="0.32374">
        <ele>128</ele>
        <time>2024-09-22T07:08:20Z</time>
      </trkpt>
      <trkpt lat="46.54323" lon="0.32374">
        <ele>128</ele>
        <time>2024-09-22T07:08:22Z</time>
      </trkpt>
      <trkpt lat="46.54331" lon="0.32375">
        <ele>128.2</ele>
        <time>2024-09-22T07:08:25Z</time>
      </trkpt>
      <trkpt lat="46.54336" lon="0.32374">
        <ele>128.2</ele>
        <time>2024-09-22T07:08:27Z</time>
      </trkpt>
      <trkpt lat="46.54354" lon="0.32371">
        <ele>128.6</ele>
        <time>2024-09-22T07:08:33Z</time>
      </trkpt>
      <trkpt lat="46.54358" lon="0.32371">
        <ele>128.8</ele>
        <time>2024-09-22T07:08:34Z</time>
      </trkpt>
      <trkpt lat="46.54368" lon="0.32377">
        <ele>128.8</ele>
        <time>2024-09-22T07:08:37Z</time>
      </trkpt>
      <trkpt lat="46.54374" lon="0.3238">
        <ele>129</ele>
        <time>2024-09-22T07:08:39Z</time>
      </trkpt>
      <trkpt lat="46.54386" lon="0.3238">
        <ele>129</ele>
        <time>2024-09-22T07:08:42Z</time>
      </trkpt>
      <trkpt lat="46.54389" lon="0.32381">
        <ele>128.8</ele>
        <time>2024-09-22T07:08:43Z</time>
      </trkpt>
      <trkpt lat="46.54397" lon="0.32385">
        <ele>128.8</ele>
        <time>2024-09-22T07:08:45Z</time>
      </trkpt>
      <trkpt lat="46.54405" lon="0.32389">
        <ele>128.6</ele>
        <time>2024-09-22T07:08:47Z</time>
      </trkpt>
      <trkpt lat="46.54422" lon="0.32404">
        <ele>128</ele>
        <time>2024-09-22T07:08:53Z</time>
      </trkpt>
      <trkpt lat="46.54425" lon="0.32407">
        <ele>127.8</ele>
        <time>2024-09-22T07:08:54Z</time>
      </trkpt>
      <trkpt lat="46.54436" lon="0.32421">
        <ele>127.6</ele>
        <time>2024-09-22T07:08:58Z</time>
      </trkpt>
      <trkpt lat="46.54443" lon="0.32435">
        <ele>127.2</ele>
        <time>2024-09-22T07:09:03Z</time>
      </trkpt>
      <trkpt lat="46.54452" lon="0.32444">
        <ele>126.8</ele>
        <time>2024-09-22T07:09:07Z</time>
      </trkpt>
      <trkpt lat="46.54453" lon="0.32443">
        <ele>126.6</ele>
        <time>2024-09-22T07:09:08Z</time>
      </trkpt>
      <trkpt lat="46.54456" lon="0.32443">
        <ele>126.4</ele>
        <time>2024-09-22T07:09:09Z</time>
      </trkpt>
      <trkpt lat="46.54459" lon="0.32441">
        <ele>126.4</ele>
        <time>2024-09-22T07:09:11Z</time>
      </trkpt>
      <trkpt lat="46.54465" lon="0.32443">
        <ele>126.4</ele>
        <time>2024-09-22T07:09:13Z</time>
      </trkpt>
      <trkpt lat="46.54469" lon="0.32443">
        <ele>126.4</ele>
        <time>2024-09-22T07:09:15Z</time>
      </trkpt>
      <trkpt lat="46.54474" lon="0.32444">
        <ele>126.4</ele>
        <time>2024-09-22T07:09:17Z</time>
      </trkpt>
      <trkpt lat="46.54478" lon="0.32448">
        <ele>126.2</ele>
        <time>2024-09-22T07:09:19Z</time>
      </trkpt>
      <trkpt lat="46.54489" lon="0.32463">
        <ele>125.8</ele>
        <time>2024-09-22T07:09:24Z</time>
      </trkpt>
      <trkpt lat="46.54495" lon="0.32474">
        <ele>125.6</ele>
        <time>2024-09-22T07:09:27Z</time>
      </trkpt>
      <trkpt lat="46.54496" lon="0.32481">
        <ele>125.2</ele>
        <time>2024-09-22T07:09:29Z</time>
      </trkpt>
      <trkpt lat="46.54496" lon="0.32486">
        <ele>125.2</ele>
        <time>2024-09-22T07:09:30Z</time>
      </trkpt>
      <trkpt lat="46.54496" lon="0.32489">
        <ele>125</ele>
        <time>2024-09-22T07:09:31Z</time>
      </trkpt>
      <trkpt lat="46.54493" lon="0.32494">
        <ele>124.8</ele>
        <time>2024-09-22T07:09:33Z</time>
      </trkpt>
      <trkpt lat="46.54491" lon="0.32496">
        <ele>124.8</ele>
        <time>2024-09-22T07:09:34Z</time>
      </trkpt>
      <trkpt lat="46.5449" lon="0.32501">
        <ele>124.8</ele>
        <time>2024-09-22T07:09:37Z</time>
      </trkpt>
      <trkpt lat="46.54487" lon="0.32507">
        <ele>124.8</ele>
        <time>2024-09-22T07:09:40Z</time>
      </trkpt>
      <trkpt lat="46.54487" lon="0.32509">
        <ele>124.6</ele>
        <time>2024-09-22T07:09:41Z</time>
      </trkpt>
      <trkpt lat="46.54488" lon="0.32518">
        <ele>124</ele>
        <time>2024-09-22T07:09:44Z</time>
      </trkpt>
      <trkpt lat="46.54488" lon="0.32523">
        <ele>124</ele>
        <time>2024-09-22T07:09:45Z</time>
      </trkpt>
      <trkpt lat="46.54492" lon="0.32532">
        <ele>124</ele>
        <time>2024-09-22T07:09:47Z</time>
      </trkpt>
      <trkpt lat="46.54496" lon="0.32547">
        <ele>123</ele>
        <time>2024-09-22T07:09:50Z</time>
      </trkpt>
      <trkpt lat="46.54498" lon="0.32551">
        <ele>122.4</ele>
        <time>2024-09-22T07:09:51Z</time>
      </trkpt>
      <trkpt lat="46.54499" lon="0.32555">
        <ele>122</ele>
        <time>2024-09-22T07:09:52Z</time>
      </trkpt>
      <trkpt lat="46.54501" lon="0.32559">
        <ele>121.8</ele>
        <time>2024-09-22T07:09:53Z</time>
      </trkpt>
      <trkpt lat="46.54502" lon="0.32563">
        <ele>121.6</ele>
        <time>2024-09-22T07:09:54Z</time>
      </trkpt>
      <trkpt lat="46.54503" lon="0.32573">
        <ele>121.2</ele>
        <time>2024-09-22T07:09:56Z</time>
      </trkpt>
      <trkpt lat="46.54501" lon="0.32581">
        <ele>121</ele>
        <time>2024-09-22T07:09:58Z</time>
      </trkpt>
      <trkpt lat="46.54499" lon="0.32585">
        <ele>120.6</ele>
        <time>2024-09-22T07:10:00Z</time>
      </trkpt>
      <trkpt lat="46.54496" lon="0.32588">
        <ele>120.2</ele>
        <time>2024-09-22T07:10:02Z</time>
      </trkpt>
      <trkpt lat="46.54491" lon="0.32593">
        <ele>120</ele>
        <time>2024-09-22T07:10:05Z</time>
      </trkpt>
      <trkpt lat="46.54489" lon="0.32595">
        <ele>120</ele>
        <time>2024-09-22T07:10:06Z</time>
      </trkpt>
      <trkpt lat="46.54486" lon="0.32596">
        <ele>120</ele>
        <time>2024-09-22T07:10:07Z</time>
      </trkpt>
      <trkpt lat="46.54471" lon="0.32597">
        <ele>120</ele>
        <time>2024-09-22T07:10:12Z</time>
      </trkpt>
      <trkpt lat="46.54468" lon="0.32598">
        <ele>119.8</ele>
        <time>2024-09-22T07:10:13Z</time>
      </trkpt>
      <trkpt lat="46.54463" lon="0.32601">
        <ele>119.6</ele>
        <time>2024-09-22T07:10:15Z</time>
      </trkpt>
      <trkpt lat="46.54461" lon="0.32603">
        <ele>119.4</ele>
        <time>2024-09-22T07:10:16Z</time>
      </trkpt>
      <trkpt lat="46.54454" lon="0.32611">
        <ele>118</ele>
        <time>2024-09-22T07:10:19Z</time>
      </trkpt>
      <trkpt lat="46.54453" lon="0.32612">
        <ele>117.6</ele>
        <time>2024-09-22T07:10:20Z</time>
      </trkpt>
      <trkpt lat="46.5445" lon="0.32614">
        <ele>116.8</ele>
        <time>2024-09-22T07:10:22Z</time>
      </trkpt>
      <trkpt lat="46.54448" lon="0.32615">
        <ele>116.6</ele>
        <time>2024-09-22T07:10:24Z</time>
      </trkpt>
      <trkpt lat="46.54443" lon="0.32618">
        <ele>116.2</ele>
        <time>2024-09-22T07:10:27Z</time>
      </trkpt>
      <trkpt lat="46.54441" lon="0.32619">
        <ele>115.8</ele>
        <time>2024-09-22T07:10:29Z</time>
      </trkpt>
      <trkpt lat="46.54439" lon="0.32621">
        <ele>115.6</ele>
        <time>2024-09-22T07:10:30Z</time>
      </trkpt>
      <trkpt lat="46.54433" lon="0.32629">
        <ele>114.8</ele>
        <time>2024-09-22T07:10:33Z</time>
      </trkpt>
      <trkpt lat="46.5443" lon="0.32631">
        <ele>114.4</ele>
        <time>2024-09-22T07:10:34Z</time>
      </trkpt>
      <trkpt lat="46.54427" lon="0.32633">
        <ele>114</ele>
        <time>2024-09-22T07:10:35Z</time>
      </trkpt>
      <trkpt lat="46.54424" lon="0.32635">
        <ele>114</ele>
        <time>2024-09-22T07:10:36Z</time>
      </trkpt>
      <trkpt lat="46.54421" lon="0.32637">
        <ele>114</ele>
        <time>2024-09-22T07:10:37Z</time>
      </trkpt>
      <trkpt lat="46.54417" lon="0.32643">
        <ele>113.8</ele>
        <time>2024-09-22T07:10:39Z</time>
      </trkpt>
      <trkpt lat="46.54415" lon="0.32647">
        <ele>113.6</ele>
        <time>2024-09-22T07:10:40Z</time>
      </trkpt>
      <trkpt lat="46.54413" lon="0.32651">
        <ele>113</ele>
        <time>2024-09-22T07:10:42Z</time>
      </trkpt>
      <trkpt lat="46.54413" lon="0.32653">
        <ele>112.4</ele>
        <time>2024-09-22T07:10:43Z</time>
      </trkpt>
      <trkpt lat="46.54412" lon="0.32655">
        <ele>112</ele>
        <time>2024-09-22T07:10:44Z</time>
      </trkpt>
      <trkpt lat="46.54412" lon="0.3266">
        <ele>111.8</ele>
        <time>2024-09-22T07:10:45Z</time>
      </trkpt>
      <trkpt lat="46.54407" lon="0.32666">
        <ele>110.6</ele>
        <time>2024-09-22T07:10:47Z</time>
      </trkpt>
      <trkpt lat="46.54403" lon="0.32666">
        <ele>110</ele>
        <time>2024-09-22T07:10:48Z</time>
      </trkpt>
      <trkpt lat="46.54399" lon="0.32666">
        <ele>109.6</ele>
        <time>2024-09-22T07:10:49Z</time>
      </trkpt>
      <trkpt lat="46.54395" lon="0.32666">
        <ele>109.2</ele>
        <time>2024-09-22T07:10:50Z</time>
      </trkpt>
      <trkpt lat="46.54391" lon="0.32662">
        <ele>108.8</ele>
        <time>2024-09-22T07:10:52Z</time>
      </trkpt>
      <trkpt lat="46.54388" lon="0.3266">
        <ele>108.6</ele>
        <time>2024-09-22T07:10:53Z</time>
      </trkpt>
      <trkpt lat="46.5438" lon="0.32657">
        <ele>109.2</ele>
        <time>2024-09-22T07:10:59Z</time>
      </trkpt>
      <trkpt lat="46.54376" lon="0.32657">
        <ele>109.8</ele>
        <time>2024-09-22T07:11:02Z</time>
      </trkpt>
      <trkpt lat="46.54373" lon="0.32656">
        <ele>109.8</ele>
        <time>2024-09-22T07:11:04Z</time>
      </trkpt>
      <trkpt lat="46.54369" lon="0.32653">
        <ele>109.6</ele>
        <time>2024-09-22T07:11:06Z</time>
      </trkpt>
      <trkpt lat="46.54365" lon="0.32648">
        <ele>110.6</ele>
        <time>2024-09-22T07:11:09Z</time>
      </trkpt>
      <trkpt lat="46.54362" lon="0.32644">
        <ele>111.6</ele>
        <time>2024-09-22T07:11:11Z</time>
      </trkpt>
      <trkpt lat="46.5436" lon="0.32642">
        <ele>113.2</ele>
        <time>2024-09-22T07:11:14Z</time>
      </trkpt>
      <trkpt lat="46.54358" lon="0.32643">
        <ele>113.8</ele>
        <time>2024-09-22T07:11:16Z</time>
      </trkpt>
      <trkpt lat="46.54356" lon="0.32643">
        <ele>114.2</ele>
        <time>2024-09-22T07:11:18Z</time>
      </trkpt>
      <trkpt lat="46.54355" lon="0.32644">
        <ele>114.2</ele>
        <time>2024-09-22T07:11:19Z</time>
      </trkpt>
      <trkpt lat="46.54354" lon="0.32645">
        <ele>114.2</ele>
        <time>2024-09-22T07:11:20Z</time>
      </trkpt>
      <trkpt lat="46.54352" lon="0.32644">
        <ele>114.2</ele>
        <time>2024-09-22T07:11:23Z</time>
      </trkpt>
      <trkpt lat="46.54351" lon="0.32643">
        <ele>114.2</ele>
        <time>2024-09-22T07:11:24Z</time>
      </trkpt>
      <trkpt lat="46.54347" lon="0.32633">
        <ele>115.4</ele>
        <time>2024-09-22T07:11:29Z</time>
      </trkpt>
      <trkpt lat="46.54347" lon="0.32632">
        <ele>116.4</ele>
        <time>2024-09-22T07:11:31Z</time>
      </trkpt>
      <trkpt lat="46.54344" lon="0.32631">
        <ele>116.8</ele>
        <time>2024-09-22T07:11:32Z</time>
      </trkpt>
      <trkpt lat="46.54342" lon="0.3263">
        <ele>117</ele>
        <time>2024-09-22T07:11:34Z</time>
      </trkpt>
      <trkpt lat="46.54341" lon="0.3263">
        <ele>117.2</ele>
        <time>2024-09-22T07:11:36Z</time>
      </trkpt>
      <trkpt lat="46.54335" lon="0.32628">
        <ele>117.2</ele>
        <time>2024-09-22T07:11:37Z</time>
      </trkpt>
      <trkpt lat="46.54329" lon="0.32629">
        <ele>117</ele>
        <time>2024-09-22T07:11:39Z</time>
      </trkpt>
      <trkpt lat="46.54323" lon="0.32633">
        <ele>116</ele>
        <time>2024-09-22T07:11:42Z</time>
      </trkpt>
      <trkpt lat="46.54321" lon="0.32635">
        <ele>115.4</ele>
        <time>2024-09-22T07:11:43Z</time>
      </trkpt>
      <trkpt lat="46.5432" lon="0.32639">
        <ele>115.2</ele>
        <time>2024-09-22T07:11:44Z</time>
      </trkpt>
      <trkpt lat="46.54316" lon="0.32643">
        <ele>114</ele>
        <time>2024-09-22T07:11:46Z</time>
      </trkpt>
      <trkpt lat="46.54312" lon="0.32645">
        <ele>113.2</ele>
        <time>2024-09-22T07:11:48Z</time>
      </trkpt>
      <trkpt lat="46.5431" lon="0.32645">
        <ele>113</ele>
        <time>2024-09-22T07:11:49Z</time>
      </trkpt>
      <trkpt lat="46.54302" lon="0.32642">
        <ele>113.8</ele>
        <time>2024-09-22T07:11:55Z</time>
      </trkpt>
      <trkpt lat="46.543" lon="0.32642">
        <ele>114</ele>
        <time>2024-09-22T07:11:56Z</time>
      </trkpt>
      <trkpt lat="46.54291" lon="0.32637">
        <ele>115</ele>
        <time>2024-09-22T07:12:01Z</time>
      </trkpt>
      <trkpt lat="46.5429" lon="0.32636">
        <ele>115.2</ele>
        <time>2024-09-22T07:12:02Z</time>
      </trkpt>
      <trkpt lat="46.54286" lon="0.32634">
        <ele>115.2</ele>
        <time>2024-09-22T07:12:04Z</time>
      </trkpt>
      <trkpt lat="46.54277" lon="0.32633">
        <ele>115.4</ele>
        <time>2024-09-22T07:12:08Z</time>
      </trkpt>
      <trkpt lat="46.54269" lon="0.32626">
        <ele>115.8</ele>
        <time>2024-09-22T07:12:13Z</time>
      </trkpt>
      <trkpt lat="46.54267" lon="0.32622">
        <ele>116.2</ele>
        <time>2024-09-22T07:12:15Z</time>
      </trkpt>
      <trkpt lat="46.54265" lon="0.32621">
        <ele>116.4</ele>
        <time>2024-09-22T07:12:16Z</time>
      </trkpt>
      <trkpt lat="46.54263" lon="0.3262">
        <ele>116.6</ele>
        <time>2024-09-22T07:12:17Z</time>
      </trkpt>
      <trkpt lat="46.54254" lon="0.32614">
        <ele>117.4</ele>
        <time>2024-09-22T07:12:21Z</time>
      </trkpt>
      <trkpt lat="46.54252" lon="0.32612">
        <ele>117.4</ele>
        <time>2024-09-22T07:12:22Z</time>
      </trkpt>
      <trkpt lat="46.54243" lon="0.326">
        <ele>118.6</ele>
        <time>2024-09-22T07:12:27Z</time>
      </trkpt>
      <trkpt lat="46.5424" lon="0.32585">
        <ele>119.8</ele>
        <time>2024-09-22T07:12:33Z</time>
      </trkpt>
      <trkpt lat="46.5424" lon="0.32584">
        <ele>120</ele>
        <time>2024-09-22T07:12:34Z</time>
      </trkpt>
      <trkpt lat="46.54242" lon="0.32571">
        <ele>120.8</ele>
        <time>2024-09-22T07:12:41Z</time>
      </trkpt>
      <trkpt lat="46.54243" lon="0.32569">
        <ele>121</ele>
        <time>2024-09-22T07:12:42Z</time>
      </trkpt>
      <trkpt lat="46.54245" lon="0.32564">
        <ele>122</ele>
        <time>2024-09-22T07:12:45Z</time>
      </trkpt>
      <trkpt lat="46.54249" lon="0.32553">
        <ele>122.4</ele>
        <time>2024-09-22T07:12:49Z</time>
      </trkpt>
      <trkpt lat="46.54252" lon="0.32547">
        <ele>123</ele>
        <time>2024-09-22T07:12:52Z</time>
      </trkpt>
      <trkpt lat="46.54261" lon="0.32536">
        <ele>123.6</ele>
        <time>2024-09-22T07:12:57Z</time>
      </trkpt>
      <trkpt lat="46.54262" lon="0.32534">
        <ele>124</ele>
        <time>2024-09-22T07:12:58Z</time>
      </trkpt>
      <trkpt lat="46.54263" lon="0.32533">
        <ele>124.4</ele>
        <time>2024-09-22T07:12:59Z</time>
      </trkpt>
      <trkpt lat="46.54263" lon="0.32532">
        <ele>124.6</ele>
        <time>2024-09-22T07:13:02Z</time>
      </trkpt>
      <trkpt lat="46.54261" lon="0.32531">
        <ele>124.2</ele>
        <time>2024-09-22T07:13:04Z</time>
      </trkpt>
      <trkpt lat="46.54256" lon="0.3253">
        <ele>124</ele>
        <time>2024-09-22T07:13:07Z</time>
      </trkpt>
      <trkpt lat="46.54253" lon="0.32529">
        <ele>124</ele>
        <time>2024-09-22T07:13:08Z</time>
      </trkpt>
      <trkpt lat="46.54249" lon="0.32527">
        <ele>124</ele>
        <time>2024-09-22T07:13:10Z</time>
      </trkpt>
      <trkpt lat="46.54244" lon="0.32526">
        <ele>123.6</ele>
        <time>2024-09-22T07:13:12Z</time>
      </trkpt>
      <trkpt lat="46.54241" lon="0.32525">
        <ele>123.4</ele>
        <time>2024-09-22T07:13:13Z</time>
      </trkpt>
      <trkpt lat="46.54231" lon="0.32526">
        <ele>123</ele>
        <time>2024-09-22T07:13:18Z</time>
      </trkpt>
      <trkpt lat="46.54229" lon="0.32527">
        <ele>122.8</ele>
        <time>2024-09-22T07:13:19Z</time>
      </trkpt>
      <trkpt lat="46.54226" lon="0.32527">
        <ele>122.8</ele>
        <time>2024-09-22T07:13:20Z</time>
      </trkpt>
      <trkpt lat="46.54224" lon="0.3253">
        <ele>122.2</ele>
        <time>2024-09-22T07:13:22Z</time>
      </trkpt>
      <trkpt lat="46.54221" lon="0.3253">
        <ele>121.8</ele>
        <time>2024-09-22T07:13:24Z</time>
      </trkpt>
      <trkpt lat="46.54212" lon="0.32537">
        <ele>120.6</ele>
        <time>2024-09-22T07:13:30Z</time>
      </trkpt>
      <trkpt lat="46.5421" lon="0.32539">
        <ele>120.4</ele>
        <time>2024-09-22T07:13:31Z</time>
      </trkpt>
      <trkpt lat="46.54206" lon="0.32547">
        <ele>119.4</ele>
        <time>2024-09-22T07:13:34Z</time>
      </trkpt>
      <trkpt lat="46.54203" lon="0.32553">
        <ele>118.6</ele>
        <time>2024-09-22T07:13:37Z</time>
      </trkpt>
      <trkpt lat="46.54202" lon="0.32556">
        <ele>117.8</ele>
        <time>2024-09-22T07:13:38Z</time>
      </trkpt>
      <trkpt lat="46.54199" lon="0.32559">
        <ele>117.2</ele>
        <time>2024-09-22T07:13:39Z</time>
      </trkpt>
      <trkpt lat="46.5419" lon="0.32562">
        <ele>116.4</ele>
        <time>2024-09-22T07:13:41Z</time>
      </trkpt>
      <trkpt lat="46.54186" lon="0.32562">
        <ele>116.2</ele>
        <time>2024-09-22T07:13:42Z</time>
      </trkpt>
      <trkpt lat="46.54173" lon="0.32563">
        <ele>115.2</ele>
        <time>2024-09-22T07:13:45Z</time>
      </trkpt>
      <trkpt lat="46.54166" lon="0.32566">
        <ele>114.8</ele>
        <time>2024-09-22T07:13:47Z</time>
      </trkpt>
      <trkpt lat="46.54159" lon="0.32568">
        <ele>114.2</ele>
        <time>2024-09-22T07:13:49Z</time>
      </trkpt>
      <trkpt lat="46.54154" lon="0.32569">
        <ele>113</ele>
        <time>2024-09-22T07:13:51Z</time>
      </trkpt>
      <trkpt lat="46.54152" lon="0.3257">
        <ele>112.6</ele>
        <time>2024-09-22T07:13:52Z</time>
      </trkpt>
      <trkpt lat="46.54149" lon="0.32573">
        <ele>111.8</ele>
        <time>2024-09-22T07:13:54Z</time>
      </trkpt>
      <trkpt lat="46.54148" lon="0.32575">
        <ele>111.8</ele>
        <time>2024-09-22T07:13:55Z</time>
      </trkpt>
      <trkpt lat="46.54146" lon="0.32579">
        <ele>111.4</ele>
        <time>2024-09-22T07:13:57Z</time>
      </trkpt>
      <trkpt lat="46.54142" lon="0.3258">
        <ele>110.8</ele>
        <time>2024-09-22T07:13:58Z</time>
      </trkpt>
      <trkpt lat="46.54138" lon="0.32583">
        <ele>109.8</ele>
        <time>2024-09-22T07:14:00Z</time>
      </trkpt>
      <trkpt lat="46.54138" lon="0.32583">
        <ele>109.4</ele>
        <time>2024-09-22T07:14:01Z</time>
      </trkpt>
      <trkpt lat="46.54134" lon="0.32584">
        <ele>109.4</ele>
        <time>2024-09-22T07:14:02Z</time>
      </trkpt>
      <trkpt lat="46.5412" lon="0.32593">
        <ele>108</ele>
        <time>2024-09-22T07:14:08Z</time>
      </trkpt>
      <trkpt lat="46.54118" lon="0.32594">
        <ele>107.4</ele>
        <time>2024-09-22T07:14:09Z</time>
      </trkpt>
      <trkpt lat="46.54115" lon="0.32595">
        <ele>106.4</ele>
        <time>2024-09-22T07:14:10Z</time>
      </trkpt>
      <trkpt lat="46.54109" lon="0.32599">
        <ele>104.6</ele>
        <time>2024-09-22T07:14:12Z</time>
      </trkpt>
      <trkpt lat="46.541" lon="0.32604">
        <ele>102.8</ele>
        <time>2024-09-22T07:14:15Z</time>
      </trkpt>
      <trkpt lat="46.54094" lon="0.32608">
        <ele>100.8</ele>
        <time>2024-09-22T07:14:17Z</time>
      </trkpt>
      <trkpt lat="46.54089" lon="0.32613">
        <ele>99</ele>
        <time>2024-09-22T07:14:19Z</time>
      </trkpt>
      <trkpt lat="46.54083" lon="0.32622">
        <ele>97.8</ele>
        <time>2024-09-22T07:14:21Z</time>
      </trkpt>
      <trkpt lat="46.54079" lon="0.32628">
        <ele>96</ele>
        <time>2024-09-22T07:14:23Z</time>
      </trkpt>
      <trkpt lat="46.54077" lon="0.32632">
        <ele>94.6</ele>
        <time>2024-09-22T07:14:24Z</time>
      </trkpt>
      <trkpt lat="46.54076" lon="0.32635">
        <ele>93.4</ele>
        <time>2024-09-22T07:14:25Z</time>
      </trkpt>
      <trkpt lat="46.54075" lon="0.32638">
        <ele>92.8</ele>
        <time>2024-09-22T07:14:26Z</time>
      </trkpt>
      <trkpt lat="46.54073" lon="0.3264">
        <ele>92.4</ele>
        <time>2024-09-22T07:14:27Z</time>
      </trkpt>
      <trkpt lat="46.54065" lon="0.32648">
        <ele>91.6</ele>
        <time>2024-09-22T07:14:31Z</time>
      </trkpt>
      <trkpt lat="46.54061" lon="0.32649">
        <ele>91.4</ele>
        <time>2024-09-22T07:14:32Z</time>
      </trkpt>
      <trkpt lat="46.54054" lon="0.32652">
        <ele>90.2</ele>
        <time>2024-09-22T07:14:34Z</time>
      </trkpt>
      <trkpt lat="46.54045" lon="0.32655">
        <ele>88.6</ele>
        <time>2024-09-22T07:14:37Z</time>
      </trkpt>
      <trkpt lat="46.54042" lon="0.32657">
        <ele>87.8</ele>
        <time>2024-09-22T07:14:38Z</time>
      </trkpt>
      <trkpt lat="46.54039" lon="0.3266">
        <ele>86.2</ele>
        <time>2024-09-22T07:14:39Z</time>
      </trkpt>
      <trkpt lat="46.54033" lon="0.32663">
        <ele>84.4</ele>
        <time>2024-09-22T07:14:41Z</time>
      </trkpt>
      <trkpt lat="46.54026" lon="0.32667">
        <ele>82.6</ele>
        <time>2024-09-22T07:14:43Z</time>
      </trkpt>
      <trkpt lat="46.54019" lon="0.32668">
        <ele>81.6</ele>
        <time>2024-09-22T07:14:45Z</time>
      </trkpt>
      <trkpt lat="46.54015" lon="0.32668">
        <ele>80.8</ele>
        <time>2024-09-22T07:14:46Z</time>
      </trkpt>
      <trkpt lat="46.5401" lon="0.32667">
        <ele>79.6</ele>
        <time>2024-09-22T07:14:48Z</time>
      </trkpt>
      <trkpt lat="46.54001" lon="0.32672">
        <ele>78.8</ele>
        <time>2024-09-22T07:14:51Z</time>
      </trkpt>
      <trkpt lat="46.5399" lon="0.32675">
        <ele>78.4</ele>
        <time>2024-09-22T07:14:53Z</time>
      </trkpt>
      <trkpt lat="46.53987" lon="0.32679">
        <ele>78.2</ele>
        <time>2024-09-22T07:14:55Z</time>
      </trkpt>
      <trkpt lat="46.53985" lon="0.32692">
        <ele>78</ele>
        <time>2024-09-22T07:14:58Z</time>
      </trkpt>
      <trkpt lat="46.53985" lon="0.32696">
        <ele>78.2</ele>
        <time>2024-09-22T07:15:00Z</time>
      </trkpt>
      <trkpt lat="46.53988" lon="0.32701">
        <ele>78.4</ele>
        <time>2024-09-22T07:15:02Z</time>
      </trkpt>
      <trkpt lat="46.53992" lon="0.32704">
        <ele>78.4</ele>
        <time>2024-09-22T07:15:04Z</time>
      </trkpt>
      <trkpt lat="46.54009" lon="0.32714">
        <ele>78.4</ele>
        <time>2024-09-22T07:15:10Z</time>
      </trkpt>
      <trkpt lat="46.54012" lon="0.32715">
        <ele>78.4</ele>
        <time>2024-09-22T07:15:11Z</time>
      </trkpt>
      <trkpt lat="46.54028" lon="0.32718">
        <ele>78.6</ele>
        <time>2024-09-22T07:15:15Z</time>
      </trkpt>
      <trkpt lat="46.54053" lon="0.32715">
        <ele>78</ele>
        <time>2024-09-22T07:15:20Z</time>
      </trkpt>
      <trkpt lat="46.54088" lon="0.32707">
        <ele>78.2</ele>
        <time>2024-09-22T07:15:26Z</time>
      </trkpt>
      <trkpt lat="46.54121" lon="0.32703">
        <ele>78</ele>
        <time>2024-09-22T07:15:31Z</time>
      </trkpt>
      <trkpt lat="46.54167" lon="0.32697">
        <ele>78</ele>
        <time>2024-09-22T07:15:38Z</time>
      </trkpt>
      <trkpt lat="46.54178" lon="0.32697">
        <ele>78</ele>
        <time>2024-09-22T07:15:40Z</time>
      </trkpt>
      <trkpt lat="46.54186" lon="0.327">
        <ele>78</ele>
        <time>2024-09-22T07:15:42Z</time>
      </trkpt>
      <trkpt lat="46.54201" lon="0.32707">
        <ele>78</ele>
        <time>2024-09-22T07:15:46Z</time>
      </trkpt>
      <trkpt lat="46.54209" lon="0.32711">
        <ele>78</ele>
        <time>2024-09-22T07:15:48Z</time>
      </trkpt>
      <trkpt lat="46.54213" lon="0.32712">
        <ele>78</ele>
        <time>2024-09-22T07:15:49Z</time>
      </trkpt>
      <trkpt lat="46.54242" lon="0.32726">
        <ele>77.8</ele>
        <time>2024-09-22T07:15:56Z</time>
      </trkpt>
      <trkpt lat="46.54247" lon="0.32728">
        <ele>77.8</ele>
        <time>2024-09-22T07:15:57Z</time>
      </trkpt>
      <trkpt lat="46.54276" lon="0.32745">
        <ele>77.8</ele>
        <time>2024-09-22T07:16:03Z</time>
      </trkpt>
      <trkpt lat="46.54301" lon="0.32769">
        <ele>77.8</ele>
        <time>2024-09-22T07:16:08Z</time>
      </trkpt>
      <trkpt lat="46.5433" lon="0.32793">
        <ele>77.8</ele>
        <time>2024-09-22T07:16:13Z</time>
      </trkpt>
      <trkpt lat="46.5437" lon="0.32838">
        <ele>77.8</ele>
        <time>2024-09-22T07:16:20Z</time>
      </trkpt>
      <trkpt lat="46.54391" lon="0.32858">
        <ele>78</ele>
        <time>2024-09-22T07:16:23Z</time>
      </trkpt>
      <trkpt lat="46.54402" lon="0.32872">
        <ele>78</ele>
        <time>2024-09-22T07:16:25Z</time>
      </trkpt>
      <trkpt lat="46.54431" lon="0.32916">
        <ele>78</ele>
        <time>2024-09-22T07:16:31Z</time>
      </trkpt>
      <trkpt lat="46.54471" lon="0.32971">
        <ele>77.6</ele>
        <time>2024-09-22T07:16:39Z</time>
      </trkpt>
      <trkpt lat="46.54516" lon="0.33018">
        <ele>77.6</ele>
        <time>2024-09-22T07:16:46Z</time>
      </trkpt>
      <trkpt lat="46.54562" lon="0.33071">
        <ele>78</ele>
        <time>2024-09-22T07:16:54Z</time>
      </trkpt>
      <trkpt lat="46.54598" lon="0.3312">
        <ele>78.4</ele>
        <time>2024-09-22T07:17:02Z</time>
      </trkpt>
      <trkpt lat="46.54607" lon="0.3313">
        <ele>78.4</ele>
        <time>2024-09-22T07:17:04Z</time>
      </trkpt>
      <trkpt lat="46.54615" lon="0.33138">
        <ele>78</ele>
        <time>2024-09-22T07:17:06Z</time>
      </trkpt>
      <trkpt lat="46.54621" lon="0.33143">
        <ele>78</ele>
        <time>2024-09-22T07:17:07Z</time>
      </trkpt>
      <trkpt lat="46.5465" lon="0.33169">
        <ele>77.8</ele>
        <time>2024-09-22T07:17:12Z</time>
      </trkpt>
      <trkpt lat="46.54697" lon="0.33209">
        <ele>78</ele>
        <time>2024-09-22T07:17:19Z</time>
      </trkpt>
      <trkpt lat="46.54737" lon="0.33247">
        <ele>78.2</ele>
        <time>2024-09-22T07:17:26Z</time>
      </trkpt>
      <trkpt lat="46.54773" lon="0.33275">
        <ele>77.8</ele>
        <time>2024-09-22T07:17:33Z</time>
      </trkpt>
      <trkpt lat="46.54813" lon="0.33299">
        <ele>78</ele>
        <time>2024-09-22T07:17:40Z</time>
      </trkpt>
      <trkpt lat="46.54818" lon="0.33304">
        <ele>78</ele>
        <time>2024-09-22T07:17:41Z</time>
      </trkpt>
      <trkpt lat="46.54829" lon="0.33318">
        <ele>78</ele>
        <time>2024-09-22T07:17:44Z</time>
      </trkpt>
      <trkpt lat="46.54833" lon="0.33322">
        <ele>78</ele>
        <time>2024-09-22T07:17:45Z</time>
      </trkpt>
      <trkpt lat="46.54845" lon="0.3334">
        <ele>77.6</ele>
        <time>2024-09-22T07:17:49Z</time>
      </trkpt>
      <trkpt lat="46.54867" lon="0.33368">
        <ele>77.6</ele>
        <time>2024-09-22T07:17:56Z</time>
      </trkpt>
      <trkpt lat="46.54876" lon="0.33376">
        <ele>77.8</ele>
        <time>2024-09-22T07:17:59Z</time>
      </trkpt>
      <trkpt lat="46.54882" lon="0.33383">
        <ele>77.6</ele>
        <time>2024-09-22T07:18:01Z</time>
      </trkpt>
      <trkpt lat="46.54886" lon="0.33385">
        <ele>77.6</ele>
        <time>2024-09-22T07:18:02Z</time>
      </trkpt>
      <trkpt lat="46.54894" lon="0.33391">
        <ele>77.4</ele>
        <time>2024-09-22T07:18:04Z</time>
      </trkpt>
      <trkpt lat="46.54903" lon="0.33398">
        <ele>77.2</ele>
        <time>2024-09-22T07:18:06Z</time>
      </trkpt>
      <trkpt lat="46.54933" lon="0.33421">
        <ele>77.2</ele>
        <time>2024-09-22T07:18:12Z</time>
      </trkpt>
      <trkpt lat="46.54949" lon="0.33433">
        <ele>76.8</ele>
        <time>2024-09-22T07:18:15Z</time>
      </trkpt>
      <trkpt lat="46.5496" lon="0.33447">
        <ele>76.6</ele>
        <time>2024-09-22T07:18:17Z</time>
      </trkpt>
      <trkpt lat="46.54977" lon="0.33486">
        <ele>77</ele>
        <time>2024-09-22T07:18:22Z</time>
      </trkpt>
      <trkpt lat="46.54979" lon="0.33493">
        <ele>77.2</ele>
        <time>2024-09-22T07:18:23Z</time>
      </trkpt>
      <trkpt lat="46.54988" lon="0.33532">
        <ele>77.4</ele>
        <time>2024-09-22T07:18:28Z</time>
      </trkpt>
      <trkpt lat="46.55" lon="0.33578">
        <ele>77.6</ele>
        <time>2024-09-22T07:18:34Z</time>
      </trkpt>
      <trkpt lat="46.55006" lon="0.33619">
        <ele>77.4</ele>
        <time>2024-09-22T07:18:39Z</time>
      </trkpt>
      <trkpt lat="46.55006" lon="0.33648">
        <ele>77.2</ele>
        <time>2024-09-22T07:18:43Z</time>
      </trkpt>
      <trkpt lat="46.55002" lon="0.3366">
        <ele>77</ele>
        <time>2024-09-22T07:18:45Z</time>
      </trkpt>
      <trkpt lat="46.55001" lon="0.33672">
        <ele>77</ele>
        <time>2024-09-22T07:18:47Z</time>
      </trkpt>
      <trkpt lat="46.55001" lon="0.3368">
        <ele>76.8</ele>
        <time>2024-09-22T07:18:49Z</time>
      </trkpt>
      <trkpt lat="46.54997" lon="0.33687">
        <ele>76.6</ele>
        <time>2024-09-22T07:18:54Z</time>
      </trkpt>
      <trkpt lat="46.54992" lon="0.33703">
        <ele>77.6</ele>
        <time>2024-09-22T07:18:59Z</time>
      </trkpt>
      <trkpt lat="46.54988" lon="0.33734">
        <ele>77.6</ele>
        <time>2024-09-22T07:19:04Z</time>
      </trkpt>
      <trkpt lat="46.5498" lon="0.33753">
        <ele>77</ele>
        <time>2024-09-22T07:19:09Z</time>
      </trkpt>
      <trkpt lat="46.54977" lon="0.33763">
        <ele>77</ele>
        <time>2024-09-22T07:19:13Z</time>
      </trkpt>
      <trkpt lat="46.54977" lon="0.33766">
        <ele>77</ele>
        <time>2024-09-22T07:19:14Z</time>
      </trkpt>
      <trkpt lat="46.54974" lon="0.33772">
        <ele>77</ele>
        <time>2024-09-22T07:19:18Z</time>
      </trkpt>
      <trkpt lat="46.54973" lon="0.33774">
        <ele>76.6</ele>
        <time>2024-09-22T07:19:20Z</time>
      </trkpt>
      <trkpt lat="46.54973" lon="0.33786">
        <ele>76.6</ele>
        <time>2024-09-22T07:19:28Z</time>
      </trkpt>
      <trkpt lat="46.54972" lon="0.33787">
        <ele>76.6</ele>
        <time>2024-09-22T07:19:30Z</time>
      </trkpt>
      <trkpt lat="46.54969" lon="0.33787">
        <ele>76</ele>
        <time>2024-09-22T07:19:32Z</time>
      </trkpt>
      <trkpt lat="46.54968" lon="0.33787">
        <ele>75.6</ele>
        <time>2024-09-22T07:19:42Z</time>
      </trkpt>
      <trkpt lat="46.54968" lon="0.33787">
        <ele>75.4</ele>
        <time>2024-09-22T07:20:02Z</time>
      </trkpt>
      <trkpt lat="46.54968" lon="0.33789">
        <ele>75.4</ele>
        <time>2024-09-22T07:20:21Z</time>
      </trkpt>
      <trkpt lat="46.54965" lon="0.3379">
        <ele>75.4</ele>
        <time>2024-09-22T07:20:38Z</time>
      </trkpt>
      <trkpt lat="46.54964" lon="0.33792">
        <ele>75.6</ele>
        <time>2024-09-22T07:20:54Z</time>
      </trkpt>
      <trkpt lat="46.54968" lon="0.33795">
        <ele>75.4</ele>
        <time>2024-09-22T07:21:10Z</time>
      </trkpt>
      <trkpt lat="46.54969" lon="0.33794">
        <ele>75.4</ele>
        <time>2024-09-22T07:21:25Z</time>
      </trkpt>
      <trkpt lat="46.5497" lon="0.33793">
        <ele>75.6</ele>
        <time>2024-09-22T07:21:42Z</time>
      </trkpt>
      <trkpt lat="46.5497" lon="0.33794">
        <ele>75.6</ele>
        <time>2024-09-22T07:22:00Z</time>
      </trkpt>
      <trkpt lat="46.5497" lon="0.33793">
        <ele>75.4</ele>
        <time>2024-09-22T07:22:21Z</time>
      </trkpt>
      <trkpt lat="46.54969" lon="0.33791">
        <ele>76</ele>
        <time>2024-09-22T07:22:42Z</time>
      </trkpt>
      <trkpt lat="46.54969" lon="0.33791">
        <ele>76</ele>
        <time>2024-09-22T07:23:05Z</time>
      </trkpt>
      <trkpt lat="46.5497" lon="0.33792">
        <ele>76</ele>
        <time>2024-09-22T07:23:26Z</time>
      </trkpt>
      <trkpt lat="46.5497" lon="0.33793">
        <ele>76</ele>
        <time>2024-09-22T07:23:46Z</time>
      </trkpt>
      <trkpt lat="46.54969" lon="0.33793">
        <ele>76</ele>
        <time>2024-09-22T07:24:10Z</time>
      </trkpt>
      <trkpt lat="46.54969" lon="0.33794">
        <ele>76</ele>
        <time>2024-09-22T07:24:26Z</time>
      </trkpt>
      <trkpt lat="46.54968" lon="0.33793">
        <ele>76</ele>
        <time>2024-09-22T07:24:44Z</time>
      </trkpt>
      <trkpt lat="46.54968" lon="0.3379">
        <ele>76</ele>
        <time>2024-09-22T07:24:55Z</time>
      </trkpt>
      <trkpt lat="46.54968" lon="0.33788">
        <ele>76</ele>
        <time>2024-09-22T07:25:08Z</time>
      </trkpt>
      <trkpt lat="46.54968" lon="0.33785">
        <ele>76</ele>
        <time>2024-09-22T07:25:24Z</time>
      </trkpt>
      <trkpt lat="46.54968" lon="0.33783">
        <ele>76</ele>
        <time>2024-09-22T07:25:38Z</time>
      </trkpt>
      <trkpt lat="46.54967" lon="0.33781">
        <ele>76</ele>
        <time>2024-09-22T07:25:57Z</time>
      </trkpt>
      <trkpt lat="46.54968" lon="0.33781">
        <ele>76</ele>
        <time>2024-09-22T07:26:05Z</time>
      </trkpt>
      <trkpt lat="46.54968" lon="0.33781">
        <ele>76</ele>
        <time>2024-09-22T07:26:12Z</time>
      </trkpt>
      <trkpt lat="46.54969" lon="0.33779">
        <ele>76</ele>
        <time>2024-09-22T07:26:31Z</time>
      </trkpt>
      <trkpt lat="46.54971" lon="0.33775">
        <ele>76</ele>
        <time>2024-09-22T07:26:34Z</time>
      </trkpt>
      <trkpt lat="46.54976" lon="0.33774">
        <ele>75.8</ele>
        <time>2024-09-22T07:26:40Z</time>
      </trkpt>
      <trkpt lat="46.54989" lon="0.33779">
        <ele>76</ele>
        <time>2024-09-22T07:26:47Z</time>
      </trkpt>
      <trkpt lat="46.54998" lon="0.33774">
        <ele>75.8</ele>
        <time>2024-09-22T07:26:51Z</time>
      </trkpt>
      <trkpt lat="46.55" lon="0.33768">
        <ele>75.6</ele>
        <time>2024-09-22T07:26:53Z</time>
      </trkpt>
      <trkpt lat="46.55" lon="0.33758">
        <ele>75.8</ele>
        <time>2024-09-22T07:26:56Z</time>
      </trkpt>
      <trkpt lat="46.55002" lon="0.33732">
        <ele>75.8</ele>
        <time>2024-09-22T07:27:02Z</time>
      </trkpt>
      <trkpt lat="46.55004" lon="0.33729">
        <ele>75.6</ele>
        <time>2024-09-22T07:27:04Z</time>
      </trkpt>
      <trkpt lat="46.55009" lon="0.33728">
        <ele>75.6</ele>
        <time>2024-09-22T07:27:06Z</time>
      </trkpt>
      <trkpt lat="46.55017" lon="0.33725">
        <ele>75.2</ele>
        <time>2024-09-22T07:27:11Z</time>
      </trkpt>
      <trkpt lat="46.55024" lon="0.33723">
        <ele>75</ele>
        <time>2024-09-22T07:27:13Z</time>
      </trkpt>
      <trkpt lat="46.55031" lon="0.33723">
        <ele>75</ele>
        <time>2024-09-22T07:27:15Z</time>
      </trkpt>
      <trkpt lat="46.55042" lon="0.33724">
        <ele>75</ele>
        <time>2024-09-22T07:27:18Z</time>
      </trkpt>
      <trkpt lat="46.55053" lon="0.33724">
        <ele>75.2</ele>
        <time>2024-09-22T07:27:21Z</time>
      </trkpt>
      <trkpt lat="46.55081" lon="0.33724">
        <ele>75</ele>
        <time>2024-09-22T07:27:29Z</time>
      </trkpt>
      <trkpt lat="46.55105" lon="0.33726">
        <ele>75</ele>
        <time>2024-09-22T07:27:36Z</time>
      </trkpt>
      <trkpt lat="46.55114" lon="0.33727">
        <ele>75</ele>
        <time>2024-09-22T07:27:38Z</time>
      </trkpt>
      <trkpt lat="46.55126" lon="0.33729">
        <ele>75.2</ele>
        <time>2024-09-22T07:27:41Z</time>
      </trkpt>
      <trkpt lat="46.55151" lon="0.33731">
        <ele>75</ele>
        <time>2024-09-22T07:27:47Z</time>
      </trkpt>
      <trkpt lat="46.55181" lon="0.33727">
        <ele>75.2</ele>
        <time>2024-09-22T07:27:54Z</time>
      </trkpt>
      <trkpt lat="46.55204" lon="0.33727">
        <ele>75.2</ele>
        <time>2024-09-22T07:27:59Z</time>
      </trkpt>
      <trkpt lat="46.55219" lon="0.33727">
        <ele>75.2</ele>
        <time>2024-09-22T07:28:02Z</time>
      </trkpt>
      <trkpt lat="46.55223" lon="0.33726">
        <ele>75.2</ele>
        <time>2024-09-22T07:28:03Z</time>
      </trkpt>
      <trkpt lat="46.55245" lon="0.33726">
        <ele>75.2</ele>
        <time>2024-09-22T07:28:08Z</time>
      </trkpt>
      <trkpt lat="46.5526" lon="0.33728">
        <ele>75</ele>
        <time>2024-09-22T07:28:11Z</time>
      </trkpt>
      <trkpt lat="46.5528" lon="0.33728">
        <ele>74.8</ele>
        <time>2024-09-22T07:28:15Z</time>
      </trkpt>
      <trkpt lat="46.55295" lon="0.33726">
        <ele>75</ele>
        <time>2024-09-22T07:28:18Z</time>
      </trkpt>
      <trkpt lat="46.55304" lon="0.33727">
        <ele>75</ele>
        <time>2024-09-22T07:28:20Z</time>
      </trkpt>
      <trkpt lat="46.55308" lon="0.33728">
        <ele>75</ele>
        <time>2024-09-22T07:28:21Z</time>
      </trkpt>
      <trkpt lat="46.55311" lon="0.3373">
        <ele>75</ele>
        <time>2024-09-22T07:28:22Z</time>
      </trkpt>
      <trkpt lat="46.55318" lon="0.33732">
        <ele>75</ele>
        <time>2024-09-22T07:28:25Z</time>
      </trkpt>
      <trkpt lat="46.55333" lon="0.33742">
        <ele>74.8</ele>
        <time>2024-09-22T07:28:29Z</time>
      </trkpt>
      <trkpt lat="46.5535" lon="0.33748">
        <ele>75</ele>
        <time>2024-09-22T07:28:34Z</time>
      </trkpt>
      <trkpt lat="46.55375" lon="0.33749">
        <ele>75</ele>
        <time>2024-09-22T07:28:40Z</time>
      </trkpt>
      <trkpt lat="46.55388" lon="0.33754">
        <ele>75.2</ele>
        <time>2024-09-22T07:28:43Z</time>
      </trkpt>
      <trkpt lat="46.55405" lon="0.33759">
        <ele>75</ele>
        <time>2024-09-22T07:28:47Z</time>
      </trkpt>
      <trkpt lat="46.55437" lon="0.33766">
        <ele>75</ele>
        <time>2024-09-22T07:28:54Z</time>
      </trkpt>
      <trkpt lat="46.55458" lon="0.33782">
        <ele>74.6</ele>
        <time>2024-09-22T07:28:59Z</time>
      </trkpt>
      <trkpt lat="46.55461" lon="0.33786">
        <ele>74.6</ele>
        <time>2024-09-22T07:29:00Z</time>
      </trkpt>
      <trkpt lat="46.55473" lon="0.33796">
        <ele>74.6</ele>
        <time>2024-09-22T07:29:02Z</time>
      </trkpt>
      <trkpt lat="46.55496" lon="0.33813">
        <ele>74.6</ele>
        <time>2024-09-22T07:29:05Z</time>
      </trkpt>
      <trkpt lat="46.55509" lon="0.33824">
        <ele>74.4</ele>
        <time>2024-09-22T07:29:07Z</time>
      </trkpt>
      <trkpt lat="46.55522" lon="0.33842">
        <ele>74.4</ele>
        <time>2024-09-22T07:29:10Z</time>
      </trkpt>
      <trkpt lat="46.55527" lon="0.33847">
        <ele>74.4</ele>
        <time>2024-09-22T07:29:11Z</time>
      </trkpt>
      <trkpt lat="46.55534" lon="0.33855">
        <ele>74.4</ele>
        <time>2024-09-22T07:29:13Z</time>
      </trkpt>
      <trkpt lat="46.55537" lon="0.33858">
        <ele>74.4</ele>
        <time>2024-09-22T07:29:15Z</time>
      </trkpt>
      <trkpt lat="46.55567" lon="0.33883">
        <ele>74.2</ele>
        <time>2024-09-22T07:29:21Z</time>
      </trkpt>
      <trkpt lat="46.55588" lon="0.33901">
        <ele>74.4</ele>
        <time>2024-09-22T07:29:28Z</time>
      </trkpt>
      <trkpt lat="46.55606" lon="0.33914">
        <ele>74.2</ele>
        <time>2024-09-22T07:29:32Z</time>
      </trkpt>
      <trkpt lat="46.5561" lon="0.33916">
        <ele>74.2</ele>
        <time>2024-09-22T07:29:33Z</time>
      </trkpt>
      <trkpt lat="46.55615" lon="0.33918">
        <ele>74.2</ele>
        <time>2024-09-22T07:29:34Z</time>
      </trkpt>
      <trkpt lat="46.55633" lon="0.3392">
        <ele>74.4</ele>
        <time>2024-09-22T07:29:38Z</time>
      </trkpt>
      <trkpt lat="46.55637" lon="0.3392">
        <ele>74.2</ele>
        <time>2024-09-22T07:29:39Z</time>
      </trkpt>
      <trkpt lat="46.55658" lon="0.33916">
        <ele>74.4</ele>
        <time>2024-09-22T07:29:44Z</time>
      </trkpt>
      <trkpt lat="46.55666" lon="0.33915">
        <ele>74.6</ele>
        <time>2024-09-22T07:29:46Z</time>
      </trkpt>
      <trkpt lat="46.55675" lon="0.33914">
        <ele>75.2</ele>
        <time>2024-09-22T07:29:48Z</time>
      </trkpt>
      <trkpt lat="46.55679" lon="0.33912">
        <ele>75.4</ele>
        <time>2024-09-22T07:29:49Z</time>
      </trkpt>
      <trkpt lat="46.55684" lon="0.33909">
        <ele>75.4</ele>
        <time>2024-09-22T07:29:50Z</time>
      </trkpt>
      <trkpt lat="46.5571" lon="0.339">
        <ele>75</ele>
        <time>2024-09-22T07:29:54Z</time>
      </trkpt>
      <trkpt lat="46.5574" lon="0.33885">
        <ele>75.2</ele>
        <time>2024-09-22T07:30:01Z</time>
      </trkpt>
      <trkpt lat="46.55747" lon="0.33881">
        <ele>75.6</ele>
        <time>2024-09-22T07:30:03Z</time>
      </trkpt>
      <trkpt lat="46.55754" lon="0.33881">
        <ele>75.8</ele>
        <time>2024-09-22T07:30:05Z</time>
      </trkpt>
      <trkpt lat="46.55757" lon="0.33882">
        <ele>76</ele>
        <time>2024-09-22T07:30:06Z</time>
      </trkpt>
      <trkpt lat="46.5576" lon="0.33884">
        <ele>76.2</ele>
        <time>2024-09-22T07:30:07Z</time>
      </trkpt>
      <trkpt lat="46.55766" lon="0.33888">
        <ele>76.4</ele>
        <time>2024-09-22T07:30:09Z</time>
      </trkpt>
      <trkpt lat="46.55772" lon="0.33891">
        <ele>76.6</ele>
        <time>2024-09-22T07:30:11Z</time>
      </trkpt>
      <trkpt lat="46.55778" lon="0.33894">
        <ele>77.2</ele>
        <time>2024-09-22T07:30:13Z</time>
      </trkpt>
      <trkpt lat="46.55789" lon="0.33898">
        <ele>77.8</ele>
        <time>2024-09-22T07:30:17Z</time>
      </trkpt>
      <trkpt lat="46.55811" lon="0.339">
        <ele>77.6</ele>
        <time>2024-09-22T07:30:22Z</time>
      </trkpt>
      <trkpt lat="46.5582" lon="0.33898">
        <ele>77.6</ele>
        <time>2024-09-22T07:30:24Z</time>
      </trkpt>
      <trkpt lat="46.55829" lon="0.33896">
        <ele>77.2</ele>
        <time>2024-09-22T07:30:26Z</time>
      </trkpt>
      <trkpt lat="46.55834" lon="0.33894">
        <ele>77.2</ele>
        <time>2024-09-22T07:30:27Z</time>
      </trkpt>
      <trkpt lat="46.55845" lon="0.33892">
        <ele>76.8</ele>
        <time>2024-09-22T07:30:29Z</time>
      </trkpt>
      <trkpt lat="46.55865" lon="0.33889">
        <ele>76.8</ele>
        <time>2024-09-22T07:30:33Z</time>
      </trkpt>
      <trkpt lat="46.55901" lon="0.33862">
        <ele>76.2</ele>
        <time>2024-09-22T07:30:41Z</time>
      </trkpt>
      <trkpt lat="46.55906" lon="0.33857">
        <ele>76</ele>
        <time>2024-09-22T07:30:42Z</time>
      </trkpt>
      <trkpt lat="46.55938" lon="0.33824">
        <ele>75.8</ele>
        <time>2024-09-22T07:30:49Z</time>
      </trkpt>
      <trkpt lat="46.55965" lon="0.33784">
        <ele>75.4</ele>
        <time>2024-09-22T07:30:56Z</time>
      </trkpt>
      <trkpt lat="46.5598" lon="0.33769">
        <ele>75.8</ele>
        <time>2024-09-22T07:30:59Z</time>
      </trkpt>
      <trkpt lat="46.55988" lon="0.33766">
        <ele>75.6</ele>
        <time>2024-09-22T07:31:01Z</time>
      </trkpt>
      <trkpt lat="46.55993" lon="0.33765">
        <ele>75.6</ele>
        <time>2024-09-22T07:31:03Z</time>
      </trkpt>
      <trkpt lat="46.56001" lon="0.33763">
        <ele>76</ele>
        <time>2024-09-22T07:31:06Z</time>
      </trkpt>
      <trkpt lat="46.56009" lon="0.33757">
        <ele>77.4</ele>
        <time>2024-09-22T07:31:09Z</time>
      </trkpt>
      <trkpt lat="46.56011" lon="0.33755">
        <ele>78</ele>
        <time>2024-09-22T07:31:10Z</time>
      </trkpt>
      <trkpt lat="46.56019" lon="0.33749">
        <ele>78.4</ele>
        <time>2024-09-22T07:31:13Z</time>
      </trkpt>
      <trkpt lat="46.5603" lon="0.33741">
        <ele>79.6</ele>
        <time>2024-09-22T07:31:19Z</time>
      </trkpt>
      <trkpt lat="46.56032" lon="0.3374">
        <ele>79.8</ele>
        <time>2024-09-22T07:31:20Z</time>
      </trkpt>
      <trkpt lat="46.56034" lon="0.33739">
        <ele>80.6</ele>
        <time>2024-09-22T07:31:22Z</time>
      </trkpt>
      <trkpt lat="46.56043" lon="0.33733">
        <ele>81.2</ele>
        <time>2024-09-22T07:31:26Z</time>
      </trkpt>
      <trkpt lat="46.56046" lon="0.33733">
        <ele>81.6</ele>
        <time>2024-09-22T07:31:28Z</time>
      </trkpt>
      <trkpt lat="46.56049" lon="0.33731">
        <ele>82.2</ele>
        <time>2024-09-22T07:31:31Z</time>
      </trkpt>
      <trkpt lat="46.56052" lon="0.33731">
        <ele>82.4</ele>
        <time>2024-09-22T07:31:33Z</time>
      </trkpt>
      <trkpt lat="46.56055" lon="0.3373">
        <ele>82.8</ele>
        <time>2024-09-22T07:31:34Z</time>
      </trkpt>
      <trkpt lat="46.5606" lon="0.33729">
        <ele>84</ele>
        <time>2024-09-22T07:31:37Z</time>
      </trkpt>
      <trkpt lat="46.56065" lon="0.33728">
        <ele>84.4</ele>
        <time>2024-09-22T07:31:39Z</time>
      </trkpt>
      <trkpt lat="46.56069" lon="0.33729">
        <ele>85.2</ele>
        <time>2024-09-22T07:31:41Z</time>
      </trkpt>
      <trkpt lat="46.56077" lon="0.33726">
        <ele>86.2</ele>
        <time>2024-09-22T07:31:45Z</time>
      </trkpt>
      <trkpt lat="46.56083" lon="0.33725">
        <ele>87.4</ele>
        <time>2024-09-22T07:31:48Z</time>
      </trkpt>
      <trkpt lat="46.56089" lon="0.33723">
        <ele>88.6</ele>
        <time>2024-09-22T07:31:51Z</time>
      </trkpt>
      <trkpt lat="46.56093" lon="0.33723">
        <ele>89.2</ele>
        <time>2024-09-22T07:31:53Z</time>
      </trkpt>
      <trkpt lat="46.56096" lon="0.3372">
        <ele>89.8</ele>
        <time>2024-09-22T07:31:55Z</time>
      </trkpt>
      <trkpt lat="46.5611" lon="0.33716">
        <ele>90.6</ele>
        <time>2024-09-22T07:32:00Z</time>
      </trkpt>
      <trkpt lat="46.56123" lon="0.33709">
        <ele>90.4</ele>
        <time>2024-09-22T07:32:06Z</time>
      </trkpt>
      <trkpt lat="46.56132" lon="0.33701">
        <ele>90.8</ele>
        <time>2024-09-22T07:32:11Z</time>
      </trkpt>
      <trkpt lat="46.56133" lon="0.337">
        <ele>91.2</ele>
        <time>2024-09-22T07:32:12Z</time>
      </trkpt>
      <trkpt lat="46.5614" lon="0.33693">
        <ele>92</ele>
        <time>2024-09-22T07:32:17Z</time>
      </trkpt>
      <trkpt lat="46.56147" lon="0.3369">
        <ele>92.8</ele>
        <time>2024-09-22T07:32:21Z</time>
      </trkpt>
      <trkpt lat="46.56149" lon="0.3369">
        <ele>93.2</ele>
        <time>2024-09-22T07:32:22Z</time>
      </trkpt>
      <trkpt lat="46.56158" lon="0.33687">
        <ele>94</ele>
        <time>2024-09-22T07:32:27Z</time>
      </trkpt>
      <trkpt lat="46.5616" lon="0.33687">
        <ele>94.2</ele>
        <time>2024-09-22T07:32:28Z</time>
      </trkpt>
      <trkpt lat="46.56171" lon="0.33682">
        <ele>95.4</ele>
        <time>2024-09-22T07:32:35Z</time>
      </trkpt>
      <trkpt lat="46.56181" lon="0.33675">
        <ele>96.4</ele>
        <time>2024-09-22T07:32:41Z</time>
      </trkpt>
      <trkpt lat="46.56183" lon="0.33675">
        <ele>97</ele>
        <time>2024-09-22T07:32:43Z</time>
      </trkpt>
      <trkpt lat="46.56184" lon="0.33674">
        <ele>97.2</ele>
        <time>2024-09-22T07:32:44Z</time>
      </trkpt>
      <trkpt lat="46.56186" lon="0.33674">
        <ele>97.4</ele>
        <time>2024-09-22T07:32:46Z</time>
      </trkpt>
      <trkpt lat="46.56191" lon="0.33672">
        <ele>98</ele>
        <time>2024-09-22T07:32:51Z</time>
      </trkpt>
      <trkpt lat="46.56192" lon="0.33671">
        <ele>98.6</ele>
        <time>2024-09-22T07:32:53Z</time>
      </trkpt>
      <trkpt lat="46.56196" lon="0.33672">
        <ele>99.6</ele>
        <time>2024-09-22T07:32:58Z</time>
      </trkpt>
      <trkpt lat="46.56199" lon="0.33675">
        <ele>99.8</ele>
        <time>2024-09-22T07:33:00Z</time>
      </trkpt>
      <trkpt lat="46.56202" lon="0.33678">
        <ele>100.2</ele>
        <time>2024-09-22T07:33:02Z</time>
      </trkpt>
      <trkpt lat="46.56203" lon="0.33679">
        <ele>100.6</ele>
        <time>2024-09-22T07:33:03Z</time>
      </trkpt>
      <trkpt lat="46.56211" lon="0.33686">
        <ele>101.8</ele>
        <time>2024-09-22T07:33:07Z</time>
      </trkpt>
      <trkpt lat="46.56212" lon="0.33689">
        <ele>102.2</ele>
        <time>2024-09-22T07:33:09Z</time>
      </trkpt>
      <trkpt lat="46.56212" lon="0.33693">
        <ele>102.8</ele>
        <time>2024-09-22T07:33:11Z</time>
      </trkpt>
      <trkpt lat="46.5621" lon="0.33697">
        <ele>103.2</ele>
        <time>2024-09-22T07:33:15Z</time>
      </trkpt>
      <trkpt lat="46.56209" lon="0.33699">
        <ele>103.8</ele>
        <time>2024-09-22T07:33:17Z</time>
      </trkpt>
      <trkpt lat="46.56209" lon="0.33699">
        <ele>104</ele>
        <time>2024-09-22T07:33:18Z</time>
      </trkpt>
      <trkpt lat="46.56206" lon="0.33701">
        <ele>104.6</ele>
        <time>2024-09-22T07:33:21Z</time>
      </trkpt>
      <trkpt lat="46.56204" lon="0.33702">
        <ele>105.2</ele>
        <time>2024-09-22T07:33:23Z</time>
      </trkpt>
      <trkpt lat="46.56197" lon="0.33705">
        <ele>106.2</ele>
        <time>2024-09-22T07:33:29Z</time>
      </trkpt>
      <trkpt lat="46.56194" lon="0.33707">
        <ele>106.4</ele>
        <time>2024-09-22T07:33:31Z</time>
      </trkpt>
      <trkpt lat="46.56187" lon="0.33719">
        <ele>107.4</ele>
        <time>2024-09-22T07:33:37Z</time>
      </trkpt>
      <trkpt lat="46.56178" lon="0.33732">
        <ele>108.2</ele>
        <time>2024-09-22T07:33:44Z</time>
      </trkpt>
      <trkpt lat="46.56176" lon="0.33734">
        <ele>108.4</ele>
        <time>2024-09-22T07:33:45Z</time>
      </trkpt>
      <trkpt lat="46.56168" lon="0.33736">
        <ele>108.8</ele>
        <time>2024-09-22T07:33:48Z</time>
      </trkpt>
      <trkpt lat="46.56162" lon="0.33739">
        <ele>109.2</ele>
        <time>2024-09-22T07:33:50Z</time>
      </trkpt>
      <trkpt lat="46.56153" lon="0.33743">
        <ele>109.6</ele>
        <time>2024-09-22T07:33:53Z</time>
      </trkpt>
      <trkpt lat="46.56143" lon="0.33749">
        <ele>110.6</ele>
        <time>2024-09-22T07:33:57Z</time>
      </trkpt>
      <trkpt lat="46.56133" lon="0.33755">
        <ele>111.8</ele>
        <time>2024-09-22T07:34:01Z</time>
      </trkpt>
      <trkpt lat="46.56125" lon="0.33761">
        <ele>112.8</ele>
        <time>2024-09-22T07:34:05Z</time>
      </trkpt>
      <trkpt lat="46.56122" lon="0.33762">
        <ele>113</ele>
        <time>2024-09-22T07:34:06Z</time>
      </trkpt>
      <trkpt lat="46.56113" lon="0.3377">
        <ele>114.2</ele>
        <time>2024-09-22T07:34:11Z</time>
      </trkpt>
      <trkpt lat="46.56106" lon="0.33779">
        <ele>115.2</ele>
        <time>2024-09-22T07:34:16Z</time>
      </trkpt>
      <trkpt lat="46.56099" lon="0.33785">
        <ele>115.6</ele>
        <time>2024-09-22T07:34:19Z</time>
      </trkpt>
      <trkpt lat="46.5609" lon="0.33797">
        <ele>115.8</ele>
        <time>2024-09-22T07:34:24Z</time>
      </trkpt>
      <trkpt lat="46.56091" lon="0.33815">
        <ele>116</ele>
        <time>2024-09-22T07:34:29Z</time>
      </trkpt>
      <trkpt lat="46.56088" lon="0.33822">
        <ele>116.2</ele>
        <time>2024-09-22T07:34:31Z</time>
      </trkpt>
      <trkpt lat="46.56082" lon="0.33827">
        <ele>116.2</ele>
        <time>2024-09-22T07:34:33Z</time>
      </trkpt>
      <trkpt lat="46.56067" lon="0.33842">
        <ele>116.4</ele>
        <time>2024-09-22T07:34:38Z</time>
      </trkpt>
      <trkpt lat="46.56061" lon="0.33848">
        <ele>116.4</ele>
        <time>2024-09-22T07:34:40Z</time>
      </trkpt>
      <trkpt lat="46.56058" lon="0.33851">
        <ele>116.4</ele>
        <time>2024-09-22T07:34:41Z</time>
      </trkpt>
      <trkpt lat="46.56047" lon="0.33872">
        <ele>117</ele>
        <time>2024-09-22T07:34:46Z</time>
      </trkpt>
      <trkpt lat="46.56041" lon="0.33882">
        <ele>117</ele>
        <time>2024-09-22T07:34:48Z</time>
      </trkpt>
      <trkpt lat="46.56031" lon="0.33898">
        <ele>117.4</ele>
        <time>2024-09-22T07:34:52Z</time>
      </trkpt>
      <trkpt lat="46.5603" lon="0.33904">
        <ele>117.6</ele>
        <time>2024-09-22T07:34:53Z</time>
      </trkpt>
      <trkpt lat="46.56028" lon="0.33907">
        <ele>117.6</ele>
        <time>2024-09-22T07:34:54Z</time>
      </trkpt>
      <trkpt lat="46.56017" lon="0.33912">
        <ele>118.6</ele>
        <time>2024-09-22T07:34:58Z</time>
      </trkpt>
      <trkpt lat="46.56011" lon="0.33918">
        <ele>118.8</ele>
        <time>2024-09-22T07:35:00Z</time>
      </trkpt>
      <trkpt lat="46.55996" lon="0.33931">
        <ele>118.4</ele>
        <time>2024-09-22T07:35:05Z</time>
      </trkpt>
      <trkpt lat="46.55982" lon="0.33947">
        <ele>118.2</ele>
        <time>2024-09-22T07:35:09Z</time>
      </trkpt>
      <trkpt lat="46.55976" lon="0.3395">
        <ele>118.2</ele>
        <time>2024-09-22T07:35:10Z</time>
      </trkpt>
      <trkpt lat="46.55961" lon="0.33964">
        <ele>117.4</ele>
        <time>2024-09-22T07:35:13Z</time>
      </trkpt>
      <trkpt lat="46.55949" lon="0.33983">
        <ele>116</ele>
        <time>2024-09-22T07:35:16Z</time>
      </trkpt>
      <trkpt lat="46.55937" lon="0.34007">
        <ele>115.8</ele>
        <time>2024-09-22T07:35:20Z</time>
      </trkpt>
      <trkpt lat="46.55932" lon="0.34016">
        <ele>116.2</ele>
        <time>2024-09-22T07:35:22Z</time>
      </trkpt>
      <trkpt lat="46.55923" lon="0.34021">
        <ele>116.6</ele>
        <time>2024-09-22T07:35:24Z</time>
      </trkpt>
      <trkpt lat="46.55913" lon="0.34027">
        <ele>116.6</ele>
        <time>2024-09-22T07:35:26Z</time>
      </trkpt>
      <trkpt lat="46.55902" lon="0.34036">
        <ele>116</ele>
        <time>2024-09-22T07:35:28Z</time>
      </trkpt>
      <trkpt lat="46.55889" lon="0.34039">
        <ele>115.2</ele>
        <time>2024-09-22T07:35:31Z</time>
      </trkpt>
      <trkpt lat="46.55884" lon="0.3404">
        <ele>115.2</ele>
        <time>2024-09-22T07:35:32Z</time>
      </trkpt>
      <trkpt lat="46.55875" lon="0.34042">
        <ele>115.2</ele>
        <time>2024-09-22T07:35:34Z</time>
      </trkpt>
      <trkpt lat="46.55865" lon="0.34047">
        <ele>115.2</ele>
        <time>2024-09-22T07:35:36Z</time>
      </trkpt>
      <trkpt lat="46.5586" lon="0.34049">
        <ele>115.2</ele>
        <time>2024-09-22T07:35:37Z</time>
      </trkpt>
      <trkpt lat="46.55822" lon="0.34065">
        <ele>116</ele>
        <time>2024-09-22T07:35:43Z</time>
      </trkpt>
      <trkpt lat="46.55796" lon="0.34082">
        <ele>116.2</ele>
        <time>2024-09-22T07:35:48Z</time>
      </trkpt>
      <trkpt lat="46.55792" lon="0.34084">
        <ele>116.2</ele>
        <time>2024-09-22T07:35:49Z</time>
      </trkpt>
      <trkpt lat="46.5578" lon="0.34089">
        <ele>116.2</ele>
        <time>2024-09-22T07:35:52Z</time>
      </trkpt>
      <trkpt lat="46.55767" lon="0.34095">
        <ele>116.4</ele>
        <time>2024-09-22T07:35:55Z</time>
      </trkpt>
      <trkpt lat="46.5574" lon="0.34103">
        <ele>116.8</ele>
        <time>2024-09-22T07:36:03Z</time>
      </trkpt>
      <trkpt lat="46.55736" lon="0.34105">
        <ele>117.2</ele>
        <time>2024-09-22T07:36:05Z</time>
      </trkpt>
      <trkpt lat="46.55726" lon="0.34108">
        <ele>118</ele>
        <time>2024-09-22T07:36:08Z</time>
      </trkpt>
      <trkpt lat="46.55724" lon="0.3411">
        <ele>118.2</ele>
        <time>2024-09-22T07:36:09Z</time>
      </trkpt>
      <trkpt lat="46.55711" lon="0.34129">
        <ele>119.8</ele>
        <time>2024-09-22T07:36:13Z</time>
      </trkpt>
      <trkpt lat="46.55708" lon="0.34134">
        <ele>120.2</ele>
        <time>2024-09-22T07:36:14Z</time>
      </trkpt>
      <trkpt lat="46.55701" lon="0.34151">
        <ele>121</ele>
        <time>2024-09-22T07:36:17Z</time>
      </trkpt>
      <trkpt lat="46.55695" lon="0.34166">
        <ele>121.2</ele>
        <time>2024-09-22T07:36:20Z</time>
      </trkpt>
      <trkpt lat="46.55685" lon="0.34186">
        <ele>122</ele>
        <time>2024-09-22T07:36:24Z</time>
      </trkpt>
      <trkpt lat="46.55682" lon="0.34192">
        <ele>122</ele>
        <time>2024-09-22T07:36:25Z</time>
      </trkpt>
      <trkpt lat="46.55676" lon="0.34202">
        <ele>122.2</ele>
        <time>2024-09-22T07:36:27Z</time>
      </trkpt>
      <trkpt lat="46.5566" lon="0.34207">
        <ele>122.4</ele>
        <time>2024-09-22T07:36:31Z</time>
      </trkpt>
      <trkpt lat="46.55631" lon="0.3421">
        <ele>122.6</ele>
        <time>2024-09-22T07:36:38Z</time>
      </trkpt>
      <trkpt lat="46.55617" lon="0.34209">
        <ele>122.4</ele>
        <time>2024-09-22T07:36:41Z</time>
      </trkpt>
      <trkpt lat="46.55608" lon="0.34206">
        <ele>122.6</ele>
        <time>2024-09-22T07:36:43Z</time>
      </trkpt>
      <trkpt lat="46.55602" lon="0.34205">
        <ele>122.6</ele>
        <time>2024-09-22T07:36:44Z</time>
      </trkpt>
      <trkpt lat="46.55587" lon="0.34209">
        <ele>122.6</ele>
        <time>2024-09-22T07:36:47Z</time>
      </trkpt>
      <trkpt lat="46.55572" lon="0.34214">
        <ele>122.6</ele>
        <time>2024-09-22T07:36:50Z</time>
      </trkpt>
      <trkpt lat="46.55542" lon="0.34217">
        <ele>122</ele>
        <time>2024-09-22T07:36:56Z</time>
      </trkpt>
      <trkpt lat="46.55516" lon="0.3422">
        <ele>121.8</ele>
        <time>2024-09-22T07:37:01Z</time>
      </trkpt>
      <trkpt lat="46.55485" lon="0.34224">
        <ele>121.4</ele>
        <time>2024-09-22T07:37:07Z</time>
      </trkpt>
      <trkpt lat="46.55469" lon="0.34226">
        <ele>121</ele>
        <time>2024-09-22T07:37:10Z</time>
      </trkpt>
      <trkpt lat="46.55465" lon="0.34229">
        <ele>120.8</ele>
        <time>2024-09-22T07:37:11Z</time>
      </trkpt>
      <trkpt lat="46.55462" lon="0.34233">
        <ele>120.6</ele>
        <time>2024-09-22T07:37:12Z</time>
      </trkpt>
      <trkpt lat="46.55459" lon="0.34236">
        <ele>120.6</ele>
        <time>2024-09-22T07:37:13Z</time>
      </trkpt>
      <trkpt lat="46.55461" lon="0.34248">
        <ele>120.4</ele>
        <time>2024-09-22T07:37:15Z</time>
      </trkpt>
      <trkpt lat="46.55463" lon="0.34255">
        <ele>120.2</ele>
        <time>2024-09-22T07:37:16Z</time>
      </trkpt>
      <trkpt lat="46.55469" lon="0.34269">
        <ele>119.8</ele>
        <time>2024-09-22T07:37:18Z</time>
      </trkpt>
      <trkpt lat="46.55473" lon="0.34277">
        <ele>119.4</ele>
        <time>2024-09-22T07:37:19Z</time>
      </trkpt>
      <trkpt lat="46.55485" lon="0.34299">
        <ele>118.2</ele>
        <time>2024-09-22T07:37:22Z</time>
      </trkpt>
      <trkpt lat="46.55489" lon="0.34304">
        <ele>117.6</ele>
        <time>2024-09-22T07:37:23Z</time>
      </trkpt>
      <trkpt lat="46.55492" lon="0.34308">
        <ele>117.2</ele>
        <time>2024-09-22T07:37:24Z</time>
      </trkpt>
      <trkpt lat="46.55494" lon="0.3431">
        <ele>116.8</ele>
        <time>2024-09-22T07:37:25Z</time>
      </trkpt>
      <trkpt lat="46.55495" lon="0.34313">
        <ele>115.8</ele>
        <time>2024-09-22T07:37:26Z</time>
      </trkpt>
      <trkpt lat="46.55495" lon="0.34315">
        <ele>115.4</ele>
        <time>2024-09-22T07:37:27Z</time>
      </trkpt>
      <trkpt lat="46.55493" lon="0.34318">
        <ele>114.8</ele>
        <time>2024-09-22T07:37:29Z</time>
      </trkpt>
      <trkpt lat="46.55492" lon="0.34319">
        <ele>114.6</ele>
        <time>2024-09-22T07:37:30Z</time>
      </trkpt>
      <trkpt lat="46.5548" lon="0.34321">
        <ele>113.8</ele>
        <time>2024-09-22T07:37:35Z</time>
      </trkpt>
      <trkpt lat="46.55474" lon="0.34323">
        <ele>113.4</ele>
        <time>2024-09-22T07:37:36Z</time>
      </trkpt>
      <trkpt lat="46.55469" lon="0.34324">
        <ele>113</ele>
        <time>2024-09-22T07:37:38Z</time>
      </trkpt>
      <trkpt lat="46.55466" lon="0.34325">
        <ele>112.4</ele>
        <time>2024-09-22T07:37:40Z</time>
      </trkpt>
      <trkpt lat="46.55463" lon="0.34323">
        <ele>112.2</ele>
        <time>2024-09-22T07:37:44Z</time>
      </trkpt>
      <trkpt lat="46.55462" lon="0.34323">
        <ele>112.2</ele>
        <time>2024-09-22T07:37:46Z</time>
      </trkpt>
      <trkpt lat="46.55452" lon="0.34319">
        <ele>112.4</ele>
        <time>2024-09-22T07:37:53Z</time>
      </trkpt>
      <trkpt lat="46.5545" lon="0.34319">
        <ele>112.4</ele>
        <time>2024-09-22T07:37:54Z</time>
      </trkpt>
      <trkpt lat="46.55434" lon="0.34321">
        <ele>112</ele>
        <time>2024-09-22T07:38:00Z</time>
      </trkpt>
      <trkpt lat="46.55428" lon="0.34324">
        <ele>111.6</ele>
        <time>2024-09-22T07:38:02Z</time>
      </trkpt>
      <trkpt lat="46.55422" lon="0.34325">
        <ele>111.4</ele>
        <time>2024-09-22T07:38:04Z</time>
      </trkpt>
      <trkpt lat="46.55415" lon="0.34328">
        <ele>110.6</ele>
        <time>2024-09-22T07:38:06Z</time>
      </trkpt>
      <trkpt lat="46.55411" lon="0.34329">
        <ele>110.4</ele>
        <time>2024-09-22T07:38:07Z</time>
      </trkpt>
      <trkpt lat="46.55407" lon="0.34331">
        <ele>110.2</ele>
        <time>2024-09-22T07:38:08Z</time>
      </trkpt>
      <trkpt lat="46.55397" lon="0.34335">
        <ele>109.8</ele>
        <time>2024-09-22T07:38:11Z</time>
      </trkpt>
      <trkpt lat="46.55377" lon="0.34338">
        <ele>110.4</ele>
        <time>2024-09-22T07:38:17Z</time>
      </trkpt>
      <trkpt lat="46.55353" lon="0.34345">
        <ele>110</ele>
        <time>2024-09-22T07:38:23Z</time>
      </trkpt>
      <trkpt lat="46.55335" lon="0.34347">
        <ele>108.6</ele>
        <time>2024-09-22T07:38:26Z</time>
      </trkpt>
      <trkpt lat="46.55321" lon="0.3435">
        <ele>107.4</ele>
        <time>2024-09-22T07:38:28Z</time>
      </trkpt>
      <trkpt lat="46.55304" lon="0.34351">
        <ele>105.8</ele>
        <time>2024-09-22T07:38:31Z</time>
      </trkpt>
      <trkpt lat="46.55292" lon="0.34351">
        <ele>104.8</ele>
        <time>2024-09-22T07:38:33Z</time>
      </trkpt>
      <trkpt lat="46.55275" lon="0.34351">
        <ele>103.6</ele>
        <time>2024-09-22T07:38:35Z</time>
      </trkpt>
      <trkpt lat="46.55253" lon="0.34346">
        <ele>102.8</ele>
        <time>2024-09-22T07:38:39Z</time>
      </trkpt>
      <trkpt lat="46.55232" lon="0.34345">
        <ele>102.4</ele>
        <time>2024-09-22T07:38:42Z</time>
      </trkpt>
      <trkpt lat="46.55216" lon="0.34343">
        <ele>102.4</ele>
        <time>2024-09-22T07:38:44Z</time>
      </trkpt>
      <trkpt lat="46.55195" lon="0.34339">
        <ele>101.8</ele>
        <time>2024-09-22T07:38:47Z</time>
      </trkpt>
      <trkpt lat="46.55183" lon="0.34333">
        <ele>101.4</ele>
        <time>2024-09-22T07:38:49Z</time>
      </trkpt>
      <trkpt lat="46.55165" lon="0.34323">
        <ele>101.4</ele>
        <time>2024-09-22T07:38:53Z</time>
      </trkpt>
      <trkpt lat="46.55161" lon="0.34321">
        <ele>101.4</ele>
        <time>2024-09-22T07:38:54Z</time>
      </trkpt>
      <trkpt lat="46.55157" lon="0.34321">
        <ele>101.2</ele>
        <time>2024-09-22T07:38:55Z</time>
      </trkpt>
      <trkpt lat="46.55142" lon="0.34325">
        <ele>99.6</ele>
        <time>2024-09-22T07:38:58Z</time>
      </trkpt>
      <trkpt lat="46.55137" lon="0.34326">
        <ele>98.2</ele>
        <time>2024-09-22T07:38:59Z</time>
      </trkpt>
      <trkpt lat="46.55126" lon="0.3433">
        <ele>96.4</ele>
        <time>2024-09-22T07:39:01Z</time>
      </trkpt>
      <trkpt lat="46.55122" lon="0.34331">
        <ele>94.6</ele>
        <time>2024-09-22T07:39:02Z</time>
      </trkpt>
      <trkpt lat="46.55113" lon="0.34329">
        <ele>93.6</ele>
        <time>2024-09-22T07:39:04Z</time>
      </trkpt>
      <trkpt lat="46.5511" lon="0.34329">
        <ele>92.4</ele>
        <time>2024-09-22T07:39:05Z</time>
      </trkpt>
      <trkpt lat="46.55107" lon="0.34329">
        <ele>90.6</ele>
        <time>2024-09-22T07:39:07Z</time>
      </trkpt>
      <trkpt lat="46.55107" lon="0.3433">
        <ele>90</ele>
        <time>2024-09-22T07:39:08Z</time>
      </trkpt>
      <trkpt lat="46.55107" lon="0.34331">
        <ele>89.4</ele>
        <time>2024-09-22T07:39:10Z</time>
      </trkpt>
      <trkpt lat="46.55114" lon="0.34334">
        <ele>88.6</ele>
        <time>2024-09-22T07:39:13Z</time>
      </trkpt>
      <trkpt lat="46.55116" lon="0.34336">
        <ele>88.4</ele>
        <time>2024-09-22T07:39:14Z</time>
      </trkpt>
      <trkpt lat="46.55122" lon="0.34339">
        <ele>88</ele>
        <time>2024-09-22T07:39:16Z</time>
      </trkpt>
      <trkpt lat="46.55125" lon="0.34341">
        <ele>87.6</ele>
        <time>2024-09-22T07:39:17Z</time>
      </trkpt>
      <trkpt lat="46.55129" lon="0.34343">
        <ele>87.4</ele>
        <time>2024-09-22T07:39:18Z</time>
      </trkpt>
      <trkpt lat="46.55146" lon="0.34352">
        <ele>86.4</ele>
        <time>2024-09-22T07:39:22Z</time>
      </trkpt>
      <trkpt lat="46.55154" lon="0.34356">
        <ele>85.8</ele>
        <time>2024-09-22T07:39:24Z</time>
      </trkpt>
      <trkpt lat="46.55162" lon="0.34358">
        <ele>85.2</ele>
        <time>2024-09-22T07:39:26Z</time>
      </trkpt>
      <trkpt lat="46.55168" lon="0.3436">
        <ele>84</ele>
        <time>2024-09-22T07:39:28Z</time>
      </trkpt>
      <trkpt lat="46.55169" lon="0.3436">
        <ele>82.8</ele>
        <time>2024-09-22T07:39:29Z</time>
      </trkpt>
      <trkpt lat="46.55173" lon="0.34367">
        <ele>81.6</ele>
        <time>2024-09-22T07:39:32Z</time>
      </trkpt>
      <trkpt lat="46.55175" lon="0.3437">
        <ele>81.2</ele>
        <time>2024-09-22T07:39:33Z</time>
      </trkpt>
      <trkpt lat="46.55178" lon="0.34383">
        <ele>80.8</ele>
        <time>2024-09-22T07:39:40Z</time>
      </trkpt>
      <trkpt lat="46.55176" lon="0.34383">
        <ele>80.8</ele>
        <time>2024-09-22T07:39:43Z</time>
      </trkpt>
      <trkpt lat="46.55171" lon="0.34382">
        <ele>80.8</ele>
        <time>2024-09-22T07:39:46Z</time>
      </trkpt>
      <trkpt lat="46.55165" lon="0.34381">
        <ele>80.8</ele>
        <time>2024-09-22T07:39:48Z</time>
      </trkpt>
      <trkpt lat="46.55151" lon="0.34379">
        <ele>80.8</ele>
        <time>2024-09-22T07:39:51Z</time>
      </trkpt>
      <trkpt lat="46.55146" lon="0.34378">
        <ele>81</ele>
        <time>2024-09-22T07:39:52Z</time>
      </trkpt>
      <trkpt lat="46.55129" lon="0.34374">
        <ele>81</ele>
        <time>2024-09-22T07:39:55Z</time>
      </trkpt>
      <trkpt lat="46.55121" lon="0.3437">
        <ele>81</ele>
        <time>2024-09-22T07:39:56Z</time>
      </trkpt>
      <trkpt lat="46.55093" lon="0.34355">
        <ele>81</ele>
        <time>2024-09-22T07:40:01Z</time>
      </trkpt>
      <trkpt lat="46.55077" lon="0.34347">
        <ele>80.6</ele>
        <time>2024-09-22T07:40:04Z</time>
      </trkpt>
      <trkpt lat="46.5506" lon="0.3434">
        <ele>79.8</ele>
        <time>2024-09-22T07:40:08Z</time>
      </trkpt>
      <trkpt lat="46.55057" lon="0.3434">
        <ele>79.4</ele>
        <time>2024-09-22T07:40:09Z</time>
      </trkpt>
      <trkpt lat="46.55052" lon="0.34344">
        <ele>79.2</ele>
        <time>2024-09-22T07:40:11Z</time>
      </trkpt>
      <trkpt lat="46.5505" lon="0.34346">
        <ele>78.4</ele>
        <time>2024-09-22T07:40:14Z</time>
      </trkpt>
      <trkpt lat="46.55047" lon="0.34354">
        <ele>77.8</ele>
        <time>2024-09-22T07:40:16Z</time>
      </trkpt>
      <trkpt lat="46.55048" lon="0.34365">
        <ele>77.6</ele>
        <time>2024-09-22T07:40:18Z</time>
      </trkpt>
      <trkpt lat="46.55049" lon="0.34375">
        <ele>77.4</ele>
        <time>2024-09-22T07:40:20Z</time>
      </trkpt>
      <trkpt lat="46.55055" lon="0.34385">
        <ele>77</ele>
        <time>2024-09-22T07:40:24Z</time>
      </trkpt>
      <trkpt lat="46.55057" lon="0.34406">
        <ele>76.8</ele>
        <time>2024-09-22T07:40:28Z</time>
      </trkpt>
      <trkpt lat="46.5506" lon="0.34433">
        <ele>77.4</ele>
        <time>2024-09-22T07:40:34Z</time>
      </trkpt>
      <trkpt lat="46.55061" lon="0.34437">
        <ele>78.4</ele>
        <time>2024-09-22T07:40:36Z</time>
      </trkpt>
      <trkpt lat="46.55062" lon="0.34437">
        <ele>78.6</ele>
        <time>2024-09-22T07:40:37Z</time>
      </trkpt>
      <trkpt lat="46.55065" lon="0.34439">
        <ele>79.2</ele>
        <time>2024-09-22T07:40:38Z</time>
      </trkpt>
      <trkpt lat="46.5507" lon="0.3444">
        <ele>80</ele>
        <time>2024-09-22T07:40:40Z</time>
      </trkpt>
      <trkpt lat="46.55084" lon="0.3444">
        <ele>80.8</ele>
        <time>2024-09-22T07:40:45Z</time>
      </trkpt>
      <trkpt lat="46.55098" lon="0.34435">
        <ele>79.4</ele>
        <time>2024-09-22T07:40:51Z</time>
      </trkpt>
      <trkpt lat="46.55107" lon="0.34438">
        <ele>79</ele>
        <time>2024-09-22T07:40:53Z</time>
      </trkpt>
      <trkpt lat="46.55112" lon="0.3444">
        <ele>78.8</ele>
        <time>2024-09-22T07:40:54Z</time>
      </trkpt>
      <trkpt lat="46.55119" lon="0.34442">
        <ele>78.4</ele>
        <time>2024-09-22T07:40:56Z</time>
      </trkpt>
      <trkpt lat="46.55123" lon="0.34443">
        <ele>78.2</ele>
        <time>2024-09-22T07:40:57Z</time>
      </trkpt>
      <trkpt lat="46.55127" lon="0.34445">
        <ele>78.2</ele>
        <time>2024-09-22T07:40:58Z</time>
      </trkpt>
      <trkpt lat="46.55134" lon="0.34446">
        <ele>78.2</ele>
        <time>2024-09-22T07:41:00Z</time>
      </trkpt>
      <trkpt lat="46.55142" lon="0.34453">
        <ele>78.6</ele>
        <time>2024-09-22T07:41:02Z</time>
      </trkpt>
      <trkpt lat="46.55161" lon="0.34462">
        <ele>79.2</ele>
        <time>2024-09-22T07:41:09Z</time>
      </trkpt>
      <trkpt lat="46.55166" lon="0.34463">
        <ele>79.2</ele>
        <time>2024-09-22T07:41:11Z</time>
      </trkpt>
      <trkpt lat="46.5518" lon="0.34467">
        <ele>78.8</ele>
        <time>2024-09-22T07:41:16Z</time>
      </trkpt>
      <trkpt lat="46.55184" lon="0.34467">
        <ele>79</ele>
        <time>2024-09-22T07:41:19Z</time>
      </trkpt>
      <trkpt lat="46.55194" lon="0.34467">
        <ele>79.4</ele>
        <time>2024-09-22T07:41:24Z</time>
      </trkpt>
      <trkpt lat="46.552" lon="0.3447">
        <ele>80.2</ele>
        <time>2024-09-22T07:41:28Z</time>
      </trkpt>
      <trkpt lat="46.55202" lon="0.34472">
        <ele>80.6</ele>
        <time>2024-09-22T07:41:29Z</time>
      </trkpt>
      <trkpt lat="46.55203" lon="0.34473">
        <ele>80.8</ele>
        <time>2024-09-22T07:41:30Z</time>
      </trkpt>
      <trkpt lat="46.55205" lon="0.34475">
        <ele>81</ele>
        <time>2024-09-22T07:41:32Z</time>
      </trkpt>
      <trkpt lat="46.5521" lon="0.34479">
        <ele>81.2</ele>
        <time>2024-09-22T07:41:36Z</time>
      </trkpt>
      <trkpt lat="46.55215" lon="0.34483">
        <ele>81.6</ele>
        <time>2024-09-22T07:41:39Z</time>
      </trkpt>
      <trkpt lat="46.5522" lon="0.34489">
        <ele>81.8</ele>
        <time>2024-09-22T07:41:42Z</time>
      </trkpt>
      <trkpt lat="46.5524" lon="0.34508">
        <ele>81.8</ele>
        <time>2024-09-22T07:41:44Z</time>
      </trkpt>
      <trkpt lat="46.55257" lon="0.34525">
        <ele>81.8</ele>
        <time>2024-09-22T07:41:46Z</time>
      </trkpt>
      <trkpt lat="46.55269" lon="0.34541">
        <ele>82</ele>
        <time>2024-09-22T07:41:48Z</time>
      </trkpt>
      <trkpt lat="46.55273" lon="0.34547">
        <ele>82.2</ele>
        <time>2024-09-22T07:41:49Z</time>
      </trkpt>
      <trkpt lat="46.55276" lon="0.34552">
        <ele>82.2</ele>
        <time>2024-09-22T07:41:50Z</time>
      </trkpt>
      <trkpt lat="46.55279" lon="0.34558">
        <ele>82.2</ele>
        <time>2024-09-22T07:41:51Z</time>
      </trkpt>
      <trkpt lat="46.5529" lon="0.34578">
        <ele>82.2</ele>
        <time>2024-09-22T07:41:54Z</time>
      </trkpt>
      <trkpt lat="46.55294" lon="0.34586">
        <ele>82.4</ele>
        <time>2024-09-22T07:41:55Z</time>
      </trkpt>
      <trkpt lat="46.55306" lon="0.34611">
        <ele>82</ele>
        <time>2024-09-22T07:42:00Z</time>
      </trkpt>
      <trkpt lat="46.55313" lon="0.34628">
        <ele>81.2</ele>
        <time>2024-09-22T07:42:03Z</time>
      </trkpt>
      <trkpt lat="46.55315" lon="0.34635">
        <ele>81</ele>
        <time>2024-09-22T07:42:04Z</time>
      </trkpt>
      <trkpt lat="46.55315" lon="0.34641">
        <ele>80</ele>
        <time>2024-09-22T07:42:05Z</time>
      </trkpt>
      <trkpt lat="46.55315" lon="0.34646">
        <ele>79.4</ele>
        <time>2024-09-22T07:42:06Z</time>
      </trkpt>
      <trkpt lat="46.55316" lon="0.34655">
        <ele>78.6</ele>
        <time>2024-09-22T07:42:08Z</time>
      </trkpt>
      <trkpt lat="46.55313" lon="0.34661">
        <ele>78.4</ele>
        <time>2024-09-22T07:42:10Z</time>
      </trkpt>
      <trkpt lat="46.55312" lon="0.34664">
        <ele>78.4</ele>
        <time>2024-09-22T07:42:11Z</time>
      </trkpt>
      <trkpt lat="46.553" lon="0.34691">
        <ele>78.8</ele>
        <time>2024-09-22T07:42:18Z</time>
      </trkpt>
      <trkpt lat="46.55298" lon="0.34696">
        <ele>78.8</ele>
        <time>2024-09-22T07:42:19Z</time>
      </trkpt>
      <trkpt lat="46.55293" lon="0.34706">
        <ele>78.8</ele>
        <time>2024-09-22T07:42:21Z</time>
      </trkpt>
      <trkpt lat="46.55284" lon="0.34723">
        <ele>78.4</ele>
        <time>2024-09-22T07:42:24Z</time>
      </trkpt>
      <trkpt lat="46.55281" lon="0.34728">
        <ele>78.4</ele>
        <time>2024-09-22T07:42:25Z</time>
      </trkpt>
      <trkpt lat="46.55266" lon="0.34758">
        <ele>79</ele>
        <time>2024-09-22T07:42:30Z</time>
      </trkpt>
      <trkpt lat="46.55248" lon="0.34819">
        <ele>79</ele>
        <time>2024-09-22T07:42:37Z</time>
      </trkpt>
      <trkpt lat="46.55248" lon="0.34839">
        <ele>79</ele>
        <time>2024-09-22T07:42:39Z</time>
      </trkpt>
      <trkpt lat="46.55246" lon="0.34867">
        <ele>79</ele>
        <time>2024-09-22T07:42:42Z</time>
      </trkpt>
      <trkpt lat="46.55248" lon="0.34887">
        <ele>79</ele>
        <time>2024-09-22T07:42:44Z</time>
      </trkpt>
      <trkpt lat="46.55251" lon="0.34914">
        <ele>79.2</ele>
        <time>2024-09-22T07:42:47Z</time>
      </trkpt>
      <trkpt lat="46.55258" lon="0.34975">
        <ele>79</ele>
        <time>2024-09-22T07:42:53Z</time>
      </trkpt>
      <trkpt lat="46.55264" lon="0.34988">
        <ele>79</ele>
        <time>2024-09-22T07:42:54Z</time>
      </trkpt>
      <trkpt lat="46.5527" lon="0.35015">
        <ele>79</ele>
        <time>2024-09-22T07:42:57Z</time>
      </trkpt>
      <trkpt lat="46.55272" lon="0.35023">
        <ele>79</ele>
        <time>2024-09-22T07:42:58Z</time>
      </trkpt>
      <trkpt lat="46.55281" lon="0.35057">
        <ele>79</ele>
        <time>2024-09-22T07:43:02Z</time>
      </trkpt>
      <trkpt lat="46.55286" lon="0.35074">
        <ele>79.2</ele>
        <time>2024-09-22T07:43:04Z</time>
      </trkpt>
      <trkpt lat="46.55296" lon="0.35119">
        <ele>78.4</ele>
        <time>2024-09-22T07:43:10Z</time>
      </trkpt>
      <trkpt lat="46.55307" lon="0.35155">
        <ele>79</ele>
        <time>2024-09-22T07:43:16Z</time>
      </trkpt>
      <trkpt lat="46.55309" lon="0.35166">
        <ele>79.4</ele>
        <time>2024-09-22T07:43:18Z</time>
      </trkpt>
      <trkpt lat="46.55313" lon="0.3519">
        <ele>80.2</ele>
        <time>2024-09-22T07:43:22Z</time>
      </trkpt>
      <trkpt lat="46.55311" lon="0.35195">
        <ele>80.6</ele>
        <time>2024-09-22T07:43:23Z</time>
      </trkpt>
      <trkpt lat="46.55304" lon="0.35216">
        <ele>81.4</ele>
        <time>2024-09-22T07:43:27Z</time>
      </trkpt>
      <trkpt lat="46.55296" lon="0.35227">
        <ele>81.8</ele>
        <time>2024-09-22T07:43:30Z</time>
      </trkpt>
      <trkpt lat="46.55282" lon="0.35246">
        <ele>82.6</ele>
        <time>2024-09-22T07:43:35Z</time>
      </trkpt>
      <trkpt lat="46.55279" lon="0.3525">
        <ele>82.8</ele>
        <time>2024-09-22T07:43:36Z</time>
      </trkpt>
      <trkpt lat="46.55276" lon="0.35252">
        <ele>82.8</ele>
        <time>2024-09-22T07:43:37Z</time>
      </trkpt>
      <trkpt lat="46.55267" lon="0.35257">
        <ele>83.2</ele>
        <time>2024-09-22T07:43:40Z</time>
      </trkpt>
      <trkpt lat="46.55258" lon="0.35266">
        <ele>81.8</ele>
        <time>2024-09-22T07:43:44Z</time>
      </trkpt>
      <trkpt lat="46.55255" lon="0.35266">
        <ele>81.6</ele>
        <time>2024-09-22T07:43:45Z</time>
      </trkpt>
      <trkpt lat="46.55241" lon="0.35261">
        <ele>81.8</ele>
        <time>2024-09-22T07:43:50Z</time>
      </trkpt>
      <trkpt lat="46.55223" lon="0.35251">
        <ele>82</ele>
        <time>2024-09-22T07:43:55Z</time>
      </trkpt>
      <trkpt lat="46.55211" lon="0.35244">
        <ele>82.2</ele>
        <time>2024-09-22T07:44:00Z</time>
      </trkpt>
      <trkpt lat="46.55207" lon="0.35242">
        <ele>82.2</ele>
        <time>2024-09-22T07:44:06Z</time>
      </trkpt>
      <trkpt lat="46.55204" lon="0.35238">
        <ele>82.4</ele>
        <time>2024-09-22T07:44:17Z</time>
      </trkpt>
      <trkpt lat="46.55205" lon="0.3524">
        <ele>82.4</ele>
        <time>2024-09-22T07:44:32Z</time>
      </trkpt>
      <trkpt lat="46.55204" lon="0.35238">
        <ele>82.4</ele>
        <time>2024-09-22T07:44:46Z</time>
      </trkpt>
      <trkpt lat="46.55202" lon="0.35238">
        <ele>82.4</ele>
        <time>2024-09-22T07:44:48Z</time>
      </trkpt>
      <trkpt lat="46.55197" lon="0.35234">
        <ele>82.4</ele>
        <time>2024-09-22T07:44:51Z</time>
      </trkpt>
      <trkpt lat="46.55193" lon="0.35231">
        <ele>82.4</ele>
        <time>2024-09-22T07:44:53Z</time>
      </trkpt>
      <trkpt lat="46.55178" lon="0.35218">
        <ele>82.2</ele>
        <time>2024-09-22T07:45:00Z</time>
      </trkpt>
      <trkpt lat="46.55169" lon="0.35209">
        <ele>82.2</ele>
        <time>2024-09-22T07:45:04Z</time>
      </trkpt>
      <trkpt lat="46.55167" lon="0.35207">
        <ele>82.2</ele>
        <time>2024-09-22T07:45:05Z</time>
      </trkpt>
      <trkpt lat="46.55164" lon="0.35204">
        <ele>82.4</ele>
        <time>2024-09-22T07:45:06Z</time>
      </trkpt>
      <trkpt lat="46.55158" lon="0.35199">
        <ele>82.4</ele>
        <time>2024-09-22T07:45:08Z</time>
      </trkpt>
      <trkpt lat="46.55152" lon="0.35195">
        <ele>82.4</ele>
        <time>2024-09-22T07:45:10Z</time>
      </trkpt>
      <trkpt lat="46.55127" lon="0.35179">
        <ele>82.4</ele>
        <time>2024-09-22T07:45:16Z</time>
      </trkpt>
      <trkpt lat="46.55109" lon="0.35168">
        <ele>82.2</ele>
        <time>2024-09-22T07:45:20Z</time>
      </trkpt>
      <trkpt lat="46.55101" lon="0.35163">
        <ele>82</ele>
        <time>2024-09-22T07:45:22Z</time>
      </trkpt>
      <trkpt lat="46.55094" lon="0.35158">
        <ele>82.2</ele>
        <time>2024-09-22T07:45:24Z</time>
      </trkpt>
      <trkpt lat="46.55085" lon="0.35154">
        <ele>82.2</ele>
        <time>2024-09-22T07:45:26Z</time>
      </trkpt>
      <trkpt lat="46.55078" lon="0.35152">
        <ele>82.4</ele>
        <time>2024-09-22T07:45:28Z</time>
      </trkpt>
      <trkpt lat="46.55045" lon="0.35142">
        <ele>82.2</ele>
        <time>2024-09-22T07:45:35Z</time>
      </trkpt>
      <trkpt lat="46.55016" lon="0.35138">
        <ele>82</ele>
        <time>2024-09-22T07:45:40Z</time>
      </trkpt>
      <trkpt lat="46.55" lon="0.35137">
        <ele>82</ele>
        <time>2024-09-22T07:45:43Z</time>
      </trkpt>
      <trkpt lat="46.54989" lon="0.35134">
        <ele>81.4</ele>
        <time>2024-09-22T07:45:46Z</time>
      </trkpt>
      <trkpt lat="46.54987" lon="0.35135">
        <ele>80.8</ele>
        <time>2024-09-22T07:45:47Z</time>
      </trkpt>
      <trkpt lat="46.54979" lon="0.35134">
        <ele>80</ele>
        <time>2024-09-22T07:45:50Z</time>
      </trkpt>
      <trkpt lat="46.54966" lon="0.35137">
        <ele>79.6</ele>
        <time>2024-09-22T07:45:55Z</time>
      </trkpt>
      <trkpt lat="46.5496" lon="0.35139">
        <ele>79.2</ele>
        <time>2024-09-22T07:45:57Z</time>
      </trkpt>
      <trkpt lat="46.54939" lon="0.35144">
        <ele>79.8</ele>
        <time>2024-09-22T07:46:04Z</time>
      </trkpt>
      <trkpt lat="46.54921" lon="0.35148">
        <ele>80</ele>
        <time>2024-09-22T07:46:10Z</time>
      </trkpt>
      <trkpt lat="46.54914" lon="0.35149">
        <ele>80.2</ele>
        <time>2024-09-22T07:46:12Z</time>
      </trkpt>
      <trkpt lat="46.54908" lon="0.35149">
        <ele>80.4</ele>
        <time>2024-09-22T07:46:15Z</time>
      </trkpt>
      <trkpt lat="46.54908" lon="0.35149">
        <ele>80.6</ele>
        <time>2024-09-22T07:46:16Z</time>
      </trkpt>
      <trkpt lat="46.54906" lon="0.35148">
        <ele>81</ele>
        <time>2024-09-22T07:46:17Z</time>
      </trkpt>
      <trkpt lat="46.54903" lon="0.35148">
        <ele>81.8</ele>
        <time>2024-09-22T07:46:19Z</time>
      </trkpt>
      <trkpt lat="46.54901" lon="0.35147">
        <ele>82</ele>
        <time>2024-09-22T07:46:20Z</time>
      </trkpt>
      <trkpt lat="46.54896" lon="0.35145">
        <ele>82.2</ele>
        <time>2024-09-22T07:46:22Z</time>
      </trkpt>
      <trkpt lat="46.54883" lon="0.3515">
        <ele>82.4</ele>
        <time>2024-09-22T07:46:28Z</time>
      </trkpt>
      <trkpt lat="46.54871" lon="0.35161">
        <ele>82.4</ele>
        <time>2024-09-22T07:46:34Z</time>
      </trkpt>
      <trkpt lat="46.54864" lon="0.35167">
        <ele>82.6</ele>
        <time>2024-09-22T07:46:37Z</time>
      </trkpt>
      <trkpt lat="46.54858" lon="0.35168">
        <ele>82.8</ele>
        <time>2024-09-22T07:46:40Z</time>
      </trkpt>
      <trkpt lat="46.54856" lon="0.3517">
        <ele>83</ele>
        <time>2024-09-22T07:46:41Z</time>
      </trkpt>
      <trkpt lat="46.54853" lon="0.35172">
        <ele>84.2</ele>
        <time>2024-09-22T07:46:43Z</time>
      </trkpt>
      <trkpt lat="46.54845" lon="0.35179">
        <ele>85.4</ele>
        <time>2024-09-22T07:46:47Z</time>
      </trkpt>
      <trkpt lat="46.54827" lon="0.35187">
        <ele>86.4</ele>
        <time>2024-09-22T07:46:54Z</time>
      </trkpt>
      <trkpt lat="46.54819" lon="0.35194">
        <ele>87.6</ele>
        <time>2024-09-22T07:46:58Z</time>
      </trkpt>
      <trkpt lat="46.54812" lon="0.35198">
        <ele>88.2</ele>
        <time>2024-09-22T07:47:01Z</time>
      </trkpt>
      <trkpt lat="46.54799" lon="0.35217">
        <ele>88.4</ele>
        <time>2024-09-22T07:47:08Z</time>
      </trkpt>
      <trkpt lat="46.5479" lon="0.35239">
        <ele>87.8</ele>
        <time>2024-09-22T07:47:13Z</time>
      </trkpt>
      <trkpt lat="46.54789" lon="0.35244">
        <ele>87.6</ele>
        <time>2024-09-22T07:47:14Z</time>
      </trkpt>
      <trkpt lat="46.54788" lon="0.3525">
        <ele>87.4</ele>
        <time>2024-09-22T07:47:15Z</time>
      </trkpt>
      <trkpt lat="46.5478" lon="0.35265">
        <ele>87.4</ele>
        <time>2024-09-22T07:47:20Z</time>
      </trkpt>
      <trkpt lat="46.54779" lon="0.35267">
        <ele>87.6</ele>
        <time>2024-09-22T07:47:21Z</time>
      </trkpt>
      <trkpt lat="46.54775" lon="0.35279">
        <ele>87.4</ele>
        <time>2024-09-22T07:47:24Z</time>
      </trkpt>
      <trkpt lat="46.54774" lon="0.35282">
        <ele>87.2</ele>
        <time>2024-09-22T07:47:25Z</time>
      </trkpt>
      <trkpt lat="46.54771" lon="0.35287">
        <ele>87</ele>
        <time>2024-09-22T07:47:27Z</time>
      </trkpt>
      <trkpt lat="46.54765" lon="0.35296">
        <ele>87.2</ele>
        <time>2024-09-22T07:47:30Z</time>
      </trkpt>
      <trkpt lat="46.54755" lon="0.35321">
        <ele>88.2</ele>
        <time>2024-09-22T07:47:36Z</time>
      </trkpt>
      <trkpt lat="46.54752" lon="0.3533">
        <ele>89.2</ele>
        <time>2024-09-22T07:47:38Z</time>
      </trkpt>
      <trkpt lat="46.54744" lon="0.35357">
        <ele>90</ele>
        <time>2024-09-22T07:47:43Z</time>
      </trkpt>
      <trkpt lat="46.54735" lon="0.3538">
        <ele>90.4</ele>
        <time>2024-09-22T07:47:48Z</time>
      </trkpt>
      <trkpt lat="46.54734" lon="0.35385">
        <ele>90.4</ele>
        <time>2024-09-22T07:47:49Z</time>
      </trkpt>
      <trkpt lat="46.54732" lon="0.3539">
        <ele>90.4</ele>
        <time>2024-09-22T07:47:50Z</time>
      </trkpt>
      <trkpt lat="46.54727" lon="0.35406">
        <ele>90.2</ele>
        <time>2024-09-22T07:47:54Z</time>
      </trkpt>
      <trkpt lat="46.54724" lon="0.3541">
        <ele>90.2</ele>
        <time>2024-09-22T07:47:56Z</time>
      </trkpt>
      <trkpt lat="46.54716" lon="0.35419">
        <ele>91</ele>
        <time>2024-09-22T07:48:00Z</time>
      </trkpt>
      <trkpt lat="46.54714" lon="0.35421">
        <ele>91.4</ele>
        <time>2024-09-22T07:48:01Z</time>
      </trkpt>
      <trkpt lat="46.54703" lon="0.35421">
        <ele>92.6</ele>
        <time>2024-09-22T07:48:06Z</time>
      </trkpt>
      <trkpt lat="46.54685" lon="0.35418">
        <ele>93.6</ele>
        <time>2024-09-22T07:48:12Z</time>
      </trkpt>
      <trkpt lat="46.54683" lon="0.35417">
        <ele>93.8</ele>
        <time>2024-09-22T07:48:13Z</time>
      </trkpt>
      <trkpt lat="46.54678" lon="0.35412">
        <ele>94.6</ele>
        <time>2024-09-22T07:48:16Z</time>
      </trkpt>
      <trkpt lat="46.54666" lon="0.35402">
        <ele>95.4</ele>
        <time>2024-09-22T07:48:21Z</time>
      </trkpt>
      <trkpt lat="46.54664" lon="0.354">
        <ele>95.6</ele>
        <time>2024-09-22T07:48:22Z</time>
      </trkpt>
      <trkpt lat="46.54655" lon="0.35393">
        <ele>96.8</ele>
        <time>2024-09-22T07:48:27Z</time>
      </trkpt>
      <trkpt lat="46.54648" lon="0.35387">
        <ele>97.8</ele>
        <time>2024-09-22T07:48:31Z</time>
      </trkpt>
      <trkpt lat="46.54641" lon="0.35383">
        <ele>98.8</ele>
        <time>2024-09-22T07:48:35Z</time>
      </trkpt>
      <trkpt lat="46.5464" lon="0.35382">
        <ele>99</ele>
        <time>2024-09-22T07:48:36Z</time>
      </trkpt>
      <trkpt lat="46.54633" lon="0.35379">
        <ele>100.6</ele>
        <time>2024-09-22T07:48:41Z</time>
      </trkpt>
      <trkpt lat="46.54631" lon="0.35379">
        <ele>101</ele>
        <time>2024-09-22T07:48:42Z</time>
      </trkpt>
      <trkpt lat="46.54629" lon="0.35378">
        <ele>101.4</ele>
        <time>2024-09-22T07:48:43Z</time>
      </trkpt>
      <trkpt lat="46.54627" lon="0.35378">
        <ele>101.8</ele>
        <time>2024-09-22T07:48:44Z</time>
      </trkpt>
      <trkpt lat="46.54626" lon="0.35377">
        <ele>102</ele>
        <time>2024-09-22T07:48:45Z</time>
      </trkpt>
      <trkpt lat="46.54623" lon="0.35376">
        <ele>102.8</ele>
        <time>2024-09-22T07:48:48Z</time>
      </trkpt>
      <trkpt lat="46.54618" lon="0.35371">
        <ele>104</ele>
        <time>2024-09-22T07:48:52Z</time>
      </trkpt>
      <trkpt lat="46.54611" lon="0.35365">
        <ele>104.6</ele>
        <time>2024-09-22T07:48:56Z</time>
      </trkpt>
      <trkpt lat="46.54608" lon="0.35362">
        <ele>105</ele>
        <time>2024-09-22T07:48:58Z</time>
      </trkpt>
      <trkpt lat="46.54604" lon="0.3536">
        <ele>105.8</ele>
        <time>2024-09-22T07:49:01Z</time>
      </trkpt>
      <trkpt lat="46.54602" lon="0.35358">
        <ele>106.4</ele>
        <time>2024-09-22T07:49:03Z</time>
      </trkpt>
      <trkpt lat="46.54597" lon="0.35355">
        <ele>107.4</ele>
        <time>2024-09-22T07:49:06Z</time>
      </trkpt>
      <trkpt lat="46.54596" lon="0.35355">
        <ele>107.6</ele>
        <time>2024-09-22T07:49:07Z</time>
      </trkpt>
      <trkpt lat="46.5459" lon="0.35353">
        <ele>108.4</ele>
        <time>2024-09-22T07:49:13Z</time>
      </trkpt>
      <trkpt lat="46.54588" lon="0.35352">
        <ele>108.6</ele>
        <time>2024-09-22T07:49:15Z</time>
      </trkpt>
      <trkpt lat="46.54584" lon="0.35351">
        <ele>109.6</ele>
        <time>2024-09-22T07:49:20Z</time>
      </trkpt>
      <trkpt lat="46.54581" lon="0.3535">
        <ele>109.8</ele>
        <time>2024-09-22T07:49:24Z</time>
      </trkpt>
      <trkpt lat="46.54571" lon="0.35348">
        <ele>110.8</ele>
        <time>2024-09-22T07:49:30Z</time>
      </trkpt>
      <trkpt lat="46.54568" lon="0.35351">
        <ele>111.6</ele>
        <time>2024-09-22T07:49:33Z</time>
      </trkpt>
      <trkpt lat="46.54563" lon="0.35367">
        <ele>111</ele>
        <time>2024-09-22T07:49:39Z</time>
      </trkpt>
      <trkpt lat="46.54553" lon="0.35379">
        <ele>111.2</ele>
        <time>2024-09-22T07:49:45Z</time>
      </trkpt>
      <trkpt lat="46.54549" lon="0.3538">
        <ele>112</ele>
        <time>2024-09-22T07:49:47Z</time>
      </trkpt>
      <trkpt lat="46.54542" lon="0.35383">
        <ele>112.6</ele>
        <time>2024-09-22T07:49:51Z</time>
      </trkpt>
      <trkpt lat="46.54535" lon="0.35387">
        <ele>113</ele>
        <time>2024-09-22T07:49:55Z</time>
      </trkpt>
      <trkpt lat="46.54532" lon="0.35391">
        <ele>113</ele>
        <time>2024-09-22T07:49:57Z</time>
      </trkpt>
      <trkpt lat="46.5453" lon="0.35398">
        <ele>113</ele>
        <time>2024-09-22T07:50:00Z</time>
      </trkpt>
      <trkpt lat="46.54528" lon="0.35403">
        <ele>112.6</ele>
        <time>2024-09-22T07:50:02Z</time>
      </trkpt>
      <trkpt lat="46.54521" lon="0.35413">
        <ele>113</ele>
        <time>2024-09-22T07:50:07Z</time>
      </trkpt>
      <trkpt lat="46.54517" lon="0.35422">
        <ele>113.4</ele>
        <time>2024-09-22T07:50:12Z</time>
      </trkpt>
      <trkpt lat="46.54517" lon="0.35423">
        <ele>113.4</ele>
        <time>2024-09-22T07:50:13Z</time>
      </trkpt>
      <trkpt lat="46.54517" lon="0.35432">
        <ele>113.4</ele>
        <time>2024-09-22T07:50:17Z</time>
      </trkpt>
      <trkpt lat="46.54517" lon="0.35438">
        <ele>113.4</ele>
        <time>2024-09-22T07:50:19Z</time>
      </trkpt>
      <trkpt lat="46.54516" lon="0.3544">
        <ele>113.4</ele>
        <time>2024-09-22T07:50:23Z</time>
      </trkpt>
      <trkpt lat="46.54515" lon="0.35441">
        <ele>113.2</ele>
        <time>2024-09-22T07:50:25Z</time>
      </trkpt>
      <trkpt lat="46.54518" lon="0.35441">
        <ele>111.6</ele>
        <time>2024-09-22T07:50:30Z</time>
      </trkpt>
      <trkpt lat="46.54519" lon="0.35439">
        <ele>111.2</ele>
        <time>2024-09-22T07:50:31Z</time>
      </trkpt>
      <trkpt lat="46.5452" lon="0.35437">
        <ele>111</ele>
        <time>2024-09-22T07:50:32Z</time>
      </trkpt>
      <trkpt lat="46.54523" lon="0.35434">
        <ele>110.4</ele>
        <time>2024-09-22T07:50:34Z</time>
      </trkpt>
      <trkpt lat="46.54526" lon="0.35432">
        <ele>109.8</ele>
        <time>2024-09-22T07:50:37Z</time>
      </trkpt>
      <trkpt lat="46.54527" lon="0.35432">
        <ele>109.8</ele>
        <time>2024-09-22T07:50:38Z</time>
      </trkpt>
      <trkpt lat="46.54529" lon="0.35433">
        <ele>109.2</ele>
        <time>2024-09-22T07:50:40Z</time>
      </trkpt>
      <trkpt lat="46.54532" lon="0.35433">
        <ele>108</ele>
        <time>2024-09-22T07:50:43Z</time>
      </trkpt>
      <trkpt lat="46.54533" lon="0.35432">
        <ele>107.8</ele>
        <time>2024-09-22T07:50:44Z</time>
      </trkpt>
      <trkpt lat="46.54536" lon="0.35432">
        <ele>107.4</ele>
        <time>2024-09-22T07:50:46Z</time>
      </trkpt>
      <trkpt lat="46.54539" lon="0.35432">
        <ele>106.8</ele>
        <time>2024-09-22T07:50:48Z</time>
      </trkpt>
      <trkpt lat="46.54542" lon="0.35434">
        <ele>106.2</ele>
        <time>2024-09-22T07:50:49Z</time>
      </trkpt>
      <trkpt lat="46.54546" lon="0.35437">
        <ele>105.8</ele>
        <time>2024-09-22T07:50:51Z</time>
      </trkpt>
      <trkpt lat="46.54549" lon="0.35437">
        <ele>105.4</ele>
        <time>2024-09-22T07:50:52Z</time>
      </trkpt>
      <trkpt lat="46.54556" lon="0.35437">
        <ele>104.8</ele>
        <time>2024-09-22T07:50:55Z</time>
      </trkpt>
      <trkpt lat="46.54559" lon="0.35436">
        <ele>102.8</ele>
        <time>2024-09-22T07:50:56Z</time>
      </trkpt>
      <trkpt lat="46.54561" lon="0.35435">
        <ele>100.8</ele>
        <time>2024-09-22T07:50:57Z</time>
      </trkpt>
      <trkpt lat="46.54563" lon="0.35435">
        <ele>99.6</ele>
        <time>2024-09-22T07:50:58Z</time>
      </trkpt>
      <trkpt lat="46.5457" lon="0.3544">
        <ele>98</ele>
        <time>2024-09-22T07:51:00Z</time>
      </trkpt>
      <trkpt lat="46.54571" lon="0.35443">
        <ele>97.2</ele>
        <time>2024-09-22T07:51:01Z</time>
      </trkpt>
      <trkpt lat="46.54573" lon="0.35446">
        <ele>96.6</ele>
        <time>2024-09-22T07:51:02Z</time>
      </trkpt>
      <trkpt lat="46.54579" lon="0.35457">
        <ele>95.6</ele>
        <time>2024-09-22T07:51:05Z</time>
      </trkpt>
      <trkpt lat="46.54582" lon="0.35459">
        <ele>95.2</ele>
        <time>2024-09-22T07:51:06Z</time>
      </trkpt>
      <trkpt lat="46.54585" lon="0.35461">
        <ele>94.6</ele>
        <time>2024-09-22T07:51:07Z</time>
      </trkpt>
      <trkpt lat="46.54599" lon="0.35464">
        <ele>93.8</ele>
        <time>2024-09-22T07:51:13Z</time>
      </trkpt>
      <trkpt lat="46.54605" lon="0.35465">
        <ele>93.8</ele>
        <time>2024-09-22T07:51:15Z</time>
      </trkpt>
      <trkpt lat="46.5461" lon="0.35465">
        <ele>93.6</ele>
        <time>2024-09-22T07:51:17Z</time>
      </trkpt>
      <trkpt lat="46.54613" lon="0.35467">
        <ele>93.4</ele>
        <time>2024-09-22T07:51:18Z</time>
      </trkpt>
      <trkpt lat="46.54617" lon="0.35472">
        <ele>93</ele>
        <time>2024-09-22T07:51:19Z</time>
      </trkpt>
      <trkpt lat="46.54624" lon="0.3548">
        <ele>92.4</ele>
        <time>2024-09-22T07:51:21Z</time>
      </trkpt>
      <trkpt lat="46.54627" lon="0.35481">
        <ele>92.2</ele>
        <time>2024-09-22T07:51:22Z</time>
      </trkpt>
      <trkpt lat="46.54642" lon="0.35483">
        <ele>91.6</ele>
        <time>2024-09-22T07:51:27Z</time>
      </trkpt>
      <trkpt lat="46.54648" lon="0.35484">
        <ele>91</ele>
        <time>2024-09-22T07:51:29Z</time>
      </trkpt>
      <trkpt lat="46.54653" lon="0.35488">
        <ele>90.6</ele>
        <time>2024-09-22T07:51:30Z</time>
      </trkpt>
      <trkpt lat="46.54655" lon="0.35491">
        <ele>90.2</ele>
        <time>2024-09-22T07:51:31Z</time>
      </trkpt>
      <trkpt lat="46.54657" lon="0.35494">
        <ele>89.8</ele>
        <time>2024-09-22T07:51:32Z</time>
      </trkpt>
      <trkpt lat="46.54661" lon="0.35498">
        <ele>89.6</ele>
        <time>2024-09-22T07:51:34Z</time>
      </trkpt>
      <trkpt lat="46.54669" lon="0.355">
        <ele>88.4</ele>
        <time>2024-09-22T07:51:37Z</time>
      </trkpt>
      <trkpt lat="46.54676" lon="0.35505">
        <ele>87.4</ele>
        <time>2024-09-22T07:51:39Z</time>
      </trkpt>
      <trkpt lat="46.54683" lon="0.35512">
        <ele>86.2</ele>
        <time>2024-09-22T07:51:42Z</time>
      </trkpt>
      <trkpt lat="46.54685" lon="0.35514">
        <ele>86</ele>
        <time>2024-09-22T07:51:43Z</time>
      </trkpt>
      <trkpt lat="46.54693" lon="0.35521">
        <ele>84.6</ele>
        <time>2024-09-22T07:51:45Z</time>
      </trkpt>
      <trkpt lat="46.54696" lon="0.35523">
        <ele>83.6</ele>
        <time>2024-09-22T07:51:46Z</time>
      </trkpt>
      <trkpt lat="46.547" lon="0.35525">
        <ele>82.4</ele>
        <time>2024-09-22T07:51:47Z</time>
      </trkpt>
      <trkpt lat="46.54704" lon="0.35528">
        <ele>81.4</ele>
        <time>2024-09-22T07:51:49Z</time>
      </trkpt>
      <trkpt lat="46.54707" lon="0.35532">
        <ele>81</ele>
        <time>2024-09-22T07:51:51Z</time>
      </trkpt>
      <trkpt lat="46.5471" lon="0.35535">
        <ele>81.2</ele>
        <time>2024-09-22T07:51:52Z</time>
      </trkpt>
      <trkpt lat="46.54714" lon="0.35546">
        <ele>81.6</ele>
        <time>2024-09-22T07:51:56Z</time>
      </trkpt>
      <trkpt lat="46.54719" lon="0.35559">
        <ele>82.4</ele>
        <time>2024-09-22T07:52:01Z</time>
      </trkpt>
      <trkpt lat="46.5472" lon="0.35567">
        <ele>83.6</ele>
        <time>2024-09-22T07:52:04Z</time>
      </trkpt>
      <trkpt lat="46.54721" lon="0.35569">
        <ele>84</ele>
        <time>2024-09-22T07:52:05Z</time>
      </trkpt>
      <trkpt lat="46.54722" lon="0.35573">
        <ele>84.6</ele>
        <time>2024-09-22T07:52:07Z</time>
      </trkpt>
      <trkpt lat="46.54722" lon="0.35582">
        <ele>85.8</ele>
        <time>2024-09-22T07:52:11Z</time>
      </trkpt>
      <trkpt lat="46.54724" lon="0.35586">
        <ele>86.8</ele>
        <time>2024-09-22T07:52:13Z</time>
      </trkpt>
      <trkpt lat="46.54723" lon="0.35588">
        <ele>87</ele>
        <time>2024-09-22T07:52:14Z</time>
      </trkpt>
      <trkpt lat="46.54724" lon="0.3559">
        <ele>87.2</ele>
        <time>2024-09-22T07:52:15Z</time>
      </trkpt>
      <trkpt lat="46.54724" lon="0.35592">
        <ele>87.6</ele>
        <time>2024-09-22T07:52:16Z</time>
      </trkpt>
      <trkpt lat="46.54723" lon="0.35593">
        <ele>87.8</ele>
        <time>2024-09-22T07:52:17Z</time>
      </trkpt>
      <trkpt lat="46.54723" lon="0.35595">
        <ele>88</ele>
        <time>2024-09-22T07:52:18Z</time>
      </trkpt>
      <trkpt lat="46.54723" lon="0.35599">
        <ele>88.8</ele>
        <time>2024-09-22T07:52:21Z</time>
      </trkpt>
      <trkpt lat="46.54722" lon="0.35602">
        <ele>89</ele>
        <time>2024-09-22T07:52:22Z</time>
      </trkpt>
      <trkpt lat="46.54722" lon="0.35606">
        <ele>89.6</ele>
        <time>2024-09-22T07:52:24Z</time>
      </trkpt>
      <trkpt lat="46.54722" lon="0.35607">
        <ele>89.8</ele>
        <time>2024-09-22T07:52:25Z</time>
      </trkpt>
      <trkpt lat="46.5472" lon="0.35611">
        <ele>90.4</ele>
        <time>2024-09-22T07:52:27Z</time>
      </trkpt>
      <trkpt lat="46.5472" lon="0.35613">
        <ele>90.6</ele>
        <time>2024-09-22T07:52:28Z</time>
      </trkpt>
      <trkpt lat="46.54717" lon="0.35618">
        <ele>91.6</ele>
        <time>2024-09-22T07:52:32Z</time>
      </trkpt>
      <trkpt lat="46.54716" lon="0.35622">
        <ele>92</ele>
        <time>2024-09-22T07:52:34Z</time>
      </trkpt>
      <trkpt lat="46.54714" lon="0.35625">
        <ele>92.6</ele>
        <time>2024-09-22T07:52:36Z</time>
      </trkpt>
      <trkpt lat="46.54712" lon="0.35626">
        <ele>93</ele>
        <time>2024-09-22T07:52:38Z</time>
      </trkpt>
      <trkpt lat="46.5471" lon="0.35627">
        <ele>93.6</ele>
        <time>2024-09-22T07:52:40Z</time>
      </trkpt>
      <trkpt lat="46.54708" lon="0.35628">
        <ele>93.8</ele>
        <time>2024-09-22T07:52:41Z</time>
      </trkpt>
      <trkpt lat="46.54703" lon="0.35631">
        <ele>94.8</ele>
        <time>2024-09-22T07:52:46Z</time>
      </trkpt>
      <trkpt lat="46.54701" lon="0.35632">
        <ele>95.2</ele>
        <time>2024-09-22T07:52:48Z</time>
      </trkpt>
      <trkpt lat="46.54701" lon="0.35633">
        <ele>95.6</ele>
        <time>2024-09-22T07:52:50Z</time>
      </trkpt>
      <trkpt lat="46.547" lon="0.35634">
        <ele>96</ele>
        <time>2024-09-22T07:52:51Z</time>
      </trkpt>
      <trkpt lat="46.54696" lon="0.35637">
        <ele>96.6</ele>
        <time>2024-09-22T07:52:54Z</time>
      </trkpt>
      <trkpt lat="46.5469" lon="0.35639">
        <ele>97.2</ele>
        <time>2024-09-22T07:52:58Z</time>
      </trkpt>
      <trkpt lat="46.54688" lon="0.35642">
        <ele>98</ele>
        <time>2024-09-22T07:53:02Z</time>
      </trkpt>
      <trkpt lat="46.54687" lon="0.35643">
        <ele>98</ele>
        <time>2024-09-22T07:53:03Z</time>
      </trkpt>
      <trkpt lat="46.54687" lon="0.35644">
        <ele>98.2</ele>
        <time>2024-09-22T07:53:04Z</time>
      </trkpt>
      <trkpt lat="46.54682" lon="0.35651">
        <ele>99.2</ele>
        <time>2024-09-22T07:53:09Z</time>
      </trkpt>
      <trkpt lat="46.54681" lon="0.35653">
        <ele>99.2</ele>
        <time>2024-09-22T07:53:10Z</time>
      </trkpt>
      <trkpt lat="46.54679" lon="0.35655">
        <ele>100</ele>
        <time>2024-09-22T07:53:12Z</time>
      </trkpt>
      <trkpt lat="46.54676" lon="0.35656">
        <ele>100.4</ele>
        <time>2024-09-22T07:53:14Z</time>
      </trkpt>
      <trkpt lat="46.54672" lon="0.35659">
        <ele>101.8</ele>
        <time>2024-09-22T07:53:17Z</time>
      </trkpt>
      <trkpt lat="46.54669" lon="0.35662">
        <ele>102.2</ele>
        <time>2024-09-22T07:53:20Z</time>
      </trkpt>
      <trkpt lat="46.54668" lon="0.35662">
        <ele>102.4</ele>
        <time>2024-09-22T07:53:21Z</time>
      </trkpt>
      <trkpt lat="46.54664" lon="0.35664">
        <ele>102.8</ele>
        <time>2024-09-22T07:53:24Z</time>
      </trkpt>
      <trkpt lat="46.54663" lon="0.35665">
        <ele>103.2</ele>
        <time>2024-09-22T07:53:25Z</time>
      </trkpt>
      <trkpt lat="46.5466" lon="0.35669">
        <ele>104.2</ele>
        <time>2024-09-22T07:53:28Z</time>
      </trkpt>
      <trkpt lat="46.54659" lon="0.35669">
        <ele>104.4</ele>
        <time>2024-09-22T07:53:29Z</time>
      </trkpt>
      <trkpt lat="46.54655" lon="0.35675">
        <ele>105.2</ele>
        <time>2024-09-22T07:53:33Z</time>
      </trkpt>
      <trkpt lat="46.54653" lon="0.35678">
        <ele>105.6</ele>
        <time>2024-09-22T07:53:35Z</time>
      </trkpt>
      <trkpt lat="46.5465" lon="0.35686">
        <ele>106.2</ele>
        <time>2024-09-22T07:53:40Z</time>
      </trkpt>
      <trkpt lat="46.5465" lon="0.35691">
        <ele>106.6</ele>
        <time>2024-09-22T07:53:43Z</time>
      </trkpt>
      <trkpt lat="46.5465" lon="0.35694">
        <ele>106.8</ele>
        <time>2024-09-22T07:53:45Z</time>
      </trkpt>
      <trkpt lat="46.54651" lon="0.35698">
        <ele>106.6</ele>
        <time>2024-09-22T07:53:48Z</time>
      </trkpt>
      <trkpt lat="46.54654" lon="0.35704">
        <ele>106.6</ele>
        <time>2024-09-22T07:53:51Z</time>
      </trkpt>
      <trkpt lat="46.54659" lon="0.35712">
        <ele>106</ele>
        <time>2024-09-22T07:53:55Z</time>
      </trkpt>
      <trkpt lat="46.54666" lon="0.35728">
        <ele>105.2</ele>
        <time>2024-09-22T07:54:00Z</time>
      </trkpt>
      <trkpt lat="46.54668" lon="0.35732">
        <ele>105</ele>
        <time>2024-09-22T07:54:01Z</time>
      </trkpt>
      <trkpt lat="46.54674" lon="0.35744">
        <ele>104.6</ele>
        <time>2024-09-22T07:54:04Z</time>
      </trkpt>
      <trkpt lat="46.54683" lon="0.35758">
        <ele>104.8</ele>
        <time>2024-09-22T07:54:08Z</time>
      </trkpt>
      <trkpt lat="46.54689" lon="0.35773">
        <ele>106</ele>
        <time>2024-09-22T07:54:14Z</time>
      </trkpt>
      <trkpt lat="46.54691" lon="0.35776">
        <ele>106.2</ele>
        <time>2024-09-22T07:54:15Z</time>
      </trkpt>
      <trkpt lat="46.54698" lon="0.35793">
        <ele>106.4</ele>
        <time>2024-09-22T07:54:20Z</time>
      </trkpt>
      <trkpt lat="46.54705" lon="0.35817">
        <ele>105.6</ele>
        <time>2024-09-22T07:54:25Z</time>
      </trkpt>
      <trkpt lat="46.54705" lon="0.35822">
        <ele>105</ele>
        <time>2024-09-22T07:54:26Z</time>
      </trkpt>
      <trkpt lat="46.54707" lon="0.35828">
        <ele>104.6</ele>
        <time>2024-09-22T07:54:27Z</time>
      </trkpt>
      <trkpt lat="46.54711" lon="0.35842">
        <ele>103.6</ele>
        <time>2024-09-22T07:54:30Z</time>
      </trkpt>
      <trkpt lat="46.54713" lon="0.35847">
        <ele>103</ele>
        <time>2024-09-22T07:54:31Z</time>
      </trkpt>
      <trkpt lat="46.54717" lon="0.35856">
        <ele>102.2</ele>
        <time>2024-09-22T07:54:33Z</time>
      </trkpt>
      <trkpt lat="46.5472" lon="0.35866">
        <ele>100.8</ele>
        <time>2024-09-22T07:54:35Z</time>
      </trkpt>
      <trkpt lat="46.54727" lon="0.35887">
        <ele>100</ele>
        <time>2024-09-22T07:54:38Z</time>
      </trkpt>
      <trkpt lat="46.54731" lon="0.35898">
        <ele>99.6</ele>
        <time>2024-09-22T07:54:40Z</time>
      </trkpt>
      <trkpt lat="46.54735" lon="0.35907">
        <ele>99.4</ele>
        <time>2024-09-22T07:54:42Z</time>
      </trkpt>
      <trkpt lat="46.54737" lon="0.35911">
        <ele>99</ele>
        <time>2024-09-22T07:54:43Z</time>
      </trkpt>
      <trkpt lat="46.54743" lon="0.35929">
        <ele>98.6</ele>
        <time>2024-09-22T07:54:47Z</time>
      </trkpt>
      <trkpt lat="46.54748" lon="0.35945">
        <ele>98.4</ele>
        <time>2024-09-22T07:54:51Z</time>
      </trkpt>
      <trkpt lat="46.54764" lon="0.35976">
        <ele>98.8</ele>
        <time>2024-09-22T07:54:59Z</time>
      </trkpt>
      <trkpt lat="46.54769" lon="0.35988">
        <ele>99.6</ele>
        <time>2024-09-22T07:55:02Z</time>
      </trkpt>
      <trkpt lat="46.54775" lon="0.36">
        <ele>99.8</ele>
        <time>2024-09-22T07:55:05Z</time>
      </trkpt>
      <trkpt lat="46.54789" lon="0.36031">
        <ele>100.4</ele>
        <time>2024-09-22T07:55:12Z</time>
      </trkpt>
      <trkpt lat="46.54792" lon="0.36037">
        <ele>100.2</ele>
        <time>2024-09-22T07:55:14Z</time>
      </trkpt>
      <trkpt lat="46.54796" lon="0.36042">
        <ele>100</ele>
        <time>2024-09-22T07:55:16Z</time>
      </trkpt>
      <trkpt lat="46.54798" lon="0.36046">
        <ele>99.8</ele>
        <time>2024-09-22T07:55:18Z</time>
      </trkpt>
      <trkpt lat="46.54801" lon="0.36051">
        <ele>99.8</ele>
        <time>2024-09-22T07:55:20Z</time>
      </trkpt>
      <trkpt lat="46.54804" lon="0.36058">
        <ele>99.4</ele>
        <time>2024-09-22T07:55:22Z</time>
      </trkpt>
      <trkpt lat="46.54806" lon="0.36062">
        <ele>99.2</ele>
        <time>2024-09-22T07:55:23Z</time>
      </trkpt>
      <trkpt lat="46.5481" lon="0.36066">
        <ele>98.8</ele>
        <time>2024-09-22T07:55:24Z</time>
      </trkpt>
      <trkpt lat="46.54813" lon="0.36071">
        <ele>98.6</ele>
        <time>2024-09-22T07:55:25Z</time>
      </trkpt>
      <trkpt lat="46.54824" lon="0.36084">
        <ele>98</ele>
        <time>2024-09-22T07:55:28Z</time>
      </trkpt>
      <trkpt lat="46.54847" lon="0.36103">
        <ele>97</ele>
        <time>2024-09-22T07:55:31Z</time>
      </trkpt>
      <trkpt lat="46.54862" lon="0.3612">
        <ele>95.8</ele>
        <time>2024-09-22T07:55:34Z</time>
      </trkpt>
      <trkpt lat="46.54874" lon="0.36133">
        <ele>95.4</ele>
        <time>2024-09-22T07:55:37Z</time>
      </trkpt>
      <trkpt lat="46.5488" lon="0.3614">
        <ele>94</ele>
        <time>2024-09-22T07:55:39Z</time>
      </trkpt>
      <trkpt lat="46.54883" lon="0.36143">
        <ele>93.4</ele>
        <time>2024-09-22T07:55:40Z</time>
      </trkpt>
      <trkpt lat="46.54886" lon="0.36149">
        <ele>93.2</ele>
        <time>2024-09-22T07:55:41Z</time>
      </trkpt>
      <trkpt lat="46.54888" lon="0.36153">
        <ele>92.6</ele>
        <time>2024-09-22T07:55:42Z</time>
      </trkpt>
      <trkpt lat="46.5489" lon="0.36156">
        <ele>92.2</ele>
        <time>2024-09-22T07:55:43Z</time>
      </trkpt>
      <trkpt lat="46.54896" lon="0.36161">
        <ele>91.4</ele>
        <time>2024-09-22T07:55:45Z</time>
      </trkpt>
      <trkpt lat="46.54904" lon="0.36168">
        <ele>91</ele>
        <time>2024-09-22T07:55:48Z</time>
      </trkpt>
      <trkpt lat="46.5491" lon="0.36173">
        <ele>90.8</ele>
        <time>2024-09-22T07:55:50Z</time>
      </trkpt>
      <trkpt lat="46.54922" lon="0.36183">
        <ele>90.6</ele>
        <time>2024-09-22T07:55:53Z</time>
      </trkpt>
      <trkpt lat="46.54931" lon="0.36193">
        <ele>90.2</ele>
        <time>2024-09-22T07:55:55Z</time>
      </trkpt>
      <trkpt lat="46.54935" lon="0.36199">
        <ele>90</ele>
        <time>2024-09-22T07:55:56Z</time>
      </trkpt>
      <trkpt lat="46.54952" lon="0.36217">
        <ele>89.2</ele>
        <time>2024-09-22T07:55:59Z</time>
      </trkpt>
      <trkpt lat="46.54957" lon="0.36221">
        <ele>88.8</ele>
        <time>2024-09-22T07:56:00Z</time>
      </trkpt>
      <trkpt lat="46.54968" lon="0.36232">
        <ele>88</ele>
        <time>2024-09-22T07:56:02Z</time>
      </trkpt>
      <trkpt lat="46.54977" lon="0.3624">
        <ele>86.8</ele>
        <time>2024-09-22T07:56:04Z</time>
      </trkpt>
      <trkpt lat="46.54986" lon="0.36249">
        <ele>85</ele>
        <time>2024-09-22T07:56:06Z</time>
      </trkpt>
      <trkpt lat="46.5499" lon="0.36252">
        <ele>84</ele>
        <time>2024-09-22T07:56:07Z</time>
      </trkpt>
      <trkpt lat="46.54993" lon="0.36254">
        <ele>83.6</ele>
        <time>2024-09-22T07:56:08Z</time>
      </trkpt>
      <trkpt lat="46.54997" lon="0.36256">
        <ele>83</ele>
        <time>2024-09-22T07:56:09Z</time>
      </trkpt>
      <trkpt lat="46.55004" lon="0.36261">
        <ele>82.6</ele>
        <time>2024-09-22T07:56:11Z</time>
      </trkpt>
      <trkpt lat="46.55014" lon="0.36269">
        <ele>82.4</ele>
        <time>2024-09-22T07:56:14Z</time>
      </trkpt>
      <trkpt lat="46.55024" lon="0.36282">
        <ele>82.6</ele>
        <time>2024-09-22T07:56:16Z</time>
      </trkpt>
      <trkpt lat="46.55029" lon="0.36303">
        <ele>82.8</ele>
        <time>2024-09-22T07:56:21Z</time>
      </trkpt>
      <trkpt lat="46.55029" lon="0.36326">
        <ele>83.8</ele>
        <time>2024-09-22T07:56:27Z</time>
      </trkpt>
      <trkpt lat="46.5503" lon="0.36331">
        <ele>84</ele>
        <time>2024-09-22T07:56:28Z</time>
      </trkpt>
      <trkpt lat="46.5503" lon="0.36347">
        <ele>84</ele>
        <time>2024-09-22T07:56:32Z</time>
      </trkpt>
      <trkpt lat="46.5503" lon="0.36355">
        <ele>84.4</ele>
        <time>2024-09-22T07:56:34Z</time>
      </trkpt>
      <trkpt lat="46.5503" lon="0.36367">
        <ele>84.8</ele>
        <time>2024-09-22T07:56:37Z</time>
      </trkpt>
      <trkpt lat="46.55032" lon="0.36387">
        <ele>85.6</ele>
        <time>2024-09-22T07:56:42Z</time>
      </trkpt>
      <trkpt lat="46.55033" lon="0.36394">
        <ele>86</ele>
        <time>2024-09-22T07:56:44Z</time>
      </trkpt>
      <trkpt lat="46.55033" lon="0.36417">
        <ele>87</ele>
        <time>2024-09-22T07:56:50Z</time>
      </trkpt>
      <trkpt lat="46.55032" lon="0.3642">
        <ele>87</ele>
        <time>2024-09-22T07:56:51Z</time>
      </trkpt>
      <trkpt lat="46.55031" lon="0.36442">
        <ele>88.2</ele>
        <time>2024-09-22T07:56:57Z</time>
      </trkpt>
      <trkpt lat="46.55035" lon="0.36457">
        <ele>89.2</ele>
        <time>2024-09-22T07:57:01Z</time>
      </trkpt>
      <trkpt lat="46.55038" lon="0.3647">
        <ele>89.8</ele>
        <time>2024-09-22T07:57:04Z</time>
      </trkpt>
      <trkpt lat="46.55046" lon="0.36486">
        <ele>90.4</ele>
        <time>2024-09-22T07:57:09Z</time>
      </trkpt>
      <trkpt lat="46.5505" lon="0.36495">
        <ele>91.2</ele>
        <time>2024-09-22T07:57:12Z</time>
      </trkpt>
      <trkpt lat="46.55053" lon="0.36501">
        <ele>91.8</ele>
        <time>2024-09-22T07:57:15Z</time>
      </trkpt>
      <trkpt lat="46.55058" lon="0.36509">
        <ele>92.8</ele>
        <time>2024-09-22T07:57:19Z</time>
      </trkpt>
      <trkpt lat="46.5506" lon="0.36511">
        <ele>92.8</ele>
        <time>2024-09-22T07:57:20Z</time>
      </trkpt>
      <trkpt lat="46.55069" lon="0.36519">
        <ele>93.6</ele>
        <time>2024-09-22T07:57:25Z</time>
      </trkpt>
      <trkpt lat="46.55073" lon="0.36524">
        <ele>94</ele>
        <time>2024-09-22T07:57:27Z</time>
      </trkpt>
      <trkpt lat="46.55074" lon="0.36526">
        <ele>94.2</ele>
        <time>2024-09-22T07:57:28Z</time>
      </trkpt>
      <trkpt lat="46.5508" lon="0.36537">
        <ele>94.4</ele>
        <time>2024-09-22T07:57:31Z</time>
      </trkpt>
      <trkpt lat="46.55092" lon="0.36557">
        <ele>95.2</ele>
        <time>2024-09-22T07:57:36Z</time>
      </trkpt>
      <trkpt lat="46.55095" lon="0.36563">
        <ele>95.8</ele>
        <time>2024-09-22T07:57:38Z</time>
      </trkpt>
      <trkpt lat="46.55104" lon="0.36581">
        <ele>96.4</ele>
        <time>2024-09-22T07:57:42Z</time>
      </trkpt>
      <trkpt lat="46.5511" lon="0.36593">
        <ele>97</ele>
        <time>2024-09-22T07:57:45Z</time>
      </trkpt>
      <trkpt lat="46.5511" lon="0.36598">
        <ele>97.4</ele>
        <time>2024-09-22T07:57:47Z</time>
      </trkpt>
      <trkpt lat="46.55109" lon="0.36603">
        <ele>97.6</ele>
        <time>2024-09-22T07:57:50Z</time>
      </trkpt>
      <trkpt lat="46.55108" lon="0.36605">
        <ele>97.6</ele>
        <time>2024-09-22T07:57:52Z</time>
      </trkpt>
      <trkpt lat="46.55107" lon="0.36611">
        <ele>97.6</ele>
        <time>2024-09-22T07:57:58Z</time>
      </trkpt>
      <trkpt lat="46.55105" lon="0.36612">
        <ele>97.6</ele>
        <time>2024-09-22T07:58:00Z</time>
      </trkpt>
      <trkpt lat="46.55093" lon="0.36612">
        <ele>98.4</ele>
        <time>2024-09-22T07:58:07Z</time>
      </trkpt>
      <trkpt lat="46.5509" lon="0.36614">
        <ele>98.8</ele>
        <time>2024-09-22T07:58:10Z</time>
      </trkpt>
      <trkpt lat="46.5509" lon="0.3662">
        <ele>99.2</ele>
        <time>2024-09-22T07:58:13Z</time>
      </trkpt>
      <trkpt lat="46.55089" lon="0.36622">
        <ele>99.4</ele>
        <time>2024-09-22T07:58:14Z</time>
      </trkpt>
      <trkpt lat="46.55087" lon="0.36629">
        <ele>100.8</ele>
        <time>2024-09-22T07:58:18Z</time>
      </trkpt>
      <trkpt lat="46.55084" lon="0.36634">
        <ele>101.8</ele>
        <time>2024-09-22T07:58:21Z</time>
      </trkpt>
      <trkpt lat="46.55082" lon="0.36639">
        <ele>103.2</ele>
        <time>2024-09-22T07:58:24Z</time>
      </trkpt>
      <trkpt lat="46.55079" lon="0.36644">
        <ele>104.4</ele>
        <time>2024-09-22T07:58:28Z</time>
      </trkpt>
      <trkpt lat="46.55077" lon="0.36649">
        <ele>105.6</ele>
        <time>2024-09-22T07:58:31Z</time>
      </trkpt>
      <trkpt lat="46.55074" lon="0.36658">
        <ele>107</ele>
        <time>2024-09-22T07:58:37Z</time>
      </trkpt>
      <trkpt lat="46.55071" lon="0.36666">
        <ele>108.2</ele>
        <time>2024-09-22T07:58:41Z</time>
      </trkpt>
      <trkpt lat="46.55066" lon="0.36675">
        <ele>109.2</ele>
        <time>2024-09-22T07:58:46Z</time>
      </trkpt>
      <trkpt lat="46.55063" lon="0.36679">
        <ele>109.6</ele>
        <time>2024-09-22T07:58:48Z</time>
      </trkpt>
      <trkpt lat="46.55057" lon="0.36687">
        <ele>110.4</ele>
        <time>2024-09-22T07:58:52Z</time>
      </trkpt>
      <trkpt lat="46.55048" lon="0.36695">
        <ele>111.2</ele>
        <time>2024-09-22T07:58:57Z</time>
      </trkpt>
      <trkpt lat="46.55047" lon="0.36697">
        <ele>111.6</ele>
        <time>2024-09-22T07:58:58Z</time>
      </trkpt>
      <trkpt lat="46.55036" lon="0.36699">
        <ele>112.4</ele>
        <time>2024-09-22T07:59:03Z</time>
      </trkpt>
      <trkpt lat="46.55034" lon="0.36699">
        <ele>112.6</ele>
        <time>2024-09-22T07:59:04Z</time>
      </trkpt>
      <trkpt lat="46.55026" lon="0.367">
        <ele>113.2</ele>
        <time>2024-09-22T07:59:08Z</time>
      </trkpt>
      <trkpt lat="46.55023" lon="0.36706">
        <ele>113.2</ele>
        <time>2024-09-22T07:59:09Z</time>
      </trkpt>
      <trkpt lat="46.55019" lon="0.36721">
        <ele>113.6</ele>
        <time>2024-09-22T07:59:12Z</time>
      </trkpt>
      <trkpt lat="46.55015" lon="0.36734">
        <ele>114</ele>
        <time>2024-09-22T07:59:15Z</time>
      </trkpt>
      <trkpt lat="46.55007" lon="0.36769">
        <ele>114.6</ele>
        <time>2024-09-22T07:59:22Z</time>
      </trkpt>
      <trkpt lat="46.55006" lon="0.36774">
        <ele>114.8</ele>
        <time>2024-09-22T07:59:23Z</time>
      </trkpt>
      <trkpt lat="46.54999" lon="0.36798">
        <ele>115</ele>
        <time>2024-09-22T07:59:29Z</time>
      </trkpt>
      <trkpt lat="46.54989" lon="0.36796">
        <ele>115.6</ele>
        <time>2024-09-22T07:59:33Z</time>
      </trkpt>
      <trkpt lat="46.54989" lon="0.36796">
        <ele>115.8</ele>
        <time>2024-09-22T07:59:34Z</time>
      </trkpt>
      <trkpt lat="46.5497" lon="0.3678">
        <ele>116.8</ele>
        <time>2024-09-22T07:59:40Z</time>
      </trkpt>
      <trkpt lat="46.54967" lon="0.36778">
        <ele>117.2</ele>
        <time>2024-09-22T07:59:41Z</time>
      </trkpt>
      <trkpt lat="46.54953" lon="0.36765">
        <ele>118</ele>
        <time>2024-09-22T07:59:46Z</time>
      </trkpt>
      <trkpt lat="46.54949" lon="0.36762">
        <ele>118</ele>
        <time>2024-09-22T07:59:47Z</time>
      </trkpt>
      <trkpt lat="46.54943" lon="0.36757">
        <ele>118</ele>
        <time>2024-09-22T07:59:49Z</time>
      </trkpt>
      <trkpt lat="46.54933" lon="0.36749">
        <ele>119</ele>
        <time>2024-09-22T07:59:52Z</time>
      </trkpt>
      <trkpt lat="46.54924" lon="0.3674">
        <ele>119.4</ele>
        <time>2024-09-22T07:59:55Z</time>
      </trkpt>
      <trkpt lat="46.54913" lon="0.36728">
        <ele>120</ele>
        <time>2024-09-22T07:59:59Z</time>
      </trkpt>
      <trkpt lat="46.54904" lon="0.36717">
        <ele>120.6</ele>
        <time>2024-09-22T08:00:02Z</time>
      </trkpt>
      <trkpt lat="46.54896" lon="0.36709">
        <ele>121.2</ele>
        <time>2024-09-22T08:00:05Z</time>
      </trkpt>
      <trkpt lat="46.54886" lon="0.36697">
        <ele>121.4</ele>
        <time>2024-09-22T08:00:08Z</time>
      </trkpt>
      <trkpt lat="46.54883" lon="0.36694">
        <ele>121.6</ele>
        <time>2024-09-22T08:00:09Z</time>
      </trkpt>
      <trkpt lat="46.54878" lon="0.36687">
        <ele>122.2</ele>
        <time>2024-09-22T08:00:11Z</time>
      </trkpt>
      <trkpt lat="46.54872" lon="0.36681">
        <ele>122.6</ele>
        <time>2024-09-22T08:00:13Z</time>
      </trkpt>
      <trkpt lat="46.54869" lon="0.36678">
        <ele>122.6</ele>
        <time>2024-09-22T08:00:14Z</time>
      </trkpt>
      <trkpt lat="46.54863" lon="0.36672">
        <ele>122.8</ele>
        <time>2024-09-22T08:00:16Z</time>
      </trkpt>
      <trkpt lat="46.54844" lon="0.36656">
        <ele>123.2</ele>
        <time>2024-09-22T08:00:21Z</time>
      </trkpt>
      <trkpt lat="46.5484" lon="0.36653">
        <ele>123.4</ele>
        <time>2024-09-22T08:00:22Z</time>
      </trkpt>
      <trkpt lat="46.54814" lon="0.36628">
        <ele>123.8</ele>
        <time>2024-09-22T08:00:29Z</time>
      </trkpt>
      <trkpt lat="46.54811" lon="0.36623">
        <ele>123.8</ele>
        <time>2024-09-22T08:00:30Z</time>
      </trkpt>
      <trkpt lat="46.54804" lon="0.36611">
        <ele>123.8</ele>
        <time>2024-09-22T08:00:32Z</time>
      </trkpt>
      <trkpt lat="46.54798" lon="0.366">
        <ele>123.8</ele>
        <time>2024-09-22T08:00:34Z</time>
      </trkpt>
      <trkpt lat="46.5479" lon="0.36593">
        <ele>123.8</ele>
        <time>2024-09-22T08:00:36Z</time>
      </trkpt>
      <trkpt lat="46.54785" lon="0.3659">
        <ele>123.8</ele>
        <time>2024-09-22T08:00:37Z</time>
      </trkpt>
      <trkpt lat="46.54775" lon="0.36585">
        <ele>123.6</ele>
        <time>2024-09-22T08:00:38Z</time>
      </trkpt>
      <trkpt lat="46.54761" lon="0.36586">
        <ele>123.4</ele>
        <time>2024-09-22T08:00:40Z</time>
      </trkpt>
      <trkpt lat="46.54737" lon="0.36626">
        <ele>123.2</ele>
        <time>2024-09-22T08:00:47Z</time>
      </trkpt>
      <trkpt lat="46.54715" lon="0.36673">
        <ele>122.4</ele>
        <time>2024-09-22T08:00:54Z</time>
      </trkpt>
      <trkpt lat="46.54698" lon="0.36726">
        <ele>121.2</ele>
        <time>2024-09-22T08:01:01Z</time>
      </trkpt>
      <trkpt lat="46.54687" lon="0.36757">
        <ele>120</ele>
        <time>2024-09-22T08:01:05Z</time>
      </trkpt>
      <trkpt lat="46.54682" lon="0.36764">
        <ele>119.8</ele>
        <time>2024-09-22T08:01:06Z</time>
      </trkpt>
      <trkpt lat="46.54677" lon="0.36769">
        <ele>119.8</ele>
        <time>2024-09-22T08:01:07Z</time>
      </trkpt>
      <trkpt lat="46.54657" lon="0.36781">
        <ele>119</ele>
        <time>2024-09-22T08:01:10Z</time>
      </trkpt>
      <trkpt lat="46.54611" lon="0.36803">
        <ele>118.6</ele>
        <time>2024-09-22T08:01:17Z</time>
      </trkpt>
      <trkpt lat="46.54573" lon="0.36819">
        <ele>119.6</ele>
        <time>2024-09-22T08:01:24Z</time>
      </trkpt>
      <trkpt lat="46.54564" lon="0.36824">
        <ele>120</ele>
        <time>2024-09-22T08:01:26Z</time>
      </trkpt>
      <trkpt lat="46.54531" lon="0.36839">
        <ele>121.2</ele>
        <time>2024-09-22T08:01:33Z</time>
      </trkpt>
      <trkpt lat="46.54513" lon="0.36847">
        <ele>122.4</ele>
        <time>2024-09-22T08:01:37Z</time>
      </trkpt>
      <trkpt lat="46.54494" lon="0.36854">
        <ele>123</ele>
        <time>2024-09-22T08:01:41Z</time>
      </trkpt>
      <trkpt lat="46.54485" lon="0.36858">
        <ele>123.4</ele>
        <time>2024-09-22T08:01:43Z</time>
      </trkpt>
      <trkpt lat="46.54463" lon="0.36867">
        <ele>123.8</ele>
        <time>2024-09-22T08:01:48Z</time>
      </trkpt>
      <trkpt lat="46.54427" lon="0.36882">
        <ele>124</ele>
        <time>2024-09-22T08:01:56Z</time>
      </trkpt>
      <trkpt lat="46.54397" lon="0.36895">
        <ele>124</ele>
        <time>2024-09-22T08:02:03Z</time>
      </trkpt>
      <trkpt lat="46.54392" lon="0.36895">
        <ele>124</ele>
        <time>2024-09-22T08:02:04Z</time>
      </trkpt>
      <trkpt lat="46.54366" lon="0.36893">
        <ele>123.4</ele>
        <time>2024-09-22T08:02:10Z</time>
      </trkpt>
      <trkpt lat="46.54328" lon="0.36891">
        <ele>123.4</ele>
        <time>2024-09-22T08:02:17Z</time>
      </trkpt>
      <trkpt lat="46.54296" lon="0.3689">
        <ele>122.4</ele>
        <time>2024-09-22T08:02:22Z</time>
      </trkpt>
      <trkpt lat="46.5429" lon="0.3689">
        <ele>122</ele>
        <time>2024-09-22T08:02:23Z</time>
      </trkpt>
      <trkpt lat="46.5427" lon="0.36888">
        <ele>121.2</ele>
        <time>2024-09-22T08:02:26Z</time>
      </trkpt>
      <trkpt lat="46.54252" lon="0.36888">
        <ele>121</ele>
        <time>2024-09-22T08:02:29Z</time>
      </trkpt>
      <trkpt lat="46.54247" lon="0.3689">
        <ele>120.8</ele>
        <time>2024-09-22T08:02:30Z</time>
      </trkpt>
      <trkpt lat="46.54242" lon="0.36893">
        <ele>120.8</ele>
        <time>2024-09-22T08:02:31Z</time>
      </trkpt>
      <trkpt lat="46.5424" lon="0.36901">
        <ele>120.8</ele>
        <time>2024-09-22T08:02:33Z</time>
      </trkpt>
      <trkpt lat="46.54241" lon="0.36905">
        <ele>120.6</ele>
        <time>2024-09-22T08:02:34Z</time>
      </trkpt>
      <trkpt lat="46.5425" lon="0.36927">
        <ele>120.2</ele>
        <time>2024-09-22T08:02:38Z</time>
      </trkpt>
      <trkpt lat="46.54271" lon="0.36969">
        <ele>120.2</ele>
        <time>2024-09-22T08:02:45Z</time>
      </trkpt>
      <trkpt lat="46.54279" lon="0.36986">
        <ele>120.4</ele>
        <time>2024-09-22T08:02:48Z</time>
      </trkpt>
      <trkpt lat="46.54279" lon="0.36997">
        <ele>120.4</ele>
        <time>2024-09-22T08:02:50Z</time>
      </trkpt>
      <trkpt lat="46.54272" lon="0.37009">
        <ele>120</ele>
        <time>2024-09-22T08:02:53Z</time>
      </trkpt>
      <trkpt lat="46.54268" lon="0.37012">
        <ele>119.6</ele>
        <time>2024-09-22T08:02:54Z</time>
      </trkpt>
      <trkpt lat="46.54264" lon="0.37015">
        <ele>119.4</ele>
        <time>2024-09-22T08:02:55Z</time>
      </trkpt>
      <trkpt lat="46.5426" lon="0.37018">
        <ele>119.2</ele>
        <time>2024-09-22T08:02:56Z</time>
      </trkpt>
      <trkpt lat="46.54255" lon="0.37021">
        <ele>118.8</ele>
        <time>2024-09-22T08:02:57Z</time>
      </trkpt>
      <trkpt lat="46.5425" lon="0.37023">
        <ele>118</ele>
        <time>2024-09-22T08:02:58Z</time>
      </trkpt>
      <trkpt lat="46.54247" lon="0.37025">
        <ele>117.2</ele>
        <time>2024-09-22T08:02:59Z</time>
      </trkpt>
      <trkpt lat="46.54245" lon="0.37028">
        <ele>116.8</ele>
        <time>2024-09-22T08:03:00Z</time>
      </trkpt>
      <trkpt lat="46.54244" lon="0.37032">
        <ele>116.4</ele>
        <time>2024-09-22T08:03:01Z</time>
      </trkpt>
      <trkpt lat="46.54249" lon="0.37042">
        <ele>115</ele>
        <time>2024-09-22T08:03:04Z</time>
      </trkpt>
      <trkpt lat="46.5425" lon="0.37046">
        <ele>114.4</ele>
        <time>2024-09-22T08:03:05Z</time>
      </trkpt>
      <trkpt lat="46.54253" lon="0.37057">
        <ele>113.8</ele>
        <time>2024-09-22T08:03:07Z</time>
      </trkpt>
      <trkpt lat="46.54254" lon="0.37069">
        <ele>112.6</ele>
        <time>2024-09-22T08:03:09Z</time>
      </trkpt>
      <trkpt lat="46.54254" lon="0.37075">
        <ele>112.2</ele>
        <time>2024-09-22T08:03:10Z</time>
      </trkpt>
      <trkpt lat="46.54256" lon="0.37086">
        <ele>111.4</ele>
        <time>2024-09-22T08:03:12Z</time>
      </trkpt>
      <trkpt lat="46.54256" lon="0.37099">
        <ele>110.4</ele>
        <time>2024-09-22T08:03:15Z</time>
      </trkpt>
      <trkpt lat="46.54257" lon="0.37101">
        <ele>109.8</ele>
        <time>2024-09-22T08:03:16Z</time>
      </trkpt>
      <trkpt lat="46.54256" lon="0.37103">
        <ele>109.2</ele>
        <time>2024-09-22T08:03:18Z</time>
      </trkpt>
      <trkpt lat="46.54253" lon="0.37109">
        <ele>108.8</ele>
        <time>2024-09-22T08:03:21Z</time>
      </trkpt>
      <trkpt lat="46.54253" lon="0.3711">
        <ele>108.8</ele>
        <time>2024-09-22T08:03:22Z</time>
      </trkpt>
      <trkpt lat="46.54252" lon="0.37112">
        <ele>108.8</ele>
        <time>2024-09-22T08:03:23Z</time>
      </trkpt>
      <trkpt lat="46.54249" lon="0.37129">
        <ele>108.2</ele>
        <time>2024-09-22T08:03:30Z</time>
      </trkpt>
      <trkpt lat="46.54249" lon="0.3713">
        <ele>108</ele>
        <time>2024-09-22T08:03:31Z</time>
      </trkpt>
      <trkpt lat="46.54248" lon="0.3713">
        <ele>108</ele>
        <time>2024-09-22T08:03:32Z</time>
      </trkpt>
      <trkpt lat="46.54246" lon="0.37136">
        <ele>107.6</ele>
        <time>2024-09-22T08:03:35Z</time>
      </trkpt>
      <trkpt lat="46.54246" lon="0.37137">
        <ele>107.8</ele>
        <time>2024-09-22T08:03:37Z</time>
      </trkpt>
      <trkpt lat="46.54245" lon="0.37137">
        <ele>107.6</ele>
        <time>2024-09-22T08:03:39Z</time>
      </trkpt>
      <trkpt lat="46.54245" lon="0.37137">
        <ele>107.6</ele>
        <time>2024-09-22T08:03:40Z</time>
      </trkpt>
      <trkpt lat="46.54244" lon="0.37136">
        <ele>107.6</ele>
        <time>2024-09-22T08:03:41Z</time>
      </trkpt>
      <trkpt lat="46.5424" lon="0.37132">
        <ele>107</ele>
        <time>2024-09-22T08:03:44Z</time>
      </trkpt>
      <trkpt lat="46.54238" lon="0.37129">
        <ele>106.4</ele>
        <time>2024-09-22T08:03:45Z</time>
      </trkpt>
      <trkpt lat="46.54235" lon="0.37122">
        <ele>105.8</ele>
        <time>2024-09-22T08:03:47Z</time>
      </trkpt>
      <trkpt lat="46.54232" lon="0.37115">
        <ele>105.2</ele>
        <time>2024-09-22T08:03:49Z</time>
      </trkpt>
      <trkpt lat="46.54229" lon="0.37108">
        <ele>104.8</ele>
        <time>2024-09-22T08:03:51Z</time>
      </trkpt>
      <trkpt lat="46.54224" lon="0.37099">
        <ele>104.4</ele>
        <time>2024-09-22T08:03:54Z</time>
      </trkpt>
      <trkpt lat="46.54217" lon="0.37091">
        <ele>103.8</ele>
        <time>2024-09-22T08:03:57Z</time>
      </trkpt>
      <trkpt lat="46.54214" lon="0.37088">
        <ele>103.6</ele>
        <time>2024-09-22T08:03:58Z</time>
      </trkpt>
      <trkpt lat="46.54207" lon="0.37081">
        <ele>102.4</ele>
        <time>2024-09-22T08:04:00Z</time>
      </trkpt>
      <trkpt lat="46.54204" lon="0.37077">
        <ele>102</ele>
        <time>2024-09-22T08:04:01Z</time>
      </trkpt>
      <trkpt lat="46.54198" lon="0.37069">
        <ele>101.8</ele>
        <time>2024-09-22T08:04:03Z</time>
      </trkpt>
      <trkpt lat="46.54194" lon="0.37062">
        <ele>101.2</ele>
        <time>2024-09-22T08:04:05Z</time>
      </trkpt>
      <trkpt lat="46.54187" lon="0.37054">
        <ele>100</ele>
        <time>2024-09-22T08:04:07Z</time>
      </trkpt>
      <trkpt lat="46.54179" lon="0.37046">
        <ele>98.4</ele>
        <time>2024-09-22T08:04:09Z</time>
      </trkpt>
      <trkpt lat="46.54174" lon="0.37043">
        <ele>97.8</ele>
        <time>2024-09-22T08:04:10Z</time>
      </trkpt>
      <trkpt lat="46.5417" lon="0.37041">
        <ele>97.6</ele>
        <time>2024-09-22T08:04:11Z</time>
      </trkpt>
      <trkpt lat="46.54164" lon="0.37038">
        <ele>97.4</ele>
        <time>2024-09-22T08:04:12Z</time>
      </trkpt>
      <trkpt lat="46.5415" lon="0.37031">
        <ele>97.2</ele>
        <time>2024-09-22T08:04:15Z</time>
      </trkpt>
      <trkpt lat="46.54133" lon="0.37023">
        <ele>98.6</ele>
        <time>2024-09-22T08:04:19Z</time>
      </trkpt>
      <trkpt lat="46.5413" lon="0.3702">
        <ele>99</ele>
        <time>2024-09-22T08:04:20Z</time>
      </trkpt>
      <trkpt lat="46.54123" lon="0.37016">
        <ele>99.8</ele>
        <time>2024-09-22T08:04:22Z</time>
      </trkpt>
      <trkpt lat="46.54114" lon="0.3701">
        <ele>100.8</ele>
        <time>2024-09-22T08:04:25Z</time>
      </trkpt>
      <trkpt lat="46.54111" lon="0.37007">
        <ele>101</ele>
        <time>2024-09-22T08:04:26Z</time>
      </trkpt>
      <trkpt lat="46.541" lon="0.36996">
        <ele>101</ele>
        <time>2024-09-22T08:04:30Z</time>
      </trkpt>
      <trkpt lat="46.54094" lon="0.36989">
        <ele>100.6</ele>
        <time>2024-09-22T08:04:31Z</time>
      </trkpt>
      <trkpt lat="46.5408" lon="0.36975">
        <ele>99.6</ele>
        <time>2024-09-22T08:04:33Z</time>
      </trkpt>
      <trkpt lat="46.54073" lon="0.36967">
        <ele>99</ele>
        <time>2024-09-22T08:04:34Z</time>
      </trkpt>
      <trkpt lat="46.54068" lon="0.3696">
        <ele>98.4</ele>
        <time>2024-09-22T08:04:35Z</time>
      </trkpt>
      <trkpt lat="46.54057" lon="0.36945">
        <ele>97.2</ele>
        <time>2024-09-22T08:04:37Z</time>
      </trkpt>
      <trkpt lat="46.54051" lon="0.36938">
        <ele>96</ele>
        <time>2024-09-22T08:04:38Z</time>
      </trkpt>
      <trkpt lat="46.54039" lon="0.36923">
        <ele>94.8</ele>
        <time>2024-09-22T08:04:40Z</time>
      </trkpt>
      <trkpt lat="46.54026" lon="0.36908">
        <ele>94</ele>
        <time>2024-09-22T08:04:42Z</time>
      </trkpt>
      <trkpt lat="46.5402" lon="0.369">
        <ele>93.2</ele>
        <time>2024-09-22T08:04:43Z</time>
      </trkpt>
      <trkpt lat="46.53998" lon="0.36873">
        <ele>91.8</ele>
        <time>2024-09-22T08:04:47Z</time>
      </trkpt>
      <trkpt lat="46.53984" lon="0.36851">
        <ele>91.4</ele>
        <time>2024-09-22T08:04:51Z</time>
      </trkpt>
      <trkpt lat="46.53981" lon="0.36846">
        <ele>91.6</ele>
        <time>2024-09-22T08:04:52Z</time>
      </trkpt>
      <trkpt lat="46.53973" lon="0.36832">
        <ele>92</ele>
        <time>2024-09-22T08:04:55Z</time>
      </trkpt>
      <trkpt lat="46.53963" lon="0.36818">
        <ele>93.2</ele>
        <time>2024-09-22T08:04:58Z</time>
      </trkpt>
      <trkpt lat="46.53961" lon="0.36814">
        <ele>93.6</ele>
        <time>2024-09-22T08:04:59Z</time>
      </trkpt>
      <trkpt lat="46.53958" lon="0.36809">
        <ele>94</ele>
        <time>2024-09-22T08:05:00Z</time>
      </trkpt>
      <trkpt lat="46.53952" lon="0.36797">
        <ele>94.2</ele>
        <time>2024-09-22T08:05:02Z</time>
      </trkpt>
      <trkpt lat="46.53944" lon="0.36784">
        <ele>95.2</ele>
        <time>2024-09-22T08:05:04Z</time>
      </trkpt>
      <trkpt lat="46.5394" lon="0.36777">
        <ele>95.6</ele>
        <time>2024-09-22T08:05:05Z</time>
      </trkpt>
      <trkpt lat="46.53927" lon="0.36748">
        <ele>96.6</ele>
        <time>2024-09-22T08:05:09Z</time>
      </trkpt>
      <trkpt lat="46.53921" lon="0.36731">
        <ele>97.8</ele>
        <time>2024-09-22T08:05:12Z</time>
      </trkpt>
      <trkpt lat="46.53915" lon="0.36706">
        <ele>99</ele>
        <time>2024-09-22T08:05:17Z</time>
      </trkpt>
      <trkpt lat="46.53914" lon="0.36702">
        <ele>99</ele>
        <time>2024-09-22T08:05:18Z</time>
      </trkpt>
      <trkpt lat="46.53909" lon="0.3669">
        <ele>100.2</ele>
        <time>2024-09-22T08:05:21Z</time>
      </trkpt>
      <trkpt lat="46.53901" lon="0.36682">
        <ele>100.6</ele>
        <time>2024-09-22T08:05:24Z</time>
      </trkpt>
      <trkpt lat="46.53893" lon="0.36679">
        <ele>101.2</ele>
        <time>2024-09-22T08:05:27Z</time>
      </trkpt>
      <trkpt lat="46.53885" lon="0.36675">
        <ele>101.6</ele>
        <time>2024-09-22T08:05:29Z</time>
      </trkpt>
      <trkpt lat="46.53873" lon="0.3666">
        <ele>102.4</ele>
        <time>2024-09-22T08:05:34Z</time>
      </trkpt>
      <trkpt lat="46.53863" lon="0.36645">
        <ele>103.4</ele>
        <time>2024-09-22T08:05:38Z</time>
      </trkpt>
      <trkpt lat="46.53857" lon="0.36634">
        <ele>104.4</ele>
        <time>2024-09-22T08:05:41Z</time>
      </trkpt>
      <trkpt lat="46.53843" lon="0.36612">
        <ele>105.6</ele>
        <time>2024-09-22T08:05:47Z</time>
      </trkpt>
      <trkpt lat="46.53841" lon="0.36609">
        <ele>105.6</ele>
        <time>2024-09-22T08:05:48Z</time>
      </trkpt>
      <trkpt lat="46.5383" lon="0.36587">
        <ele>106.4</ele>
        <time>2024-09-22T08:05:54Z</time>
      </trkpt>
      <trkpt lat="46.53829" lon="0.36584">
        <ele>106.6</ele>
        <time>2024-09-22T08:05:55Z</time>
      </trkpt>
      <trkpt lat="46.53825" lon="0.3657">
        <ele>107.6</ele>
        <time>2024-09-22T08:06:00Z</time>
      </trkpt>
      <trkpt lat="46.53827" lon="0.36554">
        <ele>108.8</ele>
        <time>2024-09-22T08:06:05Z</time>
      </trkpt>
      <trkpt lat="46.53829" lon="0.36539">
        <ele>109.8</ele>
        <time>2024-09-22T08:06:10Z</time>
      </trkpt>
      <trkpt lat="46.53829" lon="0.36535">
        <ele>110</ele>
        <time>2024-09-22T08:06:11Z</time>
      </trkpt>
      <trkpt lat="46.53829" lon="0.36521">
        <ele>111</ele>
        <time>2024-09-22T08:06:14Z</time>
      </trkpt>
      <trkpt lat="46.53828" lon="0.36501">
        <ele>112</ele>
        <time>2024-09-22T08:06:19Z</time>
      </trkpt>
      <trkpt lat="46.53828" lon="0.36498">
        <ele>112</ele>
        <time>2024-09-22T08:06:20Z</time>
      </trkpt>
      <trkpt lat="46.53825" lon="0.36474">
        <ele>113.2</ele>
        <time>2024-09-22T08:06:27Z</time>
      </trkpt>
      <trkpt lat="46.53822" lon="0.36456">
        <ele>114.2</ele>
        <time>2024-09-22T08:06:33Z</time>
      </trkpt>
      <trkpt lat="46.53821" lon="0.36454">
        <ele>114.4</ele>
        <time>2024-09-22T08:06:34Z</time>
      </trkpt>
      <trkpt lat="46.53802" lon="0.36438">
        <ele>115.2</ele>
        <time>2024-09-22T08:06:42Z</time>
      </trkpt>
      <trkpt lat="46.538" lon="0.36435">
        <ele>115.4</ele>
        <time>2024-09-22T08:06:43Z</time>
      </trkpt>
      <trkpt lat="46.53783" lon="0.36418">
        <ele>115.4</ele>
        <time>2024-09-22T08:06:50Z</time>
      </trkpt>
      <trkpt lat="46.53761" lon="0.36398">
        <ele>115.6</ele>
        <time>2024-09-22T08:06:58Z</time>
      </trkpt>
      <trkpt lat="46.53731" lon="0.36376">
        <ele>114.8</ele>
        <time>2024-09-22T08:07:05Z</time>
      </trkpt>
      <trkpt lat="46.53702" lon="0.36351">
        <ele>114.4</ele>
        <time>2024-09-22T08:07:12Z</time>
      </trkpt>
      <trkpt lat="46.53697" lon="0.36347">
        <ele>114.4</ele>
        <time>2024-09-22T08:07:13Z</time>
      </trkpt>
      <trkpt lat="46.53675" lon="0.36326">
        <ele>114.6</ele>
        <time>2024-09-22T08:07:19Z</time>
      </trkpt>
      <trkpt lat="46.53668" lon="0.3632">
        <ele>114.8</ele>
        <time>2024-09-22T08:07:21Z</time>
      </trkpt>
      <trkpt lat="46.53654" lon="0.36307">
        <ele>114.8</ele>
        <time>2024-09-22T08:07:25Z</time>
      </trkpt>
      <trkpt lat="46.53627" lon="0.36277">
        <ele>115.4</ele>
        <time>2024-09-22T08:07:32Z</time>
      </trkpt>
      <trkpt lat="46.53613" lon="0.36259">
        <ele>115.6</ele>
        <time>2024-09-22T08:07:36Z</time>
      </trkpt>
      <trkpt lat="46.53604" lon="0.36245">
        <ele>115.6</ele>
        <time>2024-09-22T08:07:39Z</time>
      </trkpt>
      <trkpt lat="46.53586" lon="0.36229">
        <ele>116.4</ele>
        <time>2024-09-22T08:07:44Z</time>
      </trkpt>
      <trkpt lat="46.53578" lon="0.36224">
        <ele>116.6</ele>
        <time>2024-09-22T08:07:46Z</time>
      </trkpt>
      <trkpt lat="46.53555" lon="0.36206">
        <ele>117.2</ele>
        <time>2024-09-22T08:07:52Z</time>
      </trkpt>
      <trkpt lat="46.5355" lon="0.36204">
        <ele>117.4</ele>
        <time>2024-09-22T08:07:53Z</time>
      </trkpt>
      <trkpt lat="46.53519" lon="0.36203">
        <ele>116.8</ele>
        <time>2024-09-22T08:07:59Z</time>
      </trkpt>
      <trkpt lat="46.53503" lon="0.36198">
        <ele>115.6</ele>
        <time>2024-09-22T08:08:02Z</time>
      </trkpt>
      <trkpt lat="46.53492" lon="0.3619">
        <ele>115.4</ele>
        <time>2024-09-22T08:08:04Z</time>
      </trkpt>
      <trkpt lat="46.53484" lon="0.36182">
        <ele>115.2</ele>
        <time>2024-09-22T08:08:06Z</time>
      </trkpt>
      <trkpt lat="46.53476" lon="0.36172">
        <ele>115.6</ele>
        <time>2024-09-22T08:08:08Z</time>
      </trkpt>
      <trkpt lat="46.53472" lon="0.36167">
        <ele>115.6</ele>
        <time>2024-09-22T08:08:09Z</time>
      </trkpt>
      <trkpt lat="46.53468" lon="0.36162">
        <ele>115.8</ele>
        <time>2024-09-22T08:08:10Z</time>
      </trkpt>
      <trkpt lat="46.53443" lon="0.36138">
        <ele>115.6</ele>
        <time>2024-09-22T08:08:16Z</time>
      </trkpt>
      <trkpt lat="46.53425" lon="0.36124">
        <ele>115.4</ele>
        <time>2024-09-22T08:08:21Z</time>
      </trkpt>
      <trkpt lat="46.53412" lon="0.36111">
        <ele>114.4</ele>
        <time>2024-09-22T08:08:25Z</time>
      </trkpt>
      <trkpt lat="46.534" lon="0.36099">
        <ele>113.8</ele>
        <time>2024-09-22T08:08:28Z</time>
      </trkpt>
      <trkpt lat="46.53395" lon="0.36095">
        <ele>113.4</ele>
        <time>2024-09-22T08:08:29Z</time>
      </trkpt>
      <trkpt lat="46.53391" lon="0.36091">
        <ele>113.2</ele>
        <time>2024-09-22T08:08:30Z</time>
      </trkpt>
      <trkpt lat="46.53386" lon="0.36087">
        <ele>112.6</ele>
        <time>2024-09-22T08:08:31Z</time>
      </trkpt>
      <trkpt lat="46.53375" lon="0.3608">
        <ele>111.6</ele>
        <time>2024-09-22T08:08:33Z</time>
      </trkpt>
      <trkpt lat="46.5337" lon="0.36078">
        <ele>111.2</ele>
        <time>2024-09-22T08:08:34Z</time>
      </trkpt>
      <trkpt lat="46.53366" lon="0.36076">
        <ele>110.6</ele>
        <time>2024-09-22T08:08:35Z</time>
      </trkpt>
      <trkpt lat="46.53361" lon="0.36074">
        <ele>110.2</ele>
        <time>2024-09-22T08:08:36Z</time>
      </trkpt>
      <trkpt lat="46.53355" lon="0.36073">
        <ele>109.8</ele>
        <time>2024-09-22T08:08:37Z</time>
      </trkpt>
      <trkpt lat="46.53348" lon="0.36072">
        <ele>109.2</ele>
        <time>2024-09-22T08:08:38Z</time>
      </trkpt>
      <trkpt lat="46.53333" lon="0.36071">
        <ele>107.8</ele>
        <time>2024-09-22T08:08:40Z</time>
      </trkpt>
      <trkpt lat="46.53324" lon="0.36071">
        <ele>107.2</ele>
        <time>2024-09-22T08:08:41Z</time>
      </trkpt>
      <trkpt lat="46.53315" lon="0.36071">
        <ele>106.4</ele>
        <time>2024-09-22T08:08:42Z</time>
      </trkpt>
      <trkpt lat="46.53308" lon="0.36072">
        <ele>105.2</ele>
        <time>2024-09-22T08:08:43Z</time>
      </trkpt>
      <trkpt lat="46.53295" lon="0.36074">
        <ele>103.2</ele>
        <time>2024-09-22T08:08:45Z</time>
      </trkpt>
      <trkpt lat="46.5329" lon="0.36077">
        <ele>101.8</ele>
        <time>2024-09-22T08:08:46Z</time>
      </trkpt>
      <trkpt lat="46.53274" lon="0.36084">
        <ele>100</ele>
        <time>2024-09-22T08:08:48Z</time>
      </trkpt>
      <trkpt lat="46.53258" lon="0.36091">
        <ele>98.4</ele>
        <time>2024-09-22T08:08:50Z</time>
      </trkpt>
      <trkpt lat="46.53251" lon="0.36094">
        <ele>98.2</ele>
        <time>2024-09-22T08:08:51Z</time>
      </trkpt>
      <trkpt lat="46.53242" lon="0.36102">
        <ele>97.8</ele>
        <time>2024-09-22T08:08:53Z</time>
      </trkpt>
      <trkpt lat="46.53237" lon="0.36111">
        <ele>97.6</ele>
        <time>2024-09-22T08:08:56Z</time>
      </trkpt>
      <trkpt lat="46.53238" lon="0.36115">
        <ele>97.6</ele>
        <time>2024-09-22T08:08:57Z</time>
      </trkpt>
      <trkpt lat="46.5324" lon="0.36123">
        <ele>97.4</ele>
        <time>2024-09-22T08:08:59Z</time>
      </trkpt>
      <trkpt lat="46.53241" lon="0.36146">
        <ele>96.2</ele>
        <time>2024-09-22T08:09:04Z</time>
      </trkpt>
      <trkpt lat="46.53244" lon="0.3617">
        <ele>95</ele>
        <time>2024-09-22T08:09:09Z</time>
      </trkpt>
      <trkpt lat="46.53246" lon="0.36183">
        <ele>94.8</ele>
        <time>2024-09-22T08:09:11Z</time>
      </trkpt>
      <trkpt lat="46.53251" lon="0.36208">
        <ele>94.4</ele>
        <time>2024-09-22T08:09:14Z</time>
      </trkpt>
      <trkpt lat="46.53258" lon="0.36224">
        <ele>94</ele>
        <time>2024-09-22T08:09:16Z</time>
      </trkpt>
      <trkpt lat="46.5327" lon="0.36255">
        <ele>92.8</ele>
        <time>2024-09-22T08:09:20Z</time>
      </trkpt>
      <trkpt lat="46.53274" lon="0.36275">
        <ele>92.4</ele>
        <time>2024-09-22T08:09:22Z</time>
      </trkpt>
      <trkpt lat="46.53275" lon="0.36294">
        <ele>92</ele>
        <time>2024-09-22T08:09:24Z</time>
      </trkpt>
      <trkpt lat="46.53274" lon="0.36304">
        <ele>91.8</ele>
        <time>2024-09-22T08:09:25Z</time>
      </trkpt>
      <trkpt lat="46.53273" lon="0.36314">
        <ele>91.4</ele>
        <time>2024-09-22T08:09:26Z</time>
      </trkpt>
      <trkpt lat="46.53265" lon="0.36331">
        <ele>91</ele>
        <time>2024-09-22T08:09:28Z</time>
      </trkpt>
      <trkpt lat="46.53265" lon="0.36331">
        <ele>90.4</ele>
        <time>2024-09-22T08:09:29Z</time>
      </trkpt>
      <trkpt lat="46.53253" lon="0.3634">
        <ele>90</ele>
        <time>2024-09-22T08:09:30Z</time>
      </trkpt>
      <trkpt lat="46.53242" lon="0.36352">
        <ele>89.8</ele>
        <time>2024-09-22T08:09:32Z</time>
      </trkpt>
      <trkpt lat="46.53232" lon="0.36367">
        <ele>89.6</ele>
        <time>2024-09-22T08:09:34Z</time>
      </trkpt>
      <trkpt lat="46.5322" lon="0.36392">
        <ele>89.4</ele>
        <time>2024-09-22T08:09:37Z</time>
      </trkpt>
      <trkpt lat="46.53208" lon="0.36413">
        <ele>89.2</ele>
        <time>2024-09-22T08:09:40Z</time>
      </trkpt>
      <trkpt lat="46.53178" lon="0.36462">
        <ele>89.6</ele>
        <time>2024-09-22T08:09:48Z</time>
      </trkpt>
      <trkpt lat="46.53163" lon="0.36498">
        <ele>90.2</ele>
        <time>2024-09-22T08:09:54Z</time>
      </trkpt>
      <trkpt lat="46.53161" lon="0.36503">
        <ele>90.6</ele>
        <time>2024-09-22T08:09:55Z</time>
      </trkpt>
      <trkpt lat="46.53153" lon="0.36526">
        <ele>91.6</ele>
        <time>2024-09-22T08:10:00Z</time>
      </trkpt>
      <trkpt lat="46.53152" lon="0.3653">
        <ele>91.8</ele>
        <time>2024-09-22T08:10:01Z</time>
      </trkpt>
      <trkpt lat="46.53145" lon="0.36549">
        <ele>93</ele>
        <time>2024-09-22T08:10:05Z</time>
      </trkpt>
      <trkpt lat="46.53138" lon="0.36564">
        <ele>93.6</ele>
        <time>2024-09-22T08:10:08Z</time>
      </trkpt>
      <trkpt lat="46.53131" lon="0.36579">
        <ele>94</ele>
        <time>2024-09-22T08:10:11Z</time>
      </trkpt>
      <trkpt lat="46.5312" lon="0.36604">
        <ele>94.8</ele>
        <time>2024-09-22T08:10:16Z</time>
      </trkpt>
      <trkpt lat="46.53106" lon="0.36635">
        <ele>95</ele>
        <time>2024-09-22T08:10:22Z</time>
      </trkpt>
      <trkpt lat="46.53102" lon="0.36644">
        <ele>95.2</ele>
        <time>2024-09-22T08:10:24Z</time>
      </trkpt>
      <trkpt lat="46.53087" lon="0.36686">
        <ele>95.8</ele>
        <time>2024-09-22T08:10:32Z</time>
      </trkpt>
      <trkpt lat="46.53082" lon="0.36713">
        <ele>96.4</ele>
        <time>2024-09-22T08:10:37Z</time>
      </trkpt>
      <trkpt lat="46.53082" lon="0.36722">
        <ele>96.8</ele>
        <time>2024-09-22T08:10:39Z</time>
      </trkpt>
      <trkpt lat="46.53085" lon="0.3674">
        <ele>97.4</ele>
        <time>2024-09-22T08:10:43Z</time>
      </trkpt>
      <trkpt lat="46.53087" lon="0.36751">
        <ele>98</ele>
        <time>2024-09-22T08:10:45Z</time>
      </trkpt>
      <trkpt lat="46.5309" lon="0.36773">
        <ele>98.6</ele>
        <time>2024-09-22T08:10:49Z</time>
      </trkpt>
      <trkpt lat="46.53092" lon="0.36783">
        <ele>98.8</ele>
        <time>2024-09-22T08:10:51Z</time>
      </trkpt>
      <trkpt lat="46.53097" lon="0.36804">
        <ele>99.6</ele>
        <time>2024-09-22T08:10:55Z</time>
      </trkpt>
      <trkpt lat="46.53101" lon="0.36817">
        <ele>99.8</ele>
        <time>2024-09-22T08:10:58Z</time>
      </trkpt>
      <trkpt lat="46.53107" lon="0.36835">
        <ele>100.6</ele>
        <time>2024-09-22T08:11:02Z</time>
      </trkpt>
      <trkpt lat="46.53115" lon="0.36859">
        <ele>101.6</ele>
        <time>2024-09-22T08:11:07Z</time>
      </trkpt>
      <trkpt lat="46.53126" lon="0.36888">
        <ele>102.6</ele>
        <time>2024-09-22T08:11:13Z</time>
      </trkpt>
      <trkpt lat="46.53127" lon="0.36893">
        <ele>102.6</ele>
        <time>2024-09-22T08:11:14Z</time>
      </trkpt>
      <trkpt lat="46.53136" lon="0.36922">
        <ele>103.4</ele>
        <time>2024-09-22T08:11:20Z</time>
      </trkpt>
      <trkpt lat="46.53138" lon="0.36932">
        <ele>103.8</ele>
        <time>2024-09-22T08:11:22Z</time>
      </trkpt>
      <trkpt lat="46.53145" lon="0.36953">
        <ele>104</ele>
        <time>2024-09-22T08:11:27Z</time>
      </trkpt>
      <trkpt lat="46.53155" lon="0.3698">
        <ele>104.8</ele>
        <time>2024-09-22T08:11:33Z</time>
      </trkpt>
      <trkpt lat="46.53158" lon="0.3699">
        <ele>105.2</ele>
        <time>2024-09-22T08:11:35Z</time>
      </trkpt>
      <trkpt lat="46.5316" lon="0.37005">
        <ele>105.6</ele>
        <time>2024-09-22T08:11:38Z</time>
      </trkpt>
      <trkpt lat="46.53159" lon="0.3701">
        <ele>105.8</ele>
        <time>2024-09-22T08:11:39Z</time>
      </trkpt>
      <trkpt lat="46.53154" lon="0.37019">
        <ele>106</ele>
        <time>2024-09-22T08:11:41Z</time>
      </trkpt>
      <trkpt lat="46.53146" lon="0.37025">
        <ele>106</ele>
        <time>2024-09-22T08:11:43Z</time>
      </trkpt>
      <trkpt lat="46.53112" lon="0.3704">
        <ele>107</ele>
        <time>2024-09-22T08:11:52Z</time>
      </trkpt>
      <trkpt lat="46.53097" lon="0.37044">
        <ele>108.2</ele>
        <time>2024-09-22T08:11:57Z</time>
      </trkpt>
      <trkpt lat="46.53092" lon="0.37045">
        <ele>108.6</ele>
        <time>2024-09-22T08:11:59Z</time>
      </trkpt>
      <trkpt lat="46.53083" lon="0.37047">
        <ele>109.2</ele>
        <time>2024-09-22T08:12:02Z</time>
      </trkpt>
      <trkpt lat="46.53071" lon="0.3705">
        <ele>110.6</ele>
        <time>2024-09-22T08:12:07Z</time>
      </trkpt>
      <trkpt lat="46.53054" lon="0.37054">
        <ele>111.6</ele>
        <time>2024-09-22T08:12:13Z</time>
      </trkpt>
      <trkpt lat="46.5305" lon="0.37056">
        <ele>112</ele>
        <time>2024-09-22T08:12:15Z</time>
      </trkpt>
      <trkpt lat="46.5304" lon="0.37058">
        <ele>112.6</ele>
        <time>2024-09-22T08:12:19Z</time>
      </trkpt>
      <trkpt lat="46.53029" lon="0.37058">
        <ele>113.8</ele>
        <time>2024-09-22T08:12:23Z</time>
      </trkpt>
      <trkpt lat="46.53015" lon="0.37053">
        <ele>114.8</ele>
        <time>2024-09-22T08:12:29Z</time>
      </trkpt>
      <trkpt lat="46.5301" lon="0.37052">
        <ele>115</ele>
        <time>2024-09-22T08:12:31Z</time>
      </trkpt>
      <trkpt lat="46.52995" lon="0.37047">
        <ele>116.2</ele>
        <time>2024-09-22T08:12:37Z</time>
      </trkpt>
      <trkpt lat="46.5299" lon="0.37045">
        <ele>116.6</ele>
        <time>2024-09-22T08:12:39Z</time>
      </trkpt>
      <trkpt lat="46.52979" lon="0.37041">
        <ele>117.2</ele>
        <time>2024-09-22T08:12:44Z</time>
      </trkpt>
      <trkpt lat="46.52974" lon="0.37038">
        <ele>117.8</ele>
        <time>2024-09-22T08:12:46Z</time>
      </trkpt>
      <trkpt lat="46.52969" lon="0.37036">
        <ele>118.4</ele>
        <time>2024-09-22T08:12:48Z</time>
      </trkpt>
      <trkpt lat="46.52955" lon="0.3703">
        <ele>119.4</ele>
        <time>2024-09-22T08:12:54Z</time>
      </trkpt>
      <trkpt lat="46.52945" lon="0.37017">
        <ele>120.4</ele>
        <time>2024-09-22T08:13:00Z</time>
      </trkpt>
      <trkpt lat="46.52943" lon="0.37014">
        <ele>120.4</ele>
        <time>2024-09-22T08:13:01Z</time>
      </trkpt>
      <trkpt lat="46.52932" lon="0.3699">
        <ele>121.4</ele>
        <time>2024-09-22T08:13:08Z</time>
      </trkpt>
      <trkpt lat="46.52922" lon="0.36955">
        <ele>121</ele>
        <time>2024-09-22T08:13:16Z</time>
      </trkpt>
      <trkpt lat="46.52919" lon="0.36935">
        <ele>120.4</ele>
        <time>2024-09-22T08:13:20Z</time>
      </trkpt>
      <trkpt lat="46.52919" lon="0.3693">
        <ele>120.4</ele>
        <time>2024-09-22T08:13:21Z</time>
      </trkpt>
      <trkpt lat="46.52916" lon="0.36911">
        <ele>120.2</ele>
        <time>2024-09-22T08:13:24Z</time>
      </trkpt>
      <trkpt lat="46.52912" lon="0.36897">
        <ele>119.8</ele>
        <time>2024-09-22T08:13:26Z</time>
      </trkpt>
      <trkpt lat="46.52908" lon="0.3689">
        <ele>119.4</ele>
        <time>2024-09-22T08:13:27Z</time>
      </trkpt>
      <trkpt lat="46.52904" lon="0.36884">
        <ele>119.2</ele>
        <time>2024-09-22T08:13:28Z</time>
      </trkpt>
      <trkpt lat="46.52896" lon="0.36873">
        <ele>118.8</ele>
        <time>2024-09-22T08:13:30Z</time>
      </trkpt>
      <trkpt lat="46.52888" lon="0.36864">
        <ele>118.6</ele>
        <time>2024-09-22T08:13:32Z</time>
      </trkpt>
      <trkpt lat="46.52883" lon="0.36859">
        <ele>118.4</ele>
        <time>2024-09-22T08:13:33Z</time>
      </trkpt>
      <trkpt lat="46.52866" lon="0.36843">
        <ele>117.4</ele>
        <time>2024-09-22T08:13:37Z</time>
      </trkpt>
      <trkpt lat="46.52862" lon="0.36839">
        <ele>117.2</ele>
        <time>2024-09-22T08:13:38Z</time>
      </trkpt>
      <trkpt lat="46.52833" lon="0.36817">
        <ele>116.6</ele>
        <time>2024-09-22T08:13:44Z</time>
      </trkpt>
      <trkpt lat="46.5282" lon="0.36811">
        <ele>116</ele>
        <time>2024-09-22T08:13:46Z</time>
      </trkpt>
      <trkpt lat="46.52801" lon="0.36807">
        <ele>114.8</ele>
        <time>2024-09-22T08:13:49Z</time>
      </trkpt>
      <trkpt lat="46.52784" lon="0.36806">
        <ele>113.6</ele>
        <time>2024-09-22T08:13:52Z</time>
      </trkpt>
      <trkpt lat="46.52772" lon="0.36808">
        <ele>111.8</ele>
        <time>2024-09-22T08:13:54Z</time>
      </trkpt>
      <trkpt lat="46.52761" lon="0.36812">
        <ele>110.4</ele>
        <time>2024-09-22T08:13:56Z</time>
      </trkpt>
      <trkpt lat="46.52756" lon="0.36815">
        <ele>109.2</ele>
        <time>2024-09-22T08:13:57Z</time>
      </trkpt>
      <trkpt lat="46.52747" lon="0.36818">
        <ele>107.8</ele>
        <time>2024-09-22T08:13:59Z</time>
      </trkpt>
      <trkpt lat="46.5274" lon="0.36822">
        <ele>106</ele>
        <time>2024-09-22T08:14:01Z</time>
      </trkpt>
      <trkpt lat="46.52731" lon="0.36824">
        <ele>104.6</ele>
        <time>2024-09-22T08:14:03Z</time>
      </trkpt>
      <trkpt lat="46.52724" lon="0.36827">
        <ele>102.8</ele>
        <time>2024-09-22T08:14:05Z</time>
      </trkpt>
      <trkpt lat="46.52721" lon="0.3683">
        <ele>102.2</ele>
        <time>2024-09-22T08:14:06Z</time>
      </trkpt>
      <trkpt lat="46.52714" lon="0.36836">
        <ele>100.6</ele>
        <time>2024-09-22T08:14:08Z</time>
      </trkpt>
      <trkpt lat="46.5271" lon="0.3684">
        <ele>99.6</ele>
        <time>2024-09-22T08:14:09Z</time>
      </trkpt>
      <trkpt lat="46.52706" lon="0.36844">
        <ele>99</ele>
        <time>2024-09-22T08:14:10Z</time>
      </trkpt>
      <trkpt lat="46.52703" lon="0.36849">
        <ele>98.6</ele>
        <time>2024-09-22T08:14:11Z</time>
      </trkpt>
      <trkpt lat="46.52698" lon="0.36858">
        <ele>97.6</ele>
        <time>2024-09-22T08:14:12Z</time>
      </trkpt>
      <trkpt lat="46.52693" lon="0.36867">
        <ele>96.4</ele>
        <time>2024-09-22T08:14:13Z</time>
      </trkpt>
      <trkpt lat="46.52688" lon="0.36876">
        <ele>95.6</ele>
        <time>2024-09-22T08:14:14Z</time>
      </trkpt>
      <trkpt lat="46.52684" lon="0.36884">
        <ele>95</ele>
        <time>2024-09-22T08:14:15Z</time>
      </trkpt>
      <trkpt lat="46.52671" lon="0.3691">
        <ele>93.8</ele>
        <time>2024-09-22T08:14:18Z</time>
      </trkpt>
      <trkpt lat="46.52668" lon="0.36917">
        <ele>93.6</ele>
        <time>2024-09-22T08:14:19Z</time>
      </trkpt>
      <trkpt lat="46.52666" lon="0.36923">
        <ele>93.4</ele>
        <time>2024-09-22T08:14:20Z</time>
      </trkpt>
      <trkpt lat="46.52663" lon="0.36933">
        <ele>92.8</ele>
        <time>2024-09-22T08:14:22Z</time>
      </trkpt>
      <trkpt lat="46.52661" lon="0.36941">
        <ele>92.6</ele>
        <time>2024-09-22T08:14:23Z</time>
      </trkpt>
      <trkpt lat="46.52658" lon="0.36955">
        <ele>92.2</ele>
        <time>2024-09-22T08:14:25Z</time>
      </trkpt>
      <trkpt lat="46.5265" lon="0.36983">
        <ele>91.8</ele>
        <time>2024-09-22T08:14:29Z</time>
      </trkpt>
      <trkpt lat="46.52649" lon="0.36991">
        <ele>91.8</ele>
        <time>2024-09-22T08:14:30Z</time>
      </trkpt>
      <trkpt lat="46.52649" lon="0.37012">
        <ele>91.8</ele>
        <time>2024-09-22T08:14:33Z</time>
      </trkpt>
      <trkpt lat="46.5265" lon="0.3702">
        <ele>91.8</ele>
        <time>2024-09-22T08:14:34Z</time>
      </trkpt>
      <trkpt lat="46.52651" lon="0.37029">
        <ele>91.8</ele>
        <time>2024-09-22T08:14:35Z</time>
      </trkpt>
      <trkpt lat="46.52653" lon="0.37043">
        <ele>91.8</ele>
        <time>2024-09-22T08:14:37Z</time>
      </trkpt>
      <trkpt lat="46.52656" lon="0.3706">
        <ele>91.8</ele>
        <time>2024-09-22T08:14:39Z</time>
      </trkpt>
      <trkpt lat="46.52659" lon="0.37085">
        <ele>91.6</ele>
        <time>2024-09-22T08:14:42Z</time>
      </trkpt>
      <trkpt lat="46.52658" lon="0.37101">
        <ele>91.6</ele>
        <time>2024-09-22T08:14:44Z</time>
      </trkpt>
      <trkpt lat="46.52659" lon="0.37109">
        <ele>91.6</ele>
        <time>2024-09-22T08:14:45Z</time>
      </trkpt>
      <trkpt lat="46.52661" lon="0.37126">
        <ele>91</ele>
        <time>2024-09-22T08:14:47Z</time>
      </trkpt>
      <trkpt lat="46.52665" lon="0.37143">
        <ele>90.6</ele>
        <time>2024-09-22T08:14:49Z</time>
      </trkpt>
      <trkpt lat="46.52667" lon="0.3715">
        <ele>90.6</ele>
        <time>2024-09-22T08:14:50Z</time>
      </trkpt>
      <trkpt lat="46.52674" lon="0.37193">
        <ele>90.4</ele>
        <time>2024-09-22T08:14:56Z</time>
      </trkpt>
      <trkpt lat="46.52676" lon="0.37201">
        <ele>90.2</ele>
        <time>2024-09-22T08:14:57Z</time>
      </trkpt>
      <trkpt lat="46.52679" lon="0.37219">
        <ele>90.2</ele>
        <time>2024-09-22T08:14:59Z</time>
      </trkpt>
      <trkpt lat="46.52679" lon="0.37239">
        <ele>90</ele>
        <time>2024-09-22T08:15:01Z</time>
      </trkpt>
      <trkpt lat="46.5268" lon="0.37262">
        <ele>90</ele>
        <time>2024-09-22T08:15:03Z</time>
      </trkpt>
      <trkpt lat="46.52678" lon="0.37285">
        <ele>90</ele>
        <time>2024-09-22T08:15:05Z</time>
      </trkpt>
      <trkpt lat="46.52673" lon="0.37307">
        <ele>89.8</ele>
        <time>2024-09-22T08:15:07Z</time>
      </trkpt>
      <trkpt lat="46.52667" lon="0.37324">
        <ele>89.8</ele>
        <time>2024-09-22T08:15:09Z</time>
      </trkpt>
      <trkpt lat="46.52665" lon="0.37332">
        <ele>89.8</ele>
        <time>2024-09-22T08:15:10Z</time>
      </trkpt>
      <trkpt lat="46.52663" lon="0.37339">
        <ele>89.6</ele>
        <time>2024-09-22T08:15:11Z</time>
      </trkpt>
      <trkpt lat="46.52655" lon="0.37359">
        <ele>89.8</ele>
        <time>2024-09-22T08:15:14Z</time>
      </trkpt>
      <trkpt lat="46.52644" lon="0.37376">
        <ele>90.4</ele>
        <time>2024-09-22T08:15:17Z</time>
      </trkpt>
      <trkpt lat="46.52628" lon="0.37378">
        <ele>90.2</ele>
        <time>2024-09-22T08:15:21Z</time>
      </trkpt>
      <trkpt lat="46.52607" lon="0.37357">
        <ele>90</ele>
        <time>2024-09-22T08:15:27Z</time>
      </trkpt>
      <trkpt lat="46.52594" lon="0.37338">
        <ele>91</ele>
        <time>2024-09-22T08:15:33Z</time>
      </trkpt>
      <trkpt lat="46.52592" lon="0.37335">
        <ele>91</ele>
        <time>2024-09-22T08:15:34Z</time>
      </trkpt>
      <trkpt lat="46.5258" lon="0.37312">
        <ele>92</ele>
        <time>2024-09-22T08:15:41Z</time>
      </trkpt>
      <trkpt lat="46.52569" lon="0.37293">
        <ele>92.8</ele>
        <time>2024-09-22T08:15:47Z</time>
      </trkpt>
      <trkpt lat="46.52565" lon="0.37286">
        <ele>93.2</ele>
        <time>2024-09-22T08:15:50Z</time>
      </trkpt>
      <trkpt lat="46.52557" lon="0.37272">
        <ele>93.8</ele>
        <time>2024-09-22T08:15:55Z</time>
      </trkpt>
      <trkpt lat="46.52544" lon="0.37249">
        <ele>94.2</ele>
        <time>2024-09-22T08:16:01Z</time>
      </trkpt>
      <trkpt lat="46.52541" lon="0.37246">
        <ele>94.4</ele>
        <time>2024-09-22T08:16:02Z</time>
      </trkpt>
      <trkpt lat="46.52523" lon="0.37218">
        <ele>94.8</ele>
        <time>2024-09-22T08:16:09Z</time>
      </trkpt>
      <trkpt lat="46.52506" lon="0.37192">
        <ele>95</ele>
        <time>2024-09-22T08:16:15Z</time>
      </trkpt>
      <trkpt lat="46.52501" lon="0.37182">
        <ele>95.4</ele>
        <time>2024-09-22T08:16:18Z</time>
      </trkpt>
      <trkpt lat="46.52494" lon="0.37167">
        <ele>96.2</ele>
        <time>2024-09-22T08:16:22Z</time>
      </trkpt>
      <trkpt lat="46.52492" lon="0.37162">
        <ele>96.4</ele>
        <time>2024-09-22T08:16:23Z</time>
      </trkpt>
      <trkpt lat="46.5248" lon="0.37144">
        <ele>97.6</ele>
        <time>2024-09-22T08:16:28Z</time>
      </trkpt>
      <trkpt lat="46.52477" lon="0.3714">
        <ele>97.8</ele>
        <time>2024-09-22T08:16:29Z</time>
      </trkpt>
      <trkpt lat="46.52472" lon="0.37128">
        <ele>98.6</ele>
        <time>2024-09-22T08:16:32Z</time>
      </trkpt>
      <trkpt lat="46.52466" lon="0.37117">
        <ele>99</ele>
        <time>2024-09-22T08:16:35Z</time>
      </trkpt>
      <trkpt lat="46.52461" lon="0.37104">
        <ele>99.8</ele>
        <time>2024-09-22T08:16:39Z</time>
      </trkpt>
      <trkpt lat="46.52455" lon="0.37092">
        <ele>100.4</ele>
        <time>2024-09-22T08:16:42Z</time>
      </trkpt>
      <trkpt lat="46.52452" lon="0.37087">
        <ele>101</ele>
        <time>2024-09-22T08:16:43Z</time>
      </trkpt>
      <trkpt lat="46.52445" lon="0.37071">
        <ele>102</ele>
        <time>2024-09-22T08:16:47Z</time>
      </trkpt>
      <trkpt lat="46.52442" lon="0.37062">
        <ele>102.6</ele>
        <time>2024-09-22T08:16:49Z</time>
      </trkpt>
      <trkpt lat="46.52441" lon="0.37058">
        <ele>102.8</ele>
        <time>2024-09-22T08:16:50Z</time>
      </trkpt>
      <trkpt lat="46.52441" lon="0.3705">
        <ele>103.2</ele>
        <time>2024-09-22T08:16:52Z</time>
      </trkpt>
      <trkpt lat="46.52441" lon="0.37041">
        <ele>103.6</ele>
        <time>2024-09-22T08:16:54Z</time>
      </trkpt>
      <trkpt lat="46.5244" lon="0.37015">
        <ele>104.4</ele>
        <time>2024-09-22T08:17:00Z</time>
      </trkpt>
      <trkpt lat="46.52438" lon="0.37002">
        <ele>104.8</ele>
        <time>2024-09-22T08:17:03Z</time>
      </trkpt>
      <trkpt lat="46.52436" lon="0.36985">
        <ele>105.6</ele>
        <time>2024-09-22T08:17:07Z</time>
      </trkpt>
      <trkpt lat="46.52433" lon="0.36966">
        <ele>106.4</ele>
        <time>2024-09-22T08:17:11Z</time>
      </trkpt>
      <trkpt lat="46.52433" lon="0.36962">
        <ele>106.8</ele>
        <time>2024-09-22T08:17:12Z</time>
      </trkpt>
      <trkpt lat="46.52433" lon="0.36938">
        <ele>107.2</ele>
        <time>2024-09-22T08:17:17Z</time>
      </trkpt>
      <trkpt lat="46.52433" lon="0.36912">
        <ele>107.8</ele>
        <time>2024-09-22T08:17:22Z</time>
      </trkpt>
      <trkpt lat="46.52432" lon="0.36891">
        <ele>108.4</ele>
        <time>2024-09-22T08:17:26Z</time>
      </trkpt>
      <trkpt lat="46.5243" lon="0.36875">
        <ele>108.8</ele>
        <time>2024-09-22T08:17:29Z</time>
      </trkpt>
      <trkpt lat="46.52426" lon="0.36846">
        <ele>109.2</ele>
        <time>2024-09-22T08:17:35Z</time>
      </trkpt>
      <trkpt lat="46.52415" lon="0.36805">
        <ele>109.8</ele>
        <time>2024-09-22T08:17:43Z</time>
      </trkpt>
      <trkpt lat="46.52413" lon="0.368">
        <ele>109.8</ele>
        <time>2024-09-22T08:17:44Z</time>
      </trkpt>
      <trkpt lat="46.524" lon="0.36756">
        <ele>110.2</ele>
        <time>2024-09-22T08:17:52Z</time>
      </trkpt>
      <trkpt lat="46.52387" lon="0.3671">
        <ele>110.8</ele>
        <time>2024-09-22T08:18:00Z</time>
      </trkpt>
      <trkpt lat="46.52385" lon="0.36704">
        <ele>110.8</ele>
        <time>2024-09-22T08:18:01Z</time>
      </trkpt>
      <trkpt lat="46.52374" lon="0.36658">
        <ele>111.8</ele>
        <time>2024-09-22T08:18:09Z</time>
      </trkpt>
      <trkpt lat="46.52373" lon="0.36652">
        <ele>111.8</ele>
        <time>2024-09-22T08:18:10Z</time>
      </trkpt>
      <trkpt lat="46.52369" lon="0.36621">
        <ele>113</ele>
        <time>2024-09-22T08:18:16Z</time>
      </trkpt>
      <trkpt lat="46.52367" lon="0.36593">
        <ele>114</ele>
        <time>2024-09-22T08:18:21Z</time>
      </trkpt>
      <trkpt lat="46.52368" lon="0.36587">
        <ele>114.4</ele>
        <time>2024-09-22T08:18:22Z</time>
      </trkpt>
      <trkpt lat="46.52369" lon="0.36565">
        <ele>115.2</ele>
        <time>2024-09-22T08:18:26Z</time>
      </trkpt>
      <trkpt lat="46.52371" lon="0.3655">
        <ele>115.6</ele>
        <time>2024-09-22T08:18:29Z</time>
      </trkpt>
      <trkpt lat="46.52376" lon="0.36515">
        <ele>116</ele>
        <time>2024-09-22T08:18:36Z</time>
      </trkpt>
      <trkpt lat="46.52383" lon="0.36491">
        <ele>115.8</ele>
        <time>2024-09-22T08:18:42Z</time>
      </trkpt>
      <trkpt lat="46.52383" lon="0.36481">
        <ele>115.6</ele>
        <time>2024-09-22T08:18:45Z</time>
      </trkpt>
      <trkpt lat="46.52385" lon="0.36476">
        <ele>115.6</ele>
        <time>2024-09-22T08:18:47Z</time>
      </trkpt>
      <trkpt lat="46.52392" lon="0.3646">
        <ele>116.2</ele>
        <time>2024-09-22T08:18:51Z</time>
      </trkpt>
      <trkpt lat="46.52395" lon="0.3645">
        <ele>116.2</ele>
        <time>2024-09-22T08:18:53Z</time>
      </trkpt>
      <trkpt lat="46.52401" lon="0.36424">
        <ele>116.4</ele>
        <time>2024-09-22T08:18:58Z</time>
      </trkpt>
      <trkpt lat="46.52402" lon="0.36389">
        <ele>117</ele>
        <time>2024-09-22T08:19:05Z</time>
      </trkpt>
      <trkpt lat="46.52401" lon="0.36385">
        <ele>117.4</ele>
        <time>2024-09-22T08:19:06Z</time>
      </trkpt>
      <trkpt lat="46.52399" lon="0.36352">
        <ele>118.2</ele>
        <time>2024-09-22T08:19:13Z</time>
      </trkpt>
      <trkpt lat="46.52398" lon="0.36336">
        <ele>118.4</ele>
        <time>2024-09-22T08:19:16Z</time>
      </trkpt>
      <trkpt lat="46.52396" lon="0.36316">
        <ele>118.8</ele>
        <time>2024-09-22T08:19:20Z</time>
      </trkpt>
      <trkpt lat="46.52395" lon="0.36282">
        <ele>118.8</ele>
        <time>2024-09-22T08:19:26Z</time>
      </trkpt>
      <trkpt lat="46.52395" lon="0.36276">
        <ele>118.8</ele>
        <time>2024-09-22T08:19:27Z</time>
      </trkpt>
      <trkpt lat="46.52397" lon="0.36265">
        <ele>118.2</ele>
        <time>2024-09-22T08:19:29Z</time>
      </trkpt>
      <trkpt lat="46.52399" lon="0.36254">
        <ele>117.6</ele>
        <time>2024-09-22T08:19:31Z</time>
      </trkpt>
      <trkpt lat="46.524" lon="0.36242">
        <ele>117.2</ele>
        <time>2024-09-22T08:19:33Z</time>
      </trkpt>
      <trkpt lat="46.52402" lon="0.36232">
        <ele>117.2</ele>
        <time>2024-09-22T08:19:35Z</time>
      </trkpt>
      <trkpt lat="46.52405" lon="0.36214">
        <ele>116.8</ele>
        <time>2024-09-22T08:19:38Z</time>
      </trkpt>
      <trkpt lat="46.52411" lon="0.36169">
        <ele>117.4</ele>
        <time>2024-09-22T08:19:45Z</time>
      </trkpt>
      <trkpt lat="46.52413" lon="0.36159">
        <ele>117.8</ele>
        <time>2024-09-22T08:19:47Z</time>
      </trkpt>
      <trkpt lat="46.52419" lon="0.36139">
        <ele>118</ele>
        <time>2024-09-22T08:19:51Z</time>
      </trkpt>
      <trkpt lat="46.52425" lon="0.36119">
        <ele>118.4</ele>
        <time>2024-09-22T08:19:56Z</time>
      </trkpt>
      <trkpt lat="46.52426" lon="0.36114">
        <ele>118.8</ele>
        <time>2024-09-22T08:19:57Z</time>
      </trkpt>
      <trkpt lat="46.52432" lon="0.36101">
        <ele>119.6</ele>
        <time>2024-09-22T08:20:00Z</time>
      </trkpt>
      <trkpt lat="46.52438" lon="0.36085">
        <ele>120.6</ele>
        <time>2024-09-22T08:20:04Z</time>
      </trkpt>
      <trkpt lat="46.52441" lon="0.36073">
        <ele>120.8</ele>
        <time>2024-09-22T08:20:07Z</time>
      </trkpt>
      <trkpt lat="46.52448" lon="0.36059">
        <ele>121.2</ele>
        <time>2024-09-22T08:20:11Z</time>
      </trkpt>
      <trkpt lat="46.52456" lon="0.36037">
        <ele>121.8</ele>
        <time>2024-09-22T08:20:16Z</time>
      </trkpt>
      <trkpt lat="46.52461" lon="0.36022">
        <ele>122</ele>
        <time>2024-09-22T08:20:19Z</time>
      </trkpt>
      <trkpt lat="46.52464" lon="0.36012">
        <ele>122</ele>
        <time>2024-09-22T08:20:21Z</time>
      </trkpt>
      <trkpt lat="46.52469" lon="0.35998">
        <ele>121.8</ele>
        <time>2024-09-22T08:20:24Z</time>
      </trkpt>
      <trkpt lat="46.52474" lon="0.35986">
        <ele>121.8</ele>
        <time>2024-09-22T08:20:26Z</time>
      </trkpt>
      <trkpt lat="46.5249" lon="0.35954">
        <ele>122</ele>
        <time>2024-09-22T08:20:32Z</time>
      </trkpt>
      <trkpt lat="46.52497" lon="0.35938">
        <ele>121.6</ele>
        <time>2024-09-22T08:20:35Z</time>
      </trkpt>
      <trkpt lat="46.52508" lon="0.35923">
        <ele>121</ele>
        <time>2024-09-22T08:20:38Z</time>
      </trkpt>
      <trkpt lat="46.52511" lon="0.35918">
        <ele>120.6</ele>
        <time>2024-09-22T08:20:39Z</time>
      </trkpt>
      <trkpt lat="46.52516" lon="0.35906">
        <ele>119.2</ele>
        <time>2024-09-22T08:20:41Z</time>
      </trkpt>
      <trkpt lat="46.52524" lon="0.3588">
        <ele>118.2</ele>
        <time>2024-09-22T08:20:45Z</time>
      </trkpt>
      <trkpt lat="46.52532" lon="0.35853">
        <ele>117</ele>
        <time>2024-09-22T08:20:49Z</time>
      </trkpt>
      <trkpt lat="46.52533" lon="0.35846">
        <ele>116.4</ele>
        <time>2024-09-22T08:20:50Z</time>
      </trkpt>
      <trkpt lat="46.52534" lon="0.35835">
        <ele>115.6</ele>
        <time>2024-09-22T08:20:51Z</time>
      </trkpt>
      <trkpt lat="46.52534" lon="0.35821">
        <ele>114.4</ele>
        <time>2024-09-22T08:20:53Z</time>
      </trkpt>
      <trkpt lat="46.52535" lon="0.35804">
        <ele>114</ele>
        <time>2024-09-22T08:20:55Z</time>
      </trkpt>
      <trkpt lat="46.52536" lon="0.35796">
        <ele>113.8</ele>
        <time>2024-09-22T08:20:56Z</time>
      </trkpt>
      <trkpt lat="46.52539" lon="0.35783">
        <ele>113.2</ele>
        <time>2024-09-22T08:20:58Z</time>
      </trkpt>
      <trkpt lat="46.52546" lon="0.35762">
        <ele>113</ele>
        <time>2024-09-22T08:21:01Z</time>
      </trkpt>
      <trkpt lat="46.52553" lon="0.3575">
        <ele>113.6</ele>
        <time>2024-09-22T08:21:03Z</time>
      </trkpt>
      <trkpt lat="46.52556" lon="0.35724">
        <ele>114.4</ele>
        <time>2024-09-22T08:21:06Z</time>
      </trkpt>
      <trkpt lat="46.52551" lon="0.35699">
        <ele>114.8</ele>
        <time>2024-09-22T08:21:08Z</time>
      </trkpt>
      <trkpt lat="46.52553" lon="0.35691">
        <ele>115.4</ele>
        <time>2024-09-22T08:21:09Z</time>
      </trkpt>
      <trkpt lat="46.52554" lon="0.35673">
        <ele>116.8</ele>
        <time>2024-09-22T08:21:12Z</time>
      </trkpt>
      <trkpt lat="46.52556" lon="0.35669">
        <ele>117.4</ele>
        <time>2024-09-22T08:21:13Z</time>
      </trkpt>
      <trkpt lat="46.5256" lon="0.35662">
        <ele>118</ele>
        <time>2024-09-22T08:21:15Z</time>
      </trkpt>
      <trkpt lat="46.52566" lon="0.35645">
        <ele>119</ele>
        <time>2024-09-22T08:21:20Z</time>
      </trkpt>
      <trkpt lat="46.52574" lon="0.35633">
        <ele>120.2</ele>
        <time>2024-09-22T08:21:23Z</time>
      </trkpt>
      <trkpt lat="46.52583" lon="0.3562">
        <ele>120.6</ele>
        <time>2024-09-22T08:21:27Z</time>
      </trkpt>
      <trkpt lat="46.52588" lon="0.3561">
        <ele>121.2</ele>
        <time>2024-09-22T08:21:30Z</time>
      </trkpt>
      <trkpt lat="46.52599" lon="0.35593">
        <ele>122.2</ele>
        <time>2024-09-22T08:21:35Z</time>
      </trkpt>
      <trkpt lat="46.52602" lon="0.35589">
        <ele>122.4</ele>
        <time>2024-09-22T08:21:36Z</time>
      </trkpt>
      <trkpt lat="46.52614" lon="0.35564">
        <ele>123</ele>
        <time>2024-09-22T08:21:42Z</time>
      </trkpt>
      <trkpt lat="46.52619" lon="0.35549">
        <ele>123.2</ele>
        <time>2024-09-22T08:21:45Z</time>
      </trkpt>
      <trkpt lat="46.52626" lon="0.3553">
        <ele>123.6</ele>
        <time>2024-09-22T08:21:49Z</time>
      </trkpt>
      <trkpt lat="46.52643" lon="0.35492">
        <ele>123.2</ele>
        <time>2024-09-22T08:21:56Z</time>
      </trkpt>
      <trkpt lat="46.52662" lon="0.35456">
        <ele>123.6</ele>
        <time>2024-09-22T08:22:03Z</time>
      </trkpt>
      <trkpt lat="46.52669" lon="0.35438">
        <ele>123.8</ele>
        <time>2024-09-22T08:22:08Z</time>
      </trkpt>
      <trkpt lat="46.52673" lon="0.35428">
        <ele>123.8</ele>
        <time>2024-09-22T08:22:12Z</time>
      </trkpt>
      <trkpt lat="46.52674" lon="0.35423">
        <ele>124</ele>
        <time>2024-09-22T08:22:13Z</time>
      </trkpt>
      <trkpt lat="46.52678" lon="0.35416">
        <ele>124.4</ele>
        <time>2024-09-22T08:22:15Z</time>
      </trkpt>
      <trkpt lat="46.52686" lon="0.35403">
        <ele>125</ele>
        <time>2024-09-22T08:22:18Z</time>
      </trkpt>
      <trkpt lat="46.52695" lon="0.35376">
        <ele>124.8</ele>
        <time>2024-09-22T08:22:24Z</time>
      </trkpt>
      <trkpt lat="46.52701" lon="0.35356">
        <ele>124.6</ele>
        <time>2024-09-22T08:22:30Z</time>
      </trkpt>
      <trkpt lat="46.52707" lon="0.35339">
        <ele>124.4</ele>
        <time>2024-09-22T08:22:34Z</time>
      </trkpt>
      <trkpt lat="46.52714" lon="0.35327">
        <ele>124.2</ele>
        <time>2024-09-22T08:22:37Z</time>
      </trkpt>
      <trkpt lat="46.52723" lon="0.35308">
        <ele>124.4</ele>
        <time>2024-09-22T08:22:41Z</time>
      </trkpt>
      <trkpt lat="46.52726" lon="0.35303">
        <ele>124.4</ele>
        <time>2024-09-22T08:22:42Z</time>
      </trkpt>
      <trkpt lat="46.52738" lon="0.35277">
        <ele>124.6</ele>
        <time>2024-09-22T08:22:47Z</time>
      </trkpt>
      <trkpt lat="46.52743" lon="0.35267">
        <ele>124.6</ele>
        <time>2024-09-22T08:22:49Z</time>
      </trkpt>
      <trkpt lat="46.52753" lon="0.35238">
        <ele>124.8</ele>
        <time>2024-09-22T08:22:54Z</time>
      </trkpt>
      <trkpt lat="46.52769" lon="0.35198">
        <ele>124.8</ele>
        <time>2024-09-22T08:23:00Z</time>
      </trkpt>
      <trkpt lat="46.52787" lon="0.35155">
        <ele>125.2</ele>
        <time>2024-09-22T08:23:06Z</time>
      </trkpt>
      <trkpt lat="46.52796" lon="0.351">
        <ele>125.6</ele>
        <time>2024-09-22T08:23:12Z</time>
      </trkpt>
      <trkpt lat="46.52801" lon="0.35077">
        <ele>126</ele>
        <time>2024-09-22T08:23:15Z</time>
      </trkpt>
      <trkpt lat="46.52818" lon="0.35023">
        <ele>126.2</ele>
        <time>2024-09-22T08:23:23Z</time>
      </trkpt>
      <trkpt lat="46.5282" lon="0.35017">
        <ele>126.4</ele>
        <time>2024-09-22T08:23:24Z</time>
      </trkpt>
      <trkpt lat="46.52839" lon="0.3497">
        <ele>126.4</ele>
        <time>2024-09-22T08:23:31Z</time>
      </trkpt>
      <trkpt lat="46.52865" lon="0.34912">
        <ele>125.2</ele>
        <time>2024-09-22T08:23:40Z</time>
      </trkpt>
      <trkpt lat="46.52875" lon="0.34887">
        <ele>124.2</ele>
        <time>2024-09-22T08:23:43Z</time>
      </trkpt>
      <trkpt lat="46.52878" lon="0.34878">
        <ele>124.2</ele>
        <time>2024-09-22T08:23:44Z</time>
      </trkpt>
      <trkpt lat="46.5288" lon="0.34869">
        <ele>123.6</ele>
        <time>2024-09-22T08:23:45Z</time>
      </trkpt>
      <trkpt lat="46.52881" lon="0.34861">
        <ele>123.2</ele>
        <time>2024-09-22T08:23:46Z</time>
      </trkpt>
      <trkpt lat="46.52882" lon="0.34852">
        <ele>123</ele>
        <time>2024-09-22T08:23:47Z</time>
      </trkpt>
      <trkpt lat="46.52884" lon="0.34843">
        <ele>122.2</ele>
        <time>2024-09-22T08:23:48Z</time>
      </trkpt>
      <trkpt lat="46.52889" lon="0.34824">
        <ele>121</ele>
        <time>2024-09-22T08:23:50Z</time>
      </trkpt>
      <trkpt lat="46.52891" lon="0.34806">
        <ele>119.4</ele>
        <time>2024-09-22T08:23:52Z</time>
      </trkpt>
      <trkpt lat="46.52893" lon="0.34797">
        <ele>118.6</ele>
        <time>2024-09-22T08:23:53Z</time>
      </trkpt>
      <trkpt lat="46.52894" lon="0.34787">
        <ele>117.8</ele>
        <time>2024-09-22T08:23:54Z</time>
      </trkpt>
      <trkpt lat="46.52897" lon="0.34778">
        <ele>117</ele>
        <time>2024-09-22T08:23:55Z</time>
      </trkpt>
      <trkpt lat="46.52899" lon="0.34769">
        <ele>116.2</ele>
        <time>2024-09-22T08:23:56Z</time>
      </trkpt>
      <trkpt lat="46.52905" lon="0.3475">
        <ele>115.2</ele>
        <time>2024-09-22T08:23:58Z</time>
      </trkpt>
      <trkpt lat="46.52907" lon="0.3474">
        <ele>114.4</ele>
        <time>2024-09-22T08:23:59Z</time>
      </trkpt>
      <trkpt lat="46.5291" lon="0.34723">
        <ele>112.4</ele>
        <time>2024-09-22T08:24:01Z</time>
      </trkpt>
      <trkpt lat="46.52912" lon="0.34715">
        <ele>111.2</ele>
        <time>2024-09-22T08:24:02Z</time>
      </trkpt>
      <trkpt lat="46.52914" lon="0.34709">
        <ele>110.4</ele>
        <time>2024-09-22T08:24:03Z</time>
      </trkpt>
      <trkpt lat="46.52915" lon="0.34703">
        <ele>109.6</ele>
        <time>2024-09-22T08:24:04Z</time>
      </trkpt>
      <trkpt lat="46.52917" lon="0.34696">
        <ele>108.6</ele>
        <time>2024-09-22T08:24:05Z</time>
      </trkpt>
      <trkpt lat="46.52921" lon="0.34681">
        <ele>107.6</ele>
        <time>2024-09-22T08:24:07Z</time>
      </trkpt>
      <trkpt lat="46.52924" lon="0.34673">
        <ele>106.8</ele>
        <time>2024-09-22T08:24:08Z</time>
      </trkpt>
      <trkpt lat="46.52925" lon="0.34666">
        <ele>106</ele>
        <time>2024-09-22T08:24:09Z</time>
      </trkpt>
      <trkpt lat="46.52929" lon="0.34653">
        <ele>104.6</ele>
        <time>2024-09-22T08:24:11Z</time>
      </trkpt>
      <trkpt lat="46.52932" lon="0.3464">
        <ele>104</ele>
        <time>2024-09-22T08:24:13Z</time>
      </trkpt>
      <trkpt lat="46.52935" lon="0.34624">
        <ele>103.2</ele>
        <time>2024-09-22T08:24:15Z</time>
      </trkpt>
      <trkpt lat="46.52941" lon="0.34599">
        <ele>102</ele>
        <time>2024-09-22T08:24:18Z</time>
      </trkpt>
      <trkpt lat="46.52945" lon="0.34582">
        <ele>101.2</ele>
        <time>2024-09-22T08:24:20Z</time>
      </trkpt>
      <trkpt lat="46.52948" lon="0.34574">
        <ele>101</ele>
        <time>2024-09-22T08:24:21Z</time>
      </trkpt>
      <trkpt lat="46.52956" lon="0.34547">
        <ele>99.6</ele>
        <time>2024-09-22T08:24:24Z</time>
      </trkpt>
      <trkpt lat="46.52966" lon="0.34519">
        <ele>98.6</ele>
        <time>2024-09-22T08:24:27Z</time>
      </trkpt>
      <trkpt lat="46.52978" lon="0.3448">
        <ele>97.4</ele>
        <time>2024-09-22T08:24:31Z</time>
      </trkpt>
      <trkpt lat="46.52991" lon="0.3444">
        <ele>96.2</ele>
        <time>2024-09-22T08:24:35Z</time>
      </trkpt>
      <trkpt lat="46.52991" lon="0.3444">
        <ele>96</ele>
        <time>2024-09-22T08:24:36Z</time>
      </trkpt>
      <trkpt lat="46.52996" lon="0.3442">
        <ele>95.8</ele>
        <time>2024-09-22T08:24:37Z</time>
      </trkpt>
      <trkpt lat="46.52998" lon="0.34401">
        <ele>95</ele>
        <time>2024-09-22T08:24:39Z</time>
      </trkpt>
      <trkpt lat="46.52998" lon="0.34391">
        <ele>94.6</ele>
        <time>2024-09-22T08:24:40Z</time>
      </trkpt>
      <trkpt lat="46.52997" lon="0.34381">
        <ele>94.6</ele>
        <time>2024-09-22T08:24:41Z</time>
      </trkpt>
      <trkpt lat="46.52993" lon="0.34354">
        <ele>93.8</ele>
        <time>2024-09-22T08:24:44Z</time>
      </trkpt>
      <trkpt lat="46.52992" lon="0.34347">
        <ele>93.4</ele>
        <time>2024-09-22T08:24:45Z</time>
      </trkpt>
      <trkpt lat="46.52992" lon="0.34336">
        <ele>92.8</ele>
        <time>2024-09-22T08:24:47Z</time>
      </trkpt>
      <trkpt lat="46.52993" lon="0.34332">
        <ele>92.6</ele>
        <time>2024-09-22T08:24:48Z</time>
      </trkpt>
      <trkpt lat="46.52995" lon="0.3433">
        <ele>92.6</ele>
        <time>2024-09-22T08:24:49Z</time>
      </trkpt>
      <trkpt lat="46.53002" lon="0.3433">
        <ele>92.4</ele>
        <time>2024-09-22T08:24:51Z</time>
      </trkpt>
      <trkpt lat="46.53031" lon="0.34333">
        <ele>93.6</ele>
        <time>2024-09-22T08:24:57Z</time>
      </trkpt>
      <trkpt lat="46.53035" lon="0.34334">
        <ele>93.8</ele>
        <time>2024-09-22T08:24:58Z</time>
      </trkpt>
      <trkpt lat="46.53063" lon="0.34344">
        <ele>94.2</ele>
        <time>2024-09-22T08:25:04Z</time>
      </trkpt>
      <trkpt lat="46.53084" lon="0.34341">
        <ele>94.4</ele>
        <time>2024-09-22T08:25:09Z</time>
      </trkpt>
      <trkpt lat="46.53117" lon="0.34332">
        <ele>94.4</ele>
        <time>2024-09-22T08:25:17Z</time>
      </trkpt>
      <trkpt lat="46.53121" lon="0.34331">
        <ele>94.4</ele>
        <time>2024-09-22T08:25:18Z</time>
      </trkpt>
      <trkpt lat="46.53126" lon="0.34331">
        <ele>94.2</ele>
        <time>2024-09-22T08:25:19Z</time>
      </trkpt>
      <trkpt lat="46.53143" lon="0.34337">
        <ele>94.2</ele>
        <time>2024-09-22T08:25:23Z</time>
      </trkpt>
      <trkpt lat="46.53171" lon="0.34354">
        <ele>93.8</ele>
        <time>2024-09-22T08:25:30Z</time>
      </trkpt>
      <trkpt lat="46.53182" lon="0.34361">
        <ele>93.8</ele>
        <time>2024-09-22T08:25:34Z</time>
      </trkpt>
      <trkpt lat="46.53197" lon="0.34369">
        <ele>93.8</ele>
        <time>2024-09-22T08:25:39Z</time>
      </trkpt>
      <trkpt lat="46.53206" lon="0.34372">
        <ele>93.6</ele>
        <time>2024-09-22T08:25:41Z</time>
      </trkpt>
      <trkpt lat="46.5322" lon="0.34377">
        <ele>93.4</ele>
        <time>2024-09-22T08:25:44Z</time>
      </trkpt>
      <trkpt lat="46.5325" lon="0.34385">
        <ele>93</ele>
        <time>2024-09-22T08:25:50Z</time>
      </trkpt>
      <trkpt lat="46.53262" lon="0.34385">
        <ele>92.8</ele>
        <time>2024-09-22T08:25:52Z</time>
      </trkpt>
      <trkpt lat="46.53278" lon="0.34383">
        <ele>91.4</ele>
        <time>2024-09-22T08:25:55Z</time>
      </trkpt>
      <trkpt lat="46.53283" lon="0.34382">
        <ele>91.2</ele>
        <time>2024-09-22T08:25:56Z</time>
      </trkpt>
      <trkpt lat="46.53313" lon="0.34376">
        <ele>90.6</ele>
        <time>2024-09-22T08:26:02Z</time>
      </trkpt>
      <trkpt lat="46.53328" lon="0.34372">
        <ele>90.2</ele>
        <time>2024-09-22T08:26:05Z</time>
      </trkpt>
      <trkpt lat="46.53337" lon="0.34367">
        <ele>90.2</ele>
        <time>2024-09-22T08:26:07Z</time>
      </trkpt>
      <trkpt lat="46.53345" lon="0.34359">
        <ele>89.8</ele>
        <time>2024-09-22T08:26:09Z</time>
      </trkpt>
      <trkpt lat="46.53356" lon="0.34344">
        <ele>89.6</ele>
        <time>2024-09-22T08:26:12Z</time>
      </trkpt>
      <trkpt lat="46.53364" lon="0.34335">
        <ele>89.4</ele>
        <time>2024-09-22T08:26:14Z</time>
      </trkpt>
      <trkpt lat="46.53371" lon="0.34334">
        <ele>89.4</ele>
        <time>2024-09-22T08:26:16Z</time>
      </trkpt>
      <trkpt lat="46.53387" lon="0.34339">
        <ele>89.6</ele>
        <time>2024-09-22T08:26:23Z</time>
      </trkpt>
      <trkpt lat="46.53406" lon="0.34343">
        <ele>89.8</ele>
        <time>2024-09-22T08:26:28Z</time>
      </trkpt>
      <trkpt lat="46.53437" lon="0.34345">
        <ele>90.2</ele>
        <time>2024-09-22T08:26:35Z</time>
      </trkpt>
      <trkpt lat="46.53473" lon="0.34351">
        <ele>89.8</ele>
        <time>2024-09-22T08:26:43Z</time>
      </trkpt>
      <trkpt lat="46.53501" lon="0.34361">
        <ele>89.2</ele>
        <time>2024-09-22T08:26:49Z</time>
      </trkpt>
      <trkpt lat="46.53506" lon="0.34362">
        <ele>89</ele>
        <time>2024-09-22T08:26:50Z</time>
      </trkpt>
      <trkpt lat="46.53533" lon="0.34375">
        <ele>88</ele>
        <time>2024-09-22T08:26:55Z</time>
      </trkpt>
      <trkpt lat="46.53549" lon="0.34387">
        <ele>87.4</ele>
        <time>2024-09-22T08:26:58Z</time>
      </trkpt>
      <trkpt lat="46.53578" lon="0.34409">
        <ele>87.4</ele>
        <time>2024-09-22T08:27:04Z</time>
      </trkpt>
      <trkpt lat="46.53583" lon="0.34411">
        <ele>87.2</ele>
        <time>2024-09-22T08:27:05Z</time>
      </trkpt>
      <trkpt lat="46.53599" lon="0.34413">
        <ele>87</ele>
        <time>2024-09-22T08:27:08Z</time>
      </trkpt>
      <trkpt lat="46.53605" lon="0.34412">
        <ele>87</ele>
        <time>2024-09-22T08:27:09Z</time>
      </trkpt>
      <trkpt lat="46.53624" lon="0.34412">
        <ele>87.2</ele>
        <time>2024-09-22T08:27:13Z</time>
      </trkpt>
      <trkpt lat="46.53634" lon="0.34414">
        <ele>87.4</ele>
        <time>2024-09-22T08:27:15Z</time>
      </trkpt>
      <trkpt lat="46.53669" lon="0.34425">
        <ele>87.6</ele>
        <time>2024-09-22T08:27:22Z</time>
      </trkpt>
      <trkpt lat="46.53677" lon="0.34429">
        <ele>87.8</ele>
        <time>2024-09-22T08:27:24Z</time>
      </trkpt>
      <trkpt lat="46.53691" lon="0.34436">
        <ele>88</ele>
        <time>2024-09-22T08:27:27Z</time>
      </trkpt>
      <trkpt lat="46.53696" lon="0.34439">
        <ele>88.2</ele>
        <time>2024-09-22T08:27:28Z</time>
      </trkpt>
      <trkpt lat="46.5372" lon="0.34452">
        <ele>88.6</ele>
        <time>2024-09-22T08:27:33Z</time>
      </trkpt>
      <trkpt lat="46.53743" lon="0.34464">
        <ele>88.8</ele>
        <time>2024-09-22T08:27:39Z</time>
      </trkpt>
      <trkpt lat="46.53747" lon="0.34465">
        <ele>89</ele>
        <time>2024-09-22T08:27:40Z</time>
      </trkpt>
      <trkpt lat="46.53755" lon="0.34468">
        <ele>89.2</ele>
        <time>2024-09-22T08:27:42Z</time>
      </trkpt>
      <trkpt lat="46.53772" lon="0.34474">
        <ele>89.2</ele>
        <time>2024-09-22T08:27:46Z</time>
      </trkpt>
      <trkpt lat="46.53785" lon="0.34479">
        <ele>89.6</ele>
        <time>2024-09-22T08:27:49Z</time>
      </trkpt>
      <trkpt lat="46.53799" lon="0.34483">
        <ele>89.8</ele>
        <time>2024-09-22T08:27:52Z</time>
      </trkpt>
      <trkpt lat="46.53833" lon="0.34496">
        <ele>89.8</ele>
        <time>2024-09-22T08:27:59Z</time>
      </trkpt>
      <trkpt lat="46.53848" lon="0.34501">
        <ele>90.2</ele>
        <time>2024-09-22T08:28:02Z</time>
      </trkpt>
      <trkpt lat="46.53858" lon="0.345">
        <ele>90.4</ele>
        <time>2024-09-22T08:28:04Z</time>
      </trkpt>
      <trkpt lat="46.53892" lon="0.34498">
        <ele>89.2</ele>
        <time>2024-09-22T08:28:10Z</time>
      </trkpt>
      <trkpt lat="46.53914" lon="0.34489">
        <ele>88.8</ele>
        <time>2024-09-22T08:28:14Z</time>
      </trkpt>
      <trkpt lat="46.53918" lon="0.34485">
        <ele>89</ele>
        <time>2024-09-22T08:28:15Z</time>
      </trkpt>
      <trkpt lat="46.53922" lon="0.3448">
        <ele>89.2</ele>
        <time>2024-09-22T08:28:16Z</time>
      </trkpt>
      <trkpt lat="46.53928" lon="0.34469">
        <ele>89.2</ele>
        <time>2024-09-22T08:28:18Z</time>
      </trkpt>
      <trkpt lat="46.53931" lon="0.34464">
        <ele>89.4</ele>
        <time>2024-09-22T08:28:19Z</time>
      </trkpt>
      <trkpt lat="46.53934" lon="0.34453">
        <ele>89.6</ele>
        <time>2024-09-22T08:28:21Z</time>
      </trkpt>
      <trkpt lat="46.53937" lon="0.34439">
        <ele>90.4</ele>
        <time>2024-09-22T08:28:24Z</time>
      </trkpt>
      <trkpt lat="46.53941" lon="0.3443">
        <ele>91.8</ele>
        <time>2024-09-22T08:28:27Z</time>
      </trkpt>
      <trkpt lat="46.53944" lon="0.34425">
        <ele>92.2</ele>
        <time>2024-09-22T08:28:29Z</time>
      </trkpt>
      <trkpt lat="46.53948" lon="0.34422">
        <ele>92.8</ele>
        <time>2024-09-22T08:28:32Z</time>
      </trkpt>
      <trkpt lat="46.53952" lon="0.3442">
        <ele>94.2</ele>
        <time>2024-09-22T08:28:35Z</time>
      </trkpt>
      <trkpt lat="46.53955" lon="0.34419">
        <ele>94.4</ele>
        <time>2024-09-22T08:28:36Z</time>
      </trkpt>
      <trkpt lat="46.53959" lon="0.34416">
        <ele>95.2</ele>
        <time>2024-09-22T08:28:39Z</time>
      </trkpt>
      <trkpt lat="46.53969" lon="0.34412">
        <ele>96.2</ele>
        <time>2024-09-22T08:28:44Z</time>
      </trkpt>
      <trkpt lat="46.5398" lon="0.34407">
        <ele>97.4</ele>
        <time>2024-09-22T08:28:49Z</time>
      </trkpt>
      <trkpt lat="46.53982" lon="0.34403">
        <ele>97.8</ele>
        <time>2024-09-22T08:28:51Z</time>
      </trkpt>
      <trkpt lat="46.53992" lon="0.34399">
        <ele>98.8</ele>
        <time>2024-09-22T08:28:56Z</time>
      </trkpt>
      <trkpt lat="46.53997" lon="0.34398">
        <ele>99.6</ele>
        <time>2024-09-22T08:28:59Z</time>
      </trkpt>
      <trkpt lat="46.54" lon="0.34398">
        <ele>100</ele>
        <time>2024-09-22T08:29:00Z</time>
      </trkpt>
      <trkpt lat="46.54012" lon="0.344">
        <ele>101</ele>
        <time>2024-09-22T08:29:05Z</time>
      </trkpt>
      <trkpt lat="46.54015" lon="0.344">
        <ele>101</ele>
        <time>2024-09-22T08:29:06Z</time>
      </trkpt>
      <trkpt lat="46.54026" lon="0.34398">
        <ele>101.4</ele>
        <time>2024-09-22T08:29:11Z</time>
      </trkpt>
      <trkpt lat="46.54036" lon="0.34388">
        <ele>101.2</ele>
        <time>2024-09-22T08:29:16Z</time>
      </trkpt>
      <trkpt lat="46.54039" lon="0.34384">
        <ele>101</ele>
        <time>2024-09-22T08:29:18Z</time>
      </trkpt>
      <trkpt lat="46.54044" lon="0.34374">
        <ele>100.2</ele>
        <time>2024-09-22T08:29:22Z</time>
      </trkpt>
      <trkpt lat="46.54052" lon="0.34365">
        <ele>101</ele>
        <time>2024-09-22T08:29:27Z</time>
      </trkpt>
      <trkpt lat="46.54058" lon="0.34361">
        <ele>102</ele>
        <time>2024-09-22T08:29:30Z</time>
      </trkpt>
      <trkpt lat="46.54059" lon="0.34355">
        <ele>102.6</ele>
        <time>2024-09-22T08:29:32Z</time>
      </trkpt>
      <trkpt lat="46.54061" lon="0.3435">
        <ele>103.2</ele>
        <time>2024-09-22T08:29:34Z</time>
      </trkpt>
      <trkpt lat="46.54063" lon="0.34338">
        <ele>104.4</ele>
        <time>2024-09-22T08:29:39Z</time>
      </trkpt>
      <trkpt lat="46.54066" lon="0.34336">
        <ele>104.8</ele>
        <time>2024-09-22T08:29:41Z</time>
      </trkpt>
      <trkpt lat="46.54068" lon="0.34332">
        <ele>105.6</ele>
        <time>2024-09-22T08:29:43Z</time>
      </trkpt>
      <trkpt lat="46.54073" lon="0.34325">
        <ele>107</ele>
        <time>2024-09-22T08:29:48Z</time>
      </trkpt>
      <trkpt lat="46.54078" lon="0.34318">
        <ele>108</ele>
        <time>2024-09-22T08:29:52Z</time>
      </trkpt>
      <trkpt lat="46.54082" lon="0.34313">
        <ele>109.2</ele>
        <time>2024-09-22T08:29:56Z</time>
      </trkpt>
      <trkpt lat="46.54087" lon="0.34306">
        <ele>110.4</ele>
        <time>2024-09-22T08:30:01Z</time>
      </trkpt>
      <trkpt lat="46.54088" lon="0.34301">
        <ele>110.8</ele>
        <time>2024-09-22T08:30:03Z</time>
      </trkpt>
      <trkpt lat="46.54091" lon="0.34296">
        <ele>111</ele>
        <time>2024-09-22T08:30:05Z</time>
      </trkpt>
      <trkpt lat="46.54096" lon="0.34287">
        <ele>111.6</ele>
        <time>2024-09-22T08:30:10Z</time>
      </trkpt>
      <trkpt lat="46.54098" lon="0.34282">
        <ele>112.4</ele>
        <time>2024-09-22T08:30:14Z</time>
      </trkpt>
      <trkpt lat="46.541" lon="0.34279">
        <ele>112.8</ele>
        <time>2024-09-22T08:30:16Z</time>
      </trkpt>
      <trkpt lat="46.54108" lon="0.34267">
        <ele>113.6</ele>
        <time>2024-09-22T08:30:23Z</time>
      </trkpt>
      <trkpt lat="46.5411" lon="0.34264">
        <ele>114</ele>
        <time>2024-09-22T08:30:25Z</time>
      </trkpt>
      <trkpt lat="46.54119" lon="0.34247">
        <ele>114.8</ele>
        <time>2024-09-22T08:30:34Z</time>
      </trkpt>
      <trkpt lat="46.54129" lon="0.34228">
        <ele>113.4</ele>
        <time>2024-09-22T08:30:40Z</time>
      </trkpt>
      <trkpt lat="46.54135" lon="0.34205">
        <ele>113.4</ele>
        <time>2024-09-22T08:30:47Z</time>
      </trkpt>
      <trkpt lat="46.54145" lon="0.34184">
        <ele>114</ele>
        <time>2024-09-22T08:30:54Z</time>
      </trkpt>
      <trkpt lat="46.54148" lon="0.34176">
        <ele>115.2</ele>
        <time>2024-09-22T08:30:57Z</time>
      </trkpt>
      <trkpt lat="46.5415" lon="0.34162">
        <ele>116.4</ele>
        <time>2024-09-22T08:31:00Z</time>
      </trkpt>
      <trkpt lat="46.54151" lon="0.34158">
        <ele>116.6</ele>
        <time>2024-09-22T08:31:01Z</time>
      </trkpt>
      <trkpt lat="46.54159" lon="0.34137">
        <ele>116.6</ele>
        <time>2024-09-22T08:31:07Z</time>
      </trkpt>
      <trkpt lat="46.5417" lon="0.3412">
        <ele>116.2</ele>
        <time>2024-09-22T08:31:14Z</time>
      </trkpt>
      <trkpt lat="46.54178" lon="0.34105">
        <ele>115.4</ele>
        <time>2024-09-22T08:31:19Z</time>
      </trkpt>
      <trkpt lat="46.54186" lon="0.34084">
        <ele>115.2</ele>
        <time>2024-09-22T08:31:24Z</time>
      </trkpt>
      <trkpt lat="46.54188" lon="0.34082">
        <ele>115.2</ele>
        <time>2024-09-22T08:31:25Z</time>
      </trkpt>
      <trkpt lat="46.5419" lon="0.34077">
        <ele>115.6</ele>
        <time>2024-09-22T08:31:27Z</time>
      </trkpt>
      <trkpt lat="46.5419" lon="0.34062">
        <ele>115.6</ele>
        <time>2024-09-22T08:31:30Z</time>
      </trkpt>
      <trkpt lat="46.54186" lon="0.34037">
        <ele>115.2</ele>
        <time>2024-09-22T08:31:35Z</time>
      </trkpt>
      <trkpt lat="46.54186" lon="0.34033">
        <ele>115.2</ele>
        <time>2024-09-22T08:31:36Z</time>
      </trkpt>
      <trkpt lat="46.54189" lon="0.34018">
        <ele>115</ele>
        <time>2024-09-22T08:31:39Z</time>
      </trkpt>
      <trkpt lat="46.54196" lon="0.33989">
        <ele>116</ele>
        <time>2024-09-22T08:31:44Z</time>
      </trkpt>
      <trkpt lat="46.542" lon="0.3396">
        <ele>116.2</ele>
        <time>2024-09-22T08:31:48Z</time>
      </trkpt>
      <trkpt lat="46.542" lon="0.33946">
        <ele>116</ele>
        <time>2024-09-22T08:31:50Z</time>
      </trkpt>
      <trkpt lat="46.54198" lon="0.33926">
        <ele>115.6</ele>
        <time>2024-09-22T08:31:53Z</time>
      </trkpt>
      <trkpt lat="46.54195" lon="0.33891">
        <ele>114.2</ele>
        <time>2024-09-22T08:31:58Z</time>
      </trkpt>
      <trkpt lat="46.54193" lon="0.33876">
        <ele>113.4</ele>
        <time>2024-09-22T08:32:00Z</time>
      </trkpt>
      <trkpt lat="46.54191" lon="0.33869">
        <ele>113</ele>
        <time>2024-09-22T08:32:01Z</time>
      </trkpt>
      <trkpt lat="46.54183" lon="0.33825">
        <ele>111.6</ele>
        <time>2024-09-22T08:32:06Z</time>
      </trkpt>
      <trkpt lat="46.5418" lon="0.33805">
        <ele>110.6</ele>
        <time>2024-09-22T08:32:08Z</time>
      </trkpt>
      <trkpt lat="46.54175" lon="0.33771">
        <ele>109.4</ele>
        <time>2024-09-22T08:32:11Z</time>
      </trkpt>
      <trkpt lat="46.54172" lon="0.33759">
        <ele>109.4</ele>
        <time>2024-09-22T08:32:12Z</time>
      </trkpt>
      <trkpt lat="46.54165" lon="0.33726">
        <ele>108</ele>
        <time>2024-09-22T08:32:15Z</time>
      </trkpt>
      <trkpt lat="46.54157" lon="0.33696">
        <ele>106.8</ele>
        <time>2024-09-22T08:32:18Z</time>
      </trkpt>
      <trkpt lat="46.54151" lon="0.33675">
        <ele>105.6</ele>
        <time>2024-09-22T08:32:20Z</time>
      </trkpt>
      <trkpt lat="46.54145" lon="0.33654">
        <ele>104.4</ele>
        <time>2024-09-22T08:32:22Z</time>
      </trkpt>
      <trkpt lat="46.54135" lon="0.3362">
        <ele>103.2</ele>
        <time>2024-09-22T08:32:25Z</time>
      </trkpt>
      <trkpt lat="46.54124" lon="0.33585">
        <ele>101.6</ele>
        <time>2024-09-22T08:32:28Z</time>
      </trkpt>
      <trkpt lat="46.54112" lon="0.33549">
        <ele>100.4</ele>
        <time>2024-09-22T08:32:31Z</time>
      </trkpt>
      <trkpt lat="46.54105" lon="0.33525">
        <ele>98.8</ele>
        <time>2024-09-22T08:32:33Z</time>
      </trkpt>
      <trkpt lat="46.54097" lon="0.33503">
        <ele>97.6</ele>
        <time>2024-09-22T08:32:36Z</time>
      </trkpt>
      <trkpt lat="46.54087" lon="0.33483">
        <ele>97.4</ele>
        <time>2024-09-22T08:32:37Z</time>
      </trkpt>
      <trkpt lat="46.54076" lon="0.33464">
        <ele>96</ele>
        <time>2024-09-22T08:32:39Z</time>
      </trkpt>
      <trkpt lat="46.54064" lon="0.33444">
        <ele>94.4</ele>
        <time>2024-09-22T08:32:41Z</time>
      </trkpt>
      <trkpt lat="46.54055" lon="0.33423">
        <ele>92.6</ele>
        <time>2024-09-22T08:32:43Z</time>
      </trkpt>
      <trkpt lat="46.54051" lon="0.33412">
        <ele>92</ele>
        <time>2024-09-22T08:32:44Z</time>
      </trkpt>
      <trkpt lat="46.54048" lon="0.33401">
        <ele>91.4</ele>
        <time>2024-09-22T08:32:45Z</time>
      </trkpt>
      <trkpt lat="46.54042" lon="0.33365">
        <ele>90.4</ele>
        <time>2024-09-22T08:32:48Z</time>
      </trkpt>
      <trkpt lat="46.54042" lon="0.33353">
        <ele>90.2</ele>
        <time>2024-09-22T08:32:49Z</time>
      </trkpt>
      <trkpt lat="46.5404" lon="0.33311">
        <ele>89.6</ele>
        <time>2024-09-22T08:32:53Z</time>
      </trkpt>
      <trkpt lat="46.54033" lon="0.33268">
        <ele>89.8</ele>
        <time>2024-09-22T08:32:58Z</time>
      </trkpt>
      <trkpt lat="46.54029" lon="0.33252">
        <ele>89.4</ele>
        <time>2024-09-22T08:33:00Z</time>
      </trkpt>
      <trkpt lat="46.54028" lon="0.33243">
        <ele>89</ele>
        <time>2024-09-22T08:33:01Z</time>
      </trkpt>
      <trkpt lat="46.54028" lon="0.33233">
        <ele>88.6</ele>
        <time>2024-09-22T08:33:02Z</time>
      </trkpt>
      <trkpt lat="46.54026" lon="0.33203">
        <ele>88</ele>
        <time>2024-09-22T08:33:05Z</time>
      </trkpt>
      <trkpt lat="46.54026" lon="0.33172">
        <ele>86.8</ele>
        <time>2024-09-22T08:33:08Z</time>
      </trkpt>
      <trkpt lat="46.54026" lon="0.33161">
        <ele>86.2</ele>
        <time>2024-09-22T08:33:09Z</time>
      </trkpt>
      <trkpt lat="46.54027" lon="0.33151">
        <ele>85</ele>
        <time>2024-09-22T08:33:10Z</time>
      </trkpt>
      <trkpt lat="46.5403" lon="0.33132">
        <ele>84</ele>
        <time>2024-09-22T08:33:12Z</time>
      </trkpt>
      <trkpt lat="46.54032" lon="0.33124">
        <ele>83.6</ele>
        <time>2024-09-22T08:33:13Z</time>
      </trkpt>
      <trkpt lat="46.54036" lon="0.3311">
        <ele>82.6</ele>
        <time>2024-09-22T08:33:15Z</time>
      </trkpt>
      <trkpt lat="46.54038" lon="0.33105">
        <ele>82</ele>
        <time>2024-09-22T08:33:16Z</time>
      </trkpt>
      <trkpt lat="46.54039" lon="0.33099">
        <ele>81.6</ele>
        <time>2024-09-22T08:33:17Z</time>
      </trkpt>
      <trkpt lat="46.54039" lon="0.33094">
        <ele>81.4</ele>
        <time>2024-09-22T08:33:18Z</time>
      </trkpt>
      <trkpt lat="46.54037" lon="0.33083">
        <ele>80.8</ele>
        <time>2024-09-22T08:33:20Z</time>
      </trkpt>
      <trkpt lat="46.54035" lon="0.33077">
        <ele>80.6</ele>
        <time>2024-09-22T08:33:21Z</time>
      </trkpt>
      <trkpt lat="46.54032" lon="0.33071">
        <ele>80.2</ele>
        <time>2024-09-22T08:33:22Z</time>
      </trkpt>
      <trkpt lat="46.5402" lon="0.33055">
        <ele>79</ele>
        <time>2024-09-22T08:33:25Z</time>
      </trkpt>
      <trkpt lat="46.54011" lon="0.33045">
        <ele>78</ele>
        <time>2024-09-22T08:33:27Z</time>
      </trkpt>
      <trkpt lat="46.54008" lon="0.33041">
        <ele>77.6</ele>
        <time>2024-09-22T08:33:28Z</time>
      </trkpt>
      <trkpt lat="46.53999" lon="0.33039">
        <ele>76.8</ele>
        <time>2024-09-22T08:33:30Z</time>
      </trkpt>
      <trkpt lat="46.53993" lon="0.33041">
        <ele>76.4</ele>
        <time>2024-09-22T08:33:32Z</time>
      </trkpt>
      <trkpt lat="46.53984" lon="0.33046">
        <ele>75.8</ele>
        <time>2024-09-22T08:33:35Z</time>
      </trkpt>
      <trkpt lat="46.5398" lon="0.33047">
        <ele>75.6</ele>
        <time>2024-09-22T08:33:36Z</time>
      </trkpt>
      <trkpt lat="46.53976" lon="0.33049">
        <ele>75.6</ele>
        <time>2024-09-22T08:33:37Z</time>
      </trkpt>
      <trkpt lat="46.53969" lon="0.33048">
        <ele>75.6</ele>
        <time>2024-09-22T08:33:39Z</time>
      </trkpt>
      <trkpt lat="46.53964" lon="0.33048">
        <ele>75.8</ele>
        <time>2024-09-22T08:33:40Z</time>
      </trkpt>
      <trkpt lat="46.5396" lon="0.33048">
        <ele>75.8</ele>
        <time>2024-09-22T08:33:41Z</time>
      </trkpt>
      <trkpt lat="46.53954" lon="0.33054">
        <ele>76</ele>
        <time>2024-09-22T08:33:43Z</time>
      </trkpt>
      <trkpt lat="46.53948" lon="0.3306">
        <ele>76</ele>
        <time>2024-09-22T08:33:45Z</time>
      </trkpt>
      <trkpt lat="46.53947" lon="0.33068">
        <ele>76</ele>
        <time>2024-09-22T08:33:47Z</time>
      </trkpt>
      <trkpt lat="46.53946" lon="0.33076">
        <ele>76</ele>
        <time>2024-09-22T08:33:49Z</time>
      </trkpt>
      <trkpt lat="46.53947" lon="0.33093">
        <ele>76.2</ele>
        <time>2024-09-22T08:33:53Z</time>
      </trkpt>
      <trkpt lat="46.53946" lon="0.33099">
        <ele>76.4</ele>
        <time>2024-09-22T08:33:54Z</time>
      </trkpt>
      <trkpt lat="46.53948" lon="0.33131">
        <ele>76.4</ele>
        <time>2024-09-22T08:33:59Z</time>
      </trkpt>
      <trkpt lat="46.53946" lon="0.33156">
        <ele>76.2</ele>
        <time>2024-09-22T08:34:04Z</time>
      </trkpt>
      <trkpt lat="46.53945" lon="0.33158">
        <ele>76.2</ele>
        <time>2024-09-22T08:34:06Z</time>
      </trkpt>
      <trkpt lat="46.53943" lon="0.33162">
        <ele>76.2</ele>
        <time>2024-09-22T08:34:09Z</time>
      </trkpt>
      <trkpt lat="46.53938" lon="0.33175">
        <ele>75.8</ele>
        <time>2024-09-22T08:34:20Z</time>
      </trkpt>
      <trkpt lat="46.53936" lon="0.33178">
        <ele>76</ele>
        <time>2024-09-22T08:34:36Z</time>
      </trkpt>
      <trkpt lat="46.53931" lon="0.33181">
        <ele>75.8</ele>
        <time>2024-09-22T08:34:50Z</time>
      </trkpt>
      <trkpt lat="46.5393" lon="0.33182">
        <ele>75.8</ele>
        <time>2024-09-22T08:35:01Z</time>
      </trkpt>
      <trkpt lat="46.53928" lon="0.33184">
        <ele>75.4</ele>
        <time>2024-09-22T08:35:17Z</time>
      </trkpt>
      <trkpt lat="46.53927" lon="0.33184">
        <ele>75</ele>
        <time>2024-09-22T08:35:30Z</time>
      </trkpt>
      <trkpt lat="46.53926" lon="0.33185">
        <ele>74.6</ele>
        <time>2024-09-22T08:35:47Z</time>
      </trkpt>
      <trkpt lat="46.53916" lon="0.33186">
        <ele>75</ele>
        <time>2024-09-22T08:36:00Z</time>
      </trkpt>
      <trkpt lat="46.53911" lon="0.33187">
        <ele>75</ele>
        <time>2024-09-22T08:36:08Z</time>
      </trkpt>
      <trkpt lat="46.53896" lon="0.33187">
        <ele>75</ele>
        <time>2024-09-22T08:36:25Z</time>
      </trkpt>
      <trkpt lat="46.53895" lon="0.33186">
        <ele>74.8</ele>
        <time>2024-09-22T08:36:36Z</time>
      </trkpt>
      <trkpt lat="46.53892" lon="0.33187">
        <ele>74.8</ele>
        <time>2024-09-22T08:36:53Z</time>
      </trkpt>
      <trkpt lat="46.53888" lon="0.33186">
        <ele>75</ele>
        <time>2024-09-22T08:37:10Z</time>
      </trkpt>
      <trkpt lat="46.53883" lon="0.33186">
        <ele>75</ele>
        <time>2024-09-22T08:37:26Z</time>
      </trkpt>
      <trkpt lat="46.53881" lon="0.33181">
        <ele>75</ele>
        <time>2024-09-22T08:37:38Z</time>
      </trkpt>
      <trkpt lat="46.53875" lon="0.33161">
        <ele>75.6</ele>
        <time>2024-09-22T08:37:49Z</time>
      </trkpt>
      <trkpt lat="46.53874" lon="0.33159">
        <ele>75.8</ele>
        <time>2024-09-22T08:37:50Z</time>
      </trkpt>
      <trkpt lat="46.53871" lon="0.33155">
        <ele>76.4</ele>
        <time>2024-09-22T08:37:53Z</time>
      </trkpt>
      <trkpt lat="46.53869" lon="0.33155">
        <ele>76.8</ele>
        <time>2024-09-22T08:37:55Z</time>
      </trkpt>
      <trkpt lat="46.53868" lon="0.33155">
        <ele>77</ele>
        <time>2024-09-22T08:37:56Z</time>
      </trkpt>
      <trkpt lat="46.53862" lon="0.33163">
        <ele>77.8</ele>
        <time>2024-09-22T08:38:02Z</time>
      </trkpt>
      <trkpt lat="46.5386" lon="0.33168">
        <ele>78.6</ele>
        <time>2024-09-22T08:38:05Z</time>
      </trkpt>
      <trkpt lat="46.53858" lon="0.33174">
        <ele>78.8</ele>
        <time>2024-09-22T08:38:08Z</time>
      </trkpt>
      <trkpt lat="46.53856" lon="0.33182">
        <ele>79.6</ele>
        <time>2024-09-22T08:38:12Z</time>
      </trkpt>
      <trkpt lat="46.53855" lon="0.33184">
        <ele>79.8</ele>
        <time>2024-09-22T08:38:13Z</time>
      </trkpt>
      <trkpt lat="46.53849" lon="0.33199">
        <ele>81</ele>
        <time>2024-09-22T08:38:20Z</time>
      </trkpt>
      <trkpt lat="46.53847" lon="0.33203">
        <ele>81.2</ele>
        <time>2024-09-22T08:38:21Z</time>
      </trkpt>
      <trkpt lat="46.53838" lon="0.3322">
        <ele>82.2</ele>
        <time>2024-09-22T08:38:28Z</time>
      </trkpt>
      <trkpt lat="46.53837" lon="0.33224">
        <ele>82.2</ele>
        <time>2024-09-22T08:38:29Z</time>
      </trkpt>
      <trkpt lat="46.53833" lon="0.33241">
        <ele>83.4</ele>
        <time>2024-09-22T08:38:33Z</time>
      </trkpt>
      <trkpt lat="46.53829" lon="0.33255">
        <ele>84.2</ele>
        <time>2024-09-22T08:38:37Z</time>
      </trkpt>
      <trkpt lat="46.53824" lon="0.33264">
        <ele>84.4</ele>
        <time>2024-09-22T08:38:40Z</time>
      </trkpt>
      <trkpt lat="46.53819" lon="0.33283">
        <ele>84.8</ele>
        <time>2024-09-22T08:38:45Z</time>
      </trkpt>
      <trkpt lat="46.53816" lon="0.33296">
        <ele>85.4</ele>
        <time>2024-09-22T08:38:48Z</time>
      </trkpt>
      <trkpt lat="46.5381" lon="0.33317">
        <ele>86.2</ele>
        <time>2024-09-22T08:38:53Z</time>
      </trkpt>
      <trkpt lat="46.5381" lon="0.33335">
        <ele>86.6</ele>
        <time>2024-09-22T08:38:58Z</time>
      </trkpt>
      <trkpt lat="46.53806" lon="0.33351">
        <ele>87.2</ele>
        <time>2024-09-22T08:39:02Z</time>
      </trkpt>
      <trkpt lat="46.53793" lon="0.33388">
        <ele>87.6</ele>
        <time>2024-09-22T08:39:09Z</time>
      </trkpt>
      <trkpt lat="46.53792" lon="0.33397">
        <ele>87.8</ele>
        <time>2024-09-22T08:39:11Z</time>
      </trkpt>
      <trkpt lat="46.53787" lon="0.33418">
        <ele>88.8</ele>
        <time>2024-09-22T08:39:16Z</time>
      </trkpt>
      <trkpt lat="46.53782" lon="0.33437">
        <ele>89.2</ele>
        <time>2024-09-22T08:39:20Z</time>
      </trkpt>
      <trkpt lat="46.53779" lon="0.33449">
        <ele>89.6</ele>
        <time>2024-09-22T08:39:23Z</time>
      </trkpt>
      <trkpt lat="46.53778" lon="0.33454">
        <ele>89.6</ele>
        <time>2024-09-22T08:39:24Z</time>
      </trkpt>
      <trkpt lat="46.53766" lon="0.33494">
        <ele>89.6</ele>
        <time>2024-09-22T08:39:31Z</time>
      </trkpt>
      <trkpt lat="46.53759" lon="0.33515">
        <ele>90.2</ele>
        <time>2024-09-22T08:39:35Z</time>
      </trkpt>
      <trkpt lat="46.53754" lon="0.33533">
        <ele>90.8</ele>
        <time>2024-09-22T08:39:38Z</time>
      </trkpt>
      <trkpt lat="46.5375" lon="0.33545">
        <ele>91.2</ele>
        <time>2024-09-22T08:39:40Z</time>
      </trkpt>
      <trkpt lat="46.5374" lon="0.33568">
        <ele>92.4</ele>
        <time>2024-09-22T08:39:44Z</time>
      </trkpt>
      <trkpt lat="46.53728" lon="0.33592">
        <ele>93.8</ele>
        <time>2024-09-22T08:39:48Z</time>
      </trkpt>
      <trkpt lat="46.5372" lon="0.33601">
        <ele>94.6</ele>
        <time>2024-09-22T08:39:51Z</time>
      </trkpt>
      <trkpt lat="46.53708" lon="0.33617">
        <ele>94.8</ele>
        <time>2024-09-22T08:39:55Z</time>
      </trkpt>
      <trkpt lat="46.53705" lon="0.33619">
        <ele>95</ele>
        <time>2024-09-22T08:39:56Z</time>
      </trkpt>
      <trkpt lat="46.53701" lon="0.33622">
        <ele>95.2</ele>
        <time>2024-09-22T08:39:57Z</time>
      </trkpt>
      <trkpt lat="46.5369" lon="0.33628">
        <ele>95.8</ele>
        <time>2024-09-22T08:40:00Z</time>
      </trkpt>
      <trkpt lat="46.53682" lon="0.33629">
        <ele>96.6</ele>
        <time>2024-09-22T08:40:03Z</time>
      </trkpt>
      <trkpt lat="46.53679" lon="0.3363">
        <ele>97</ele>
        <time>2024-09-22T08:40:04Z</time>
      </trkpt>
      <trkpt lat="46.53677" lon="0.33631">
        <ele>97.2</ele>
        <time>2024-09-22T08:40:05Z</time>
      </trkpt>
      <trkpt lat="46.53674" lon="0.3363">
        <ele>98</ele>
        <time>2024-09-22T08:40:08Z</time>
      </trkpt>
      <trkpt lat="46.53672" lon="0.33629">
        <ele>98.2</ele>
        <time>2024-09-22T08:40:09Z</time>
      </trkpt>
      <trkpt lat="46.5367" lon="0.33629">
        <ele>98.4</ele>
        <time>2024-09-22T08:40:10Z</time>
      </trkpt>
      <trkpt lat="46.53665" lon="0.33629">
        <ele>99</ele>
        <time>2024-09-22T08:40:13Z</time>
      </trkpt>
      <trkpt lat="46.53663" lon="0.33629">
        <ele>99.2</ele>
        <time>2024-09-22T08:40:14Z</time>
      </trkpt>
      <trkpt lat="46.53662" lon="0.33629">
        <ele>99.4</ele>
        <time>2024-09-22T08:40:15Z</time>
      </trkpt>
      <trkpt lat="46.53652" lon="0.33626">
        <ele>99.6</ele>
        <time>2024-09-22T08:40:20Z</time>
      </trkpt>
      <trkpt lat="46.53642" lon="0.33626">
        <ele>100.4</ele>
        <time>2024-09-22T08:40:26Z</time>
      </trkpt>
      <trkpt lat="46.53635" lon="0.33624">
        <ele>101.6</ele>
        <time>2024-09-22T08:40:30Z</time>
      </trkpt>
      <trkpt lat="46.53628" lon="0.33621">
        <ele>102.6</ele>
        <time>2024-09-22T08:40:34Z</time>
      </trkpt>
      <trkpt lat="46.53618" lon="0.3361">
        <ele>103.8</ele>
        <time>2024-09-22T08:40:40Z</time>
      </trkpt>
      <trkpt lat="46.53613" lon="0.33604">
        <ele>104.4</ele>
        <time>2024-09-22T08:40:43Z</time>
      </trkpt>
      <trkpt lat="46.53611" lon="0.336">
        <ele>105</ele>
        <time>2024-09-22T08:40:45Z</time>
      </trkpt>
      <trkpt lat="46.53603" lon="0.33591">
        <ele>105.6</ele>
        <time>2024-09-22T08:40:50Z</time>
      </trkpt>
      <trkpt lat="46.53602" lon="0.33588">
        <ele>106</ele>
        <time>2024-09-22T08:40:51Z</time>
      </trkpt>
      <trkpt lat="46.53596" lon="0.33578">
        <ele>107</ele>
        <time>2024-09-22T08:40:56Z</time>
      </trkpt>
      <trkpt lat="46.53594" lon="0.33576">
        <ele>107.2</ele>
        <time>2024-09-22T08:40:57Z</time>
      </trkpt>
      <trkpt lat="46.53591" lon="0.33571">
        <ele>108.2</ele>
        <time>2024-09-22T08:41:00Z</time>
      </trkpt>
      <trkpt lat="46.53584" lon="0.33564">
        <ele>108.8</ele>
        <time>2024-09-22T08:41:05Z</time>
      </trkpt>
      <trkpt lat="46.5358" lon="0.3356">
        <ele>109.2</ele>
        <time>2024-09-22T08:41:07Z</time>
      </trkpt>
      <trkpt lat="46.53571" lon="0.33548">
        <ele>109.8</ele>
        <time>2024-09-22T08:41:12Z</time>
      </trkpt>
      <trkpt lat="46.53563" lon="0.33539">
        <ele>110.2</ele>
        <time>2024-09-22T08:41:16Z</time>
      </trkpt>
      <trkpt lat="46.53553" lon="0.33526">
        <ele>111</ele>
        <time>2024-09-22T08:41:21Z</time>
      </trkpt>
      <trkpt lat="46.53548" lon="0.33518">
        <ele>111.2</ele>
        <time>2024-09-22T08:41:24Z</time>
      </trkpt>
      <trkpt lat="46.5354" lon="0.33503">
        <ele>111.6</ele>
        <time>2024-09-22T08:41:29Z</time>
      </trkpt>
      <trkpt lat="46.53541" lon="0.33496">
        <ele>112.4</ele>
        <time>2024-09-22T08:41:32Z</time>
      </trkpt>
      <trkpt lat="46.53543" lon="0.33493">
        <ele>112.6</ele>
        <time>2024-09-22T08:41:34Z</time>
      </trkpt>
      <trkpt lat="46.5355" lon="0.33483">
        <ele>113.4</ele>
        <time>2024-09-22T08:41:39Z</time>
      </trkpt>
      <trkpt lat="46.53553" lon="0.33478">
        <ele>113.6</ele>
        <time>2024-09-22T08:41:41Z</time>
      </trkpt>
      <trkpt lat="46.53563" lon="0.33462">
        <ele>114.2</ele>
        <time>2024-09-22T08:41:48Z</time>
      </trkpt>
      <trkpt lat="46.53566" lon="0.33461">
        <ele>114.4</ele>
        <time>2024-09-22T08:41:49Z</time>
      </trkpt>
      <trkpt lat="46.53574" lon="0.33447">
        <ele>114.8</ele>
        <time>2024-09-22T08:41:54Z</time>
      </trkpt>
      <trkpt lat="46.53578" lon="0.33425">
        <ele>115.6</ele>
        <time>2024-09-22T08:41:58Z</time>
      </trkpt>
      <trkpt lat="46.5358" lon="0.33421">
        <ele>115.6</ele>
        <time>2024-09-22T08:41:59Z</time>
      </trkpt>
      <trkpt lat="46.53583" lon="0.33413">
        <ele>115.6</ele>
        <time>2024-09-22T08:42:01Z</time>
      </trkpt>
      <trkpt lat="46.53591" lon="0.33394">
        <ele>115.6</ele>
        <time>2024-09-22T08:42:05Z</time>
      </trkpt>
      <trkpt lat="46.53604" lon="0.33376">
        <ele>115.8</ele>
        <time>2024-09-22T08:42:10Z</time>
      </trkpt>
      <trkpt lat="46.53607" lon="0.33371">
        <ele>115.6</ele>
        <time>2024-09-22T08:42:11Z</time>
      </trkpt>
      <trkpt lat="46.53623" lon="0.33349">
        <ele>115.2</ele>
        <time>2024-09-22T08:42:17Z</time>
      </trkpt>
      <trkpt lat="46.53634" lon="0.3333">
        <ele>114.4</ele>
        <time>2024-09-22T08:42:22Z</time>
      </trkpt>
      <trkpt lat="46.53638" lon="0.33321">
        <ele>114.2</ele>
        <time>2024-09-22T08:42:24Z</time>
      </trkpt>
      <trkpt lat="46.53642" lon="0.33312">
        <ele>113.8</ele>
        <time>2024-09-22T08:42:26Z</time>
      </trkpt>
      <trkpt lat="46.53651" lon="0.33299">
        <ele>113.2</ele>
        <time>2024-09-22T08:42:29Z</time>
      </trkpt>
      <trkpt lat="46.53657" lon="0.33292">
        <ele>112.8</ele>
        <time>2024-09-22T08:42:31Z</time>
      </trkpt>
      <trkpt lat="46.53672" lon="0.33275">
        <ele>112.6</ele>
        <time>2024-09-22T08:42:35Z</time>
      </trkpt>
      <trkpt lat="46.53676" lon="0.3327">
        <ele>112.2</ele>
        <time>2024-09-22T08:42:36Z</time>
      </trkpt>
      <trkpt lat="46.5368" lon="0.33265">
        <ele>111.8</ele>
        <time>2024-09-22T08:42:37Z</time>
      </trkpt>
      <trkpt lat="46.53686" lon="0.33256">
        <ele>111</ele>
        <time>2024-09-22T08:42:39Z</time>
      </trkpt>
      <trkpt lat="46.537" lon="0.33232">
        <ele>110</ele>
        <time>2024-09-22T08:42:43Z</time>
      </trkpt>
      <trkpt lat="46.53713" lon="0.33197">
        <ele>109</ele>
        <time>2024-09-22T08:42:48Z</time>
      </trkpt>
      <trkpt lat="46.53716" lon="0.33191">
        <ele>109</ele>
        <time>2024-09-22T08:42:49Z</time>
      </trkpt>
      <trkpt lat="46.53722" lon="0.33185">
        <ele>108.8</ele>
        <time>2024-09-22T08:42:50Z</time>
      </trkpt>
      <trkpt lat="46.53739" lon="0.33156">
        <ele>108.8</ele>
        <time>2024-09-22T08:42:55Z</time>
      </trkpt>
      <trkpt lat="46.53745" lon="0.33146">
        <ele>109</ele>
        <time>2024-09-22T08:42:57Z</time>
      </trkpt>
      <trkpt lat="46.53765" lon="0.33109">
        <ele>109</ele>
        <time>2024-09-22T08:43:04Z</time>
      </trkpt>
      <trkpt lat="46.53772" lon="0.33092">
        <ele>108.4</ele>
        <time>2024-09-22T08:43:08Z</time>
      </trkpt>
      <trkpt lat="46.53776" lon="0.33081">
        <ele>107.6</ele>
        <time>2024-09-22T08:43:10Z</time>
      </trkpt>
      <trkpt lat="46.53783" lon="0.33064">
        <ele>107</ele>
        <time>2024-09-22T08:43:13Z</time>
      </trkpt>
      <trkpt lat="46.53797" lon="0.33033">
        <ele>108</ele>
        <time>2024-09-22T08:43:19Z</time>
      </trkpt>
      <trkpt lat="46.53802" lon="0.33024">
        <ele>109</ele>
        <time>2024-09-22T08:43:21Z</time>
      </trkpt>
      <trkpt lat="46.53809" lon="0.3301">
        <ele>110</ele>
        <time>2024-09-22T08:43:24Z</time>
      </trkpt>
      <trkpt lat="46.53817" lon="0.33001">
        <ele>110.6</ele>
        <time>2024-09-22T08:43:26Z</time>
      </trkpt>
      <trkpt lat="46.53835" lon="0.32986">
        <ele>110.4</ele>
        <time>2024-09-22T08:43:31Z</time>
      </trkpt>
      <trkpt lat="46.53847" lon="0.32976">
        <ele>109.4</ele>
        <time>2024-09-22T08:43:36Z</time>
      </trkpt>
      <trkpt lat="46.53854" lon="0.32959">
        <ele>109</ele>
        <time>2024-09-22T08:43:41Z</time>
      </trkpt>
      <trkpt lat="46.53861" lon="0.3295">
        <ele>108.6</ele>
        <time>2024-09-22T08:43:44Z</time>
      </trkpt>
      <trkpt lat="46.53866" lon="0.32943">
        <ele>108.8</ele>
        <time>2024-09-22T08:43:47Z</time>
      </trkpt>
      <trkpt lat="46.53871" lon="0.3293">
        <ele>110.2</ele>
        <time>2024-09-22T08:43:52Z</time>
      </trkpt>
      <trkpt lat="46.53874" lon="0.32922">
        <ele>111.2</ele>
        <time>2024-09-22T08:43:55Z</time>
      </trkpt>
      <trkpt lat="46.53875" lon="0.32919">
        <ele>111.4</ele>
        <time>2024-09-22T08:43:56Z</time>
      </trkpt>
      <trkpt lat="46.53884" lon="0.32898">
        <ele>111.4</ele>
        <time>2024-09-22T08:44:02Z</time>
      </trkpt>
      <trkpt lat="46.53895" lon="0.32885">
        <ele>110.6</ele>
        <time>2024-09-22T08:44:08Z</time>
      </trkpt>
      <trkpt lat="46.53896" lon="0.32882">
        <ele>110.2</ele>
        <time>2024-09-22T08:44:09Z</time>
      </trkpt>
      <trkpt lat="46.53899" lon="0.3288">
        <ele>109.8</ele>
        <time>2024-09-22T08:44:10Z</time>
      </trkpt>
      <trkpt lat="46.53904" lon="0.32878">
        <ele>109.4</ele>
        <time>2024-09-22T08:44:12Z</time>
      </trkpt>
      <trkpt lat="46.53907" lon="0.32877">
        <ele>109.2</ele>
        <time>2024-09-22T08:44:13Z</time>
      </trkpt>
      <trkpt lat="46.53911" lon="0.32873">
        <ele>108.8</ele>
        <time>2024-09-22T08:44:15Z</time>
      </trkpt>
      <trkpt lat="46.53917" lon="0.32867">
        <ele>108.6</ele>
        <time>2024-09-22T08:44:18Z</time>
      </trkpt>
      <trkpt lat="46.53926" lon="0.32859">
        <ele>108.2</ele>
        <time>2024-09-22T08:44:22Z</time>
      </trkpt>
      <trkpt lat="46.53928" lon="0.32857">
        <ele>108</ele>
        <time>2024-09-22T08:44:23Z</time>
      </trkpt>
      <trkpt lat="46.53939" lon="0.32852">
        <ele>107.2</ele>
        <time>2024-09-22T08:44:29Z</time>
      </trkpt>
      <trkpt lat="46.5394" lon="0.32851">
        <ele>107</ele>
        <time>2024-09-22T08:44:30Z</time>
      </trkpt>
      <trkpt lat="46.53946" lon="0.32849">
        <ele>107</ele>
        <time>2024-09-22T08:44:33Z</time>
      </trkpt>
      <trkpt lat="46.53953" lon="0.32843">
        <ele>106.4</ele>
        <time>2024-09-22T08:44:37Z</time>
      </trkpt>
      <trkpt lat="46.53957" lon="0.3284">
        <ele>106</ele>
        <time>2024-09-22T08:44:39Z</time>
      </trkpt>
      <trkpt lat="46.53964" lon="0.32836">
        <ele>105</ele>
        <time>2024-09-22T08:44:42Z</time>
      </trkpt>
      <trkpt lat="46.53966" lon="0.32833">
        <ele>104.6</ele>
        <time>2024-09-22T08:44:44Z</time>
      </trkpt>
      <trkpt lat="46.53965" lon="0.32831">
        <ele>104.2</ele>
        <time>2024-09-22T08:44:45Z</time>
      </trkpt>
      <trkpt lat="46.53966" lon="0.32829">
        <ele>104</ele>
        <time>2024-09-22T08:44:46Z</time>
      </trkpt>
      <trkpt lat="46.53964" lon="0.32823">
        <ele>103</ele>
        <time>2024-09-22T08:44:51Z</time>
      </trkpt>
      <trkpt lat="46.53964" lon="0.32822">
        <ele>102.8</ele>
        <time>2024-09-22T08:44:52Z</time>
      </trkpt>
      <trkpt lat="46.53961" lon="0.32815">
        <ele>101.8</ele>
        <time>2024-09-22T08:44:57Z</time>
      </trkpt>
      <trkpt lat="46.53958" lon="0.32813">
        <ele>102</ele>
        <time>2024-09-22T08:45:00Z</time>
      </trkpt>
      <trkpt lat="46.53949" lon="0.32812">
        <ele>103</ele>
        <time>2024-09-22T08:45:06Z</time>
      </trkpt>
      <trkpt lat="46.53946" lon="0.32811">
        <ele>103.4</ele>
        <time>2024-09-22T08:45:08Z</time>
      </trkpt>
      <trkpt lat="46.53942" lon="0.3281">
        <ele>104</ele>
        <time>2024-09-22T08:45:10Z</time>
      </trkpt>
      <trkpt lat="46.53933" lon="0.3281">
        <ele>105</ele>
        <time>2024-09-22T08:45:15Z</time>
      </trkpt>
      <trkpt lat="46.53932" lon="0.3281">
        <ele>105.2</ele>
        <time>2024-09-22T08:45:16Z</time>
      </trkpt>
      <trkpt lat="46.53921" lon="0.32811">
        <ele>106.4</ele>
        <time>2024-09-22T08:45:22Z</time>
      </trkpt>
      <trkpt lat="46.5392" lon="0.32812">
        <ele>106.6</ele>
        <time>2024-09-22T08:45:23Z</time>
      </trkpt>
      <trkpt lat="46.53906" lon="0.32814">
        <ele>107.6</ele>
        <time>2024-09-22T08:45:29Z</time>
      </trkpt>
      <trkpt lat="46.53904" lon="0.32815">
        <ele>107.6</ele>
        <time>2024-09-22T08:45:30Z</time>
      </trkpt>
      <trkpt lat="46.5389" lon="0.3281">
        <ele>108</ele>
        <time>2024-09-22T08:45:36Z</time>
      </trkpt>
      <trkpt lat="46.53874" lon="0.32804">
        <ele>108.2</ele>
        <time>2024-09-22T08:45:42Z</time>
      </trkpt>
      <trkpt lat="46.53849" lon="0.32792">
        <ele>108</ele>
        <time>2024-09-22T08:45:49Z</time>
      </trkpt>
      <trkpt lat="46.53829" lon="0.32781">
        <ele>108.4</ele>
        <time>2024-09-22T08:45:55Z</time>
      </trkpt>
      <trkpt lat="46.53825" lon="0.32779">
        <ele>108.6</ele>
        <time>2024-09-22T08:45:56Z</time>
      </trkpt>
      <trkpt lat="46.53807" lon="0.32772">
        <ele>109</ele>
        <time>2024-09-22T08:46:01Z</time>
      </trkpt>
      <trkpt lat="46.53776" lon="0.32764">
        <ele>109.4</ele>
        <time>2024-09-22T08:46:09Z</time>
      </trkpt>
      <trkpt lat="46.53759" lon="0.32761">
        <ele>109.6</ele>
        <time>2024-09-22T08:46:13Z</time>
      </trkpt>
      <trkpt lat="46.53745" lon="0.32759">
        <ele>110</ele>
        <time>2024-09-22T08:46:16Z</time>
      </trkpt>
      <trkpt lat="46.53729" lon="0.32757">
        <ele>110.8</ele>
        <time>2024-09-22T08:46:20Z</time>
      </trkpt>
      <trkpt lat="46.53726" lon="0.32756">
        <ele>111</ele>
        <time>2024-09-22T08:46:21Z</time>
      </trkpt>
      <trkpt lat="46.53718" lon="0.32755">
        <ele>111.2</ele>
        <time>2024-09-22T08:46:23Z</time>
      </trkpt>
      <trkpt lat="46.53708" lon="0.32753">
        <ele>111.8</ele>
        <time>2024-09-22T08:46:26Z</time>
      </trkpt>
      <trkpt lat="46.53701" lon="0.32753">
        <ele>112.2</ele>
        <time>2024-09-22T08:46:28Z</time>
      </trkpt>
      <trkpt lat="46.53688" lon="0.32749">
        <ele>113</ele>
        <time>2024-09-22T08:46:32Z</time>
      </trkpt>
      <trkpt lat="46.53684" lon="0.32749">
        <ele>113</ele>
        <time>2024-09-22T08:46:33Z</time>
      </trkpt>
      <trkpt lat="46.53672" lon="0.32749">
        <ele>114</ele>
        <time>2024-09-22T08:46:37Z</time>
      </trkpt>
      <trkpt lat="46.53662" lon="0.3275">
        <ele>114.8</ele>
        <time>2024-09-22T08:46:40Z</time>
      </trkpt>
      <trkpt lat="46.53655" lon="0.32747">
        <ele>115</ele>
        <time>2024-09-22T08:46:43Z</time>
      </trkpt>
      <trkpt lat="46.53654" lon="0.32745">
        <ele>115</ele>
        <time>2024-09-22T08:46:44Z</time>
      </trkpt>
      <trkpt lat="46.53653" lon="0.32743">
        <ele>115</ele>
        <time>2024-09-22T08:46:45Z</time>
      </trkpt>
      <trkpt lat="46.53654" lon="0.32732">
        <ele>114.4</ele>
        <time>2024-09-22T08:46:49Z</time>
      </trkpt>
      <trkpt lat="46.53655" lon="0.32729">
        <ele>113.8</ele>
        <time>2024-09-22T08:46:50Z</time>
      </trkpt>
      <trkpt lat="46.53659" lon="0.32723">
        <ele>112.6</ele>
        <time>2024-09-22T08:46:52Z</time>
      </trkpt>
      <trkpt lat="46.5366" lon="0.32717">
        <ele>111</ele>
        <time>2024-09-22T08:46:54Z</time>
      </trkpt>
      <trkpt lat="46.53661" lon="0.32707">
        <ele>109.6</ele>
        <time>2024-09-22T08:46:57Z</time>
      </trkpt>
      <trkpt lat="46.53661" lon="0.32698">
        <ele>108.2</ele>
        <time>2024-09-22T08:46:59Z</time>
      </trkpt>
      <trkpt lat="46.53661" lon="0.32694">
        <ele>107.4</ele>
        <time>2024-09-22T08:47:00Z</time>
      </trkpt>
      <trkpt lat="46.53661" lon="0.32691">
        <ele>106.2</ele>
        <time>2024-09-22T08:47:01Z</time>
      </trkpt>
      <trkpt lat="46.5366" lon="0.32688">
        <ele>105.2</ele>
        <time>2024-09-22T08:47:02Z</time>
      </trkpt>
      <trkpt lat="46.53656" lon="0.3268">
        <ele>104</ele>
        <time>2024-09-22T08:47:04Z</time>
      </trkpt>
      <trkpt lat="46.53644" lon="0.32664">
        <ele>103.4</ele>
        <time>2024-09-22T08:47:09Z</time>
      </trkpt>
      <trkpt lat="46.53643" lon="0.3266">
        <ele>103.4</ele>
        <time>2024-09-22T08:47:10Z</time>
      </trkpt>
      <trkpt lat="46.53643" lon="0.32652">
        <ele>102.8</ele>
        <time>2024-09-22T08:47:12Z</time>
      </trkpt>
      <trkpt lat="46.53643" lon="0.32648">
        <ele>102.6</ele>
        <time>2024-09-22T08:47:13Z</time>
      </trkpt>
      <trkpt lat="46.53645" lon="0.32645">
        <ele>101.2</ele>
        <time>2024-09-22T08:47:15Z</time>
      </trkpt>
      <trkpt lat="46.53647" lon="0.32639">
        <ele>100.2</ele>
        <time>2024-09-22T08:47:17Z</time>
      </trkpt>
      <trkpt lat="46.5365" lon="0.32633">
        <ele>99</ele>
        <time>2024-09-22T08:47:19Z</time>
      </trkpt>
      <trkpt lat="46.5365" lon="0.3263">
        <ele>98.4</ele>
        <time>2024-09-22T08:47:20Z</time>
      </trkpt>
      <trkpt lat="46.53651" lon="0.32628">
        <ele>98</ele>
        <time>2024-09-22T08:47:21Z</time>
      </trkpt>
      <trkpt lat="46.53652" lon="0.32622">
        <ele>96.8</ele>
        <time>2024-09-22T08:47:23Z</time>
      </trkpt>
      <trkpt lat="46.5365" lon="0.32616">
        <ele>95.8</ele>
        <time>2024-09-22T08:47:25Z</time>
      </trkpt>
      <trkpt lat="46.5365" lon="0.32613">
        <ele>95.4</ele>
        <time>2024-09-22T08:47:27Z</time>
      </trkpt>
      <trkpt lat="46.53646" lon="0.32609">
        <ele>95.4</ele>
        <time>2024-09-22T08:47:30Z</time>
      </trkpt>
      <trkpt lat="46.53634" lon="0.32604">
        <ele>96.8</ele>
        <time>2024-09-22T08:47:37Z</time>
      </trkpt>
      <trkpt lat="46.53633" lon="0.32604">
        <ele>97</ele>
        <time>2024-09-22T08:47:38Z</time>
      </trkpt>
      <trkpt lat="46.53622" lon="0.32601">
        <ele>98.4</ele>
        <time>2024-09-22T08:47:43Z</time>
      </trkpt>
      <trkpt lat="46.53616" lon="0.32601">
        <ele>99.4</ele>
        <time>2024-09-22T08:47:47Z</time>
      </trkpt>
      <trkpt lat="46.53613" lon="0.32603">
        <ele>99.6</ele>
        <time>2024-09-22T08:47:49Z</time>
      </trkpt>
      <trkpt lat="46.53609" lon="0.32603">
        <ele>100</ele>
        <time>2024-09-22T08:47:51Z</time>
      </trkpt>
      <trkpt lat="46.53606" lon="0.32604">
        <ele>100.8</ele>
        <time>2024-09-22T08:47:53Z</time>
      </trkpt>
      <trkpt lat="46.53602" lon="0.32604">
        <ele>101.4</ele>
        <time>2024-09-22T08:47:55Z</time>
      </trkpt>
      <trkpt lat="46.53598" lon="0.32604">
        <ele>101.8</ele>
        <time>2024-09-22T08:47:57Z</time>
      </trkpt>
      <trkpt lat="46.53588" lon="0.32606">
        <ele>102.8</ele>
        <time>2024-09-22T08:48:01Z</time>
      </trkpt>
      <trkpt lat="46.53586" lon="0.32605">
        <ele>103</ele>
        <time>2024-09-22T08:48:02Z</time>
      </trkpt>
      <trkpt lat="46.53577" lon="0.32605">
        <ele>104</ele>
        <time>2024-09-22T08:48:06Z</time>
      </trkpt>
      <trkpt lat="46.53572" lon="0.32606">
        <ele>104.6</ele>
        <time>2024-09-22T08:48:09Z</time>
      </trkpt>
      <trkpt lat="46.53565" lon="0.32607">
        <ele>105.2</ele>
        <time>2024-09-22T08:48:12Z</time>
      </trkpt>
      <trkpt lat="46.53558" lon="0.32608">
        <ele>105.8</ele>
        <time>2024-09-22T08:48:15Z</time>
      </trkpt>
      <trkpt lat="46.53553" lon="0.3261">
        <ele>106.4</ele>
        <time>2024-09-22T08:48:18Z</time>
      </trkpt>
      <trkpt lat="46.53547" lon="0.32612">
        <ele>107.4</ele>
        <time>2024-09-22T08:48:22Z</time>
      </trkpt>
      <trkpt lat="46.53543" lon="0.32615">
        <ele>108.2</ele>
        <time>2024-09-22T08:48:25Z</time>
      </trkpt>
      <trkpt lat="46.53541" lon="0.32615">
        <ele>108.4</ele>
        <time>2024-09-22T08:48:26Z</time>
      </trkpt>
      <trkpt lat="46.53537" lon="0.32617">
        <ele>108.8</ele>
        <time>2024-09-22T08:48:28Z</time>
      </trkpt>
      <trkpt lat="46.53527" lon="0.32621">
        <ele>109.6</ele>
        <time>2024-09-22T08:48:33Z</time>
      </trkpt>
      <trkpt lat="46.53522" lon="0.32622">
        <ele>109.8</ele>
        <time>2024-09-22T08:48:35Z</time>
      </trkpt>
      <trkpt lat="46.53516" lon="0.32625">
        <ele>110.6</ele>
        <time>2024-09-22T08:48:38Z</time>
      </trkpt>
      <trkpt lat="46.53504" lon="0.32628">
        <ele>111.6</ele>
        <time>2024-09-22T08:48:43Z</time>
      </trkpt>
      <trkpt lat="46.53502" lon="0.32629">
        <ele>111.8</ele>
        <time>2024-09-22T08:48:44Z</time>
      </trkpt>
      <trkpt lat="46.53489" lon="0.32633">
        <ele>112.8</ele>
        <time>2024-09-22T08:48:49Z</time>
      </trkpt>
      <trkpt lat="46.53484" lon="0.32634">
        <ele>113</ele>
        <time>2024-09-22T08:48:51Z</time>
      </trkpt>
      <trkpt lat="46.53473" lon="0.32637">
        <ele>114</ele>
        <time>2024-09-22T08:48:56Z</time>
      </trkpt>
      <trkpt lat="46.53469" lon="0.32639">
        <ele>114.2</ele>
        <time>2024-09-22T08:48:58Z</time>
      </trkpt>
      <trkpt lat="46.53461" lon="0.32642">
        <ele>115</ele>
        <time>2024-09-22T08:49:02Z</time>
      </trkpt>
      <trkpt lat="46.53448" lon="0.32646">
        <ele>115.8</ele>
        <time>2024-09-22T08:49:07Z</time>
      </trkpt>
      <trkpt lat="46.53442" lon="0.32647">
        <ele>116.2</ele>
        <time>2024-09-22T08:49:09Z</time>
      </trkpt>
      <trkpt lat="46.53427" lon="0.3265">
        <ele>117</ele>
        <time>2024-09-22T08:49:14Z</time>
      </trkpt>
      <trkpt lat="46.53421" lon="0.32652">
        <ele>117.4</ele>
        <time>2024-09-22T08:49:16Z</time>
      </trkpt>
      <trkpt lat="46.53401" lon="0.32651">
        <ele>117.8</ele>
        <time>2024-09-22T08:49:22Z</time>
      </trkpt>
      <trkpt lat="46.53381" lon="0.32644">
        <ele>118.2</ele>
        <time>2024-09-22T08:49:28Z</time>
      </trkpt>
      <trkpt lat="46.53378" lon="0.32642">
        <ele>118.2</ele>
        <time>2024-09-22T08:49:29Z</time>
      </trkpt>
      <trkpt lat="46.53369" lon="0.32638">
        <ele>118.2</ele>
        <time>2024-09-22T08:49:31Z</time>
      </trkpt>
      <trkpt lat="46.5336" lon="0.32633">
        <ele>118</ele>
        <time>2024-09-22T08:49:33Z</time>
      </trkpt>
      <trkpt lat="46.53335" lon="0.32619">
        <ele>118</ele>
        <time>2024-09-22T08:49:39Z</time>
      </trkpt>
      <trkpt lat="46.5333" lon="0.32611">
        <ele>118</ele>
        <time>2024-09-22T08:49:41Z</time>
      </trkpt>
      <trkpt lat="46.53329" lon="0.32606">
        <ele>118</ele>
        <time>2024-09-22T08:49:42Z</time>
      </trkpt>
      <trkpt lat="46.53326" lon="0.32594">
        <ele>117.6</ele>
        <time>2024-09-22T08:49:44Z</time>
      </trkpt>
      <trkpt lat="46.53326" lon="0.32583">
        <ele>116.8</ele>
        <time>2024-09-22T08:49:46Z</time>
      </trkpt>
      <trkpt lat="46.53326" lon="0.32576">
        <ele>116.4</ele>
        <time>2024-09-22T08:49:47Z</time>
      </trkpt>
      <trkpt lat="46.53327" lon="0.32558">
        <ele>115.2</ele>
        <time>2024-09-22T08:49:49Z</time>
      </trkpt>
      <trkpt lat="46.53329" lon="0.32541">
        <ele>113.4</ele>
        <time>2024-09-22T08:49:51Z</time>
      </trkpt>
      <trkpt lat="46.5333" lon="0.32533">
        <ele>112.6</ele>
        <time>2024-09-22T08:49:52Z</time>
      </trkpt>
      <trkpt lat="46.53332" lon="0.32525">
        <ele>112</ele>
        <time>2024-09-22T08:49:53Z</time>
      </trkpt>
      <trkpt lat="46.53334" lon="0.3251">
        <ele>110</ele>
        <time>2024-09-22T08:49:55Z</time>
      </trkpt>
      <trkpt lat="46.53335" lon="0.32498">
        <ele>107.8</ele>
        <time>2024-09-22T08:49:57Z</time>
      </trkpt>
      <trkpt lat="46.53335" lon="0.3249">
        <ele>106.2</ele>
        <time>2024-09-22T08:49:59Z</time>
      </trkpt>
      <trkpt lat="46.53333" lon="0.32478">
        <ele>105.4</ele>
        <time>2024-09-22T08:50:01Z</time>
      </trkpt>
      <trkpt lat="46.53332" lon="0.32471">
        <ele>105</ele>
        <time>2024-09-22T08:50:02Z</time>
      </trkpt>
      <trkpt lat="46.53328" lon="0.32455">
        <ele>103.8</ele>
        <time>2024-09-22T08:50:04Z</time>
      </trkpt>
      <trkpt lat="46.53325" lon="0.3244">
        <ele>102.6</ele>
        <time>2024-09-22T08:50:06Z</time>
      </trkpt>
      <trkpt lat="46.53323" lon="0.32425">
        <ele>101.2</ele>
        <time>2024-09-22T08:50:08Z</time>
      </trkpt>
      <trkpt lat="46.53319" lon="0.32412">
        <ele>99.8</ele>
        <time>2024-09-22T08:50:10Z</time>
      </trkpt>
      <trkpt lat="46.53315" lon="0.32405">
        <ele>99.2</ele>
        <time>2024-09-22T08:50:11Z</time>
      </trkpt>
      <trkpt lat="46.53308" lon="0.32395">
        <ele>98.2</ele>
        <time>2024-09-22T08:50:13Z</time>
      </trkpt>
      <trkpt lat="46.53293" lon="0.32374">
        <ele>97.6</ele>
        <time>2024-09-22T08:50:18Z</time>
      </trkpt>
      <trkpt lat="46.53274" lon="0.32348">
        <ele>98.8</ele>
        <time>2024-09-22T08:50:26Z</time>
      </trkpt>
      <trkpt lat="46.53262" lon="0.32336">
        <ele>99.4</ele>
        <time>2024-09-22T08:50:31Z</time>
      </trkpt>
      <trkpt lat="46.53255" lon="0.32328">
        <ele>99.6</ele>
        <time>2024-09-22T08:50:34Z</time>
      </trkpt>
      <trkpt lat="46.53249" lon="0.32324">
        <ele>100.6</ele>
        <time>2024-09-22T08:50:38Z</time>
      </trkpt>
      <trkpt lat="46.53246" lon="0.32321">
        <ele>101.4</ele>
        <time>2024-09-22T08:50:40Z</time>
      </trkpt>
      <trkpt lat="46.53245" lon="0.3232">
        <ele>101.6</ele>
        <time>2024-09-22T08:50:41Z</time>
      </trkpt>
      <trkpt lat="46.5324" lon="0.32317">
        <ele>103</ele>
        <time>2024-09-22T08:50:44Z</time>
      </trkpt>
      <trkpt lat="46.53235" lon="0.32316">
        <ele>104</ele>
        <time>2024-09-22T08:50:47Z</time>
      </trkpt>
      <trkpt lat="46.53231" lon="0.32315">
        <ele>104.8</ele>
        <time>2024-09-22T08:50:49Z</time>
      </trkpt>
      <trkpt lat="46.53229" lon="0.32314">
        <ele>105</ele>
        <time>2024-09-22T08:50:50Z</time>
      </trkpt>
      <trkpt lat="46.53219" lon="0.32311">
        <ele>106.2</ele>
        <time>2024-09-22T08:50:55Z</time>
      </trkpt>
      <trkpt lat="46.53213" lon="0.3231">
        <ele>106.6</ele>
        <time>2024-09-22T08:50:58Z</time>
      </trkpt>
      <trkpt lat="46.53209" lon="0.32311">
        <ele>107.4</ele>
        <time>2024-09-22T08:51:01Z</time>
      </trkpt>
      <trkpt lat="46.53202" lon="0.3231">
        <ele>108.6</ele>
        <time>2024-09-22T08:51:05Z</time>
      </trkpt>
      <trkpt lat="46.53201" lon="0.32311">
        <ele>108.8</ele>
        <time>2024-09-22T08:51:06Z</time>
      </trkpt>
      <trkpt lat="46.53197" lon="0.3231">
        <ele>109.2</ele>
        <time>2024-09-22T08:51:08Z</time>
      </trkpt>
      <trkpt lat="46.53193" lon="0.32309">
        <ele>109.6</ele>
        <time>2024-09-22T08:51:10Z</time>
      </trkpt>
      <trkpt lat="46.53189" lon="0.32308">
        <ele>110</ele>
        <time>2024-09-22T08:51:12Z</time>
      </trkpt>
      <trkpt lat="46.53184" lon="0.32306">
        <ele>110.8</ele>
        <time>2024-09-22T08:51:15Z</time>
      </trkpt>
      <trkpt lat="46.53175" lon="0.32302">
        <ele>111</ele>
        <time>2024-09-22T08:51:20Z</time>
      </trkpt>
      <trkpt lat="46.53162" lon="0.3229">
        <ele>111.4</ele>
        <time>2024-09-22T08:51:26Z</time>
      </trkpt>
      <trkpt lat="46.53156" lon="0.32286">
        <ele>111.8</ele>
        <time>2024-09-22T08:51:29Z</time>
      </trkpt>
      <trkpt lat="46.53148" lon="0.32282">
        <ele>112.4</ele>
        <time>2024-09-22T08:51:32Z</time>
      </trkpt>
      <trkpt lat="46.53141" lon="0.32278">
        <ele>113</ele>
        <time>2024-09-22T08:51:35Z</time>
      </trkpt>
      <trkpt lat="46.53128" lon="0.32274">
        <ele>113.4</ele>
        <time>2024-09-22T08:51:40Z</time>
      </trkpt>
      <trkpt lat="46.53113" lon="0.32269">
        <ele>113.8</ele>
        <time>2024-09-22T08:51:45Z</time>
      </trkpt>
      <trkpt lat="46.53109" lon="0.32264">
        <ele>113.8</ele>
        <time>2024-09-22T08:51:47Z</time>
      </trkpt>
      <trkpt lat="46.53097" lon="0.32255">
        <ele>114</ele>
        <time>2024-09-22T08:51:51Z</time>
      </trkpt>
      <trkpt lat="46.53092" lon="0.32251">
        <ele>114.2</ele>
        <time>2024-09-22T08:51:53Z</time>
      </trkpt>
      <trkpt lat="46.53081" lon="0.32238">
        <ele>114.4</ele>
        <time>2024-09-22T08:51:57Z</time>
      </trkpt>
      <trkpt lat="46.53078" lon="0.32234">
        <ele>114.4</ele>
        <time>2024-09-22T08:51:58Z</time>
      </trkpt>
      <trkpt lat="46.53071" lon="0.32227">
        <ele>114.2</ele>
        <time>2024-09-22T08:52:00Z</time>
      </trkpt>
      <trkpt lat="46.53062" lon="0.32218">
        <ele>114.4</ele>
        <time>2024-09-22T08:52:03Z</time>
      </trkpt>
      <trkpt lat="46.5305" lon="0.32212">
        <ele>114.4</ele>
        <time>2024-09-22T08:52:08Z</time>
      </trkpt>
      <trkpt lat="46.53047" lon="0.32211">
        <ele>114.4</ele>
        <time>2024-09-22T08:52:10Z</time>
      </trkpt>
      <trkpt lat="46.53041" lon="0.32206">
        <ele>114.4</ele>
        <time>2024-09-22T08:52:16Z</time>
      </trkpt>
      <trkpt lat="46.53032" lon="0.32195">
        <ele>114.2</ele>
        <time>2024-09-22T08:52:23Z</time>
      </trkpt>
      <trkpt lat="46.53025" lon="0.32178">
        <ele>113.8</ele>
        <time>2024-09-22T08:52:28Z</time>
      </trkpt>
      <trkpt lat="46.5301" lon="0.32157">
        <ele>113.6</ele>
        <time>2024-09-22T08:52:35Z</time>
      </trkpt>
      <trkpt lat="46.52997" lon="0.32136">
        <ele>114</ele>
        <time>2024-09-22T08:52:41Z</time>
      </trkpt>
      <trkpt lat="46.52984" lon="0.32124">
        <ele>115</ele>
        <time>2024-09-22T08:52:47Z</time>
      </trkpt>
      <trkpt lat="46.52981" lon="0.32124">
        <ele>115.4</ele>
        <time>2024-09-22T08:52:48Z</time>
      </trkpt>
      <trkpt lat="46.52965" lon="0.32122">
        <ele>116.4</ele>
        <time>2024-09-22T08:52:54Z</time>
      </trkpt>
      <trkpt lat="46.52962" lon="0.32121">
        <ele>116.8</ele>
        <time>2024-09-22T08:52:55Z</time>
      </trkpt>
      <trkpt lat="46.52951" lon="0.3212">
        <ele>117.6</ele>
        <time>2024-09-22T08:52:59Z</time>
      </trkpt>
      <trkpt lat="46.52941" lon="0.32118">
        <ele>118</ele>
        <time>2024-09-22T08:53:03Z</time>
      </trkpt>
      <trkpt lat="46.52932" lon="0.32116">
        <ele>118.6</ele>
        <time>2024-09-22T08:53:06Z</time>
      </trkpt>
      <trkpt lat="46.52927" lon="0.32116">
        <ele>118.8</ele>
        <time>2024-09-22T08:53:08Z</time>
      </trkpt>
      <trkpt lat="46.52925" lon="0.32117">
        <ele>118.8</ele>
        <time>2024-09-22T08:53:09Z</time>
      </trkpt>
      <trkpt lat="46.52925" lon="0.32119">
        <ele>118.8</ele>
        <time>2024-09-22T08:53:10Z</time>
      </trkpt>
      <trkpt lat="46.52919" lon="0.32123">
        <ele>119.6</ele>
        <time>2024-09-22T08:53:14Z</time>
      </trkpt>
      <trkpt lat="46.52918" lon="0.32125">
        <ele>119.8</ele>
        <time>2024-09-22T08:53:15Z</time>
      </trkpt>
      <trkpt lat="46.52909" lon="0.32137">
        <ele>120.4</ele>
        <time>2024-09-22T08:53:20Z</time>
      </trkpt>
      <trkpt lat="46.52902" lon="0.3215">
        <ele>120.8</ele>
        <time>2024-09-22T08:53:25Z</time>
      </trkpt>
      <trkpt lat="46.529" lon="0.32154">
        <ele>120.8</ele>
        <time>2024-09-22T08:53:27Z</time>
      </trkpt>
      <trkpt lat="46.52889" lon="0.32168">
        <ele>121.8</ele>
        <time>2024-09-22T08:53:33Z</time>
      </trkpt>
      <trkpt lat="46.52888" lon="0.3217">
        <ele>121.8</ele>
        <time>2024-09-22T08:53:34Z</time>
      </trkpt>
      <trkpt lat="46.52873" lon="0.32177">
        <ele>122.6</ele>
        <time>2024-09-22T08:53:38Z</time>
      </trkpt>
      <trkpt lat="46.52864" lon="0.32175">
        <ele>122.8</ele>
        <time>2024-09-22T08:53:41Z</time>
      </trkpt>
      <trkpt lat="46.52859" lon="0.32172">
        <ele>122.8</ele>
        <time>2024-09-22T08:53:43Z</time>
      </trkpt>
      <trkpt lat="46.52841" lon="0.32171">
        <ele>123</ele>
        <time>2024-09-22T08:53:49Z</time>
      </trkpt>
      <trkpt lat="46.52826" lon="0.32177">
        <ele>123.2</ele>
        <time>2024-09-22T08:53:55Z</time>
      </trkpt>
      <trkpt lat="46.5281" lon="0.3218">
        <ele>124</ele>
        <time>2024-09-22T08:54:00Z</time>
      </trkpt>
      <trkpt lat="46.52806" lon="0.32181">
        <ele>124</ele>
        <time>2024-09-22T08:54:01Z</time>
      </trkpt>
      <trkpt lat="46.52783" lon="0.32183">
        <ele>124.2</ele>
        <time>2024-09-22T08:54:07Z</time>
      </trkpt>
      <trkpt lat="46.52762" lon="0.32184">
        <ele>124.6</ele>
        <time>2024-09-22T08:54:13Z</time>
      </trkpt>
      <trkpt lat="46.52756" lon="0.32186">
        <ele>124.8</ele>
        <time>2024-09-22T08:54:15Z</time>
      </trkpt>
      <trkpt lat="46.52753" lon="0.3219">
        <ele>124.8</ele>
        <time>2024-09-22T08:54:17Z</time>
      </trkpt>
      <trkpt lat="46.52752" lon="0.32191">
        <ele>125</ele>
        <time>2024-09-22T08:54:18Z</time>
      </trkpt>
      <trkpt lat="46.52752" lon="0.32193">
        <ele>125</ele>
        <time>2024-09-22T08:54:19Z</time>
      </trkpt>
      <trkpt lat="46.52749" lon="0.32205">
        <ele>125.2</ele>
        <time>2024-09-22T08:54:23Z</time>
      </trkpt>
      <trkpt lat="46.52746" lon="0.32229">
        <ele>125.6</ele>
        <time>2024-09-22T08:54:30Z</time>
      </trkpt>
      <trkpt lat="46.52743" lon="0.32259">
        <ele>125.6</ele>
        <time>2024-09-22T08:54:36Z</time>
      </trkpt>
      <trkpt lat="46.52743" lon="0.32264">
        <ele>125.6</ele>
        <time>2024-09-22T08:54:37Z</time>
      </trkpt>
      <trkpt lat="46.52743" lon="0.32295">
        <ele>125.8</ele>
        <time>2024-09-22T08:54:43Z</time>
      </trkpt>
      <trkpt lat="46.52744" lon="0.32326">
        <ele>125.4</ele>
        <time>2024-09-22T08:54:48Z</time>
      </trkpt>
      <trkpt lat="46.52745" lon="0.3233">
        <ele>125.4</ele>
        <time>2024-09-22T08:54:49Z</time>
      </trkpt>
      <trkpt lat="46.52747" lon="0.32333">
        <ele>125.6</ele>
        <time>2024-09-22T08:54:50Z</time>
      </trkpt>
      <trkpt lat="46.52751" lon="0.32336">
        <ele>125.6</ele>
        <time>2024-09-22T08:54:52Z</time>
      </trkpt>
      <trkpt lat="46.52753" lon="0.32338">
        <ele>125.6</ele>
        <time>2024-09-22T08:54:53Z</time>
      </trkpt>
      <trkpt lat="46.52768" lon="0.32347">
        <ele>125.4</ele>
        <time>2024-09-22T08:54:58Z</time>
      </trkpt>
      <trkpt lat="46.52782" lon="0.32351">
        <ele>125.4</ele>
        <time>2024-09-22T08:55:02Z</time>
      </trkpt>
      <trkpt lat="46.52791" lon="0.32355">
        <ele>125.2</ele>
        <time>2024-09-22T08:55:05Z</time>
      </trkpt>
      <trkpt lat="46.52806" lon="0.32356">
        <ele>125</ele>
        <time>2024-09-22T08:55:09Z</time>
      </trkpt>
      <trkpt lat="46.52815" lon="0.32355">
        <ele>125</ele>
        <time>2024-09-22T08:55:11Z</time>
      </trkpt>
      <trkpt lat="46.5284" lon="0.32358">
        <ele>124.4</ele>
        <time>2024-09-22T08:55:17Z</time>
      </trkpt>
      <trkpt lat="46.5286" lon="0.32361">
        <ele>123.8</ele>
        <time>2024-09-22T08:55:21Z</time>
      </trkpt>
      <trkpt lat="46.52876" lon="0.32361">
        <ele>123.4</ele>
        <time>2024-09-22T08:55:24Z</time>
      </trkpt>
      <trkpt lat="46.52896" lon="0.32363">
        <ele>123.2</ele>
        <time>2024-09-22T08:55:28Z</time>
      </trkpt>
      <trkpt lat="46.529" lon="0.32363">
        <ele>123</ele>
        <time>2024-09-22T08:55:29Z</time>
      </trkpt>
      <trkpt lat="46.52905" lon="0.32365">
        <ele>123</ele>
        <time>2024-09-22T08:55:30Z</time>
      </trkpt>
      <trkpt lat="46.5291" lon="0.32365">
        <ele>122.8</ele>
        <time>2024-09-22T08:55:31Z</time>
      </trkpt>
      <trkpt lat="46.52927" lon="0.32366">
        <ele>122.6</ele>
        <time>2024-09-22T08:55:34Z</time>
      </trkpt>
      <trkpt lat="46.52941" lon="0.32367">
        <ele>121.8</ele>
        <time>2024-09-22T08:55:37Z</time>
      </trkpt>
      <trkpt lat="46.52949" lon="0.32369">
        <ele>121.2</ele>
        <time>2024-09-22T08:55:39Z</time>
      </trkpt>
      <trkpt lat="46.52957" lon="0.32378">
        <ele>120.8</ele>
        <time>2024-09-22T08:55:42Z</time>
      </trkpt>
      <trkpt lat="46.52958" lon="0.32382">
        <ele>121</ele>
        <time>2024-09-22T08:55:43Z</time>
      </trkpt>
      <trkpt lat="46.52959" lon="0.32396">
        <ele>121.4</ele>
        <time>2024-09-22T08:55:47Z</time>
      </trkpt>
      <trkpt lat="46.52961" lon="0.32406">
        <ele>122</ele>
        <time>2024-09-22T08:55:49Z</time>
      </trkpt>
      <trkpt lat="46.52961" lon="0.3241">
        <ele>122</ele>
        <time>2024-09-22T08:55:50Z</time>
      </trkpt>
      <trkpt lat="46.52959" lon="0.32424">
        <ele>122.4</ele>
        <time>2024-09-22T08:55:53Z</time>
      </trkpt>
      <trkpt lat="46.52957" lon="0.32436">
        <ele>122.6</ele>
        <time>2024-09-22T08:55:55Z</time>
      </trkpt>
      <trkpt lat="46.52955" lon="0.32451">
        <ele>122.8</ele>
        <time>2024-09-22T08:55:57Z</time>
      </trkpt>
      <trkpt lat="46.52947" lon="0.32485">
        <ele>123.2</ele>
        <time>2024-09-22T08:56:02Z</time>
      </trkpt>
      <trkpt lat="46.52944" lon="0.32502">
        <ele>123.6</ele>
        <time>2024-09-22T08:56:05Z</time>
      </trkpt>
      <trkpt lat="46.52945" lon="0.32513">
        <ele>123.8</ele>
        <time>2024-09-22T08:56:07Z</time>
      </trkpt>
      <trkpt lat="46.52945" lon="0.32519">
        <ele>124</ele>
        <time>2024-09-22T08:56:08Z</time>
      </trkpt>
      <trkpt lat="46.52946" lon="0.32525">
        <ele>124.4</ele>
        <time>2024-09-22T08:56:09Z</time>
      </trkpt>
      <trkpt lat="46.52951" lon="0.32535">
        <ele>124.6</ele>
        <time>2024-09-22T08:56:11Z</time>
      </trkpt>
      <trkpt lat="46.52954" lon="0.32538">
        <ele>124.6</ele>
        <time>2024-09-22T08:56:12Z</time>
      </trkpt>
      <trkpt lat="46.52966" lon="0.32556">
        <ele>124.8</ele>
        <time>2024-09-22T08:56:16Z</time>
      </trkpt>
      <trkpt lat="46.5297" lon="0.32565">
        <ele>125</ele>
        <time>2024-09-22T08:56:18Z</time>
      </trkpt>
      <trkpt lat="46.52977" lon="0.32578">
        <ele>124.8</ele>
        <time>2024-09-22T08:56:21Z</time>
      </trkpt>
      <trkpt lat="46.52984" lon="0.32583">
        <ele>124.8</ele>
        <time>2024-09-22T08:56:23Z</time>
      </trkpt>
      <trkpt lat="46.53009" lon="0.32607">
        <ele>125</ele>
        <time>2024-09-22T08:56:29Z</time>
      </trkpt>
      <trkpt lat="46.53013" lon="0.32612">
        <ele>125</ele>
        <time>2024-09-22T08:56:30Z</time>
      </trkpt>
      <trkpt lat="46.53019" lon="0.32624">
        <ele>125.2</ele>
        <time>2024-09-22T08:56:32Z</time>
      </trkpt>
      <trkpt lat="46.53024" lon="0.32636">
        <ele>125.2</ele>
        <time>2024-09-22T08:56:34Z</time>
      </trkpt>
      <trkpt lat="46.53043" lon="0.32682">
        <ele>125.4</ele>
        <time>2024-09-22T08:56:41Z</time>
      </trkpt>
      <trkpt lat="46.53059" lon="0.32706">
        <ele>124</ele>
        <time>2024-09-22T08:56:46Z</time>
      </trkpt>
      <trkpt lat="46.53062" lon="0.32708">
        <ele>123.4</ele>
        <time>2024-09-22T08:56:47Z</time>
      </trkpt>
      <trkpt lat="46.53066" lon="0.32708">
        <ele>123</ele>
        <time>2024-09-22T08:56:48Z</time>
      </trkpt>
      <trkpt lat="46.53073" lon="0.32708">
        <ele>122.8</ele>
        <time>2024-09-22T08:56:50Z</time>
      </trkpt>
      <trkpt lat="46.5308" lon="0.32707">
        <ele>122.8</ele>
        <time>2024-09-22T08:56:52Z</time>
      </trkpt>
      <trkpt lat="46.53084" lon="0.32706">
        <ele>122.6</ele>
        <time>2024-09-22T08:56:53Z</time>
      </trkpt>
      <trkpt lat="46.53089" lon="0.32706">
        <ele>122.2</ele>
        <time>2024-09-22T08:56:54Z</time>
      </trkpt>
      <trkpt lat="46.53104" lon="0.32704">
        <ele>121.8</ele>
        <time>2024-09-22T08:56:57Z</time>
      </trkpt>
      <trkpt lat="46.53112" lon="0.32703">
        <ele>121.4</ele>
        <time>2024-09-22T08:56:59Z</time>
      </trkpt>
      <trkpt lat="46.5312" lon="0.32704">
        <ele>121</ele>
        <time>2024-09-22T08:57:01Z</time>
      </trkpt>
      <trkpt lat="46.53124" lon="0.32705">
        <ele>120.8</ele>
        <time>2024-09-22T08:57:02Z</time>
      </trkpt>
      <trkpt lat="46.53144" lon="0.32713">
        <ele>120</ele>
        <time>2024-09-22T08:57:06Z</time>
      </trkpt>
      <trkpt lat="46.53149" lon="0.32714">
        <ele>120</ele>
        <time>2024-09-22T08:57:07Z</time>
      </trkpt>
      <trkpt lat="46.53154" lon="0.32716">
        <ele>119.8</ele>
        <time>2024-09-22T08:57:08Z</time>
      </trkpt>
      <trkpt lat="46.53181" lon="0.32725">
        <ele>120.4</ele>
        <time>2024-09-22T08:57:13Z</time>
      </trkpt>
      <trkpt lat="46.53186" lon="0.32725">
        <ele>120.4</ele>
        <time>2024-09-22T08:57:14Z</time>
      </trkpt>
      <trkpt lat="46.5319" lon="0.32724">
        <ele>120.4</ele>
        <time>2024-09-22T08:57:15Z</time>
      </trkpt>
      <trkpt lat="46.53207" lon="0.32724">
        <ele>120.4</ele>
        <time>2024-09-22T08:57:18Z</time>
      </trkpt>
      <trkpt lat="46.53212" lon="0.32725">
        <ele>120.4</ele>
        <time>2024-09-22T08:57:19Z</time>
      </trkpt>
      <trkpt lat="46.53217" lon="0.32727">
        <ele>120.4</ele>
        <time>2024-09-22T08:57:20Z</time>
      </trkpt>
      <trkpt lat="46.53227" lon="0.32729">
        <ele>120.6</ele>
        <time>2024-09-22T08:57:22Z</time>
      </trkpt>
      <trkpt lat="46.53232" lon="0.32728">
        <ele>120.6</ele>
        <time>2024-09-22T08:57:23Z</time>
      </trkpt>
      <trkpt lat="46.53265" lon="0.32718">
        <ele>120.6</ele>
        <time>2024-09-22T08:57:29Z</time>
      </trkpt>
      <trkpt lat="46.53274" lon="0.32722">
        <ele>120.4</ele>
        <time>2024-09-22T08:57:31Z</time>
      </trkpt>
      <trkpt lat="46.53277" lon="0.32724">
        <ele>120.6</ele>
        <time>2024-09-22T08:57:32Z</time>
      </trkpt>
      <trkpt lat="46.53279" lon="0.32727">
        <ele>120.6</ele>
        <time>2024-09-22T08:57:33Z</time>
      </trkpt>
      <trkpt lat="46.53288" lon="0.32735">
        <ele>120.6</ele>
        <time>2024-09-22T08:57:36Z</time>
      </trkpt>
      <trkpt lat="46.53299" lon="0.32751">
        <ele>120.6</ele>
        <time>2024-09-22T08:57:41Z</time>
      </trkpt>
      <trkpt lat="46.53303" lon="0.32759">
        <ele>120.6</ele>
        <time>2024-09-22T08:57:43Z</time>
      </trkpt>
      <trkpt lat="46.53305" lon="0.32764">
        <ele>120.8</ele>
        <time>2024-09-22T08:57:44Z</time>
      </trkpt>
      <trkpt lat="46.53308" lon="0.32778">
        <ele>120.8</ele>
        <time>2024-09-22T08:57:46Z</time>
      </trkpt>
      <trkpt lat="46.53312" lon="0.32792">
        <ele>120.8</ele>
        <time>2024-09-22T08:57:48Z</time>
      </trkpt>
      <trkpt lat="46.53316" lon="0.32804">
        <ele>121</ele>
        <time>2024-09-22T08:57:50Z</time>
      </trkpt>
      <trkpt lat="46.5332" lon="0.3281">
        <ele>121</ele>
        <time>2024-09-22T08:57:52Z</time>
      </trkpt>
      <trkpt lat="46.53331" lon="0.32818">
        <ele>121.4</ele>
        <time>2024-09-22T08:57:56Z</time>
      </trkpt>
      <trkpt lat="46.5334" lon="0.32841">
        <ele>121.6</ele>
        <time>2024-09-22T08:58:01Z</time>
      </trkpt>
      <trkpt lat="46.5334" lon="0.32846">
        <ele>121.6</ele>
        <time>2024-09-22T08:58:02Z</time>
      </trkpt>
      <trkpt lat="46.53341" lon="0.32862">
        <ele>122</ele>
        <time>2024-09-22T08:58:06Z</time>
      </trkpt>
      <trkpt lat="46.53342" lon="0.32884">
        <ele>121.4</ele>
        <time>2024-09-22T08:58:10Z</time>
      </trkpt>
      <trkpt lat="46.53344" lon="0.32889">
        <ele>121.4</ele>
        <time>2024-09-22T08:58:11Z</time>
      </trkpt>
      <trkpt lat="46.53344" lon="0.32894">
        <ele>121.2</ele>
        <time>2024-09-22T08:58:12Z</time>
      </trkpt>
      <trkpt lat="46.53348" lon="0.32908">
        <ele>121.2</ele>
        <time>2024-09-22T08:58:15Z</time>
      </trkpt>
      <trkpt lat="46.53349" lon="0.32913">
        <ele>121.2</ele>
        <time>2024-09-22T08:58:16Z</time>
      </trkpt>
      <trkpt lat="46.5335" lon="0.32927">
        <ele>121</ele>
        <time>2024-09-22T08:58:19Z</time>
      </trkpt>
      <trkpt lat="46.53351" lon="0.32937">
        <ele>120.6</ele>
        <time>2024-09-22T08:58:21Z</time>
      </trkpt>
      <trkpt lat="46.53366" lon="0.32968">
        <ele>120</ele>
        <time>2024-09-22T08:58:27Z</time>
      </trkpt>
      <trkpt lat="46.53367" lon="0.32971">
        <ele>119.8</ele>
        <time>2024-09-22T08:58:28Z</time>
      </trkpt>
      <trkpt lat="46.53372" lon="0.32985">
        <ele>118.4</ele>
        <time>2024-09-22T08:58:31Z</time>
      </trkpt>
      <trkpt lat="46.53375" lon="0.32992">
        <ele>118.2</ele>
        <time>2024-09-22T08:58:32Z</time>
      </trkpt>
      <trkpt lat="46.53377" lon="0.33002">
        <ele>117.4</ele>
        <time>2024-09-22T08:58:34Z</time>
      </trkpt>
      <trkpt lat="46.53378" lon="0.33011">
        <ele>116.4</ele>
        <time>2024-09-22T08:58:36Z</time>
      </trkpt>
      <trkpt lat="46.53383" lon="0.33023">
        <ele>115</ele>
        <time>2024-09-22T08:58:39Z</time>
      </trkpt>
      <trkpt lat="46.53383" lon="0.33027">
        <ele>114.4</ele>
        <time>2024-09-22T08:58:40Z</time>
      </trkpt>
      <trkpt lat="46.53385" lon="0.33029">
        <ele>114</ele>
        <time>2024-09-22T08:58:41Z</time>
      </trkpt>
      <trkpt lat="46.53391" lon="0.33032">
        <ele>113.2</ele>
        <time>2024-09-22T08:58:43Z</time>
      </trkpt>
      <trkpt lat="46.53396" lon="0.33036">
        <ele>112.6</ele>
        <time>2024-09-22T08:58:45Z</time>
      </trkpt>
      <trkpt lat="46.53398" lon="0.33038">
        <ele>112.2</ele>
        <time>2024-09-22T08:58:46Z</time>
      </trkpt>
      <trkpt lat="46.53399" lon="0.33041">
        <ele>112.2</ele>
        <time>2024-09-22T08:58:47Z</time>
      </trkpt>
      <trkpt lat="46.53404" lon="0.33053">
        <ele>111.4</ele>
        <time>2024-09-22T08:58:50Z</time>
      </trkpt>
      <trkpt lat="46.53406" lon="0.33057">
        <ele>111</ele>
        <time>2024-09-22T08:58:51Z</time>
      </trkpt>
      <trkpt lat="46.53407" lon="0.33061">
        <ele>110.8</ele>
        <time>2024-09-22T08:58:52Z</time>
      </trkpt>
      <trkpt lat="46.5341" lon="0.33071">
        <ele>110.4</ele>
        <time>2024-09-22T08:58:54Z</time>
      </trkpt>
      <trkpt lat="46.53413" lon="0.3308">
        <ele>110.2</ele>
        <time>2024-09-22T08:58:56Z</time>
      </trkpt>
      <trkpt lat="46.53412" lon="0.33087">
        <ele>110.2</ele>
        <time>2024-09-22T08:58:57Z</time>
      </trkpt>
      <trkpt lat="46.5341" lon="0.33091">
        <ele>110</ele>
        <time>2024-09-22T08:58:58Z</time>
      </trkpt>
      <trkpt lat="46.53403" lon="0.33102">
        <ele>110.6</ele>
        <time>2024-09-22T08:59:02Z</time>
      </trkpt>
      <trkpt lat="46.53398" lon="0.33109">
        <ele>111.6</ele>
        <time>2024-09-22T08:59:05Z</time>
      </trkpt>
      <trkpt lat="46.53395" lon="0.33113">
        <ele>112.6</ele>
        <time>2024-09-22T08:59:07Z</time>
      </trkpt>
      <trkpt lat="46.53394" lon="0.33116">
        <ele>113</ele>
        <time>2024-09-22T08:59:08Z</time>
      </trkpt>
      <trkpt lat="46.53385" lon="0.33124">
        <ele>113.2</ele>
        <time>2024-09-22T08:59:14Z</time>
      </trkpt>
      <trkpt lat="46.5338" lon="0.33129">
        <ele>113.8</ele>
        <time>2024-09-22T08:59:16Z</time>
      </trkpt>
      <trkpt lat="46.53368" lon="0.3314">
        <ele>114.4</ele>
        <time>2024-09-22T08:59:22Z</time>
      </trkpt>
      <trkpt lat="46.53359" lon="0.33146">
        <ele>115</ele>
        <time>2024-09-22T08:59:26Z</time>
      </trkpt>
      <trkpt lat="46.53348" lon="0.3315">
        <ele>115.6</ele>
        <time>2024-09-22T08:59:30Z</time>
      </trkpt>
      <trkpt lat="46.53333" lon="0.33155">
        <ele>115.6</ele>
        <time>2024-09-22T08:59:35Z</time>
      </trkpt>
      <trkpt lat="46.53325" lon="0.33162">
        <ele>115.8</ele>
        <time>2024-09-22T08:59:37Z</time>
      </trkpt>
      <trkpt lat="46.53309" lon="0.33167">
        <ele>116</ele>
        <time>2024-09-22T08:59:42Z</time>
      </trkpt>
      <trkpt lat="46.53304" lon="0.33168">
        <ele>116.4</ele>
        <time>2024-09-22T08:59:44Z</time>
      </trkpt>
      <trkpt lat="46.53284" lon="0.33178">
        <ele>117</ele>
        <time>2024-09-22T08:59:50Z</time>
      </trkpt>
      <trkpt lat="46.53282" lon="0.33179">
        <ele>117.2</ele>
        <time>2024-09-22T08:59:51Z</time>
      </trkpt>
      <trkpt lat="46.53258" lon="0.33192">
        <ele>118</ele>
        <time>2024-09-22T08:59:59Z</time>
      </trkpt>
      <trkpt lat="46.53246" lon="0.33204">
        <ele>118.6</ele>
        <time>2024-09-22T09:00:02Z</time>
      </trkpt>
      <trkpt lat="46.53242" lon="0.33213">
        <ele>118.8</ele>
        <time>2024-09-22T09:00:04Z</time>
      </trkpt>
      <trkpt lat="46.53241" lon="0.33234">
        <ele>118.2</ele>
        <time>2024-09-22T09:00:08Z</time>
      </trkpt>
      <trkpt lat="46.53242" lon="0.33251">
        <ele>117.6</ele>
        <time>2024-09-22T09:00:11Z</time>
      </trkpt>
      <trkpt lat="46.53247" lon="0.33261">
        <ele>117.2</ele>
        <time>2024-09-22T09:00:13Z</time>
      </trkpt>
      <trkpt lat="46.53252" lon="0.33277">
        <ele>116.8</ele>
        <time>2024-09-22T09:00:15Z</time>
      </trkpt>
      <trkpt lat="46.53255" lon="0.33293">
        <ele>115.6</ele>
        <time>2024-09-22T09:00:17Z</time>
      </trkpt>
      <trkpt lat="46.53259" lon="0.33312">
        <ele>114.4</ele>
        <time>2024-09-22T09:00:19Z</time>
      </trkpt>
      <trkpt lat="46.53263" lon="0.33341">
        <ele>113.6</ele>
        <time>2024-09-22T09:00:22Z</time>
      </trkpt>
      <trkpt lat="46.53267" lon="0.33376">
        <ele>113.4</ele>
        <time>2024-09-22T09:00:25Z</time>
      </trkpt>
      <trkpt lat="46.53272" lon="0.33405">
        <ele>112.8</ele>
        <time>2024-09-22T09:00:28Z</time>
      </trkpt>
      <trkpt lat="46.53277" lon="0.33427">
        <ele>112.4</ele>
        <time>2024-09-22T09:00:31Z</time>
      </trkpt>
      <trkpt lat="46.53277" lon="0.33432">
        <ele>112.2</ele>
        <time>2024-09-22T09:00:32Z</time>
      </trkpt>
      <trkpt lat="46.53278" lon="0.33436">
        <ele>112.2</ele>
        <time>2024-09-22T09:00:33Z</time>
      </trkpt>
      <trkpt lat="46.5328" lon="0.33443">
        <ele>111.2</ele>
        <time>2024-09-22T09:00:36Z</time>
      </trkpt>
      <trkpt lat="46.5328" lon="0.33445">
        <ele>111</ele>
        <time>2024-09-22T09:00:37Z</time>
      </trkpt>
      <trkpt lat="46.5328" lon="0.33448">
        <ele>110.6</ele>
        <time>2024-09-22T09:00:39Z</time>
      </trkpt>
      <trkpt lat="46.53282" lon="0.33451">
        <ele>110.6</ele>
        <time>2024-09-22T09:00:42Z</time>
      </trkpt>
      <trkpt lat="46.53281" lon="0.33454">
        <ele>110.6</ele>
        <time>2024-09-22T09:00:45Z</time>
      </trkpt>
      <trkpt lat="46.53281" lon="0.33454">
        <ele>109.6</ele>
        <time>2024-09-22T09:00:46Z</time>
      </trkpt>
      <trkpt lat="46.53281" lon="0.33455">
        <ele>108.6</ele>
        <time>2024-09-22T09:00:49Z</time>
      </trkpt>
      <trkpt lat="46.53281" lon="0.33455">
        <ele>108.6</ele>
        <time>2024-09-22T09:01:01Z</time>
      </trkpt>
      <trkpt lat="46.53281" lon="0.33456">
        <ele>108</ele>
        <time>2024-09-22T09:01:58Z</time>
      </trkpt>
      <trkpt lat="46.53281" lon="0.33456">
        <ele>107.6</ele>
        <time>2024-09-22T09:02:48Z</time>
      </trkpt>
      <trkpt lat="46.53281" lon="0.33457">
        <ele>107.8</ele>
        <time>2024-09-22T09:03:43Z</time>
      </trkpt>
      <trkpt lat="46.53281" lon="0.33459">
        <ele>107.8</ele>
        <time>2024-09-22T09:04:59Z</time>
      </trkpt>
      <trkpt lat="46.5328" lon="0.3346">
        <ele>107.8</ele>
        <time>2024-09-22T09:06:55Z</time>
      </trkpt>
      <trkpt lat="46.53281" lon="0.3346">
        <ele>107.8</ele>
        <time>2024-09-22T09:07:47Z</time>
      </trkpt>
      <trkpt lat="46.53281" lon="0.3346">
        <ele>107.8</ele>
        <time>2024-09-22T09:08:48Z</time>
      </trkpt>
      <trkpt lat="46.53281" lon="0.33461">
        <ele>107.8</ele>
        <time>2024-09-22T09:09:07Z</time>
      </trkpt>
      <trkpt lat="46.53281" lon="0.33462">
        <ele>107.8</ele>
        <time>2024-09-22T09:09:33Z</time>
      </trkpt>
      <trkpt lat="46.53285" lon="0.33469">
        <ele>107.8</ele>
        <time>2024-09-22T09:09:43Z</time>
      </trkpt>
      <trkpt lat="46.53296" lon="0.33476">
        <ele>107.8</ele>
        <time>2024-09-22T09:09:46Z</time>
      </trkpt>
      <trkpt lat="46.53325" lon="0.3349">
        <ele>107.4</ele>
        <time>2024-09-22T09:09:51Z</time>
      </trkpt>
      <trkpt lat="46.53372" lon="0.33518">
        <ele>106.4</ele>
        <time>2024-09-22T09:09:58Z</time>
      </trkpt>
      <trkpt lat="46.53385" lon="0.33526">
        <ele>106.4</ele>
        <time>2024-09-22T09:10:00Z</time>
      </trkpt>
      <trkpt lat="46.53409" lon="0.33544">
        <ele>106.2</ele>
        <time>2024-09-22T09:10:04Z</time>
      </trkpt>
      <trkpt lat="46.53443" lon="0.33573">
        <ele>106</ele>
        <time>2024-09-22T09:10:10Z</time>
      </trkpt>
      <trkpt lat="46.5345" lon="0.33587">
        <ele>105.8</ele>
        <time>2024-09-22T09:10:12Z</time>
      </trkpt>
      <trkpt lat="46.5345" lon="0.33596">
        <ele>105.6</ele>
        <time>2024-09-22T09:10:13Z</time>
      </trkpt>
      <trkpt lat="46.53449" lon="0.33606">
        <ele>105.6</ele>
        <time>2024-09-22T09:10:14Z</time>
      </trkpt>
      <trkpt lat="46.53447" lon="0.33614">
        <ele>105.4</ele>
        <time>2024-09-22T09:10:15Z</time>
      </trkpt>
      <trkpt lat="46.53444" lon="0.33623">
        <ele>105.2</ele>
        <time>2024-09-22T09:10:16Z</time>
      </trkpt>
      <trkpt lat="46.53441" lon="0.33632">
        <ele>105.2</ele>
        <time>2024-09-22T09:10:17Z</time>
      </trkpt>
      <trkpt lat="46.53434" lon="0.33658">
        <ele>105</ele>
        <time>2024-09-22T09:10:20Z</time>
      </trkpt>
      <trkpt lat="46.53428" lon="0.33676">
        <ele>105</ele>
        <time>2024-09-22T09:10:22Z</time>
      </trkpt>
      <trkpt lat="46.53423" lon="0.3369">
        <ele>105</ele>
        <time>2024-09-22T09:10:24Z</time>
      </trkpt>
      <trkpt lat="46.53423" lon="0.337">
        <ele>104</ele>
        <time>2024-09-22T09:10:26Z</time>
      </trkpt>
      <trkpt lat="46.53425" lon="0.33704">
        <ele>103.8</ele>
        <time>2024-09-22T09:10:27Z</time>
      </trkpt>
      <trkpt lat="46.53426" lon="0.33706">
        <ele>103.4</ele>
        <time>2024-09-22T09:10:28Z</time>
      </trkpt>
      <trkpt lat="46.53431" lon="0.33709">
        <ele>103.2</ele>
        <time>2024-09-22T09:10:31Z</time>
      </trkpt>
      <trkpt lat="46.53445" lon="0.33715">
        <ele>103.2</ele>
        <time>2024-09-22T09:10:35Z</time>
      </trkpt>
      <trkpt lat="46.53461" lon="0.33725">
        <ele>102.8</ele>
        <time>2024-09-22T09:10:38Z</time>
      </trkpt>
      <trkpt lat="46.53473" lon="0.33735">
        <ele>101.8</ele>
        <time>2024-09-22T09:10:40Z</time>
      </trkpt>
      <trkpt lat="46.53479" lon="0.33739">
        <ele>101.2</ele>
        <time>2024-09-22T09:10:41Z</time>
      </trkpt>
      <trkpt lat="46.53511" lon="0.33756">
        <ele>100.2</ele>
        <time>2024-09-22T09:10:46Z</time>
      </trkpt>
      <trkpt lat="46.53518" lon="0.33758">
        <ele>99.6</ele>
        <time>2024-09-22T09:10:47Z</time>
      </trkpt>
      <trkpt lat="46.53533" lon="0.3376">
        <ele>98.8</ele>
        <time>2024-09-22T09:10:49Z</time>
      </trkpt>
      <trkpt lat="46.53541" lon="0.33761">
        <ele>98.4</ele>
        <time>2024-09-22T09:10:50Z</time>
      </trkpt>
      <trkpt lat="46.53557" lon="0.33763">
        <ele>97.4</ele>
        <time>2024-09-22T09:10:52Z</time>
      </trkpt>
      <trkpt lat="46.53572" lon="0.33765">
        <ele>96</ele>
        <time>2024-09-22T09:10:54Z</time>
      </trkpt>
      <trkpt lat="46.53581" lon="0.3377">
        <ele>95.2</ele>
        <time>2024-09-22T09:10:56Z</time>
      </trkpt>
      <trkpt lat="46.53584" lon="0.33773">
        <ele>94.8</ele>
        <time>2024-09-22T09:10:57Z</time>
      </trkpt>
      <trkpt lat="46.53586" lon="0.33778">
        <ele>94.8</ele>
        <time>2024-09-22T09:10:58Z</time>
      </trkpt>
      <trkpt lat="46.53587" lon="0.33784">
        <ele>94.6</ele>
        <time>2024-09-22T09:10:59Z</time>
      </trkpt>
      <trkpt lat="46.53587" lon="0.33795">
        <ele>94.2</ele>
        <time>2024-09-22T09:11:00Z</time>
      </trkpt>
      <trkpt lat="46.53586" lon="0.33804">
        <ele>93.2</ele>
        <time>2024-09-22T09:11:01Z</time>
      </trkpt>
      <trkpt lat="46.53586" lon="0.33813">
        <ele>92.8</ele>
        <time>2024-09-22T09:11:02Z</time>
      </trkpt>
      <trkpt lat="46.53585" lon="0.33821">
        <ele>92.4</ele>
        <time>2024-09-22T09:11:03Z</time>
      </trkpt>
      <trkpt lat="46.53584" lon="0.33829">
        <ele>91.8</ele>
        <time>2024-09-22T09:11:04Z</time>
      </trkpt>
      <trkpt lat="46.53583" lon="0.33834">
        <ele>91</ele>
        <time>2024-09-22T09:11:05Z</time>
      </trkpt>
      <trkpt lat="46.53581" lon="0.33838">
        <ele>90.4</ele>
        <time>2024-09-22T09:11:06Z</time>
      </trkpt>
      <trkpt lat="46.53578" lon="0.33841">
        <ele>89.8</ele>
        <time>2024-09-22T09:11:07Z</time>
      </trkpt>
      <trkpt lat="46.53575" lon="0.33843">
        <ele>89.2</ele>
        <time>2024-09-22T09:11:08Z</time>
      </trkpt>
      <trkpt lat="46.53571" lon="0.33844">
        <ele>89</ele>
        <time>2024-09-22T09:11:09Z</time>
      </trkpt>
      <trkpt lat="46.53565" lon="0.33845">
        <ele>88.6</ele>
        <time>2024-09-22T09:11:10Z</time>
      </trkpt>
      <trkpt lat="46.53559" lon="0.33844">
        <ele>88.6</ele>
        <time>2024-09-22T09:11:11Z</time>
      </trkpt>
      <trkpt lat="46.53552" lon="0.33842">
        <ele>87.2</ele>
        <time>2024-09-22T09:11:12Z</time>
      </trkpt>
      <trkpt lat="46.53546" lon="0.33839">
        <ele>86</ele>
        <time>2024-09-22T09:11:13Z</time>
      </trkpt>
      <trkpt lat="46.5354" lon="0.33837">
        <ele>85.2</ele>
        <time>2024-09-22T09:11:14Z</time>
      </trkpt>
      <trkpt lat="46.53535" lon="0.33836">
        <ele>83.8</ele>
        <time>2024-09-22T09:11:15Z</time>
      </trkpt>
      <trkpt lat="46.5353" lon="0.33834">
        <ele>82.6</ele>
        <time>2024-09-22T09:11:16Z</time>
      </trkpt>
      <trkpt lat="46.53526" lon="0.33832">
        <ele>81.8</ele>
        <time>2024-09-22T09:11:17Z</time>
      </trkpt>
      <trkpt lat="46.53522" lon="0.33829">
        <ele>81</ele>
        <time>2024-09-22T09:11:18Z</time>
      </trkpt>
      <trkpt lat="46.53517" lon="0.33826">
        <ele>80.2</ele>
        <time>2024-09-22T09:11:19Z</time>
      </trkpt>
      <trkpt lat="46.53512" lon="0.33824">
        <ele>79.6</ele>
        <time>2024-09-22T09:11:20Z</time>
      </trkpt>
      <trkpt lat="46.53507" lon="0.33822">
        <ele>79</ele>
        <time>2024-09-22T09:11:21Z</time>
      </trkpt>
      <trkpt lat="46.53501" lon="0.33822">
        <ele>78.4</ele>
        <time>2024-09-22T09:11:22Z</time>
      </trkpt>
      <trkpt lat="46.53492" lon="0.3382">
        <ele>77.6</ele>
        <time>2024-09-22T09:11:24Z</time>
      </trkpt>
      <trkpt lat="46.53488" lon="0.33821">
        <ele>77</ele>
        <time>2024-09-22T09:11:25Z</time>
      </trkpt>
      <trkpt lat="46.53486" lon="0.33823">
        <ele>74.8</ele>
        <time>2024-09-22T09:11:26Z</time>
      </trkpt>
      <trkpt lat="46.53484" lon="0.33826">
        <ele>73</ele>
        <time>2024-09-22T09:11:27Z</time>
      </trkpt>
      <trkpt lat="46.53478" lon="0.33829">
        <ele>71.2</ele>
        <time>2024-09-22T09:11:29Z</time>
      </trkpt>
      <trkpt lat="46.53476" lon="0.33828">
        <ele>71</ele>
        <time>2024-09-22T09:11:30Z</time>
      </trkpt>
      <trkpt lat="46.53459" lon="0.33817">
        <ele>70.4</ele>
        <time>2024-09-22T09:11:34Z</time>
      </trkpt>
      <trkpt lat="46.53453" lon="0.33814">
        <ele>70.2</ele>
        <time>2024-09-22T09:11:35Z</time>
      </trkpt>
      <trkpt lat="46.53425" lon="0.33802">
        <ele>70.4</ele>
        <time>2024-09-22T09:11:40Z</time>
      </trkpt>
      <trkpt lat="46.53388" lon="0.33785">
        <ele>70.8</ele>
        <time>2024-09-22T09:11:47Z</time>
      </trkpt>
      <trkpt lat="46.53346" lon="0.33765">
        <ele>70.8</ele>
        <time>2024-09-22T09:11:55Z</time>
      </trkpt>
      <trkpt lat="46.53318" lon="0.33752">
        <ele>70.6</ele>
        <time>2024-09-22T09:12:00Z</time>
      </trkpt>
      <trkpt lat="46.5331" lon="0.33748">
        <ele>71.2</ele>
        <time>2024-09-22T09:12:02Z</time>
      </trkpt>
      <trkpt lat="46.53298" lon="0.33742">
        <ele>71.4</ele>
        <time>2024-09-22T09:12:06Z</time>
      </trkpt>
      <trkpt lat="46.53288" lon="0.33738">
        <ele>71</ele>
        <time>2024-09-22T09:12:08Z</time>
      </trkpt>
      <trkpt lat="46.53278" lon="0.33733">
        <ele>70.4</ele>
        <time>2024-09-22T09:12:10Z</time>
      </trkpt>
      <trkpt lat="46.53256" lon="0.33722">
        <ele>70.6</ele>
        <time>2024-09-22T09:12:14Z</time>
      </trkpt>
      <trkpt lat="46.53246" lon="0.33715">
        <ele>70.8</ele>
        <time>2024-09-22T09:12:16Z</time>
      </trkpt>
      <trkpt lat="46.53212" lon="0.33697">
        <ele>70.6</ele>
        <time>2024-09-22T09:12:22Z</time>
      </trkpt>
      <trkpt lat="46.53174" lon="0.33678">
        <ele>70.4</ele>
        <time>2024-09-22T09:12:29Z</time>
      </trkpt>
      <trkpt lat="46.53136" lon="0.33662">
        <ele>70.6</ele>
        <time>2024-09-22T09:12:37Z</time>
      </trkpt>
      <trkpt lat="46.53112" lon="0.33651">
        <ele>70.4</ele>
        <time>2024-09-22T09:12:43Z</time>
      </trkpt>
      <trkpt lat="46.53108" lon="0.33652">
        <ele>70.2</ele>
        <time>2024-09-22T09:12:45Z</time>
      </trkpt>
      <trkpt lat="46.53103" lon="0.33653">
        <ele>70.2</ele>
        <time>2024-09-22T09:12:47Z</time>
      </trkpt>
      <trkpt lat="46.53092" lon="0.33654">
        <ele>69.8</ele>
        <time>2024-09-22T09:12:50Z</time>
      </trkpt>
      <trkpt lat="46.53087" lon="0.33655">
        <ele>69.8</ele>
        <time>2024-09-22T09:12:51Z</time>
      </trkpt>
      <trkpt lat="46.53055" lon="0.33667">
        <ele>70.4</ele>
        <time>2024-09-22T09:12:57Z</time>
      </trkpt>
      <trkpt lat="46.53016" lon="0.33676">
        <ele>70.2</ele>
        <time>2024-09-22T09:13:04Z</time>
      </trkpt>
      <trkpt lat="46.52985" lon="0.33679">
        <ele>70.8</ele>
        <time>2024-09-22T09:13:09Z</time>
      </trkpt>
      <trkpt lat="46.52978" lon="0.33679">
        <ele>70.8</ele>
        <time>2024-09-22T09:13:10Z</time>
      </trkpt>
      <trkpt lat="46.52953" lon="0.33674">
        <ele>71.4</ele>
        <time>2024-09-22T09:13:14Z</time>
      </trkpt>
      <trkpt lat="46.52913" lon="0.33661">
        <ele>70.2</ele>
        <time>2024-09-22T09:13:21Z</time>
      </trkpt>
      <trkpt lat="46.52872" lon="0.33649">
        <ele>70.4</ele>
        <time>2024-09-22T09:13:28Z</time>
      </trkpt>
      <trkpt lat="46.52832" lon="0.33635">
        <ele>70.2</ele>
        <time>2024-09-22T09:13:35Z</time>
      </trkpt>
      <trkpt lat="46.52821" lon="0.33633">
        <ele>70.2</ele>
        <time>2024-09-22T09:13:37Z</time>
      </trkpt>
      <trkpt lat="46.52806" lon="0.33633">
        <ele>70.2</ele>
        <time>2024-09-22T09:13:40Z</time>
      </trkpt>
      <trkpt lat="46.52781" lon="0.33637">
        <ele>69.8</ele>
        <time>2024-09-22T09:13:45Z</time>
      </trkpt>
      <trkpt lat="46.52776" lon="0.33637">
        <ele>69.8</ele>
        <time>2024-09-22T09:13:46Z</time>
      </trkpt>
      <trkpt lat="46.5277" lon="0.33636">
        <ele>69.8</ele>
        <time>2024-09-22T09:13:47Z</time>
      </trkpt>
      <trkpt lat="46.52748" lon="0.33628">
        <ele>70</ele>
        <time>2024-09-22T09:13:51Z</time>
      </trkpt>
      <trkpt lat="46.52714" lon="0.33616">
        <ele>70.2</ele>
        <time>2024-09-22T09:13:58Z</time>
      </trkpt>
      <trkpt lat="46.52709" lon="0.33616">
        <ele>70.2</ele>
        <time>2024-09-22T09:13:59Z</time>
      </trkpt>
      <trkpt lat="46.5269" lon="0.33617">
        <ele>70.2</ele>
        <time>2024-09-22T09:14:03Z</time>
      </trkpt>
      <trkpt lat="46.52655" lon="0.33623">
        <ele>70.6</ele>
        <time>2024-09-22T09:14:11Z</time>
      </trkpt>
      <trkpt lat="46.52647" lon="0.33622">
        <ele>70.8</ele>
        <time>2024-09-22T09:14:13Z</time>
      </trkpt>
      <trkpt lat="46.5264" lon="0.33619">
        <ele>71.4</ele>
        <time>2024-09-22T09:14:15Z</time>
      </trkpt>
      <trkpt lat="46.52636" lon="0.33617">
        <ele>71.8</ele>
        <time>2024-09-22T09:14:16Z</time>
      </trkpt>
      <trkpt lat="46.52617" lon="0.33616">
        <ele>72.6</ele>
        <time>2024-09-22T09:14:21Z</time>
      </trkpt>
      <trkpt lat="46.52594" lon="0.33618">
        <ele>73.8</ele>
        <time>2024-09-22T09:14:28Z</time>
      </trkpt>
      <trkpt lat="46.52591" lon="0.33618">
        <ele>74</ele>
        <time>2024-09-22T09:14:29Z</time>
      </trkpt>
      <trkpt lat="46.52584" lon="0.33618">
        <ele>74.8</ele>
        <time>2024-09-22T09:14:31Z</time>
      </trkpt>
      <trkpt lat="46.52571" lon="0.33618">
        <ele>76</ele>
        <time>2024-09-22T09:14:35Z</time>
      </trkpt>
      <trkpt lat="46.52565" lon="0.33619">
        <ele>76.2</ele>
        <time>2024-09-22T09:14:37Z</time>
      </trkpt>
      <trkpt lat="46.52553" lon="0.33618">
        <ele>77</ele>
        <time>2024-09-22T09:14:41Z</time>
      </trkpt>
      <trkpt lat="46.52547" lon="0.33617">
        <ele>77.4</ele>
        <time>2024-09-22T09:14:43Z</time>
      </trkpt>
      <trkpt lat="46.52541" lon="0.33608">
        <ele>78.4</ele>
        <time>2024-09-22T09:14:46Z</time>
      </trkpt>
      <trkpt lat="46.5254" lon="0.33603">
        <ele>78.6</ele>
        <time>2024-09-22T09:14:47Z</time>
      </trkpt>
      <trkpt lat="46.52535" lon="0.33581">
        <ele>79.6</ele>
        <time>2024-09-22T09:14:53Z</time>
      </trkpt>
      <trkpt lat="46.52534" lon="0.33577">
        <ele>80</ele>
        <time>2024-09-22T09:14:54Z</time>
      </trkpt>
      <trkpt lat="46.5253" lon="0.3356">
        <ele>80.6</ele>
        <time>2024-09-22T09:14:58Z</time>
      </trkpt>
      <trkpt lat="46.52527" lon="0.33543">
        <ele>81.8</ele>
        <time>2024-09-22T09:15:02Z</time>
      </trkpt>
      <trkpt lat="46.52526" lon="0.33521">
        <ele>82.8</ele>
        <time>2024-09-22T09:15:07Z</time>
      </trkpt>
      <trkpt lat="46.52527" lon="0.33502">
        <ele>83.6</ele>
        <time>2024-09-22T09:15:11Z</time>
      </trkpt>
      <trkpt lat="46.52527" lon="0.33497">
        <ele>83.8</ele>
        <time>2024-09-22T09:15:12Z</time>
      </trkpt>
      <trkpt lat="46.52529" lon="0.33466">
        <ele>84.4</ele>
        <time>2024-09-22T09:15:19Z</time>
      </trkpt>
      <trkpt lat="46.52532" lon="0.33435">
        <ele>84.8</ele>
        <time>2024-09-22T09:15:25Z</time>
      </trkpt>
      <trkpt lat="46.52528" lon="0.3341">
        <ele>85</ele>
        <time>2024-09-22T09:15:31Z</time>
      </trkpt>
      <trkpt lat="46.52529" lon="0.33391">
        <ele>86</ele>
        <time>2024-09-22T09:15:36Z</time>
      </trkpt>
      <trkpt lat="46.52533" lon="0.33389">
        <ele>86.8</ele>
        <time>2024-09-22T09:15:38Z</time>
      </trkpt>
      <trkpt lat="46.52535" lon="0.3339">
        <ele>87.2</ele>
        <time>2024-09-22T09:15:39Z</time>
      </trkpt>
      <trkpt lat="46.52537" lon="0.33392">
        <ele>87.4</ele>
        <time>2024-09-22T09:15:40Z</time>
      </trkpt>
      <trkpt lat="46.52539" lon="0.33395">
        <ele>87.4</ele>
        <time>2024-09-22T09:15:41Z</time>
      </trkpt>
      <trkpt lat="46.52541" lon="0.33406">
        <ele>87.6</ele>
        <time>2024-09-22T09:15:43Z</time>
      </trkpt>
      <trkpt lat="46.52544" lon="0.3342">
        <ele>87.2</ele>
        <time>2024-09-22T09:15:46Z</time>
      </trkpt>
      <trkpt lat="46.52547" lon="0.33422">
        <ele>87.2</ele>
        <time>2024-09-22T09:15:47Z</time>
      </trkpt>
      <trkpt lat="46.5255" lon="0.33421">
        <ele>87.4</ele>
        <time>2024-09-22T09:15:48Z</time>
      </trkpt>
      <trkpt lat="46.52557" lon="0.33416">
        <ele>87</ele>
        <time>2024-09-22T09:15:50Z</time>
      </trkpt>
      <trkpt lat="46.52568" lon="0.33405">
        <ele>87</ele>
        <time>2024-09-22T09:15:54Z</time>
      </trkpt>
      <trkpt lat="46.52572" lon="0.33394">
        <ele>86.8</ele>
        <time>2024-09-22T09:15:56Z</time>
      </trkpt>
      <trkpt lat="46.5257" lon="0.33384">
        <ele>86.6</ele>
        <time>2024-09-22T09:15:58Z</time>
      </trkpt>
      <trkpt lat="46.52555" lon="0.33377">
        <ele>87.2</ele>
        <time>2024-09-22T09:16:03Z</time>
      </trkpt>
      <trkpt lat="46.5254" lon="0.33381">
        <ele>88.2</ele>
        <time>2024-09-22T09:16:08Z</time>
      </trkpt>
      <trkpt lat="46.52538" lon="0.33383">
        <ele>88</ele>
        <time>2024-09-22T09:16:09Z</time>
      </trkpt>
      <trkpt lat="46.52533" lon="0.33386">
        <ele>88.2</ele>
        <time>2024-09-22T09:16:11Z</time>
      </trkpt>
      <trkpt lat="46.52526" lon="0.33383">
        <ele>87.6</ele>
        <time>2024-09-22T09:16:13Z</time>
      </trkpt>
      <trkpt lat="46.52523" lon="0.33379">
        <ele>86.8</ele>
        <time>2024-09-22T09:16:14Z</time>
      </trkpt>
      <trkpt lat="46.52521" lon="0.33375">
        <ele>86.2</ele>
        <time>2024-09-22T09:16:15Z</time>
      </trkpt>
      <trkpt lat="46.52521" lon="0.33369">
        <ele>86</ele>
        <time>2024-09-22T09:16:16Z</time>
      </trkpt>
      <trkpt lat="46.52522" lon="0.33364">
        <ele>85.6</ele>
        <time>2024-09-22T09:16:17Z</time>
      </trkpt>
      <trkpt lat="46.52529" lon="0.33354">
        <ele>85.6</ele>
        <time>2024-09-22T09:16:20Z</time>
      </trkpt>
      <trkpt lat="46.52544" lon="0.33352">
        <ele>85.8</ele>
        <time>2024-09-22T09:16:25Z</time>
      </trkpt>
      <trkpt lat="46.52567" lon="0.33356">
        <ele>86</ele>
        <time>2024-09-22T09:16:31Z</time>
      </trkpt>
      <trkpt lat="46.52585" lon="0.33367">
        <ele>85.6</ele>
        <time>2024-09-22T09:16:35Z</time>
      </trkpt>
      <trkpt lat="46.5259" lon="0.33369">
        <ele>85.6</ele>
        <time>2024-09-22T09:16:36Z</time>
      </trkpt>
      <trkpt lat="46.52595" lon="0.33372">
        <ele>85.6</ele>
        <time>2024-09-22T09:16:37Z</time>
      </trkpt>
      <trkpt lat="46.52603" lon="0.33379">
        <ele>85.8</ele>
        <time>2024-09-22T09:16:39Z</time>
      </trkpt>
      <trkpt lat="46.52606" lon="0.33383">
        <ele>85.8</ele>
        <time>2024-09-22T09:16:40Z</time>
      </trkpt>
      <trkpt lat="46.52612" lon="0.33391">
        <ele>86</ele>
        <time>2024-09-22T09:16:42Z</time>
      </trkpt>
      <trkpt lat="46.52617" lon="0.33398">
        <ele>86</ele>
        <time>2024-09-22T09:16:44Z</time>
      </trkpt>
      <trkpt lat="46.52619" lon="0.33401">
        <ele>86.2</ele>
        <time>2024-09-22T09:16:45Z</time>
      </trkpt>
      <trkpt lat="46.52625" lon="0.33407">
        <ele>86.4</ele>
        <time>2024-09-22T09:16:47Z</time>
      </trkpt>
      <trkpt lat="46.52631" lon="0.33411">
        <ele>86.4</ele>
        <time>2024-09-22T09:16:49Z</time>
      </trkpt>
      <trkpt lat="46.52637" lon="0.33414">
        <ele>86.6</ele>
        <time>2024-09-22T09:16:51Z</time>
      </trkpt>
      <trkpt lat="46.5264" lon="0.33415">
        <ele>86.6</ele>
        <time>2024-09-22T09:16:52Z</time>
      </trkpt>
      <trkpt lat="46.52643" lon="0.33416">
        <ele>87</ele>
        <time>2024-09-22T09:16:53Z</time>
      </trkpt>
      <trkpt lat="46.52657" lon="0.33419">
        <ele>87.6</ele>
        <time>2024-09-22T09:16:57Z</time>
      </trkpt>
      <trkpt lat="46.52661" lon="0.33419">
        <ele>88.2</ele>
        <time>2024-09-22T09:16:58Z</time>
      </trkpt>
      <trkpt lat="46.5267" lon="0.33422">
        <ele>89.2</ele>
        <time>2024-09-22T09:17:01Z</time>
      </trkpt>
      <trkpt lat="46.52679" lon="0.33425">
        <ele>89.8</ele>
        <time>2024-09-22T09:17:04Z</time>
      </trkpt>
      <trkpt lat="46.52686" lon="0.33426">
        <ele>90.2</ele>
        <time>2024-09-22T09:17:06Z</time>
      </trkpt>
      <trkpt lat="46.52701" lon="0.33427">
        <ele>91.4</ele>
        <time>2024-09-22T09:17:10Z</time>
      </trkpt>
      <trkpt lat="46.52704" lon="0.33427">
        <ele>91.4</ele>
        <time>2024-09-22T09:17:11Z</time>
      </trkpt>
      <trkpt lat="46.52707" lon="0.33427">
        <ele>91.6</ele>
        <time>2024-09-22T09:17:12Z</time>
      </trkpt>
      <trkpt lat="46.52714" lon="0.33429">
        <ele>91.6</ele>
        <time>2024-09-22T09:17:14Z</time>
      </trkpt>
      <trkpt lat="46.5272" lon="0.33433">
        <ele>91.6</ele>
        <time>2024-09-22T09:17:16Z</time>
      </trkpt>
      <trkpt lat="46.52744" lon="0.33442">
        <ele>92.6</ele>
        <time>2024-09-22T09:17:21Z</time>
      </trkpt>
      <trkpt lat="46.52748" lon="0.33444">
        <ele>92.6</ele>
        <time>2024-09-22T09:17:22Z</time>
      </trkpt>
      <trkpt lat="46.52756" lon="0.33445">
        <ele>92.8</ele>
        <time>2024-09-22T09:17:24Z</time>
      </trkpt>
      <trkpt lat="46.52763" lon="0.33443">
        <ele>92.8</ele>
        <time>2024-09-22T09:17:26Z</time>
      </trkpt>
      <trkpt lat="46.52766" lon="0.33442">
        <ele>93.2</ele>
        <time>2024-09-22T09:17:27Z</time>
      </trkpt>
      <trkpt lat="46.52768" lon="0.3344">
        <ele>93.6</ele>
        <time>2024-09-22T09:17:28Z</time>
      </trkpt>
      <trkpt lat="46.52775" lon="0.3343">
        <ele>94.6</ele>
        <time>2024-09-22T09:17:32Z</time>
      </trkpt>
      <trkpt lat="46.52776" lon="0.33426">
        <ele>95</ele>
        <time>2024-09-22T09:17:33Z</time>
      </trkpt>
      <trkpt lat="46.52778" lon="0.33412">
        <ele>96</ele>
        <time>2024-09-22T09:17:37Z</time>
      </trkpt>
      <trkpt lat="46.52779" lon="0.33404">
        <ele>96.2</ele>
        <time>2024-09-22T09:17:39Z</time>
      </trkpt>
      <trkpt lat="46.52779" lon="0.334">
        <ele>96.2</ele>
        <time>2024-09-22T09:17:40Z</time>
      </trkpt>
      <trkpt lat="46.52781" lon="0.3338">
        <ele>97</ele>
        <time>2024-09-22T09:17:45Z</time>
      </trkpt>
      <trkpt lat="46.52782" lon="0.33376">
        <ele>97.2</ele>
        <time>2024-09-22T09:17:46Z</time>
      </trkpt>
      <trkpt lat="46.52782" lon="0.33372">
        <ele>97.4</ele>
        <time>2024-09-22T09:17:47Z</time>
      </trkpt>
      <trkpt lat="46.52785" lon="0.33358">
        <ele>97.6</ele>
        <time>2024-09-22T09:17:50Z</time>
      </trkpt>
      <trkpt lat="46.52788" lon="0.33349">
        <ele>97.6</ele>
        <time>2024-09-22T09:17:52Z</time>
      </trkpt>
      <trkpt lat="46.52793" lon="0.33326">
        <ele>97.8</ele>
        <time>2024-09-22T09:17:57Z</time>
      </trkpt>
      <trkpt lat="46.52793" lon="0.33321">
        <ele>97.8</ele>
        <time>2024-09-22T09:17:58Z</time>
      </trkpt>
      <trkpt lat="46.52794" lon="0.33311">
        <ele>98</ele>
        <time>2024-09-22T09:18:00Z</time>
      </trkpt>
      <trkpt lat="46.52794" lon="0.33293">
        <ele>98.8</ele>
        <time>2024-09-22T09:18:03Z</time>
      </trkpt>
      <trkpt lat="46.52794" lon="0.33286">
        <ele>99.2</ele>
        <time>2024-09-22T09:18:04Z</time>
      </trkpt>
      <trkpt lat="46.52794" lon="0.33275">
        <ele>100</ele>
        <time>2024-09-22T09:18:06Z</time>
      </trkpt>
      <trkpt lat="46.52794" lon="0.33269">
        <ele>100.2</ele>
        <time>2024-09-22T09:18:07Z</time>
      </trkpt>
      <trkpt lat="46.52794" lon="0.33245">
        <ele>101</ele>
        <time>2024-09-22T09:18:12Z</time>
      </trkpt>
      <trkpt lat="46.52794" lon="0.33239">
        <ele>101.2</ele>
        <time>2024-09-22T09:18:13Z</time>
      </trkpt>
      <trkpt lat="46.52796" lon="0.33226">
        <ele>101.6</ele>
        <time>2024-09-22T09:18:16Z</time>
      </trkpt>
      <trkpt lat="46.52803" lon="0.33216">
        <ele>102.2</ele>
        <time>2024-09-22T09:18:20Z</time>
      </trkpt>
      <trkpt lat="46.52815" lon="0.33202">
        <ele>102.8</ele>
        <time>2024-09-22T09:18:27Z</time>
      </trkpt>
      <trkpt lat="46.5282" lon="0.33197">
        <ele>104.2</ele>
        <time>2024-09-22T09:18:30Z</time>
      </trkpt>
      <trkpt lat="46.5283" lon="0.33191">
        <ele>105.4</ele>
        <time>2024-09-22T09:18:34Z</time>
      </trkpt>
      <trkpt lat="46.52832" lon="0.33189">
        <ele>105.6</ele>
        <time>2024-09-22T09:18:35Z</time>
      </trkpt>
      <trkpt lat="46.52839" lon="0.33183">
        <ele>106.6</ele>
        <time>2024-09-22T09:18:39Z</time>
      </trkpt>
      <trkpt lat="46.52847" lon="0.3318">
        <ele>107</ele>
        <time>2024-09-22T09:18:42Z</time>
      </trkpt>
      <trkpt lat="46.52852" lon="0.33178">
        <ele>107.8</ele>
        <time>2024-09-22T09:18:44Z</time>
      </trkpt>
      <trkpt lat="46.52861" lon="0.33174">
        <ele>108.8</ele>
        <time>2024-09-22T09:18:49Z</time>
      </trkpt>
      <trkpt lat="46.52864" lon="0.33173">
        <ele>109</ele>
        <time>2024-09-22T09:18:50Z</time>
      </trkpt>
      <trkpt lat="46.52869" lon="0.33169">
        <ele>109.6</ele>
        <time>2024-09-22T09:18:52Z</time>
      </trkpt>
      <trkpt lat="46.52872" lon="0.33164">
        <ele>110</ele>
        <time>2024-09-22T09:18:54Z</time>
      </trkpt>
      <trkpt lat="46.52873" lon="0.33161">
        <ele>110</ele>
        <time>2024-09-22T09:18:55Z</time>
      </trkpt>
      <trkpt lat="46.52875" lon="0.33138">
        <ele>110.2</ele>
        <time>2024-09-22T09:19:01Z</time>
      </trkpt>
      <trkpt lat="46.52875" lon="0.33128">
        <ele>110</ele>
        <time>2024-09-22T09:19:03Z</time>
      </trkpt>
      <trkpt lat="46.52878" lon="0.33106">
        <ele>110.2</ele>
        <time>2024-09-22T09:19:07Z</time>
      </trkpt>
      <trkpt lat="46.52878" lon="0.33083">
        <ele>110.2</ele>
        <time>2024-09-22T09:19:11Z</time>
      </trkpt>
      <trkpt lat="46.52876" lon="0.33071">
        <ele>110.4</ele>
        <time>2024-09-22T09:19:13Z</time>
      </trkpt>
      <trkpt lat="46.52876" lon="0.33064">
        <ele>110.6</ele>
        <time>2024-09-22T09:19:14Z</time>
      </trkpt>
      <trkpt lat="46.52875" lon="0.33036">
        <ele>111</ele>
        <time>2024-09-22T09:19:19Z</time>
      </trkpt>
      <trkpt lat="46.52873" lon="0.33026">
        <ele>111</ele>
        <time>2024-09-22T09:19:21Z</time>
      </trkpt>
      <trkpt lat="46.5287" lon="0.3301">
        <ele>112.2</ele>
        <time>2024-09-22T09:19:24Z</time>
      </trkpt>
      <trkpt lat="46.52869" lon="0.33004">
        <ele>112.6</ele>
        <time>2024-09-22T09:19:25Z</time>
      </trkpt>
      <trkpt lat="46.52861" lon="0.32973">
        <ele>113.4</ele>
        <time>2024-09-22T09:19:31Z</time>
      </trkpt>
      <trkpt lat="46.52859" lon="0.32947">
        <ele>114.4</ele>
        <time>2024-09-22T09:19:36Z</time>
      </trkpt>
      <trkpt lat="46.5286" lon="0.32941">
        <ele>114.6</ele>
        <time>2024-09-22T09:19:37Z</time>
      </trkpt>
      <trkpt lat="46.52859" lon="0.32935">
        <ele>114.8</ele>
        <time>2024-09-22T09:19:38Z</time>
      </trkpt>
      <trkpt lat="46.52852" lon="0.32896">
        <ele>115.4</ele>
        <time>2024-09-22T09:19:44Z</time>
      </trkpt>
      <trkpt lat="46.52848" lon="0.3288">
        <ele>115.8</ele>
        <time>2024-09-22T09:19:47Z</time>
      </trkpt>
      <trkpt lat="46.52844" lon="0.32863">
        <ele>116.2</ele>
        <time>2024-09-22T09:19:50Z</time>
      </trkpt>
      <trkpt lat="46.52841" lon="0.32846">
        <ele>116.8</ele>
        <time>2024-09-22T09:19:53Z</time>
      </trkpt>
      <trkpt lat="46.52839" lon="0.32828">
        <ele>117.4</ele>
        <time>2024-09-22T09:19:56Z</time>
      </trkpt>
      <trkpt lat="46.52838" lon="0.32823">
        <ele>117.4</ele>
        <time>2024-09-22T09:19:57Z</time>
      </trkpt>
      <trkpt lat="46.52833" lon="0.32802">
        <ele>117.6</ele>
        <time>2024-09-22T09:20:01Z</time>
      </trkpt>
      <trkpt lat="46.5283" lon="0.32797">
        <ele>117.6</ele>
        <time>2024-09-22T09:20:02Z</time>
      </trkpt>
      <trkpt lat="46.52825" lon="0.32788">
        <ele>117.8</ele>
        <time>2024-09-22T09:20:04Z</time>
      </trkpt>
      <trkpt lat="46.52817" lon="0.32778">
        <ele>118</ele>
        <time>2024-09-22T09:20:07Z</time>
      </trkpt>
      <trkpt lat="46.52808" lon="0.32773">
        <ele>117.8</ele>
        <time>2024-09-22T09:20:09Z</time>
      </trkpt>
      <trkpt lat="46.528" lon="0.32767">
        <ele>117.6</ele>
        <time>2024-09-22T09:20:11Z</time>
      </trkpt>
      <trkpt lat="46.52778" lon="0.32747">
        <ele>116.6</ele>
        <time>2024-09-22T09:20:16Z</time>
      </trkpt>
      <trkpt lat="46.52769" lon="0.32739">
        <ele>115.8</ele>
        <time>2024-09-22T09:20:18Z</time>
      </trkpt>
      <trkpt lat="46.52763" lon="0.32728">
        <ele>115.4</ele>
        <time>2024-09-22T09:20:20Z</time>
      </trkpt>
      <trkpt lat="46.52761" lon="0.32714">
        <ele>115.4</ele>
        <time>2024-09-22T09:20:22Z</time>
      </trkpt>
      <trkpt lat="46.52758" lon="0.32699">
        <ele>115.4</ele>
        <time>2024-09-22T09:20:24Z</time>
      </trkpt>
      <trkpt lat="46.52757" lon="0.32692">
        <ele>115.4</ele>
        <time>2024-09-22T09:20:25Z</time>
      </trkpt>
      <trkpt lat="46.52752" lon="0.32647">
        <ele>115</ele>
        <time>2024-09-22T09:20:31Z</time>
      </trkpt>
      <trkpt lat="46.52743" lon="0.32621">
        <ele>114.8</ele>
        <time>2024-09-22T09:20:35Z</time>
      </trkpt>
      <trkpt lat="46.52737" lon="0.32614">
        <ele>114.8</ele>
        <time>2024-09-22T09:20:36Z</time>
      </trkpt>
      <trkpt lat="46.52733" lon="0.32612">
        <ele>114.8</ele>
        <time>2024-09-22T09:20:37Z</time>
      </trkpt>
      <trkpt lat="46.52727" lon="0.32612">
        <ele>114.2</ele>
        <time>2024-09-22T09:20:39Z</time>
      </trkpt>
      <trkpt lat="46.52725" lon="0.3261">
        <ele>114</ele>
        <time>2024-09-22T09:20:40Z</time>
      </trkpt>
      <trkpt lat="46.52715" lon="0.32603">
        <ele>114.2</ele>
        <time>2024-09-22T09:20:42Z</time>
      </trkpt>
      <trkpt lat="46.52707" lon="0.32596">
        <ele>114.2</ele>
        <time>2024-09-22T09:20:44Z</time>
      </trkpt>
      <trkpt lat="46.52702" lon="0.32592">
        <ele>114.2</ele>
        <time>2024-09-22T09:20:45Z</time>
      </trkpt>
      <trkpt lat="46.52693" lon="0.32585">
        <ele>114.2</ele>
        <time>2024-09-22T09:20:47Z</time>
      </trkpt>
      <trkpt lat="46.52688" lon="0.32582">
        <ele>114</ele>
        <time>2024-09-22T09:20:48Z</time>
      </trkpt>
      <trkpt lat="46.52676" lon="0.32577">
        <ele>114</ele>
        <time>2024-09-22T09:20:50Z</time>
      </trkpt>
      <trkpt lat="46.52664" lon="0.32574">
        <ele>113.6</ele>
        <time>2024-09-22T09:20:52Z</time>
      </trkpt>
      <trkpt lat="46.52659" lon="0.32572">
        <ele>113.4</ele>
        <time>2024-09-22T09:20:53Z</time>
      </trkpt>
      <trkpt lat="46.52655" lon="0.32569">
        <ele>113.4</ele>
        <time>2024-09-22T09:20:54Z</time>
      </trkpt>
      <trkpt lat="46.52648" lon="0.3256">
        <ele>113.4</ele>
        <time>2024-09-22T09:20:56Z</time>
      </trkpt>
      <trkpt lat="46.52644" lon="0.32557">
        <ele>113.4</ele>
        <time>2024-09-22T09:20:57Z</time>
      </trkpt>
      <trkpt lat="46.52639" lon="0.32554">
        <ele>113.2</ele>
        <time>2024-09-22T09:20:58Z</time>
      </trkpt>
      <trkpt lat="46.52622" lon="0.32544">
        <ele>112.6</ele>
        <time>2024-09-22T09:21:01Z</time>
      </trkpt>
      <trkpt lat="46.52613" lon="0.32535">
        <ele>112.6</ele>
        <time>2024-09-22T09:21:03Z</time>
      </trkpt>
      <trkpt lat="46.52605" lon="0.32526">
        <ele>112.4</ele>
        <time>2024-09-22T09:21:05Z</time>
      </trkpt>
      <trkpt lat="46.52591" lon="0.32509">
        <ele>112.6</ele>
        <time>2024-09-22T09:21:08Z</time>
      </trkpt>
      <trkpt lat="46.52578" lon="0.32489">
        <ele>112.8</ele>
        <time>2024-09-22T09:21:11Z</time>
      </trkpt>
      <trkpt lat="46.52552" lon="0.32449">
        <ele>112.8</ele>
        <time>2024-09-22T09:21:17Z</time>
      </trkpt>
      <trkpt lat="46.52543" lon="0.32431">
        <ele>113</ele>
        <time>2024-09-22T09:21:20Z</time>
      </trkpt>
      <trkpt lat="46.52542" lon="0.32419">
        <ele>113.6</ele>
        <time>2024-09-22T09:21:22Z</time>
      </trkpt>
      <trkpt lat="46.52543" lon="0.32411">
        <ele>114.2</ele>
        <time>2024-09-22T09:21:24Z</time>
      </trkpt>
      <trkpt lat="46.52544" lon="0.32395">
        <ele>114.4</ele>
        <time>2024-09-22T09:21:27Z</time>
      </trkpt>
      <trkpt lat="46.52546" lon="0.32387">
        <ele>114.4</ele>
        <time>2024-09-22T09:21:29Z</time>
      </trkpt>
      <trkpt lat="46.52549" lon="0.32373">
        <ele>115.2</ele>
        <time>2024-09-22T09:21:33Z</time>
      </trkpt>
      <trkpt lat="46.52557" lon="0.32359">
        <ele>116.2</ele>
        <time>2024-09-22T09:21:38Z</time>
      </trkpt>
      <trkpt lat="46.52559" lon="0.32355">
        <ele>116.4</ele>
        <time>2024-09-22T09:21:39Z</time>
      </trkpt>
      <trkpt lat="46.52562" lon="0.32347">
        <ele>117.4</ele>
        <time>2024-09-22T09:21:42Z</time>
      </trkpt>
      <trkpt lat="46.52564" lon="0.32342">
        <ele>117.8</ele>
        <time>2024-09-22T09:21:44Z</time>
      </trkpt>
      <trkpt lat="46.52572" lon="0.32326">
        <ele>117.4</ele>
        <time>2024-09-22T09:21:49Z</time>
      </trkpt>
      <trkpt lat="46.52576" lon="0.32311">
        <ele>118.6</ele>
        <time>2024-09-22T09:21:54Z</time>
      </trkpt>
      <trkpt lat="46.52578" lon="0.32303">
        <ele>118.4</ele>
        <time>2024-09-22T09:21:56Z</time>
      </trkpt>
      <trkpt lat="46.5258" lon="0.32297">
        <ele>118.4</ele>
        <time>2024-09-22T09:21:58Z</time>
      </trkpt>
      <trkpt lat="46.52579" lon="0.32291">
        <ele>119</ele>
        <time>2024-09-22T09:22:00Z</time>
      </trkpt>
      <trkpt lat="46.52576" lon="0.32289">
        <ele>118.8</ele>
        <time>2024-09-22T09:22:01Z</time>
      </trkpt>
      <trkpt lat="46.5256" lon="0.32281">
        <ele>118.4</ele>
        <time>2024-09-22T09:22:07Z</time>
      </trkpt>
      <trkpt lat="46.52555" lon="0.32268">
        <ele>118.6</ele>
        <time>2024-09-22T09:22:11Z</time>
      </trkpt>
      <trkpt lat="46.52554" lon="0.32259">
        <ele>119.6</ele>
        <time>2024-09-22T09:22:13Z</time>
      </trkpt>
      <trkpt lat="46.52554" lon="0.32254">
        <ele>119.6</ele>
        <time>2024-09-22T09:22:14Z</time>
      </trkpt>
      <trkpt lat="46.52552" lon="0.32245">
        <ele>120.2</ele>
        <time>2024-09-22T09:22:17Z</time>
      </trkpt>
      <trkpt lat="46.52541" lon="0.32229">
        <ele>120.4</ele>
        <time>2024-09-22T09:22:22Z</time>
      </trkpt>
      <trkpt lat="46.52533" lon="0.32219">
        <ele>120</ele>
        <time>2024-09-22T09:22:26Z</time>
      </trkpt>
      <trkpt lat="46.52531" lon="0.322">
        <ele>119.8</ele>
        <time>2024-09-22T09:22:30Z</time>
      </trkpt>
      <trkpt lat="46.52538" lon="0.32181">
        <ele>120.2</ele>
        <time>2024-09-22T09:22:34Z</time>
      </trkpt>
      <trkpt lat="46.52545" lon="0.32158">
        <ele>120.6</ele>
        <time>2024-09-22T09:22:40Z</time>
      </trkpt>
      <trkpt lat="46.52544" lon="0.32144">
        <ele>120.4</ele>
        <time>2024-09-22T09:22:45Z</time>
      </trkpt>
      <trkpt lat="46.52544" lon="0.32129">
        <ele>120.4</ele>
        <time>2024-09-22T09:22:50Z</time>
      </trkpt>
      <trkpt lat="46.5255" lon="0.32111">
        <ele>120.2</ele>
        <time>2024-09-22T09:22:55Z</time>
      </trkpt>
      <trkpt lat="46.52569" lon="0.32107">
        <ele>120</ele>
        <time>2024-09-22T09:23:01Z</time>
      </trkpt>
      <trkpt lat="46.5258" lon="0.32108">
        <ele>119.4</ele>
        <time>2024-09-22T09:23:04Z</time>
      </trkpt>
      <trkpt lat="46.52587" lon="0.32108">
        <ele>119.2</ele>
        <time>2024-09-22T09:23:06Z</time>
      </trkpt>
      <trkpt lat="46.52598" lon="0.32107">
        <ele>119.6</ele>
        <time>2024-09-22T09:23:10Z</time>
      </trkpt>
      <trkpt lat="46.52599" lon="0.32105">
        <ele>119.8</ele>
        <time>2024-09-22T09:23:11Z</time>
      </trkpt>
      <trkpt lat="46.52602" lon="0.32083">
        <ele>119.6</ele>
        <time>2024-09-22T09:23:16Z</time>
      </trkpt>
      <trkpt lat="46.52606" lon="0.32063">
        <ele>118.2</ele>
        <time>2024-09-22T09:23:19Z</time>
      </trkpt>
      <trkpt lat="46.52608" lon="0.32056">
        <ele>118</ele>
        <time>2024-09-22T09:23:20Z</time>
      </trkpt>
      <trkpt lat="46.52612" lon="0.32041">
        <ele>117.8</ele>
        <time>2024-09-22T09:23:22Z</time>
      </trkpt>
      <trkpt lat="46.52615" lon="0.32035">
        <ele>117.8</ele>
        <time>2024-09-22T09:23:23Z</time>
      </trkpt>
      <trkpt lat="46.52619" lon="0.32023">
        <ele>117</ele>
        <time>2024-09-22T09:23:25Z</time>
      </trkpt>
      <trkpt lat="46.52621" lon="0.32017">
        <ele>116.8</ele>
        <time>2024-09-22T09:23:26Z</time>
      </trkpt>
      <trkpt lat="46.52624" lon="0.32011">
        <ele>116.6</ele>
        <time>2024-09-22T09:23:27Z</time>
      </trkpt>
      <trkpt lat="46.52635" lon="0.31993">
        <ele>116.2</ele>
        <time>2024-09-22T09:23:30Z</time>
      </trkpt>
      <trkpt lat="46.52647" lon="0.31972">
        <ele>115.4</ele>
        <time>2024-09-22T09:23:33Z</time>
      </trkpt>
      <trkpt lat="46.52649" lon="0.31967">
        <ele>115.2</ele>
        <time>2024-09-22T09:23:34Z</time>
      </trkpt>
      <trkpt lat="46.5265" lon="0.31962">
        <ele>114.4</ele>
        <time>2024-09-22T09:23:35Z</time>
      </trkpt>
      <trkpt lat="46.52649" lon="0.31959">
        <ele>113.6</ele>
        <time>2024-09-22T09:23:36Z</time>
      </trkpt>
      <trkpt lat="46.52648" lon="0.31955">
        <ele>113.2</ele>
        <time>2024-09-22T09:23:37Z</time>
      </trkpt>
      <trkpt lat="46.52646" lon="0.3195">
        <ele>113</ele>
        <time>2024-09-22T09:23:38Z</time>
      </trkpt>
      <trkpt lat="46.52636" lon="0.31914">
        <ele>112.6</ele>
        <time>2024-09-22T09:23:44Z</time>
      </trkpt>
      <trkpt lat="46.52623" lon="0.31879">
        <ele>112</ele>
        <time>2024-09-22T09:23:49Z</time>
      </trkpt>
      <trkpt lat="46.52619" lon="0.31873">
        <ele>111.6</ele>
        <time>2024-09-22T09:23:50Z</time>
      </trkpt>
      <trkpt lat="46.52616" lon="0.31867">
        <ele>110.6</ele>
        <time>2024-09-22T09:23:51Z</time>
      </trkpt>
      <trkpt lat="46.52609" lon="0.31852">
        <ele>109.6</ele>
        <time>2024-09-22T09:23:54Z</time>
      </trkpt>
      <trkpt lat="46.52603" lon="0.31839">
        <ele>109.6</ele>
        <time>2024-09-22T09:23:56Z</time>
      </trkpt>
      <trkpt lat="46.52598" lon="0.31828">
        <ele>110.6</ele>
        <time>2024-09-22T09:23:58Z</time>
      </trkpt>
      <trkpt lat="46.52595" lon="0.31817">
        <ele>111.4</ele>
        <time>2024-09-22T09:24:00Z</time>
      </trkpt>
      <trkpt lat="46.52593" lon="0.31812">
        <ele>112.2</ele>
        <time>2024-09-22T09:24:01Z</time>
      </trkpt>
      <trkpt lat="46.52591" lon="0.31809">
        <ele>112.6</ele>
        <time>2024-09-22T09:24:02Z</time>
      </trkpt>
      <trkpt lat="46.52573" lon="0.31773">
        <ele>113</ele>
        <time>2024-09-22T09:24:08Z</time>
      </trkpt>
      <trkpt lat="46.52563" lon="0.31754">
        <ele>113.4</ele>
        <time>2024-09-22T09:24:11Z</time>
      </trkpt>
      <trkpt lat="46.52553" lon="0.31743">
        <ele>113.2</ele>
        <time>2024-09-22T09:24:13Z</time>
      </trkpt>
      <trkpt lat="46.52546" lon="0.31731">
        <ele>113.4</ele>
        <time>2024-09-22T09:24:15Z</time>
      </trkpt>
      <trkpt lat="46.52542" lon="0.31718">
        <ele>112.8</ele>
        <time>2024-09-22T09:24:17Z</time>
      </trkpt>
      <trkpt lat="46.52538" lon="0.31704">
        <ele>112.4</ele>
        <time>2024-09-22T09:24:19Z</time>
      </trkpt>
      <trkpt lat="46.52536" lon="0.31696">
        <ele>112.2</ele>
        <time>2024-09-22T09:24:20Z</time>
      </trkpt>
      <trkpt lat="46.52533" lon="0.31682">
        <ele>111.6</ele>
        <time>2024-09-22T09:24:22Z</time>
      </trkpt>
      <trkpt lat="46.52533" lon="0.31669">
        <ele>111</ele>
        <time>2024-09-22T09:24:24Z</time>
      </trkpt>
      <trkpt lat="46.52531" lon="0.31659">
        <ele>109.2</ele>
        <time>2024-09-22T09:24:26Z</time>
      </trkpt>
      <trkpt lat="46.5253" lon="0.31654">
        <ele>108.6</ele>
        <time>2024-09-22T09:24:27Z</time>
      </trkpt>
      <trkpt lat="46.52529" lon="0.31649">
        <ele>107.8</ele>
        <time>2024-09-22T09:24:28Z</time>
      </trkpt>
      <trkpt lat="46.52528" lon="0.3164">
        <ele>107.4</ele>
        <time>2024-09-22T09:24:29Z</time>
      </trkpt>
      <trkpt lat="46.52527" lon="0.31632">
        <ele>106.8</ele>
        <time>2024-09-22T09:24:30Z</time>
      </trkpt>
      <trkpt lat="46.52526" lon="0.31621">
        <ele>106</ele>
        <time>2024-09-22T09:24:32Z</time>
      </trkpt>
      <trkpt lat="46.52525" lon="0.31617">
        <ele>105.8</ele>
        <time>2024-09-22T09:24:33Z</time>
      </trkpt>
      <trkpt lat="46.52526" lon="0.31612">
        <ele>105.6</ele>
        <time>2024-09-22T09:24:35Z</time>
      </trkpt>
      <trkpt lat="46.52526" lon="0.3161">
        <ele>105.6</ele>
        <time>2024-09-22T09:24:36Z</time>
      </trkpt>
      <trkpt lat="46.52537" lon="0.31613">
        <ele>105</ele>
        <time>2024-09-22T09:24:41Z</time>
      </trkpt>
      <trkpt lat="46.52542" lon="0.31614">
        <ele>104.6</ele>
        <time>2024-09-22T09:24:42Z</time>
      </trkpt>
      <trkpt lat="46.5256" lon="0.31625">
        <ele>103.6</ele>
        <time>2024-09-22T09:24:46Z</time>
      </trkpt>
      <trkpt lat="46.52574" lon="0.31636">
        <ele>102.2</ele>
        <time>2024-09-22T09:24:49Z</time>
      </trkpt>
      <trkpt lat="46.52589" lon="0.3165">
        <ele>101.6</ele>
        <time>2024-09-22T09:24:52Z</time>
      </trkpt>
      <trkpt lat="46.52595" lon="0.31655">
        <ele>101.2</ele>
        <time>2024-09-22T09:24:53Z</time>
      </trkpt>
      <trkpt lat="46.52616" lon="0.31675">
        <ele>100.8</ele>
        <time>2024-09-22T09:24:57Z</time>
      </trkpt>
      <trkpt lat="46.52621" lon="0.3168">
        <ele>100.4</ele>
        <time>2024-09-22T09:24:58Z</time>
      </trkpt>
      <trkpt lat="46.52626" lon="0.31684">
        <ele>99.6</ele>
        <time>2024-09-22T09:24:59Z</time>
      </trkpt>
      <trkpt lat="46.52638" lon="0.31699">
        <ele>98.6</ele>
        <time>2024-09-22T09:25:02Z</time>
      </trkpt>
      <trkpt lat="46.52643" lon="0.31703">
        <ele>98.4</ele>
        <time>2024-09-22T09:25:03Z</time>
      </trkpt>
      <trkpt lat="46.52666" lon="0.31721">
        <ele>97.2</ele>
        <time>2024-09-22T09:25:07Z</time>
      </trkpt>
      <trkpt lat="46.52677" lon="0.31727">
        <ele>96.8</ele>
        <time>2024-09-22T09:25:09Z</time>
      </trkpt>
      <trkpt lat="46.52686" lon="0.31734">
        <ele>96.6</ele>
        <time>2024-09-22T09:25:11Z</time>
      </trkpt>
      <trkpt lat="46.5269" lon="0.31738">
        <ele>96</ele>
        <time>2024-09-22T09:25:12Z</time>
      </trkpt>
      <trkpt lat="46.52702" lon="0.31747">
        <ele>95</ele>
        <time>2024-09-22T09:25:14Z</time>
      </trkpt>
      <trkpt lat="46.52705" lon="0.31753">
        <ele>94.8</ele>
        <time>2024-09-22T09:25:15Z</time>
      </trkpt>
      <trkpt lat="46.52724" lon="0.31774">
        <ele>94.2</ele>
        <time>2024-09-22T09:25:19Z</time>
      </trkpt>
      <trkpt lat="46.52733" lon="0.31787">
        <ele>94.6</ele>
        <time>2024-09-22T09:25:21Z</time>
      </trkpt>
      <trkpt lat="46.52736" lon="0.31794">
        <ele>95</ele>
        <time>2024-09-22T09:25:22Z</time>
      </trkpt>
      <trkpt lat="46.5274" lon="0.31806">
        <ele>95.2</ele>
        <time>2024-09-22T09:25:24Z</time>
      </trkpt>
      <trkpt lat="46.52746" lon="0.31816">
        <ele>96.2</ele>
        <time>2024-09-22T09:25:26Z</time>
      </trkpt>
      <trkpt lat="46.52751" lon="0.31824">
        <ele>97.8</ele>
        <time>2024-09-22T09:25:28Z</time>
      </trkpt>
      <trkpt lat="46.52753" lon="0.31826">
        <ele>98.4</ele>
        <time>2024-09-22T09:25:29Z</time>
      </trkpt>
      <trkpt lat="46.52755" lon="0.31829">
        <ele>98.8</ele>
        <time>2024-09-22T09:25:30Z</time>
      </trkpt>
      <trkpt lat="46.52775" lon="0.31847">
        <ele>99.8</ele>
        <time>2024-09-22T09:25:37Z</time>
      </trkpt>
      <trkpt lat="46.5278" lon="0.31851">
        <ele>99.8</ele>
        <time>2024-09-22T09:25:39Z</time>
      </trkpt>
      <trkpt lat="46.52784" lon="0.31859">
        <ele>101</ele>
        <time>2024-09-22T09:25:41Z</time>
      </trkpt>
      <trkpt lat="46.52788" lon="0.31866">
        <ele>101.8</ele>
        <time>2024-09-22T09:25:44Z</time>
      </trkpt>
      <trkpt lat="46.52794" lon="0.31875">
        <ele>102</ele>
        <time>2024-09-22T09:25:48Z</time>
      </trkpt>
      <trkpt lat="46.52798" lon="0.31882">
        <ele>103</ele>
        <time>2024-09-22T09:25:51Z</time>
      </trkpt>
      <trkpt lat="46.52804" lon="0.31895">
        <ele>104.2</ele>
        <time>2024-09-22T09:25:57Z</time>
      </trkpt>
      <trkpt lat="46.52805" lon="0.31897">
        <ele>104.4</ele>
        <time>2024-09-22T09:25:58Z</time>
      </trkpt>
      <trkpt lat="46.52809" lon="0.31904">
        <ele>104.6</ele>
        <time>2024-09-22T09:26:01Z</time>
      </trkpt>
      <trkpt lat="46.52813" lon="0.31911">
        <ele>105</ele>
        <time>2024-09-22T09:26:04Z</time>
      </trkpt>
      <trkpt lat="46.52814" lon="0.31913">
        <ele>105.2</ele>
        <time>2024-09-22T09:26:05Z</time>
      </trkpt>
      <trkpt lat="46.52823" lon="0.31922">
        <ele>106.4</ele>
        <time>2024-09-22T09:26:10Z</time>
      </trkpt>
      <trkpt lat="46.52825" lon="0.31925">
        <ele>106.6</ele>
        <time>2024-09-22T09:26:11Z</time>
      </trkpt>
      <trkpt lat="46.52831" lon="0.31936">
        <ele>107.4</ele>
        <time>2024-09-22T09:26:16Z</time>
      </trkpt>
      <trkpt lat="46.52832" lon="0.31942">
        <ele>108</ele>
        <time>2024-09-22T09:26:18Z</time>
      </trkpt>
      <trkpt lat="46.52839" lon="0.31953">
        <ele>108.4</ele>
        <time>2024-09-22T09:26:22Z</time>
      </trkpt>
      <trkpt lat="46.52847" lon="0.31962">
        <ele>108.6</ele>
        <time>2024-09-22T09:26:25Z</time>
      </trkpt>
      <trkpt lat="46.52858" lon="0.31973">
        <ele>109.6</ele>
        <time>2024-09-22T09:26:29Z</time>
      </trkpt>
      <trkpt lat="46.52866" lon="0.3198">
        <ele>109.8</ele>
        <time>2024-09-22T09:26:32Z</time>
      </trkpt>
      <trkpt lat="46.52887" lon="0.31999">
        <ele>110.2</ele>
        <time>2024-09-22T09:26:39Z</time>
      </trkpt>
      <trkpt lat="46.52905" lon="0.32004">
        <ele>109.6</ele>
        <time>2024-09-22T09:26:44Z</time>
      </trkpt>
      <trkpt lat="46.5293" lon="0.31996">
        <ele>108.8</ele>
        <time>2024-09-22T09:26:51Z</time>
      </trkpt>
      <trkpt lat="46.52937" lon="0.31989">
        <ele>107.6</ele>
        <time>2024-09-22T09:26:53Z</time>
      </trkpt>
      <trkpt lat="46.52941" lon="0.31986">
        <ele>106.2</ele>
        <time>2024-09-22T09:26:54Z</time>
      </trkpt>
      <trkpt lat="46.52948" lon="0.31979">
        <ele>105</ele>
        <time>2024-09-22T09:26:56Z</time>
      </trkpt>
      <trkpt lat="46.52952" lon="0.31975">
        <ele>104.6</ele>
        <time>2024-09-22T09:26:57Z</time>
      </trkpt>
      <trkpt lat="46.52955" lon="0.3197">
        <ele>104.2</ele>
        <time>2024-09-22T09:26:58Z</time>
      </trkpt>
      <trkpt lat="46.52957" lon="0.31966">
        <ele>104</ele>
        <time>2024-09-22T09:26:59Z</time>
      </trkpt>
      <trkpt lat="46.52959" lon="0.31961">
        <ele>103.8</ele>
        <time>2024-09-22T09:27:00Z</time>
      </trkpt>
      <trkpt lat="46.52966" lon="0.31953">
        <ele>101.8</ele>
        <time>2024-09-22T09:27:02Z</time>
      </trkpt>
      <trkpt lat="46.52969" lon="0.31949">
        <ele>99.8</ele>
        <time>2024-09-22T09:27:03Z</time>
      </trkpt>
      <trkpt lat="46.52972" lon="0.31944">
        <ele>98.6</ele>
        <time>2024-09-22T09:27:04Z</time>
      </trkpt>
      <trkpt lat="46.52978" lon="0.31937">
        <ele>97.4</ele>
        <time>2024-09-22T09:27:06Z</time>
      </trkpt>
      <trkpt lat="46.52981" lon="0.31934">
        <ele>97</ele>
        <time>2024-09-22T09:27:07Z</time>
      </trkpt>
      <trkpt lat="46.52984" lon="0.31931">
        <ele>95.4</ele>
        <time>2024-09-22T09:27:08Z</time>
      </trkpt>
      <trkpt lat="46.52986" lon="0.31929">
        <ele>94.2</ele>
        <time>2024-09-22T09:27:09Z</time>
      </trkpt>
      <trkpt lat="46.52988" lon="0.31927">
        <ele>93</ele>
        <time>2024-09-22T09:27:10Z</time>
      </trkpt>
      <trkpt lat="46.52992" lon="0.31922">
        <ele>92</ele>
        <time>2024-09-22T09:27:12Z</time>
      </trkpt>
      <trkpt lat="46.53003" lon="0.31911">
        <ele>90.8</ele>
        <time>2024-09-22T09:27:15Z</time>
      </trkpt>
      <trkpt lat="46.53005" lon="0.31908">
        <ele>89.8</ele>
        <time>2024-09-22T09:27:16Z</time>
      </trkpt>
      <trkpt lat="46.53007" lon="0.31905">
        <ele>89</ele>
        <time>2024-09-22T09:27:17Z</time>
      </trkpt>
      <trkpt lat="46.5301" lon="0.31901">
        <ele>88.6</ele>
        <time>2024-09-22T09:27:18Z</time>
      </trkpt>
      <trkpt lat="46.53016" lon="0.31893">
        <ele>87.2</ele>
        <time>2024-09-22T09:27:20Z</time>
      </trkpt>
      <trkpt lat="46.53021" lon="0.31887">
        <ele>86.2</ele>
        <time>2024-09-22T09:27:22Z</time>
      </trkpt>
      <trkpt lat="46.53024" lon="0.31885">
        <ele>84.8</ele>
        <time>2024-09-22T09:27:23Z</time>
      </trkpt>
      <trkpt lat="46.53026" lon="0.31881">
        <ele>82.8</ele>
        <time>2024-09-22T09:27:24Z</time>
      </trkpt>
      <trkpt lat="46.53029" lon="0.31877">
        <ele>80.8</ele>
        <time>2024-09-22T09:27:25Z</time>
      </trkpt>
      <trkpt lat="46.53032" lon="0.31868">
        <ele>79.8</ele>
        <time>2024-09-22T09:27:27Z</time>
      </trkpt>
      <trkpt lat="46.53032" lon="0.31864">
        <ele>79</ele>
        <time>2024-09-22T09:27:29Z</time>
      </trkpt>
      <trkpt lat="46.53032" lon="0.31861">
        <ele>79.2</ele>
        <time>2024-09-22T09:27:31Z</time>
      </trkpt>
      <trkpt lat="46.53026" lon="0.3185">
        <ele>81</ele>
        <time>2024-09-22T09:27:37Z</time>
      </trkpt>
      <trkpt lat="46.53024" lon="0.31848">
        <ele>81.4</ele>
        <time>2024-09-22T09:27:38Z</time>
      </trkpt>
      <trkpt lat="46.53018" lon="0.31843">
        <ele>82</ele>
        <time>2024-09-22T09:27:42Z</time>
      </trkpt>
      <trkpt lat="46.53012" lon="0.31839">
        <ele>82.8</ele>
        <time>2024-09-22T09:27:45Z</time>
      </trkpt>
      <trkpt lat="46.53006" lon="0.31835">
        <ele>83.2</ele>
        <time>2024-09-22T09:27:48Z</time>
      </trkpt>
      <trkpt lat="46.52997" lon="0.31831">
        <ele>83.8</ele>
        <time>2024-09-22T09:27:52Z</time>
      </trkpt>
      <trkpt lat="46.52986" lon="0.31829">
        <ele>84.4</ele>
        <time>2024-09-22T09:27:57Z</time>
      </trkpt>
      <trkpt lat="46.52971" lon="0.31821">
        <ele>85.2</ele>
        <time>2024-09-22T09:28:03Z</time>
      </trkpt>
      <trkpt lat="46.52966" lon="0.31818">
        <ele>85.6</ele>
        <time>2024-09-22T09:28:05Z</time>
      </trkpt>
      <trkpt lat="46.5295" lon="0.31813">
        <ele>86.8</ele>
        <time>2024-09-22T09:28:10Z</time>
      </trkpt>
      <trkpt lat="46.52935" lon="0.31805">
        <ele>88</ele>
        <time>2024-09-22T09:28:16Z</time>
      </trkpt>
      <trkpt lat="46.52932" lon="0.31805">
        <ele>88.4</ele>
        <time>2024-09-22T09:28:17Z</time>
      </trkpt>
      <trkpt lat="46.52917" lon="0.31799">
        <ele>89</ele>
        <time>2024-09-22T09:28:22Z</time>
      </trkpt>
      <trkpt lat="46.52908" lon="0.31795">
        <ele>89.2</ele>
        <time>2024-09-22T09:28:25Z</time>
      </trkpt>
      <trkpt lat="46.52887" lon="0.31788">
        <ele>90.2</ele>
        <time>2024-09-22T09:28:32Z</time>
      </trkpt>
      <trkpt lat="46.52869" lon="0.31786">
        <ele>91</ele>
        <time>2024-09-22T09:28:38Z</time>
      </trkpt>
      <trkpt lat="46.52863" lon="0.31785">
        <ele>91.4</ele>
        <time>2024-09-22T09:28:40Z</time>
      </trkpt>
      <trkpt lat="46.52848" lon="0.31781">
        <ele>92.2</ele>
        <time>2024-09-22T09:28:45Z</time>
      </trkpt>
      <trkpt lat="46.52832" lon="0.31778">
        <ele>92.4</ele>
        <time>2024-09-22T09:28:51Z</time>
      </trkpt>
      <trkpt lat="46.52827" lon="0.31778">
        <ele>92.6</ele>
        <time>2024-09-22T09:28:54Z</time>
      </trkpt>
      <trkpt lat="46.52816" lon="0.31777">
        <ele>93.2</ele>
        <time>2024-09-22T09:28:58Z</time>
      </trkpt>
      <trkpt lat="46.52812" lon="0.31775">
        <ele>93.6</ele>
        <time>2024-09-22T09:29:00Z</time>
      </trkpt>
      <trkpt lat="46.52804" lon="0.31772">
        <ele>94.4</ele>
        <time>2024-09-22T09:29:05Z</time>
      </trkpt>
      <trkpt lat="46.52799" lon="0.31769">
        <ele>94.6</ele>
        <time>2024-09-22T09:29:08Z</time>
      </trkpt>
      <trkpt lat="46.52792" lon="0.31766">
        <ele>95.8</ele>
        <time>2024-09-22T09:29:11Z</time>
      </trkpt>
      <trkpt lat="46.52786" lon="0.31765">
        <ele>96.6</ele>
        <time>2024-09-22T09:29:13Z</time>
      </trkpt>
      <trkpt lat="46.52785" lon="0.31764">
        <ele>96.8</ele>
        <time>2024-09-22T09:29:14Z</time>
      </trkpt>
      <trkpt lat="46.52778" lon="0.31757">
        <ele>97.2</ele>
        <time>2024-09-22T09:29:20Z</time>
      </trkpt>
      <trkpt lat="46.52775" lon="0.31752">
        <ele>98</ele>
        <time>2024-09-22T09:29:23Z</time>
      </trkpt>
      <trkpt lat="46.52771" lon="0.31745">
        <ele>99.4</ele>
        <time>2024-09-22T09:29:27Z</time>
      </trkpt>
      <trkpt lat="46.52769" lon="0.31739">
        <ele>100.4</ele>
        <time>2024-09-22T09:29:31Z</time>
      </trkpt>
      <trkpt lat="46.52766" lon="0.31733">
        <ele>101.6</ele>
        <time>2024-09-22T09:29:35Z</time>
      </trkpt>
      <trkpt lat="46.52764" lon="0.3172">
        <ele>102.8</ele>
        <time>2024-09-22T09:29:42Z</time>
      </trkpt>
      <trkpt lat="46.52763" lon="0.31718">
        <ele>102.8</ele>
        <time>2024-09-22T09:29:43Z</time>
      </trkpt>
      <trkpt lat="46.52762" lon="0.31713">
        <ele>103.2</ele>
        <time>2024-09-22T09:29:45Z</time>
      </trkpt>
      <trkpt lat="46.52762" lon="0.31707">
        <ele>103.8</ele>
        <time>2024-09-22T09:29:48Z</time>
      </trkpt>
      <trkpt lat="46.52761" lon="0.31703">
        <ele>104.4</ele>
        <time>2024-09-22T09:29:50Z</time>
      </trkpt>
      <trkpt lat="46.5276" lon="0.31696">
        <ele>104.8</ele>
        <time>2024-09-22T09:29:54Z</time>
      </trkpt>
      <trkpt lat="46.52758" lon="0.31686">
        <ele>105.4</ele>
        <time>2024-09-22T09:29:58Z</time>
      </trkpt>
      <trkpt lat="46.52759" lon="0.31683">
        <ele>106.2</ele>
        <time>2024-09-22T09:30:00Z</time>
      </trkpt>
      <trkpt lat="46.52761" lon="0.31678">
        <ele>106.8</ele>
        <time>2024-09-22T09:30:04Z</time>
      </trkpt>
      <trkpt lat="46.52764" lon="0.31674">
        <ele>107</ele>
        <time>2024-09-22T09:30:07Z</time>
      </trkpt>
      <trkpt lat="46.52765" lon="0.31671">
        <ele>107.2</ele>
        <time>2024-09-22T09:30:09Z</time>
      </trkpt>
      <trkpt lat="46.52772" lon="0.3166">
        <ele>108.4</ele>
        <time>2024-09-22T09:30:16Z</time>
      </trkpt>
      <trkpt lat="46.52774" lon="0.31651">
        <ele>109.8</ele>
        <time>2024-09-22T09:30:22Z</time>
      </trkpt>
      <trkpt lat="46.52777" lon="0.31636">
        <ele>110.8</ele>
        <time>2024-09-22T09:30:29Z</time>
      </trkpt>
      <trkpt lat="46.52777" lon="0.31634">
        <ele>110.8</ele>
        <time>2024-09-22T09:30:30Z</time>
      </trkpt>
      <trkpt lat="46.5278" lon="0.31618">
        <ele>111.8</ele>
        <time>2024-09-22T09:30:36Z</time>
      </trkpt>
      <trkpt lat="46.52781" lon="0.31613">
        <ele>112</ele>
        <time>2024-09-22T09:30:38Z</time>
      </trkpt>
      <trkpt lat="46.52785" lon="0.31596">
        <ele>112.8</ele>
        <time>2024-09-22T09:30:44Z</time>
      </trkpt>
      <trkpt lat="46.52786" lon="0.31592">
        <ele>113</ele>
        <time>2024-09-22T09:30:45Z</time>
      </trkpt>
      <trkpt lat="46.52792" lon="0.31578">
        <ele>113.8</ele>
        <time>2024-09-22T09:30:50Z</time>
      </trkpt>
      <trkpt lat="46.52802" lon="0.31569">
        <ele>113.8</ele>
        <time>2024-09-22T09:30:55Z</time>
      </trkpt>
      <trkpt lat="46.52804" lon="0.31568">
        <ele>113.8</ele>
        <time>2024-09-22T09:30:56Z</time>
      </trkpt>
      <trkpt lat="46.52819" lon="0.3157">
        <ele>114</ele>
        <time>2024-09-22T09:31:02Z</time>
      </trkpt>
      <trkpt lat="46.52832" lon="0.31572">
        <ele>114</ele>
        <time>2024-09-22T09:31:06Z</time>
      </trkpt>
      <trkpt lat="46.52839" lon="0.3157">
        <ele>114</ele>
        <time>2024-09-22T09:31:08Z</time>
      </trkpt>
      <trkpt lat="46.5285" lon="0.31564">
        <ele>113.8</ele>
        <time>2024-09-22T09:31:11Z</time>
      </trkpt>
      <trkpt lat="46.52857" lon="0.31559">
        <ele>113.8</ele>
        <time>2024-09-22T09:31:13Z</time>
      </trkpt>
      <trkpt lat="46.52865" lon="0.31553">
        <ele>113.6</ele>
        <time>2024-09-22T09:31:15Z</time>
      </trkpt>
      <trkpt lat="46.52883" lon="0.31537">
        <ele>113.4</ele>
        <time>2024-09-22T09:31:19Z</time>
      </trkpt>
      <trkpt lat="46.529" lon="0.31522">
        <ele>113</ele>
        <time>2024-09-22T09:31:22Z</time>
      </trkpt>
      <trkpt lat="46.52904" lon="0.31516">
        <ele>112.4</ele>
        <time>2024-09-22T09:31:23Z</time>
      </trkpt>
      <trkpt lat="46.5291" lon="0.31509">
        <ele>112</ele>
        <time>2024-09-22T09:31:24Z</time>
      </trkpt>
      <trkpt lat="46.52919" lon="0.31496">
        <ele>110.8</ele>
        <time>2024-09-22T09:31:26Z</time>
      </trkpt>
      <trkpt lat="46.52927" lon="0.31485">
        <ele>109.4</ele>
        <time>2024-09-22T09:31:28Z</time>
      </trkpt>
      <trkpt lat="46.5293" lon="0.3148">
        <ele>109</ele>
        <time>2024-09-22T09:31:29Z</time>
      </trkpt>
      <trkpt lat="46.52933" lon="0.31477">
        <ele>107.8</ele>
        <time>2024-09-22T09:31:30Z</time>
      </trkpt>
      <trkpt lat="46.52934" lon="0.31474">
        <ele>107.2</ele>
        <time>2024-09-22T09:31:31Z</time>
      </trkpt>
      <trkpt lat="46.52934" lon="0.31473">
        <ele>106.8</ele>
        <time>2024-09-22T09:31:32Z</time>
      </trkpt>
      <trkpt lat="46.52934" lon="0.31471">
        <ele>106.8</ele>
        <time>2024-09-22T09:31:33Z</time>
      </trkpt>
      <trkpt lat="46.52933" lon="0.31465">
        <ele>107</ele>
        <time>2024-09-22T09:31:37Z</time>
      </trkpt>
      <trkpt lat="46.52932" lon="0.31462">
        <ele>107.4</ele>
        <time>2024-09-22T09:31:39Z</time>
      </trkpt>
      <trkpt lat="46.52931" lon="0.31459">
        <ele>108.2</ele>
        <time>2024-09-22T09:31:41Z</time>
      </trkpt>
      <trkpt lat="46.52929" lon="0.3145">
        <ele>109.2</ele>
        <time>2024-09-22T09:31:45Z</time>
      </trkpt>
      <trkpt lat="46.52928" lon="0.31447">
        <ele>109.4</ele>
        <time>2024-09-22T09:31:46Z</time>
      </trkpt>
      <trkpt lat="46.52925" lon="0.31438">
        <ele>110.4</ele>
        <time>2024-09-22T09:31:49Z</time>
      </trkpt>
      <trkpt lat="46.5292" lon="0.31427">
        <ele>111.4</ele>
        <time>2024-09-22T09:31:53Z</time>
      </trkpt>
      <trkpt lat="46.52914" lon="0.31409">
        <ele>111.8</ele>
        <time>2024-09-22T09:31:59Z</time>
      </trkpt>
      <trkpt lat="46.52906" lon="0.31389">
        <ele>111.6</ele>
        <time>2024-09-22T09:32:04Z</time>
      </trkpt>
      <trkpt lat="46.52899" lon="0.31374">
        <ele>111.6</ele>
        <time>2024-09-22T09:32:08Z</time>
      </trkpt>
      <trkpt lat="46.52894" lon="0.31366">
        <ele>111.8</ele>
        <time>2024-09-22T09:32:10Z</time>
      </trkpt>
      <trkpt lat="46.52886" lon="0.31348">
        <ele>111.8</ele>
        <time>2024-09-22T09:32:14Z</time>
      </trkpt>
      <trkpt lat="46.52882" lon="0.31337">
        <ele>111.4</ele>
        <time>2024-09-22T09:32:16Z</time>
      </trkpt>
      <trkpt lat="46.52874" lon="0.31313">
        <ele>110.2</ele>
        <time>2024-09-22T09:32:20Z</time>
      </trkpt>
      <trkpt lat="46.52869" lon="0.31304">
        <ele>109.8</ele>
        <time>2024-09-22T09:32:22Z</time>
      </trkpt>
      <trkpt lat="46.52865" lon="0.31296">
        <ele>108.8</ele>
        <time>2024-09-22T09:32:24Z</time>
      </trkpt>
      <trkpt lat="46.52854" lon="0.31278">
        <ele>108.6</ele>
        <time>2024-09-22T09:32:29Z</time>
      </trkpt>
      <trkpt lat="46.52834" lon="0.31256">
        <ele>109.6</ele>
        <time>2024-09-22T09:32:35Z</time>
      </trkpt>
      <trkpt lat="46.52832" lon="0.31255">
        <ele>109.8</ele>
        <time>2024-09-22T09:32:36Z</time>
      </trkpt>
      <trkpt lat="46.52827" lon="0.31253">
        <ele>111</ele>
        <time>2024-09-22T09:32:39Z</time>
      </trkpt>
      <trkpt lat="46.52825" lon="0.3125">
        <ele>111.8</ele>
        <time>2024-09-22T09:32:41Z</time>
      </trkpt>
      <trkpt lat="46.52823" lon="0.3125">
        <ele>112.2</ele>
        <time>2024-09-22T09:32:42Z</time>
      </trkpt>
      <trkpt lat="46.52823" lon="0.31251">
        <ele>112.4</ele>
        <time>2024-09-22T09:32:43Z</time>
      </trkpt>
      <trkpt lat="46.5282" lon="0.31251">
        <ele>113.4</ele>
        <time>2024-09-22T09:32:45Z</time>
      </trkpt>
      <trkpt lat="46.52818" lon="0.31251">
        <ele>113.8</ele>
        <time>2024-09-22T09:32:46Z</time>
      </trkpt>
      <trkpt lat="46.52813" lon="0.31251">
        <ele>114.6</ele>
        <time>2024-09-22T09:32:49Z</time>
      </trkpt>
      <trkpt lat="46.52805" lon="0.31249">
        <ele>115.8</ele>
        <time>2024-09-22T09:32:53Z</time>
      </trkpt>
      <trkpt lat="46.52804" lon="0.31248">
        <ele>116</ele>
        <time>2024-09-22T09:32:54Z</time>
      </trkpt>
      <trkpt lat="46.52799" lon="0.31236">
        <ele>115.6</ele>
        <time>2024-09-22T09:32:59Z</time>
      </trkpt>
      <trkpt lat="46.52794" lon="0.31226">
        <ele>115.2</ele>
        <time>2024-09-22T09:33:02Z</time>
      </trkpt>
      <trkpt lat="46.5279" lon="0.31219">
        <ele>114.2</ele>
        <time>2024-09-22T09:33:04Z</time>
      </trkpt>
      <trkpt lat="46.52786" lon="0.31212">
        <ele>113.8</ele>
        <time>2024-09-22T09:33:06Z</time>
      </trkpt>
      <trkpt lat="46.52781" lon="0.31201">
        <ele>114</ele>
        <time>2024-09-22T09:33:09Z</time>
      </trkpt>
      <trkpt lat="46.52781" lon="0.31198">
        <ele>114</ele>
        <time>2024-09-22T09:33:10Z</time>
      </trkpt>
      <trkpt lat="46.52781" lon="0.31195">
        <ele>114</ele>
        <time>2024-09-22T09:33:11Z</time>
      </trkpt>
      <trkpt lat="46.52782" lon="0.31188">
        <ele>113.8</ele>
        <time>2024-09-22T09:33:13Z</time>
      </trkpt>
      <trkpt lat="46.52781" lon="0.31182">
        <ele>113.4</ele>
        <time>2024-09-22T09:33:14Z</time>
      </trkpt>
      <trkpt lat="46.52781" lon="0.31176">
        <ele>113.2</ele>
        <time>2024-09-22T09:33:15Z</time>
      </trkpt>
      <trkpt lat="46.52776" lon="0.31152">
        <ele>111.4</ele>
        <time>2024-09-22T09:33:19Z</time>
      </trkpt>
      <trkpt lat="46.52775" lon="0.31137">
        <ele>109.8</ele>
        <time>2024-09-22T09:33:21Z</time>
      </trkpt>
      <trkpt lat="46.52771" lon="0.3112">
        <ele>109.2</ele>
        <time>2024-09-22T09:33:23Z</time>
      </trkpt>
      <trkpt lat="46.52769" lon="0.31111">
        <ele>109</ele>
        <time>2024-09-22T09:33:24Z</time>
      </trkpt>
      <trkpt lat="46.52764" lon="0.31094">
        <ele>108.8</ele>
        <time>2024-09-22T09:33:26Z</time>
      </trkpt>
      <trkpt lat="46.52758" lon="0.31074">
        <ele>108.4</ele>
        <time>2024-09-22T09:33:29Z</time>
      </trkpt>
      <trkpt lat="46.52748" lon="0.31027">
        <ele>108.6</ele>
        <time>2024-09-22T09:33:36Z</time>
      </trkpt>
      <trkpt lat="46.52747" lon="0.31021">
        <ele>108.6</ele>
        <time>2024-09-22T09:33:37Z</time>
      </trkpt>
      <trkpt lat="46.52743" lon="0.30999">
        <ele>108.2</ele>
        <time>2024-09-22T09:33:40Z</time>
      </trkpt>
      <trkpt lat="46.52741" lon="0.30992">
        <ele>108.4</ele>
        <time>2024-09-22T09:33:41Z</time>
      </trkpt>
      <trkpt lat="46.52734" lon="0.30963">
        <ele>108.8</ele>
        <time>2024-09-22T09:33:45Z</time>
      </trkpt>
      <trkpt lat="46.52734" lon="0.30933">
        <ele>109.4</ele>
        <time>2024-09-22T09:33:47Z</time>
      </trkpt>
      <trkpt lat="46.52733" lon="0.3091">
        <ele>110.2</ele>
        <time>2024-09-22T09:33:50Z</time>
      </trkpt>
      <trkpt lat="46.52724" lon="0.30888">
        <ele>111.2</ele>
        <time>2024-09-22T09:33:54Z</time>
      </trkpt>
      <trkpt lat="46.52718" lon="0.30873">
        <ele>112.2</ele>
        <time>2024-09-22T09:33:58Z</time>
      </trkpt>
      <trkpt lat="46.52715" lon="0.30859">
        <ele>112.6</ele>
        <time>2024-09-22T09:34:01Z</time>
      </trkpt>
      <trkpt lat="46.52713" lon="0.30848">
        <ele>113</ele>
        <time>2024-09-22T09:34:04Z</time>
      </trkpt>
      <trkpt lat="46.52711" lon="0.30833">
        <ele>112.6</ele>
        <time>2024-09-22T09:34:08Z</time>
      </trkpt>
      <trkpt lat="46.52711" lon="0.30825">
        <ele>112.4</ele>
        <time>2024-09-22T09:34:11Z</time>
      </trkpt>
      <trkpt lat="46.52714" lon="0.30815">
        <ele>112</ele>
        <time>2024-09-22T09:34:14Z</time>
      </trkpt>
      <trkpt lat="46.52715" lon="0.30803">
        <ele>111.2</ele>
        <time>2024-09-22T09:34:17Z</time>
      </trkpt>
      <trkpt lat="46.52715" lon="0.30796">
        <ele>111</ele>
        <time>2024-09-22T09:34:19Z</time>
      </trkpt>
      <trkpt lat="46.52711" lon="0.30775">
        <ele>111.6</ele>
        <time>2024-09-22T09:34:24Z</time>
      </trkpt>
      <trkpt lat="46.52711" lon="0.30768">
        <ele>112.6</ele>
        <time>2024-09-22T09:34:26Z</time>
      </trkpt>
      <trkpt lat="46.52706" lon="0.30755">
        <ele>113.2</ele>
        <time>2024-09-22T09:34:31Z</time>
      </trkpt>
      <trkpt lat="46.52704" lon="0.30746">
        <ele>113.2</ele>
        <time>2024-09-22T09:34:33Z</time>
      </trkpt>
      <trkpt lat="46.52702" lon="0.30736">
        <ele>112.8</ele>
        <time>2024-09-22T09:34:35Z</time>
      </trkpt>
      <trkpt lat="46.527" lon="0.30731">
        <ele>112.8</ele>
        <time>2024-09-22T09:34:36Z</time>
      </trkpt>
      <trkpt lat="46.52696" lon="0.30711">
        <ele>112.8</ele>
        <time>2024-09-22T09:34:41Z</time>
      </trkpt>
      <trkpt lat="46.52686" lon="0.30684">
        <ele>112.8</ele>
        <time>2024-09-22T09:34:48Z</time>
      </trkpt>
      <trkpt lat="46.52679" lon="0.3066">
        <ele>113.6</ele>
        <time>2024-09-22T09:34:54Z</time>
      </trkpt>
      <trkpt lat="46.52676" lon="0.30652">
        <ele>114.8</ele>
        <time>2024-09-22T09:34:56Z</time>
      </trkpt>
      <trkpt lat="46.52675" lon="0.30636">
        <ele>115</ele>
        <time>2024-09-22T09:34:59Z</time>
      </trkpt>
      <trkpt lat="46.52675" lon="0.30607">
        <ele>113.8</ele>
        <time>2024-09-22T09:35:04Z</time>
      </trkpt>
      <trkpt lat="46.52674" lon="0.30594">
        <ele>112.8</ele>
        <time>2024-09-22T09:35:06Z</time>
      </trkpt>
      <trkpt lat="46.52671" lon="0.30582">
        <ele>112.6</ele>
        <time>2024-09-22T09:35:09Z</time>
      </trkpt>
      <trkpt lat="46.52669" lon="0.30575">
        <ele>112.4</ele>
        <time>2024-09-22T09:35:11Z</time>
      </trkpt>
      <trkpt lat="46.52666" lon="0.30566">
        <ele>113</ele>
        <time>2024-09-22T09:35:13Z</time>
      </trkpt>
      <trkpt lat="46.52662" lon="0.30557">
        <ele>113.8</ele>
        <time>2024-09-22T09:35:16Z</time>
      </trkpt>
      <trkpt lat="46.5266" lon="0.30553">
        <ele>114</ele>
        <time>2024-09-22T09:35:18Z</time>
      </trkpt>
      <trkpt lat="46.5266" lon="0.30547">
        <ele>114</ele>
        <time>2024-09-22T09:35:20Z</time>
      </trkpt>
      <trkpt lat="46.5266" lon="0.30543">
        <ele>114</ele>
        <time>2024-09-22T09:35:21Z</time>
      </trkpt>
      <trkpt lat="46.52659" lon="0.30523">
        <ele>113.6</ele>
        <time>2024-09-22T09:35:25Z</time>
      </trkpt>
      <trkpt lat="46.52659" lon="0.30513">
        <ele>113</ele>
        <time>2024-09-22T09:35:27Z</time>
      </trkpt>
      <trkpt lat="46.52659" lon="0.30508">
        <ele>112.8</ele>
        <time>2024-09-22T09:35:28Z</time>
      </trkpt>
      <trkpt lat="46.52658" lon="0.30491">
        <ele>112.6</ele>
        <time>2024-09-22T09:35:31Z</time>
      </trkpt>
      <trkpt lat="46.52658" lon="0.30479">
        <ele>111.6</ele>
        <time>2024-09-22T09:35:33Z</time>
      </trkpt>
      <trkpt lat="46.52656" lon="0.3045">
        <ele>111.2</ele>
        <time>2024-09-22T09:35:39Z</time>
      </trkpt>
      <trkpt lat="46.52655" lon="0.30425">
        <ele>111</ele>
        <time>2024-09-22T09:35:44Z</time>
      </trkpt>
      <trkpt lat="46.52656" lon="0.3042">
        <ele>111</ele>
        <time>2024-09-22T09:35:45Z</time>
      </trkpt>
      <trkpt lat="46.52655" lon="0.30409">
        <ele>111</ele>
        <time>2024-09-22T09:35:47Z</time>
      </trkpt>
      <trkpt lat="46.52654" lon="0.30398">
        <ele>110.8</ele>
        <time>2024-09-22T09:35:49Z</time>
      </trkpt>
      <trkpt lat="46.5265" lon="0.30385">
        <ele>110.8</ele>
        <time>2024-09-22T09:35:51Z</time>
      </trkpt>
      <trkpt lat="46.52647" lon="0.30373">
        <ele>110.2</ele>
        <time>2024-09-22T09:35:53Z</time>
      </trkpt>
      <trkpt lat="46.52643" lon="0.30353">
        <ele>109.2</ele>
        <time>2024-09-22T09:35:56Z</time>
      </trkpt>
      <trkpt lat="46.5264" lon="0.30347">
        <ele>109</ele>
        <time>2024-09-22T09:35:57Z</time>
      </trkpt>
      <trkpt lat="46.52637" lon="0.30344">
        <ele>109</ele>
        <time>2024-09-22T09:35:58Z</time>
      </trkpt>
      <trkpt lat="46.52627" lon="0.30332">
        <ele>108.8</ele>
        <time>2024-09-22T09:36:01Z</time>
      </trkpt>
      <trkpt lat="46.52623" lon="0.30328">
        <ele>108.8</ele>
        <time>2024-09-22T09:36:02Z</time>
      </trkpt>
      <trkpt lat="46.52615" lon="0.30317">
        <ele>108.4</ele>
        <time>2024-09-22T09:36:04Z</time>
      </trkpt>
      <trkpt lat="46.52605" lon="0.30303">
        <ele>108</ele>
        <time>2024-09-22T09:36:06Z</time>
      </trkpt>
      <trkpt lat="46.52601" lon="0.30296">
        <ele>108</ele>
        <time>2024-09-22T09:36:07Z</time>
      </trkpt>
      <trkpt lat="46.52592" lon="0.30284">
        <ele>107.2</ele>
        <time>2024-09-22T09:36:09Z</time>
      </trkpt>
      <trkpt lat="46.52585" lon="0.30278">
        <ele>106.8</ele>
        <time>2024-09-22T09:36:11Z</time>
      </trkpt>
      <trkpt lat="46.52581" lon="0.30273">
        <ele>106.8</ele>
        <time>2024-09-22T09:36:12Z</time>
      </trkpt>
      <trkpt lat="46.52569" lon="0.30259">
        <ele>105.8</ele>
        <time>2024-09-22T09:36:15Z</time>
      </trkpt>
      <trkpt lat="46.52565" lon="0.30256">
        <ele>105</ele>
        <time>2024-09-22T09:36:16Z</time>
      </trkpt>
      <trkpt lat="46.52562" lon="0.30254">
        <ele>104.6</ele>
        <time>2024-09-22T09:36:17Z</time>
      </trkpt>
      <trkpt lat="46.52559" lon="0.30254">
        <ele>104.4</ele>
        <time>2024-09-22T09:36:18Z</time>
      </trkpt>
      <trkpt lat="46.52549" lon="0.30252">
        <ele>104.2</ele>
        <time>2024-09-22T09:36:21Z</time>
      </trkpt>
      <trkpt lat="46.5254" lon="0.30249">
        <ele>104.2</ele>
        <time>2024-09-22T09:36:24Z</time>
      </trkpt>
      <trkpt lat="46.52537" lon="0.3025">
        <ele>104</ele>
        <time>2024-09-22T09:36:25Z</time>
      </trkpt>
      <trkpt lat="46.52532" lon="0.30248">
        <ele>103.6</ele>
        <time>2024-09-22T09:36:27Z</time>
      </trkpt>
      <trkpt lat="46.52526" lon="0.30244">
        <ele>102</ele>
        <time>2024-09-22T09:36:29Z</time>
      </trkpt>
      <trkpt lat="46.52519" lon="0.3024">
        <ele>99.8</ele>
        <time>2024-09-22T09:36:31Z</time>
      </trkpt>
      <trkpt lat="46.52513" lon="0.30241">
        <ele>98.8</ele>
        <time>2024-09-22T09:36:32Z</time>
      </trkpt>
      <trkpt lat="46.52501" lon="0.30237">
        <ele>97.8</ele>
        <time>2024-09-22T09:36:35Z</time>
      </trkpt>
      <trkpt lat="46.52491" lon="0.30236">
        <ele>98.4</ele>
        <time>2024-09-22T09:36:41Z</time>
      </trkpt>
      <trkpt lat="46.52477" lon="0.30237">
        <ele>99.8</ele>
        <time>2024-09-22T09:36:47Z</time>
      </trkpt>
      <trkpt lat="46.52473" lon="0.30239">
        <ele>100.2</ele>
        <time>2024-09-22T09:36:48Z</time>
      </trkpt>
      <trkpt lat="46.52462" lon="0.30242">
        <ele>101.2</ele>
        <time>2024-09-22T09:36:51Z</time>
      </trkpt>
      <trkpt lat="46.52442" lon="0.30248">
        <ele>102</ele>
        <time>2024-09-22T09:36:56Z</time>
      </trkpt>
      <trkpt lat="46.5244" lon="0.30249">
        <ele>102.2</ele>
        <time>2024-09-22T09:36:57Z</time>
      </trkpt>
      <trkpt lat="46.52426" lon="0.30247">
        <ele>102.6</ele>
        <time>2024-09-22T09:37:03Z</time>
      </trkpt>
      <trkpt lat="46.52423" lon="0.30246">
        <ele>103.2</ele>
        <time>2024-09-22T09:37:05Z</time>
      </trkpt>
      <trkpt lat="46.52418" lon="0.30245">
        <ele>104.2</ele>
        <time>2024-09-22T09:37:07Z</time>
      </trkpt>
      <trkpt lat="46.52415" lon="0.30245">
        <ele>104.4</ele>
        <time>2024-09-22T09:37:08Z</time>
      </trkpt>
      <trkpt lat="46.52409" lon="0.30246">
        <ele>104.8</ele>
        <time>2024-09-22T09:37:10Z</time>
      </trkpt>
      <trkpt lat="46.52402" lon="0.30248">
        <ele>105.4</ele>
        <time>2024-09-22T09:37:13Z</time>
      </trkpt>
      <trkpt lat="46.52392" lon="0.3025">
        <ele>106.2</ele>
        <time>2024-09-22T09:37:17Z</time>
      </trkpt>
      <trkpt lat="46.5239" lon="0.30251">
        <ele>106.6</ele>
        <time>2024-09-22T09:37:18Z</time>
      </trkpt>
      <trkpt lat="46.52385" lon="0.30253">
        <ele>107.4</ele>
        <time>2024-09-22T09:37:21Z</time>
      </trkpt>
      <trkpt lat="46.52379" lon="0.30252">
        <ele>107.6</ele>
        <time>2024-09-22T09:37:24Z</time>
      </trkpt>
      <trkpt lat="46.5237" lon="0.30257">
        <ele>108</ele>
        <time>2024-09-22T09:37:27Z</time>
      </trkpt>
      <trkpt lat="46.52355" lon="0.30262">
        <ele>108.8</ele>
        <time>2024-09-22T09:37:33Z</time>
      </trkpt>
      <trkpt lat="46.5235" lon="0.30263">
        <ele>109</ele>
        <time>2024-09-22T09:37:35Z</time>
      </trkpt>
      <trkpt lat="46.5234" lon="0.30262">
        <ele>110</ele>
        <time>2024-09-22T09:37:40Z</time>
      </trkpt>
      <trkpt lat="46.52337" lon="0.30262">
        <ele>110</ele>
        <time>2024-09-22T09:37:42Z</time>
      </trkpt>
      <trkpt lat="46.52328" lon="0.30262">
        <ele>111.4</ele>
        <time>2024-09-22T09:37:47Z</time>
      </trkpt>
      <trkpt lat="46.52324" lon="0.30263">
        <ele>112.2</ele>
        <time>2024-09-22T09:37:49Z</time>
      </trkpt>
      <trkpt lat="46.52319" lon="0.30263">
        <ele>112.6</ele>
        <time>2024-09-22T09:37:51Z</time>
      </trkpt>
      <trkpt lat="46.52311" lon="0.30262">
        <ele>113</ele>
        <time>2024-09-22T09:37:55Z</time>
      </trkpt>
      <trkpt lat="46.52307" lon="0.3026">
        <ele>113.4</ele>
        <time>2024-09-22T09:37:57Z</time>
      </trkpt>
      <trkpt lat="46.52306" lon="0.30259">
        <ele>113.8</ele>
        <time>2024-09-22T09:37:58Z</time>
      </trkpt>
      <trkpt lat="46.52298" lon="0.30253">
        <ele>114.6</ele>
        <time>2024-09-22T09:38:02Z</time>
      </trkpt>
      <trkpt lat="46.52294" lon="0.3025">
        <ele>115</ele>
        <time>2024-09-22T09:38:04Z</time>
      </trkpt>
      <trkpt lat="46.52286" lon="0.30243">
        <ele>116.2</ele>
        <time>2024-09-22T09:38:09Z</time>
      </trkpt>
      <trkpt lat="46.52284" lon="0.30241">
        <ele>116.6</ele>
        <time>2024-09-22T09:38:10Z</time>
      </trkpt>
      <trkpt lat="46.52279" lon="0.30235">
        <ele>117.4</ele>
        <time>2024-09-22T09:38:14Z</time>
      </trkpt>
      <trkpt lat="46.52276" lon="0.30226">
        <ele>118.4</ele>
        <time>2024-09-22T09:38:19Z</time>
      </trkpt>
      <trkpt lat="46.52276" lon="0.30226">
        <ele>118.6</ele>
        <time>2024-09-22T09:38:20Z</time>
      </trkpt>
      <trkpt lat="46.52271" lon="0.30215">
        <ele>119.6</ele>
        <time>2024-09-22T09:38:26Z</time>
      </trkpt>
      <trkpt lat="46.52271" lon="0.30213">
        <ele>119.6</ele>
        <time>2024-09-22T09:38:27Z</time>
      </trkpt>
      <trkpt lat="46.52269" lon="0.30203">
        <ele>120.8</ele>
        <time>2024-09-22T09:38:32Z</time>
      </trkpt>
      <trkpt lat="46.52268" lon="0.30196">
        <ele>121.4</ele>
        <time>2024-09-22T09:38:35Z</time>
      </trkpt>
      <trkpt lat="46.52267" lon="0.30189">
        <ele>121.8</ele>
        <time>2024-09-22T09:38:38Z</time>
      </trkpt>
      <trkpt lat="46.52265" lon="0.30177">
        <ele>122.4</ele>
        <time>2024-09-22T09:38:43Z</time>
      </trkpt>
      <trkpt lat="46.52264" lon="0.30171">
        <ele>122.8</ele>
        <time>2024-09-22T09:38:45Z</time>
      </trkpt>
      <trkpt lat="46.5226" lon="0.30158">
        <ele>123.6</ele>
        <time>2024-09-22T09:38:50Z</time>
      </trkpt>
      <trkpt lat="46.52257" lon="0.30148">
        <ele>123.8</ele>
        <time>2024-09-22T09:38:54Z</time>
      </trkpt>
      <trkpt lat="46.52253" lon="0.30137">
        <ele>124.2</ele>
        <time>2024-09-22T09:38:58Z</time>
      </trkpt>
      <trkpt lat="46.52258" lon="0.30117">
        <ele>124.6</ele>
        <time>2024-09-22T09:39:04Z</time>
      </trkpt>
      <trkpt lat="46.52262" lon="0.30102">
        <ele>125</ele>
        <time>2024-09-22T09:39:08Z</time>
      </trkpt>
      <trkpt lat="46.52264" lon="0.30095">
        <ele>125</ele>
        <time>2024-09-22T09:39:10Z</time>
      </trkpt>
      <trkpt lat="46.52271" lon="0.30072">
        <ele>125</ele>
        <time>2024-09-22T09:39:17Z</time>
      </trkpt>
      <trkpt lat="46.52273" lon="0.30049">
        <ele>124.8</ele>
        <time>2024-09-22T09:39:22Z</time>
      </trkpt>
      <trkpt lat="46.52273" lon="0.30008">
        <ele>124.2</ele>
        <time>2024-09-22T09:39:30Z</time>
      </trkpt>
      <trkpt lat="46.52272" lon="0.29992">
        <ele>123.8</ele>
        <time>2024-09-22T09:39:33Z</time>
      </trkpt>
      <trkpt lat="46.52272" lon="0.29974">
        <ele>122.8</ele>
        <time>2024-09-22T09:39:37Z</time>
      </trkpt>
      <trkpt lat="46.52274" lon="0.29955">
        <ele>121.8</ele>
        <time>2024-09-22T09:39:42Z</time>
      </trkpt>
      <trkpt lat="46.52275" lon="0.2995">
        <ele>121.4</ele>
        <time>2024-09-22T09:39:43Z</time>
      </trkpt>
      <trkpt lat="46.52276" lon="0.29945">
        <ele>121.2</ele>
        <time>2024-09-22T09:39:44Z</time>
      </trkpt>
      <trkpt lat="46.52278" lon="0.29939">
        <ele>121</ele>
        <time>2024-09-22T09:39:45Z</time>
      </trkpt>
      <trkpt lat="46.52278" lon="0.2993">
        <ele>120.4</ele>
        <time>2024-09-22T09:39:47Z</time>
      </trkpt>
      <trkpt lat="46.52277" lon="0.29924">
        <ele>120</ele>
        <time>2024-09-22T09:39:48Z</time>
      </trkpt>
      <trkpt lat="46.52276" lon="0.2991">
        <ele>119.2</ele>
        <time>2024-09-22T09:39:50Z</time>
      </trkpt>
      <trkpt lat="46.52275" lon="0.29904">
        <ele>118.4</ele>
        <time>2024-09-22T09:39:51Z</time>
      </trkpt>
      <trkpt lat="46.52275" lon="0.29899">
        <ele>117.8</ele>
        <time>2024-09-22T09:39:52Z</time>
      </trkpt>
      <trkpt lat="46.52276" lon="0.29894">
        <ele>117</ele>
        <time>2024-09-22T09:39:53Z</time>
      </trkpt>
      <trkpt lat="46.52278" lon="0.29888">
        <ele>116.8</ele>
        <time>2024-09-22T09:39:54Z</time>
      </trkpt>
      <trkpt lat="46.5228" lon="0.29882">
        <ele>116.4</ele>
        <time>2024-09-22T09:39:55Z</time>
      </trkpt>
      <trkpt lat="46.52283" lon="0.29877">
        <ele>116</ele>
        <time>2024-09-22T09:39:56Z</time>
      </trkpt>
      <trkpt lat="46.52285" lon="0.29871">
        <ele>115.6</ele>
        <time>2024-09-22T09:39:57Z</time>
      </trkpt>
      <trkpt lat="46.52288" lon="0.29867">
        <ele>115.4</ele>
        <time>2024-09-22T09:39:58Z</time>
      </trkpt>
      <trkpt lat="46.52295" lon="0.29855">
        <ele>113.2</ele>
        <time>2024-09-22T09:40:01Z</time>
      </trkpt>
      <trkpt lat="46.52297" lon="0.29852">
        <ele>111</ele>
        <time>2024-09-22T09:40:02Z</time>
      </trkpt>
      <trkpt lat="46.52298" lon="0.29849">
        <ele>109.4</ele>
        <time>2024-09-22T09:40:03Z</time>
      </trkpt>
      <trkpt lat="46.523" lon="0.29845">
        <ele>107.4</ele>
        <time>2024-09-22T09:40:04Z</time>
      </trkpt>
      <trkpt lat="46.52304" lon="0.29839">
        <ele>105.8</ele>
        <time>2024-09-22T09:40:06Z</time>
      </trkpt>
      <trkpt lat="46.52306" lon="0.29831">
        <ele>104.4</ele>
        <time>2024-09-22T09:40:08Z</time>
      </trkpt>
      <trkpt lat="46.5231" lon="0.29826">
        <ele>103.4</ele>
        <time>2024-09-22T09:40:10Z</time>
      </trkpt>
      <trkpt lat="46.52311" lon="0.29825">
        <ele>104</ele>
        <time>2024-09-22T09:40:11Z</time>
      </trkpt>
      <trkpt lat="46.52314" lon="0.29824">
        <ele>102</ele>
        <time>2024-09-22T09:40:13Z</time>
      </trkpt>
      <trkpt lat="46.52318" lon="0.29825">
        <ele>100.2</ele>
        <time>2024-09-22T09:40:16Z</time>
      </trkpt>
      <trkpt lat="46.5232" lon="0.29826">
        <ele>99</ele>
        <time>2024-09-22T09:40:17Z</time>
      </trkpt>
      <trkpt lat="46.52322" lon="0.29827">
        <ele>97.4</ele>
        <time>2024-09-22T09:40:18Z</time>
      </trkpt>
      <trkpt lat="46.52324" lon="0.29828">
        <ele>96.2</ele>
        <time>2024-09-22T09:40:19Z</time>
      </trkpt>
      <trkpt lat="46.52328" lon="0.2983">
        <ele>94.4</ele>
        <time>2024-09-22T09:40:21Z</time>
      </trkpt>
      <trkpt lat="46.52334" lon="0.29833">
        <ele>92.4</ele>
        <time>2024-09-22T09:40:23Z</time>
      </trkpt>
      <trkpt lat="46.52337" lon="0.29835">
        <ele>91.2</ele>
        <time>2024-09-22T09:40:24Z</time>
      </trkpt>
      <trkpt lat="46.52342" lon="0.29838">
        <ele>90.2</ele>
        <time>2024-09-22T09:40:26Z</time>
      </trkpt>
      <trkpt lat="46.52346" lon="0.29838">
        <ele>89.8</ele>
        <time>2024-09-22T09:40:28Z</time>
      </trkpt>
      <trkpt lat="46.52346" lon="0.29837">
        <ele>89</ele>
        <time>2024-09-22T09:40:30Z</time>
      </trkpt>
      <trkpt lat="46.52345" lon="0.29835">
        <ele>88.6</ele>
        <time>2024-09-22T09:40:31Z</time>
      </trkpt>
      <trkpt lat="46.52339" lon="0.29818">
        <ele>89.8</ele>
        <time>2024-09-22T09:40:38Z</time>
      </trkpt>
      <trkpt lat="46.52339" lon="0.29816">
        <ele>90.4</ele>
        <time>2024-09-22T09:40:39Z</time>
      </trkpt>
      <trkpt lat="46.52334" lon="0.29802">
        <ele>91.4</ele>
        <time>2024-09-22T09:40:45Z</time>
      </trkpt>
      <trkpt lat="46.52329" lon="0.29791">
        <ele>91.8</ele>
        <time>2024-09-22T09:40:50Z</time>
      </trkpt>
      <trkpt lat="46.52315" lon="0.29775">
        <ele>91.2</ele>
        <time>2024-09-22T09:40:56Z</time>
      </trkpt>
      <trkpt lat="46.52313" lon="0.29771">
        <ele>91</ele>
        <time>2024-09-22T09:40:57Z</time>
      </trkpt>
      <trkpt lat="46.52306" lon="0.29763">
        <ele>90.2</ele>
        <time>2024-09-22T09:40:59Z</time>
      </trkpt>
      <trkpt lat="46.52295" lon="0.2975">
        <ele>89.2</ele>
        <time>2024-09-22T09:41:02Z</time>
      </trkpt>
      <trkpt lat="46.52291" lon="0.29746">
        <ele>89</ele>
        <time>2024-09-22T09:41:03Z</time>
      </trkpt>
      <trkpt lat="46.52283" lon="0.29737">
        <ele>88.8</ele>
        <time>2024-09-22T09:41:05Z</time>
      </trkpt>
      <trkpt lat="46.52278" lon="0.29732">
        <ele>88.8</ele>
        <time>2024-09-22T09:41:07Z</time>
      </trkpt>
      <trkpt lat="46.52268" lon="0.29733">
        <ele>89.2</ele>
        <time>2024-09-22T09:41:12Z</time>
      </trkpt>
      <trkpt lat="46.52256" lon="0.29734">
        <ele>90.2</ele>
        <time>2024-09-22T09:41:18Z</time>
      </trkpt>
      <trkpt lat="46.5225" lon="0.29735">
        <ele>90.8</ele>
        <time>2024-09-22T09:41:20Z</time>
      </trkpt>
      <trkpt lat="46.52241" lon="0.29735">
        <ele>91.2</ele>
        <time>2024-09-22T09:41:23Z</time>
      </trkpt>
      <trkpt lat="46.52231" lon="0.29733">
        <ele>91.4</ele>
        <time>2024-09-22T09:41:26Z</time>
      </trkpt>
      <trkpt lat="46.52208" lon="0.29719">
        <ele>92</ele>
        <time>2024-09-22T09:41:33Z</time>
      </trkpt>
      <trkpt lat="46.522" lon="0.29714">
        <ele>92.2</ele>
        <time>2024-09-22T09:41:36Z</time>
      </trkpt>
      <trkpt lat="46.52188" lon="0.29707">
        <ele>93</ele>
        <time>2024-09-22T09:41:41Z</time>
      </trkpt>
      <trkpt lat="46.52186" lon="0.29705">
        <ele>93.2</ele>
        <time>2024-09-22T09:41:42Z</time>
      </trkpt>
      <trkpt lat="46.52176" lon="0.29698">
        <ele>94.4</ele>
        <time>2024-09-22T09:41:46Z</time>
      </trkpt>
      <trkpt lat="46.52173" lon="0.29697">
        <ele>95</ele>
        <time>2024-09-22T09:41:47Z</time>
      </trkpt>
      <trkpt lat="46.52163" lon="0.29687">
        <ele>95.2</ele>
        <time>2024-09-22T09:41:53Z</time>
      </trkpt>
      <trkpt lat="46.52155" lon="0.29675">
        <ele>94.6</ele>
        <time>2024-09-22T09:41:56Z</time>
      </trkpt>
      <trkpt lat="46.5215" lon="0.29667">
        <ele>94.4</ele>
        <time>2024-09-22T09:41:58Z</time>
      </trkpt>
      <trkpt lat="46.52147" lon="0.29664">
        <ele>94.4</ele>
        <time>2024-09-22T09:41:59Z</time>
      </trkpt>
      <trkpt lat="46.52136" lon="0.29652">
        <ele>94.8</ele>
        <time>2024-09-22T09:42:05Z</time>
      </trkpt>
      <trkpt lat="46.52121" lon="0.29637">
        <ele>94.8</ele>
        <time>2024-09-22T09:42:11Z</time>
      </trkpt>
      <trkpt lat="46.521" lon="0.29613">
        <ele>94.4</ele>
        <time>2024-09-22T09:42:18Z</time>
      </trkpt>
      <trkpt lat="46.52069" lon="0.29588">
        <ele>94.4</ele>
        <time>2024-09-22T09:42:24Z</time>
      </trkpt>
      <trkpt lat="46.52056" lon="0.29577">
        <ele>94.4</ele>
        <time>2024-09-22T09:42:27Z</time>
      </trkpt>
      <trkpt lat="46.52047" lon="0.29573">
        <ele>94.4</ele>
        <time>2024-09-22T09:42:29Z</time>
      </trkpt>
      <trkpt lat="46.52025" lon="0.29566">
        <ele>94.6</ele>
        <time>2024-09-22T09:42:35Z</time>
      </trkpt>
      <trkpt lat="46.5202" lon="0.29565">
        <ele>95.8</ele>
        <time>2024-09-22T09:42:37Z</time>
      </trkpt>
      <trkpt lat="46.52015" lon="0.29564">
        <ele>97.2</ele>
        <time>2024-09-22T09:42:41Z</time>
      </trkpt>
      <trkpt lat="46.52009" lon="0.29563">
        <ele>98.6</ele>
        <time>2024-09-22T09:42:46Z</time>
      </trkpt>
      <trkpt lat="46.52007" lon="0.29563">
        <ele>99.4</ele>
        <time>2024-09-22T09:42:48Z</time>
      </trkpt>
      <trkpt lat="46.52005" lon="0.29562">
        <ele>99.6</ele>
        <time>2024-09-22T09:42:49Z</time>
      </trkpt>
      <trkpt lat="46.52001" lon="0.29563">
        <ele>100.4</ele>
        <time>2024-09-22T09:42:51Z</time>
      </trkpt>
      <trkpt lat="46.51997" lon="0.29561">
        <ele>100.6</ele>
        <time>2024-09-22T09:42:53Z</time>
      </trkpt>
      <trkpt lat="46.51992" lon="0.29559">
        <ele>100.8</ele>
        <time>2024-09-22T09:42:55Z</time>
      </trkpt>
      <trkpt lat="46.51977" lon="0.2954">
        <ele>100.8</ele>
        <time>2024-09-22T09:43:01Z</time>
      </trkpt>
      <trkpt lat="46.51957" lon="0.29512">
        <ele>100.2</ele>
        <time>2024-09-22T09:43:07Z</time>
      </trkpt>
      <trkpt lat="46.51954" lon="0.29507">
        <ele>99.6</ele>
        <time>2024-09-22T09:43:08Z</time>
      </trkpt>
      <trkpt lat="46.51939" lon="0.29489">
        <ele>98.6</ele>
        <time>2024-09-22T09:43:12Z</time>
      </trkpt>
      <trkpt lat="46.51927" lon="0.29474">
        <ele>98.2</ele>
        <time>2024-09-22T09:43:15Z</time>
      </trkpt>
      <trkpt lat="46.51907" lon="0.29457">
        <ele>98.6</ele>
        <time>2024-09-22T09:43:20Z</time>
      </trkpt>
      <trkpt lat="46.51904" lon="0.29453">
        <ele>98.8</ele>
        <time>2024-09-22T09:43:21Z</time>
      </trkpt>
      <trkpt lat="46.51894" lon="0.29434">
        <ele>98.8</ele>
        <time>2024-09-22T09:43:25Z</time>
      </trkpt>
      <trkpt lat="46.51885" lon="0.29411">
        <ele>99.6</ele>
        <time>2024-09-22T09:43:29Z</time>
      </trkpt>
      <trkpt lat="46.51884" lon="0.29405">
        <ele>99.2</ele>
        <time>2024-09-22T09:43:30Z</time>
      </trkpt>
      <trkpt lat="46.51876" lon="0.29384">
        <ele>98.6</ele>
        <time>2024-09-22T09:43:34Z</time>
      </trkpt>
      <trkpt lat="46.51875" lon="0.29379">
        <ele>98.4</ele>
        <time>2024-09-22T09:43:35Z</time>
      </trkpt>
      <trkpt lat="46.51874" lon="0.29373">
        <ele>98.4</ele>
        <time>2024-09-22T09:43:36Z</time>
      </trkpt>
      <trkpt lat="46.51869" lon="0.2935">
        <ele>97.2</ele>
        <time>2024-09-22T09:43:39Z</time>
      </trkpt>
      <trkpt lat="46.51869" lon="0.29335">
        <ele>96.2</ele>
        <time>2024-09-22T09:43:41Z</time>
      </trkpt>
      <trkpt lat="46.51871" lon="0.29324">
        <ele>95</ele>
        <time>2024-09-22T09:43:44Z</time>
      </trkpt>
      <trkpt lat="46.51873" lon="0.29321">
        <ele>94.2</ele>
        <time>2024-09-22T09:43:45Z</time>
      </trkpt>
      <trkpt lat="46.51875" lon="0.29319">
        <ele>93.6</ele>
        <time>2024-09-22T09:43:46Z</time>
      </trkpt>
      <trkpt lat="46.51883" lon="0.29311">
        <ele>93.2</ele>
        <time>2024-09-22T09:43:49Z</time>
      </trkpt>
      <trkpt lat="46.51885" lon="0.29309">
        <ele>93.2</ele>
        <time>2024-09-22T09:43:50Z</time>
      </trkpt>
      <trkpt lat="46.51897" lon="0.29298">
        <ele>93.2</ele>
        <time>2024-09-22T09:43:55Z</time>
      </trkpt>
      <trkpt lat="46.51911" lon="0.29284">
        <ele>93.2</ele>
        <time>2024-09-22T09:44:01Z</time>
      </trkpt>
      <trkpt lat="46.51916" lon="0.29274">
        <ele>93.4</ele>
        <time>2024-09-22T09:44:04Z</time>
      </trkpt>
      <trkpt lat="46.51916" lon="0.29269">
        <ele>93.4</ele>
        <time>2024-09-22T09:44:06Z</time>
      </trkpt>
      <trkpt lat="46.51911" lon="0.29242">
        <ele>94.4</ele>
        <time>2024-09-22T09:44:13Z</time>
      </trkpt>
      <trkpt lat="46.51904" lon="0.29224">
        <ele>94.8</ele>
        <time>2024-09-22T09:44:18Z</time>
      </trkpt>
      <trkpt lat="46.51899" lon="0.29213">
        <ele>95</ele>
        <time>2024-09-22T09:44:21Z</time>
      </trkpt>
      <trkpt lat="46.5189" lon="0.29192">
        <ele>95.8</ele>
        <time>2024-09-22T09:44:26Z</time>
      </trkpt>
      <trkpt lat="46.51888" lon="0.29187">
        <ele>95.6</ele>
        <time>2024-09-22T09:44:27Z</time>
      </trkpt>
      <trkpt lat="46.51882" lon="0.29169">
        <ele>95.8</ele>
        <time>2024-09-22T09:44:31Z</time>
      </trkpt>
      <trkpt lat="46.51877" lon="0.29155">
        <ele>95.8</ele>
        <time>2024-09-22T09:44:34Z</time>
      </trkpt>
      <trkpt lat="46.51862" lon="0.29107">
        <ele>96.6</ele>
        <time>2024-09-22T09:44:42Z</time>
      </trkpt>
      <trkpt lat="46.51857" lon="0.29095">
        <ele>96.8</ele>
        <time>2024-09-22T09:44:44Z</time>
      </trkpt>
      <trkpt lat="46.51847" lon="0.29071">
        <ele>97</ele>
        <time>2024-09-22T09:44:48Z</time>
      </trkpt>
      <trkpt lat="46.51846" lon="0.29066">
        <ele>96.8</ele>
        <time>2024-09-22T09:44:49Z</time>
      </trkpt>
      <trkpt lat="46.51842" lon="0.29051">
        <ele>97</ele>
        <time>2024-09-22T09:44:52Z</time>
      </trkpt>
      <trkpt lat="46.51841" lon="0.29035">
        <ele>97</ele>
        <time>2024-09-22T09:44:55Z</time>
      </trkpt>
      <trkpt lat="46.5184" lon="0.29024">
        <ele>97.8</ele>
        <time>2024-09-22T09:44:57Z</time>
      </trkpt>
      <trkpt lat="46.51841" lon="0.28997">
        <ele>98.4</ele>
        <time>2024-09-22T09:45:02Z</time>
      </trkpt>
      <trkpt lat="46.51841" lon="0.28991">
        <ele>98.4</ele>
        <time>2024-09-22T09:45:03Z</time>
      </trkpt>
      <trkpt lat="46.51834" lon="0.28964">
        <ele>98.6</ele>
        <time>2024-09-22T09:45:07Z</time>
      </trkpt>
      <trkpt lat="46.51831" lon="0.28952">
        <ele>98.8</ele>
        <time>2024-09-22T09:45:09Z</time>
      </trkpt>
      <trkpt lat="46.51829" lon="0.28945">
        <ele>99</ele>
        <time>2024-09-22T09:45:10Z</time>
      </trkpt>
      <trkpt lat="46.51821" lon="0.28917">
        <ele>99.6</ele>
        <time>2024-09-22T09:45:14Z</time>
      </trkpt>
      <trkpt lat="46.51809" lon="0.28863">
        <ele>98.8</ele>
        <time>2024-09-22T09:45:21Z</time>
      </trkpt>
      <trkpt lat="46.51803" lon="0.28815">
        <ele>99.2</ele>
        <time>2024-09-22T09:45:28Z</time>
      </trkpt>
      <trkpt lat="46.51793" lon="0.28769">
        <ele>99.6</ele>
        <time>2024-09-22T09:45:34Z</time>
      </trkpt>
      <trkpt lat="46.51788" lon="0.28735">
        <ele>99.8</ele>
        <time>2024-09-22T09:45:39Z</time>
      </trkpt>
      <trkpt lat="46.51787" lon="0.28727">
        <ele>99.4</ele>
        <time>2024-09-22T09:45:40Z</time>
      </trkpt>
      <trkpt lat="46.5178" lon="0.28694">
        <ele>99.2</ele>
        <time>2024-09-22T09:45:45Z</time>
      </trkpt>
      <trkpt lat="46.5178" lon="0.28688">
        <ele>99.2</ele>
        <time>2024-09-22T09:45:46Z</time>
      </trkpt>
      <trkpt lat="46.51782" lon="0.2868">
        <ele>99.2</ele>
        <time>2024-09-22T09:45:48Z</time>
      </trkpt>
      <trkpt lat="46.51785" lon="0.28678">
        <ele>99.2</ele>
        <time>2024-09-22T09:45:50Z</time>
      </trkpt>
      <trkpt lat="46.51793" lon="0.28669">
        <ele>99.6</ele>
        <time>2024-09-22T09:45:56Z</time>
      </trkpt>
      <trkpt lat="46.51799" lon="0.28659">
        <ele>100</ele>
        <time>2024-09-22T09:45:59Z</time>
      </trkpt>
      <trkpt lat="46.51801" lon="0.28652">
        <ele>100.6</ele>
        <time>2024-09-22T09:46:01Z</time>
      </trkpt>
      <trkpt lat="46.51803" lon="0.28645">
        <ele>101</ele>
        <time>2024-09-22T09:46:03Z</time>
      </trkpt>
      <trkpt lat="46.51802" lon="0.28635">
        <ele>101.2</ele>
        <time>2024-09-22T09:46:05Z</time>
      </trkpt>
      <trkpt lat="46.51797" lon="0.28605">
        <ele>102.2</ele>
        <time>2024-09-22T09:46:10Z</time>
      </trkpt>
      <trkpt lat="46.51797" lon="0.286">
        <ele>102.4</ele>
        <time>2024-09-22T09:46:11Z</time>
      </trkpt>
      <trkpt lat="46.51793" lon="0.28575">
        <ele>103.2</ele>
        <time>2024-09-22T09:46:15Z</time>
      </trkpt>
      <trkpt lat="46.5179" lon="0.2855">
        <ele>104</ele>
        <time>2024-09-22T09:46:19Z</time>
      </trkpt>
      <trkpt lat="46.51788" lon="0.28537">
        <ele>104.4</ele>
        <time>2024-09-22T09:46:21Z</time>
      </trkpt>
      <trkpt lat="46.51784" lon="0.28501">
        <ele>105.8</ele>
        <time>2024-09-22T09:46:27Z</time>
      </trkpt>
      <trkpt lat="46.51783" lon="0.28472">
        <ele>106.8</ele>
        <time>2024-09-22T09:46:32Z</time>
      </trkpt>
      <trkpt lat="46.51782" lon="0.28456">
        <ele>107.2</ele>
        <time>2024-09-22T09:46:35Z</time>
      </trkpt>
      <trkpt lat="46.51782" lon="0.28435">
        <ele>108</ele>
        <time>2024-09-22T09:46:39Z</time>
      </trkpt>
      <trkpt lat="46.51785" lon="0.2841">
        <ele>109</ele>
        <time>2024-09-22T09:46:44Z</time>
      </trkpt>
      <trkpt lat="46.51793" lon="0.28382">
        <ele>110</ele>
        <time>2024-09-22T09:46:51Z</time>
      </trkpt>
      <trkpt lat="46.51794" lon="0.28378">
        <ele>110.4</ele>
        <time>2024-09-22T09:46:52Z</time>
      </trkpt>
      <trkpt lat="46.51802" lon="0.28361">
        <ele>111.4</ele>
        <time>2024-09-22T09:46:57Z</time>
      </trkpt>
      <trkpt lat="46.51804" lon="0.28357">
        <ele>111.6</ele>
        <time>2024-09-22T09:46:58Z</time>
      </trkpt>
      <trkpt lat="46.51811" lon="0.28342">
        <ele>112.4</ele>
        <time>2024-09-22T09:47:03Z</time>
      </trkpt>
      <trkpt lat="46.51817" lon="0.28331">
        <ele>113</ele>
        <time>2024-09-22T09:47:07Z</time>
      </trkpt>
      <trkpt lat="46.5182" lon="0.28326">
        <ele>113.4</ele>
        <time>2024-09-22T09:47:09Z</time>
      </trkpt>
      <trkpt lat="46.51828" lon="0.28311">
        <ele>114.4</ele>
        <time>2024-09-22T09:47:14Z</time>
      </trkpt>
      <trkpt lat="46.51829" lon="0.28308">
        <ele>114.6</ele>
        <time>2024-09-22T09:47:15Z</time>
      </trkpt>
      <trkpt lat="46.51838" lon="0.2829">
        <ele>115.8</ele>
        <time>2024-09-22T09:47:21Z</time>
      </trkpt>
      <trkpt lat="46.51839" lon="0.28286">
        <ele>116</ele>
        <time>2024-09-22T09:47:22Z</time>
      </trkpt>
      <trkpt lat="46.51843" lon="0.28263">
        <ele>116.8</ele>
        <time>2024-09-22T09:47:28Z</time>
      </trkpt>
      <trkpt lat="46.51841" lon="0.28235">
        <ele>117.6</ele>
        <time>2024-09-22T09:47:35Z</time>
      </trkpt>
      <trkpt lat="46.51839" lon="0.28217">
        <ele>118</ele>
        <time>2024-09-22T09:47:39Z</time>
      </trkpt>
      <trkpt lat="46.51837" lon="0.282">
        <ele>118.6</ele>
        <time>2024-09-22T09:47:43Z</time>
      </trkpt>
      <trkpt lat="46.51836" lon="0.28177">
        <ele>119.2</ele>
        <time>2024-09-22T09:47:48Z</time>
      </trkpt>
      <trkpt lat="46.51835" lon="0.28163">
        <ele>119.2</ele>
        <time>2024-09-22T09:47:51Z</time>
      </trkpt>
      <trkpt lat="46.5183" lon="0.28121">
        <ele>118.8</ele>
        <time>2024-09-22T09:47:58Z</time>
      </trkpt>
      <trkpt lat="46.51823" lon="0.28073">
        <ele>118.2</ele>
        <time>2024-09-22T09:48:04Z</time>
      </trkpt>
      <trkpt lat="46.51819" lon="0.28047">
        <ele>118</ele>
        <time>2024-09-22T09:48:08Z</time>
      </trkpt>
      <trkpt lat="46.51813" lon="0.28042">
        <ele>118</ele>
        <time>2024-09-22T09:48:10Z</time>
      </trkpt>
      <trkpt lat="46.51809" lon="0.2804">
        <ele>117.6</ele>
        <time>2024-09-22T09:48:11Z</time>
      </trkpt>
      <trkpt lat="46.51799" lon="0.28036">
        <ele>117</ele>
        <time>2024-09-22T09:48:13Z</time>
      </trkpt>
      <trkpt lat="46.51787" lon="0.28033">
        <ele>116.4</ele>
        <time>2024-09-22T09:48:15Z</time>
      </trkpt>
      <trkpt lat="46.51772" lon="0.28028">
        <ele>115.6</ele>
        <time>2024-09-22T09:48:17Z</time>
      </trkpt>
      <trkpt lat="46.51748" lon="0.28021">
        <ele>114.4</ele>
        <time>2024-09-22T09:48:20Z</time>
      </trkpt>
      <trkpt lat="46.51732" lon="0.28017">
        <ele>113</ele>
        <time>2024-09-22T09:48:22Z</time>
      </trkpt>
      <trkpt lat="46.51718" lon="0.28014">
        <ele>111.4</ele>
        <time>2024-09-22T09:48:24Z</time>
      </trkpt>
      <trkpt lat="46.51713" lon="0.28014">
        <ele>110.8</ele>
        <time>2024-09-22T09:48:25Z</time>
      </trkpt>
      <trkpt lat="46.51707" lon="0.28012">
        <ele>110.4</ele>
        <time>2024-09-22T09:48:27Z</time>
      </trkpt>
      <trkpt lat="46.51704" lon="0.28011">
        <ele>110.2</ele>
        <time>2024-09-22T09:48:28Z</time>
      </trkpt>
      <trkpt lat="46.51703" lon="0.28008">
        <ele>110.2</ele>
        <time>2024-09-22T09:48:29Z</time>
      </trkpt>
      <trkpt lat="46.51702" lon="0.27999">
        <ele>109.8</ele>
        <time>2024-09-22T09:48:31Z</time>
      </trkpt>
      <trkpt lat="46.51698" lon="0.27971">
        <ele>109.4</ele>
        <time>2024-09-22T09:48:35Z</time>
      </trkpt>
      <trkpt lat="46.51691" lon="0.27917">
        <ele>110.2</ele>
        <time>2024-09-22T09:48:43Z</time>
      </trkpt>
      <trkpt lat="46.51685" lon="0.27863">
        <ele>110.6</ele>
        <time>2024-09-22T09:48:52Z</time>
      </trkpt>
      <trkpt lat="46.51681" lon="0.27823">
        <ele>111</ele>
        <time>2024-09-22T09:48:59Z</time>
      </trkpt>
      <trkpt lat="46.51682" lon="0.27818">
        <ele>110.6</ele>
        <time>2024-09-22T09:49:01Z</time>
      </trkpt>
      <trkpt lat="46.51688" lon="0.27811">
        <ele>109.8</ele>
        <time>2024-09-22T09:49:03Z</time>
      </trkpt>
      <trkpt lat="46.51697" lon="0.27804">
        <ele>109.2</ele>
        <time>2024-09-22T09:49:05Z</time>
      </trkpt>
      <trkpt lat="46.51708" lon="0.27797">
        <ele>108.6</ele>
        <time>2024-09-22T09:49:07Z</time>
      </trkpt>
      <trkpt lat="46.51714" lon="0.27794">
        <ele>108.2</ele>
        <time>2024-09-22T09:49:08Z</time>
      </trkpt>
      <trkpt lat="46.5172" lon="0.27793">
        <ele>108</ele>
        <time>2024-09-22T09:49:09Z</time>
      </trkpt>
      <trkpt lat="46.51731" lon="0.27791">
        <ele>108</ele>
        <time>2024-09-22T09:49:11Z</time>
      </trkpt>
      <trkpt lat="46.51774" lon="0.27792">
        <ele>109.2</ele>
        <time>2024-09-22T09:49:19Z</time>
      </trkpt>
      <trkpt lat="46.51794" lon="0.27794">
        <ele>110.6</ele>
        <time>2024-09-22T09:49:23Z</time>
      </trkpt>
      <trkpt lat="46.51808" lon="0.27796">
        <ele>111.2</ele>
        <time>2024-09-22T09:49:26Z</time>
      </trkpt>
      <trkpt lat="46.51817" lon="0.27797">
        <ele>111.6</ele>
        <time>2024-09-22T09:49:28Z</time>
      </trkpt>
      <trkpt lat="46.51844" lon="0.27801">
        <ele>112.6</ele>
        <time>2024-09-22T09:49:34Z</time>
      </trkpt>
      <trkpt lat="46.51849" lon="0.27801">
        <ele>112.8</ele>
        <time>2024-09-22T09:49:35Z</time>
      </trkpt>
      <trkpt lat="46.51861" lon="0.27803">
        <ele>113.6</ele>
        <time>2024-09-22T09:49:38Z</time>
      </trkpt>
      <trkpt lat="46.5188" lon="0.27806">
        <ele>114.4</ele>
        <time>2024-09-22T09:49:43Z</time>
      </trkpt>
      <trkpt lat="46.51883" lon="0.27806">
        <ele>114.8</ele>
        <time>2024-09-22T09:49:44Z</time>
      </trkpt>
      <trkpt lat="46.51903" lon="0.27808">
        <ele>115.8</ele>
        <time>2024-09-22T09:49:49Z</time>
      </trkpt>
      <trkpt lat="46.51913" lon="0.2781">
        <ele>116.2</ele>
        <time>2024-09-22T09:49:52Z</time>
      </trkpt>
      <trkpt lat="46.51924" lon="0.27812">
        <ele>116.8</ele>
        <time>2024-09-22T09:49:55Z</time>
      </trkpt>
      <trkpt lat="46.51945" lon="0.27815">
        <ele>118</ele>
        <time>2024-09-22T09:50:01Z</time>
      </trkpt>
      <trkpt lat="46.51971" lon="0.27822">
        <ele>119</ele>
        <time>2024-09-22T09:50:09Z</time>
      </trkpt>
      <trkpt lat="46.51974" lon="0.27823">
        <ele>119.2</ele>
        <time>2024-09-22T09:50:10Z</time>
      </trkpt>
      <trkpt lat="46.51987" lon="0.27823">
        <ele>119.8</ele>
        <time>2024-09-22T09:50:16Z</time>
      </trkpt>
      <trkpt lat="46.51992" lon="0.27814">
        <ele>120</ele>
        <time>2024-09-22T09:50:19Z</time>
      </trkpt>
      <trkpt lat="46.51993" lon="0.27809">
        <ele>120</ele>
        <time>2024-09-22T09:50:20Z</time>
      </trkpt>
      <trkpt lat="46.51989" lon="0.27779">
        <ele>119.6</ele>
        <time>2024-09-22T09:50:25Z</time>
      </trkpt>
      <trkpt lat="46.51983" lon="0.27748">
        <ele>118.8</ele>
        <time>2024-09-22T09:50:29Z</time>
      </trkpt>
      <trkpt lat="46.5198" lon="0.27731">
        <ele>118.4</ele>
        <time>2024-09-22T09:50:31Z</time>
      </trkpt>
      <trkpt lat="46.51979" lon="0.27712">
        <ele>118.2</ele>
        <time>2024-09-22T09:50:33Z</time>
      </trkpt>
      <trkpt lat="46.51979" lon="0.27675">
        <ele>118.4</ele>
        <time>2024-09-22T09:50:37Z</time>
      </trkpt>
      <trkpt lat="46.51981" lon="0.27604">
        <ele>118.4</ele>
        <time>2024-09-22T09:50:45Z</time>
      </trkpt>
      <trkpt lat="46.51977" lon="0.27581">
        <ele>118.4</ele>
        <time>2024-09-22T09:50:48Z</time>
      </trkpt>
      <trkpt lat="46.51974" lon="0.27568">
        <ele>118.6</ele>
        <time>2024-09-22T09:50:50Z</time>
      </trkpt>
      <trkpt lat="46.51964" lon="0.27546">
        <ele>119.2</ele>
        <time>2024-09-22T09:50:54Z</time>
      </trkpt>
      <trkpt lat="46.51962" lon="0.27541">
        <ele>119.4</ele>
        <time>2024-09-22T09:50:55Z</time>
      </trkpt>
      <trkpt lat="46.51956" lon="0.27532">
        <ele>119.6</ele>
        <time>2024-09-22T09:50:57Z</time>
      </trkpt>
      <trkpt lat="46.51955" lon="0.27523">
        <ele>119.8</ele>
        <time>2024-09-22T09:50:59Z</time>
      </trkpt>
      <trkpt lat="46.51956" lon="0.2752">
        <ele>120.2</ele>
        <time>2024-09-22T09:51:00Z</time>
      </trkpt>
      <trkpt lat="46.5196" lon="0.27518">
        <ele>120.4</ele>
        <time>2024-09-22T09:51:02Z</time>
      </trkpt>
      <trkpt lat="46.51963" lon="0.27518">
        <ele>120.6</ele>
        <time>2024-09-22T09:51:03Z</time>
      </trkpt>
      <trkpt lat="46.51987" lon="0.27526">
        <ele>121</ele>
        <time>2024-09-22T09:51:09Z</time>
      </trkpt>
      <trkpt lat="46.52009" lon="0.27532">
        <ele>121.2</ele>
        <time>2024-09-22T09:51:14Z</time>
      </trkpt>
      <trkpt lat="46.52025" lon="0.27537">
        <ele>121.6</ele>
        <time>2024-09-22T09:51:17Z</time>
      </trkpt>
      <trkpt lat="46.52052" lon="0.27545">
        <ele>122.2</ele>
        <time>2024-09-22T09:51:22Z</time>
      </trkpt>
      <trkpt lat="46.52068" lon="0.2755">
        <ele>121.6</ele>
        <time>2024-09-22T09:51:25Z</time>
      </trkpt>
      <trkpt lat="46.52098" lon="0.27565">
        <ele>121.2</ele>
        <time>2024-09-22T09:51:31Z</time>
      </trkpt>
      <trkpt lat="46.52104" lon="0.27567">
        <ele>121.2</ele>
        <time>2024-09-22T09:51:32Z</time>
      </trkpt>
      <trkpt lat="46.52131" lon="0.27583">
        <ele>121.2</ele>
        <time>2024-09-22T09:51:38Z</time>
      </trkpt>
      <trkpt lat="46.52155" lon="0.276">
        <ele>120.8</ele>
        <time>2024-09-22T09:51:44Z</time>
      </trkpt>
      <trkpt lat="46.52176" lon="0.27618">
        <ele>121</ele>
        <time>2024-09-22T09:51:49Z</time>
      </trkpt>
      <trkpt lat="46.5218" lon="0.27621">
        <ele>121.2</ele>
        <time>2024-09-22T09:51:50Z</time>
      </trkpt>
      <trkpt lat="46.52208" lon="0.2764">
        <ele>121.6</ele>
        <time>2024-09-22T09:51:56Z</time>
      </trkpt>
      <trkpt lat="46.52241" lon="0.27657">
        <ele>122.2</ele>
        <time>2024-09-22T09:52:02Z</time>
      </trkpt>
      <trkpt lat="46.52252" lon="0.27665">
        <ele>122.4</ele>
        <time>2024-09-22T09:52:05Z</time>
      </trkpt>
      <trkpt lat="46.52272" lon="0.2768">
        <ele>123</ele>
        <time>2024-09-22T09:52:11Z</time>
      </trkpt>
      <trkpt lat="46.52276" lon="0.27682">
        <ele>123.2</ele>
        <time>2024-09-22T09:52:12Z</time>
      </trkpt>
      <trkpt lat="46.5228" lon="0.27684">
        <ele>123.4</ele>
        <time>2024-09-22T09:52:13Z</time>
      </trkpt>
      <trkpt lat="46.52284" lon="0.27686">
        <ele>123.6</ele>
        <time>2024-09-22T09:52:14Z</time>
      </trkpt>
      <trkpt lat="46.52296" lon="0.27689">
        <ele>124</ele>
        <time>2024-09-22T09:52:17Z</time>
      </trkpt>
      <trkpt lat="46.52313" lon="0.27692">
        <ele>124.8</ele>
        <time>2024-09-22T09:52:22Z</time>
      </trkpt>
      <trkpt lat="46.52316" lon="0.27693">
        <ele>125</ele>
        <time>2024-09-22T09:52:23Z</time>
      </trkpt>
      <trkpt lat="46.52323" lon="0.27696">
        <ele>125.8</ele>
        <time>2024-09-22T09:52:26Z</time>
      </trkpt>
      <trkpt lat="46.52331" lon="0.27701">
        <ele>126.8</ele>
        <time>2024-09-22T09:52:30Z</time>
      </trkpt>
      <trkpt lat="46.52333" lon="0.27702">
        <ele>127</ele>
        <time>2024-09-22T09:52:31Z</time>
      </trkpt>
      <trkpt lat="46.52341" lon="0.2771">
        <ele>128</ele>
        <time>2024-09-22T09:52:35Z</time>
      </trkpt>
      <trkpt lat="46.5235" lon="0.2772">
        <ele>129.2</ele>
        <time>2024-09-22T09:52:39Z</time>
      </trkpt>
      <trkpt lat="46.52361" lon="0.27731">
        <ele>129.8</ele>
        <time>2024-09-22T09:52:44Z</time>
      </trkpt>
      <trkpt lat="46.52363" lon="0.27734">
        <ele>129.8</ele>
        <time>2024-09-22T09:52:45Z</time>
      </trkpt>
      <trkpt lat="46.52369" lon="0.27747">
        <ele>130.2</ele>
        <time>2024-09-22T09:52:49Z</time>
      </trkpt>
      <trkpt lat="46.52377" lon="0.27758">
        <ele>130.6</ele>
        <time>2024-09-22T09:52:52Z</time>
      </trkpt>
      <trkpt lat="46.52393" lon="0.27774">
        <ele>131.6</ele>
        <time>2024-09-22T09:52:57Z</time>
      </trkpt>
      <trkpt lat="46.52395" lon="0.27778">
        <ele>131.8</ele>
        <time>2024-09-22T09:52:58Z</time>
      </trkpt>
      <trkpt lat="46.52411" lon="0.27799">
        <ele>132.6</ele>
        <time>2024-09-22T09:53:04Z</time>
      </trkpt>
      <trkpt lat="46.52429" lon="0.27818">
        <ele>133.2</ele>
        <time>2024-09-22T09:53:11Z</time>
      </trkpt>
      <trkpt lat="46.52442" lon="0.27832">
        <ele>133.6</ele>
        <time>2024-09-22T09:53:16Z</time>
      </trkpt>
      <trkpt lat="46.52447" lon="0.27838">
        <ele>133.6</ele>
        <time>2024-09-22T09:53:18Z</time>
      </trkpt>
      <trkpt lat="46.52454" lon="0.27846">
        <ele>134.6</ele>
        <time>2024-09-22T09:53:21Z</time>
      </trkpt>
      <trkpt lat="46.52461" lon="0.27858">
        <ele>135.4</ele>
        <time>2024-09-22T09:53:25Z</time>
      </trkpt>
      <trkpt lat="46.52472" lon="0.27875">
        <ele>135.6</ele>
        <time>2024-09-22T09:53:30Z</time>
      </trkpt>
      <trkpt lat="46.52474" lon="0.2788">
        <ele>135.6</ele>
        <time>2024-09-22T09:53:31Z</time>
      </trkpt>
      <trkpt lat="46.5248" lon="0.27891">
        <ele>135.8</ele>
        <time>2024-09-22T09:53:34Z</time>
      </trkpt>
      <trkpt lat="46.52492" lon="0.27907">
        <ele>136.2</ele>
        <time>2024-09-22T09:53:38Z</time>
      </trkpt>
      <trkpt lat="46.52504" lon="0.27925">
        <ele>136.8</ele>
        <time>2024-09-22T09:53:42Z</time>
      </trkpt>
      <trkpt lat="46.52512" lon="0.27937">
        <ele>137</ele>
        <time>2024-09-22T09:53:45Z</time>
      </trkpt>
      <trkpt lat="46.52519" lon="0.27948">
        <ele>137.4</ele>
        <time>2024-09-22T09:53:47Z</time>
      </trkpt>
      <trkpt lat="46.5253" lon="0.27964">
        <ele>136.8</ele>
        <time>2024-09-22T09:53:50Z</time>
      </trkpt>
      <trkpt lat="46.52533" lon="0.2797">
        <ele>137</ele>
        <time>2024-09-22T09:53:51Z</time>
      </trkpt>
      <trkpt lat="46.52535" lon="0.27975">
        <ele>136.8</ele>
        <time>2024-09-22T09:53:52Z</time>
      </trkpt>
      <trkpt lat="46.52549" lon="0.28003">
        <ele>136.6</ele>
        <time>2024-09-22T09:53:57Z</time>
      </trkpt>
      <trkpt lat="46.52557" lon="0.28022">
        <ele>136.6</ele>
        <time>2024-09-22T09:54:00Z</time>
      </trkpt>
      <trkpt lat="46.52571" lon="0.28025">
        <ele>136.6</ele>
        <time>2024-09-22T09:54:04Z</time>
      </trkpt>
      <trkpt lat="46.52577" lon="0.28023">
        <ele>136.6</ele>
        <time>2024-09-22T09:54:05Z</time>
      </trkpt>
      <trkpt lat="46.52602" lon="0.28011">
        <ele>136.8</ele>
        <time>2024-09-22T09:54:09Z</time>
      </trkpt>
      <trkpt lat="46.52612" lon="0.28006">
        <ele>136.8</ele>
        <time>2024-09-22T09:54:11Z</time>
      </trkpt>
      <trkpt lat="46.52623" lon="0.28003">
        <ele>137.2</ele>
        <time>2024-09-22T09:54:13Z</time>
      </trkpt>
      <trkpt lat="46.52657" lon="0.2799">
        <ele>137.6</ele>
        <time>2024-09-22T09:54:19Z</time>
      </trkpt>
      <trkpt lat="46.52662" lon="0.27985">
        <ele>137.6</ele>
        <time>2024-09-22T09:54:20Z</time>
      </trkpt>
      <trkpt lat="46.52666" lon="0.2798">
        <ele>137.6</ele>
        <time>2024-09-22T09:54:21Z</time>
      </trkpt>
      <trkpt lat="46.52672" lon="0.27965">
        <ele>137.8</ele>
        <time>2024-09-22T09:54:24Z</time>
      </trkpt>
      <trkpt lat="46.52673" lon="0.2796">
        <ele>137.8</ele>
        <time>2024-09-22T09:54:25Z</time>
      </trkpt>
      <trkpt lat="46.52673" lon="0.27955">
        <ele>138</ele>
        <time>2024-09-22T09:54:26Z</time>
      </trkpt>
      <trkpt lat="46.52674" lon="0.27945">
        <ele>138.2</ele>
        <time>2024-09-22T09:54:28Z</time>
      </trkpt>
      <trkpt lat="46.52673" lon="0.27937">
        <ele>138.4</ele>
        <time>2024-09-22T09:54:30Z</time>
      </trkpt>
      <trkpt lat="46.52674" lon="0.27924">
        <ele>138.8</ele>
        <time>2024-09-22T09:54:32Z</time>
      </trkpt>
      <trkpt lat="46.52675" lon="0.27919">
        <ele>138.8</ele>
        <time>2024-09-22T09:54:33Z</time>
      </trkpt>
      <trkpt lat="46.52675" lon="0.27915">
        <ele>138.8</ele>
        <time>2024-09-22T09:54:34Z</time>
      </trkpt>
      <trkpt lat="46.52676" lon="0.2791">
        <ele>139</ele>
        <time>2024-09-22T09:54:35Z</time>
      </trkpt>
      <trkpt lat="46.52678" lon="0.27902">
        <ele>139</ele>
        <time>2024-09-22T09:54:37Z</time>
      </trkpt>
      <trkpt lat="46.52685" lon="0.27881">
        <ele>139.4</ele>
        <time>2024-09-22T09:54:41Z</time>
      </trkpt>
      <trkpt lat="46.52692" lon="0.27861">
        <ele>139.4</ele>
        <time>2024-09-22T09:54:45Z</time>
      </trkpt>
      <trkpt lat="46.52694" lon="0.2785">
        <ele>139.6</ele>
        <time>2024-09-22T09:54:47Z</time>
      </trkpt>
      <trkpt lat="46.52704" lon="0.27824">
        <ele>139.6</ele>
        <time>2024-09-22T09:54:52Z</time>
      </trkpt>
      <trkpt lat="46.52715" lon="0.27815">
        <ele>139.8</ele>
        <time>2024-09-22T09:54:56Z</time>
      </trkpt>
      <trkpt lat="46.52732" lon="0.27813">
        <ele>139.6</ele>
        <time>2024-09-22T09:55:00Z</time>
      </trkpt>
      <trkpt lat="46.52737" lon="0.27812">
        <ele>139.6</ele>
        <time>2024-09-22T09:55:01Z</time>
      </trkpt>
      <trkpt lat="46.52741" lon="0.27808">
        <ele>139.6</ele>
        <time>2024-09-22T09:55:02Z</time>
      </trkpt>
      <trkpt lat="46.52751" lon="0.27799">
        <ele>139.8</ele>
        <time>2024-09-22T09:55:04Z</time>
      </trkpt>
      <trkpt lat="46.52755" lon="0.27795">
        <ele>140</ele>
        <time>2024-09-22T09:55:05Z</time>
      </trkpt>
      <trkpt lat="46.52758" lon="0.27789">
        <ele>140</ele>
        <time>2024-09-22T09:55:06Z</time>
      </trkpt>
      <trkpt lat="46.52765" lon="0.27769">
        <ele>140.2</ele>
        <time>2024-09-22T09:55:09Z</time>
      </trkpt>
      <trkpt lat="46.52771" lon="0.27738">
        <ele>140.2</ele>
        <time>2024-09-22T09:55:13Z</time>
      </trkpt>
      <trkpt lat="46.52775" lon="0.27731">
        <ele>140.2</ele>
        <time>2024-09-22T09:55:14Z</time>
      </trkpt>
      <trkpt lat="46.52779" lon="0.27725">
        <ele>140.2</ele>
        <time>2024-09-22T09:55:15Z</time>
      </trkpt>
      <trkpt lat="46.52798" lon="0.27703">
        <ele>140.4</ele>
        <time>2024-09-22T09:55:19Z</time>
      </trkpt>
      <trkpt lat="46.52833" lon="0.27661">
        <ele>140.6</ele>
        <time>2024-09-22T09:55:27Z</time>
      </trkpt>
      <trkpt lat="46.52855" lon="0.27636">
        <ele>140.6</ele>
        <time>2024-09-22T09:55:32Z</time>
      </trkpt>
      <trkpt lat="46.52862" lon="0.27629">
        <ele>140.6</ele>
        <time>2024-09-22T09:55:34Z</time>
      </trkpt>
      <trkpt lat="46.52863" lon="0.27618">
        <ele>140.8</ele>
        <time>2024-09-22T09:55:36Z</time>
      </trkpt>
      <trkpt lat="46.52862" lon="0.27613">
        <ele>140.8</ele>
        <time>2024-09-22T09:55:37Z</time>
      </trkpt>
      <trkpt lat="46.52859" lon="0.27608">
        <ele>140.8</ele>
        <time>2024-09-22T09:55:38Z</time>
      </trkpt>
      <trkpt lat="46.52846" lon="0.27585">
        <ele>140.6</ele>
        <time>2024-09-22T09:55:42Z</time>
      </trkpt>
      <trkpt lat="46.52835" lon="0.27564">
        <ele>141</ele>
        <time>2024-09-22T09:55:45Z</time>
      </trkpt>
      <trkpt lat="46.52819" lon="0.27535">
        <ele>141.4</ele>
        <time>2024-09-22T09:55:49Z</time>
      </trkpt>
      <trkpt lat="46.5279" lon="0.27478">
        <ele>141.6</ele>
        <time>2024-09-22T09:55:57Z</time>
      </trkpt>
      <trkpt lat="46.52788" lon="0.27471">
        <ele>141.6</ele>
        <time>2024-09-22T09:55:58Z</time>
      </trkpt>
      <trkpt lat="46.52784" lon="0.27454">
        <ele>141.6</ele>
        <time>2024-09-22T09:56:00Z</time>
      </trkpt>
      <trkpt lat="46.52784" lon="0.27446">
        <ele>141.6</ele>
        <time>2024-09-22T09:56:01Z</time>
      </trkpt>
      <trkpt lat="46.52784" lon="0.27437">
        <ele>141.6</ele>
        <time>2024-09-22T09:56:02Z</time>
      </trkpt>
      <trkpt lat="46.52786" lon="0.27419">
        <ele>141.8</ele>
        <time>2024-09-22T09:56:04Z</time>
      </trkpt>
      <trkpt lat="46.52789" lon="0.27411">
        <ele>141.8</ele>
        <time>2024-09-22T09:56:05Z</time>
      </trkpt>
      <trkpt lat="46.52806" lon="0.27367">
        <ele>141</ele>
        <time>2024-09-22T09:56:10Z</time>
      </trkpt>
      <trkpt lat="46.52821" lon="0.27325">
        <ele>140</ele>
        <time>2024-09-22T09:56:15Z</time>
      </trkpt>
      <trkpt lat="46.52824" lon="0.27316">
        <ele>139.8</ele>
        <time>2024-09-22T09:56:16Z</time>
      </trkpt>
      <trkpt lat="46.52828" lon="0.27308">
        <ele>139.6</ele>
        <time>2024-09-22T09:56:17Z</time>
      </trkpt>
      <trkpt lat="46.5284" lon="0.27298">
        <ele>139</ele>
        <time>2024-09-22T09:56:19Z</time>
      </trkpt>
      <trkpt lat="46.52846" lon="0.27293">
        <ele>138.8</ele>
        <time>2024-09-22T09:56:20Z</time>
      </trkpt>
      <trkpt lat="46.52857" lon="0.27283">
        <ele>138.6</ele>
        <time>2024-09-22T09:56:22Z</time>
      </trkpt>
      <trkpt lat="46.52868" lon="0.2727">
        <ele>138.6</ele>
        <time>2024-09-22T09:56:24Z</time>
      </trkpt>
      <trkpt lat="46.52873" lon="0.27263">
        <ele>138.6</ele>
        <time>2024-09-22T09:56:25Z</time>
      </trkpt>
      <trkpt lat="46.52887" lon="0.27238">
        <ele>137.2</ele>
        <time>2024-09-22T09:56:28Z</time>
      </trkpt>
      <trkpt lat="46.52894" lon="0.27221">
        <ele>136.4</ele>
        <time>2024-09-22T09:56:30Z</time>
      </trkpt>
      <trkpt lat="46.52897" lon="0.27214">
        <ele>136.2</ele>
        <time>2024-09-22T09:56:31Z</time>
      </trkpt>
      <trkpt lat="46.52901" lon="0.27199">
        <ele>135.8</ele>
        <time>2024-09-22T09:56:33Z</time>
      </trkpt>
      <trkpt lat="46.52903" lon="0.27193">
        <ele>135.2</ele>
        <time>2024-09-22T09:56:34Z</time>
      </trkpt>
      <trkpt lat="46.5291" lon="0.27181">
        <ele>134</ele>
        <time>2024-09-22T09:56:36Z</time>
      </trkpt>
      <trkpt lat="46.52918" lon="0.27164">
        <ele>132.2</ele>
        <time>2024-09-22T09:56:39Z</time>
      </trkpt>
      <trkpt lat="46.52924" lon="0.27156">
        <ele>131</ele>
        <time>2024-09-22T09:56:41Z</time>
      </trkpt>
      <trkpt lat="46.52924" lon="0.27152">
        <ele>130</ele>
        <time>2024-09-22T09:56:43Z</time>
      </trkpt>
      <trkpt lat="46.52916" lon="0.27142">
        <ele>129.8</ele>
        <time>2024-09-22T09:56:47Z</time>
      </trkpt>
      <trkpt lat="46.52902" lon="0.27125">
        <ele>129</ele>
        <time>2024-09-22T09:56:51Z</time>
      </trkpt>
      <trkpt lat="46.52894" lon="0.27114">
        <ele>129</ele>
        <time>2024-09-22T09:56:53Z</time>
      </trkpt>
      <trkpt lat="46.52872" lon="0.27089">
        <ele>130</ele>
        <time>2024-09-22T09:56:58Z</time>
      </trkpt>
      <trkpt lat="46.52863" lon="0.27079">
        <ele>130.2</ele>
        <time>2024-09-22T09:57:00Z</time>
      </trkpt>
      <trkpt lat="46.52838" lon="0.27053">
        <ele>130.6</ele>
        <time>2024-09-22T09:57:06Z</time>
      </trkpt>
      <trkpt lat="46.52813" lon="0.27025">
        <ele>130.4</ele>
        <time>2024-09-22T09:57:12Z</time>
      </trkpt>
      <trkpt lat="46.52805" lon="0.27015">
        <ele>130.4</ele>
        <time>2024-09-22T09:57:14Z</time>
      </trkpt>
      <trkpt lat="46.52775" lon="0.26984">
        <ele>130</ele>
        <time>2024-09-22T09:57:21Z</time>
      </trkpt>
      <trkpt lat="46.52742" lon="0.26942">
        <ele>129.4</ele>
        <time>2024-09-22T09:57:28Z</time>
      </trkpt>
      <trkpt lat="46.52723" lon="0.26905">
        <ele>129.4</ele>
        <time>2024-09-22T09:57:32Z</time>
      </trkpt>
      <trkpt lat="46.52717" lon="0.26896">
        <ele>129</ele>
        <time>2024-09-22T09:57:33Z</time>
      </trkpt>
      <trkpt lat="46.52704" lon="0.26867">
        <ele>127.8</ele>
        <time>2024-09-22T09:57:36Z</time>
      </trkpt>
      <trkpt lat="46.52702" lon="0.2686">
        <ele>126.4</ele>
        <time>2024-09-22T09:57:37Z</time>
      </trkpt>
      <trkpt lat="46.527" lon="0.26852">
        <ele>125.2</ele>
        <time>2024-09-22T09:57:38Z</time>
      </trkpt>
      <trkpt lat="46.52699" lon="0.26845">
        <ele>123.8</ele>
        <time>2024-09-22T09:57:39Z</time>
      </trkpt>
      <trkpt lat="46.52698" lon="0.26838">
        <ele>123</ele>
        <time>2024-09-22T09:57:40Z</time>
      </trkpt>
      <trkpt lat="46.52699" lon="0.26833">
        <ele>122.6</ele>
        <time>2024-09-22T09:57:41Z</time>
      </trkpt>
      <trkpt lat="46.52698" lon="0.26829">
        <ele>122</ele>
        <time>2024-09-22T09:57:42Z</time>
      </trkpt>
      <trkpt lat="46.52697" lon="0.26824">
        <ele>121.4</ele>
        <time>2024-09-22T09:57:43Z</time>
      </trkpt>
      <trkpt lat="46.52696" lon="0.2682">
        <ele>120.6</ele>
        <time>2024-09-22T09:57:44Z</time>
      </trkpt>
      <trkpt lat="46.52694" lon="0.26816">
        <ele>119.6</ele>
        <time>2024-09-22T09:57:45Z</time>
      </trkpt>
      <trkpt lat="46.52692" lon="0.26811">
        <ele>119</ele>
        <time>2024-09-22T09:57:46Z</time>
      </trkpt>
      <trkpt lat="46.52689" lon="0.26805">
        <ele>118.2</ele>
        <time>2024-09-22T09:57:47Z</time>
      </trkpt>
      <trkpt lat="46.52687" lon="0.26799">
        <ele>117.6</ele>
        <time>2024-09-22T09:57:48Z</time>
      </trkpt>
      <trkpt lat="46.52685" lon="0.26794">
        <ele>116.4</ele>
        <time>2024-09-22T09:57:49Z</time>
      </trkpt>
      <trkpt lat="46.5268" lon="0.26781">
        <ele>115.2</ele>
        <time>2024-09-22T09:57:51Z</time>
      </trkpt>
      <trkpt lat="46.52674" lon="0.26766">
        <ele>114.2</ele>
        <time>2024-09-22T09:57:53Z</time>
      </trkpt>
      <trkpt lat="46.52672" lon="0.26759">
        <ele>113.8</ele>
        <time>2024-09-22T09:57:54Z</time>
      </trkpt>
      <trkpt lat="46.52668" lon="0.26744">
        <ele>112.8</ele>
        <time>2024-09-22T09:57:56Z</time>
      </trkpt>
      <trkpt lat="46.52666" lon="0.26738">
        <ele>112.6</ele>
        <time>2024-09-22T09:57:57Z</time>
      </trkpt>
      <trkpt lat="46.52666" lon="0.26732">
        <ele>112.4</ele>
        <time>2024-09-22T09:57:58Z</time>
      </trkpt>
      <trkpt lat="46.52666" lon="0.26717">
        <ele>112</ele>
        <time>2024-09-22T09:58:00Z</time>
      </trkpt>
      <trkpt lat="46.52666" lon="0.26709">
        <ele>111.4</ele>
        <time>2024-09-22T09:58:01Z</time>
      </trkpt>
      <trkpt lat="46.52668" lon="0.26688">
        <ele>110</ele>
        <time>2024-09-22T09:58:04Z</time>
      </trkpt>
      <trkpt lat="46.52669" lon="0.2668">
        <ele>109.4</ele>
        <time>2024-09-22T09:58:05Z</time>
      </trkpt>
      <trkpt lat="46.52672" lon="0.26666">
        <ele>109</ele>
        <time>2024-09-22T09:58:07Z</time>
      </trkpt>
      <trkpt lat="46.52673" lon="0.26653">
        <ele>108.6</ele>
        <time>2024-09-22T09:58:09Z</time>
      </trkpt>
      <trkpt lat="46.52673" lon="0.26647">
        <ele>108.4</ele>
        <time>2024-09-22T09:58:10Z</time>
      </trkpt>
      <trkpt lat="46.52678" lon="0.26621">
        <ele>108.2</ele>
        <time>2024-09-22T09:58:16Z</time>
      </trkpt>
      <trkpt lat="46.52678" lon="0.26614">
        <ele>108.2</ele>
        <time>2024-09-22T09:58:18Z</time>
      </trkpt>
      <trkpt lat="46.52677" lon="0.26604">
        <ele>108.4</ele>
        <time>2024-09-22T09:58:21Z</time>
      </trkpt>
      <trkpt lat="46.52677" lon="0.26601">
        <ele>108.4</ele>
        <time>2024-09-22T09:58:26Z</time>
      </trkpt>
      <trkpt lat="46.52678" lon="0.26601">
        <ele>108.4</ele>
        <time>2024-09-22T09:58:27Z</time>
      </trkpt>
    </trkseg>
  </trk>
</gpx>